﻿<?xml version="1.0" encoding="utf-8" standalone="yes"?>
<gpx version="1.0" creator="CanWay - http://www.canwaygps.com" xmlns:xsi="http://www.w3.org/2001/XMLSchema-instance" xmlns="http://www.topografix.com/GPX/1/0" xsi:schemaLocation="http://www.topografix.com/GPX/1/0 http://www.topografix.com/GPX/1/0/gpx.xsd">
<time>2023-05-14T21:32:55Z</time>
<bounds minlat="47.506441" minlon="8.473971" maxlat="47.557191" maxlon="8.523896" />
<trk>
<name>Hochfelden-Glattfelden-Panzersperre-Höriberg-Hochfelden</name>
<trkseg>
<trkpt lat="47.523517" lon="8.516052">
<ele>406.2</ele>
<time>2003-05-17T08:50:58Z</time>
<speed>1.9</speed>
</trkpt>
<trkpt lat="47.523535" lon="8.516199">
<ele>398.9</ele>
<time>2003-05-17T08:51:04Z</time>
<speed>1.4</speed>
</trkpt>
<trkpt lat="47.523457" lon="8.516342">
<ele>393.3</ele>
<time>2003-05-17T08:51:09Z</time>
<speed>1.4</speed>
</trkpt>
<trkpt lat="47.523444" lon="8.516431">
<ele>394.6</ele>
<time>2003-05-17T08:51:14Z</time>
<speed>1.1</speed>
</trkpt>
<trkpt lat="47.523411" lon="8.516519">
<ele>395.2</ele>
<time>2003-05-17T08:51:19Z</time>
<speed>1.4</speed>
</trkpt>
<trkpt lat="47.523373" lon="8.516590">
<ele>397.7</ele>
<time>2003-05-17T08:51:24Z</time>
<speed>1.1</speed>
</trkpt>
<trkpt lat="47.523330" lon="8.516650">
<ele>398.0</ele>
<time>2003-05-17T08:51:29Z</time>
<speed>1.1</speed>
</trkpt>
<trkpt lat="47.523275" lon="8.516708">
<ele>398.3</ele>
<time>2003-05-17T08:51:34Z</time>
<speed>1.1</speed>
</trkpt>
<trkpt lat="47.523239" lon="8.516770">
<ele>397.9</ele>
<time>2003-05-17T08:51:39Z</time>
<speed>1.1</speed>
</trkpt>
<trkpt lat="47.523214" lon="8.516846">
<ele>397.7</ele>
<time>2003-05-17T08:51:44Z</time>
<speed>1.1</speed>
</trkpt>
<trkpt lat="47.523189" lon="8.516936">
<ele>397.6</ele>
<time>2003-05-17T08:51:49Z</time>
<speed>1.1</speed>
</trkpt>
<trkpt lat="47.523169" lon="8.517041">
<ele>396.9</ele>
<time>2003-05-17T08:51:54Z</time>
<speed>1.4</speed>
</trkpt>
<trkpt lat="47.523160" lon="8.517160">
<ele>397.8</ele>
<time>2003-05-17T08:51:59Z</time>
<speed>1.4</speed>
</trkpt>
<trkpt lat="47.523160" lon="8.517255">
<ele>396.4</ele>
<time>2003-05-17T08:52:04Z</time>
<speed>1.1</speed>
</trkpt>
<trkpt lat="47.523179" lon="8.517338">
<ele>397.2</ele>
<time>2003-05-17T08:52:09Z</time>
<speed>0.8</speed>
</trkpt>
<trkpt lat="47.523205" lon="8.517423">
<ele>397.2</ele>
<time>2003-05-17T08:52:14Z</time>
<speed>1.4</speed>
</trkpt>
<trkpt lat="47.523245" lon="8.517496">
<ele>397.3</ele>
<time>2003-05-17T08:52:19Z</time>
<speed>1.1</speed>
</trkpt>
<trkpt lat="47.523270" lon="8.517596">
<ele>396.0</ele>
<time>2003-05-17T08:52:24Z</time>
<speed>1.4</speed>
</trkpt>
<trkpt lat="47.523296" lon="8.517681">
<ele>396.1</ele>
<time>2003-05-17T08:52:29Z</time>
<speed>1.1</speed>
</trkpt>
<trkpt lat="47.523335" lon="8.517768">
<ele>396.2</ele>
<time>2003-05-17T08:52:34Z</time>
<speed>1.1</speed>
</trkpt>
<trkpt lat="47.523373" lon="8.517854">
<ele>396.4</ele>
<time>2003-05-17T08:52:39Z</time>
<speed>1.4</speed>
</trkpt>
<trkpt lat="47.523407" lon="8.517928">
<ele>395.7</ele>
<time>2003-05-17T08:52:44Z</time>
<speed>1.1</speed>
</trkpt>
<trkpt lat="47.523445" lon="8.518014">
<ele>395.8</ele>
<time>2003-05-17T08:52:49Z</time>
<speed>1.4</speed>
</trkpt>
<trkpt lat="47.523478" lon="8.518101">
<ele>395.2</ele>
<time>2003-05-17T08:52:54Z</time>
<speed>1.1</speed>
</trkpt>
<trkpt lat="47.523504" lon="8.518186">
<ele>395.3</ele>
<time>2003-05-17T08:52:59Z</time>
<speed>1.1</speed>
</trkpt>
<trkpt lat="47.523532" lon="8.518244">
<ele>395.2</ele>
<time>2003-05-17T08:53:04Z</time>
<speed>0.0</speed>
</trkpt>
<trkpt lat="47.523532" lon="8.518244">
<ele>395.2</ele>
<time>2003-05-17T08:53:09Z</time>
<speed>0.0</speed>
</trkpt>
<trkpt lat="47.523532" lon="8.518244">
<ele>395.2</ele>
<time>2003-05-17T08:53:14Z</time>
<speed>0.0</speed>
</trkpt>
<trkpt lat="47.523532" lon="8.518244">
<ele>395.2</ele>
<time>2003-05-17T08:53:19Z</time>
<speed>0.0</speed>
</trkpt>
<trkpt lat="47.523532" lon="8.518244">
<ele>395.2</ele>
<time>2003-05-17T08:53:24Z</time>
<speed>0.0</speed>
</trkpt>
<trkpt lat="47.523561" lon="8.518274">
<ele>396.3</ele>
<time>2003-05-17T08:53:29Z</time>
<speed>0.8</speed>
</trkpt>
<trkpt lat="47.523625" lon="8.518271">
<ele>396.5</ele>
<time>2003-05-17T08:53:34Z</time>
<speed>1.1</speed>
</trkpt>
<trkpt lat="47.523683" lon="8.518268">
<ele>396.0</ele>
<time>2003-05-17T08:53:39Z</time>
<speed>1.1</speed>
</trkpt>
<trkpt lat="47.523729" lon="8.518247">
<ele>396.8</ele>
<time>2003-05-17T08:53:44Z</time>
<speed>0.8</speed>
</trkpt>
<trkpt lat="47.523782" lon="8.518229">
<ele>396.8</ele>
<time>2003-05-17T08:53:49Z</time>
<speed>1.1</speed>
</trkpt>
<trkpt lat="47.523846" lon="8.518226">
<ele>397.1</ele>
<time>2003-05-17T08:53:54Z</time>
<speed>1.1</speed>
</trkpt>
<trkpt lat="47.523916" lon="8.518222">
<ele>398.1</ele>
<time>2003-05-17T08:53:59Z</time>
<speed>1.4</speed>
</trkpt>
<trkpt lat="47.523980" lon="8.518219">
<ele>398.3</ele>
<time>2003-05-17T08:54:04Z</time>
<speed>1.4</speed>
</trkpt>
<trkpt lat="47.524051" lon="8.518203">
<ele>399.2</ele>
<time>2003-05-17T08:54:09Z</time>
<speed>1.4</speed>
</trkpt>
<trkpt lat="47.524123" lon="8.518188">
<ele>398.7</ele>
<time>2003-05-17T08:54:14Z</time>
<speed>1.4</speed>
</trkpt>
<trkpt lat="47.524187" lon="8.518185">
<ele>398.9</ele>
<time>2003-05-17T08:54:19Z</time>
<speed>1.4</speed>
</trkpt>
<trkpt lat="47.524245" lon="8.518182">
<ele>398.5</ele>
<time>2003-05-17T08:54:24Z</time>
<speed>1.1</speed>
</trkpt>
<trkpt lat="47.524322" lon="8.518180">
<ele>398.8</ele>
<time>2003-05-17T08:54:29Z</time>
<speed>1.4</speed>
</trkpt>
<trkpt lat="47.524386" lon="8.518177">
<ele>399.0</ele>
<time>2003-05-17T08:54:34Z</time>
<speed>1.4</speed>
</trkpt>
<trkpt lat="47.524448" lon="8.518200">
<ele>399.5</ele>
<time>2003-05-17T08:54:39Z</time>
<speed>1.4</speed>
</trkpt>
<trkpt lat="47.524518" lon="8.518212">
<ele>399.2</ele>
<time>2003-05-17T08:54:44Z</time>
<speed>1.7</speed>
</trkpt>
<trkpt lat="47.524609" lon="8.518201">
<ele>398.0</ele>
<time>2003-05-17T08:54:49Z</time>
<speed>1.4</speed>
</trkpt>
<trkpt lat="47.524660" lon="8.518209">
<ele>398.3</ele>
<time>2003-05-17T08:54:54Z</time>
<speed>1.1</speed>
</trkpt>
<trkpt lat="47.524716" lon="8.518232">
<ele>398.0</ele>
<time>2003-05-17T08:54:59Z</time>
<speed>1.4</speed>
</trkpt>
<trkpt lat="47.524772" lon="8.518255">
<ele>397.7</ele>
<time>2003-05-17T08:55:04Z</time>
<speed>1.4</speed>
</trkpt>
<trkpt lat="47.524840" lon="8.518280">
<ele>397.5</ele>
<time>2003-05-17T08:55:09Z</time>
<speed>1.4</speed>
</trkpt>
<trkpt lat="47.524905" lon="8.518277">
<ele>397.8</ele>
<time>2003-05-17T08:55:14Z</time>
<speed>1.1</speed>
</trkpt>
<trkpt lat="47.524974" lon="8.518288">
<ele>397.4</ele>
<time>2003-05-17T08:55:19Z</time>
<speed>1.4</speed>
</trkpt>
<trkpt lat="47.525045" lon="8.518287">
<ele>397.0</ele>
<time>2003-05-17T08:55:24Z</time>
<speed>1.4</speed>
</trkpt>
<trkpt lat="47.525129" lon="8.518273">
<ele>398.0</ele>
<time>2003-05-17T08:55:29Z</time>
<speed>1.1</speed>
</trkpt>
<trkpt lat="47.525180" lon="8.518267">
<ele>398.2</ele>
<time>2003-05-17T08:55:34Z</time>
<speed>0.0</speed>
</trkpt>
<trkpt lat="47.525225" lon="8.518275">
<ele>397.7</ele>
<time>2003-05-17T08:55:39Z</time>
<speed>0.8</speed>
</trkpt>
<trkpt lat="47.525307" lon="8.518289">
<ele>397.5</ele>
<time>2003-05-17T08:55:44Z</time>
<speed>1.1</speed>
</trkpt>
<trkpt lat="47.525377" lon="8.518301">
<ele>397.1</ele>
<time>2003-05-17T08:55:49Z</time>
<speed>1.1</speed>
</trkpt>
<trkpt lat="47.525448" lon="8.518299">
<ele>396.7</ele>
<time>2003-05-17T08:55:54Z</time>
<speed>1.1</speed>
</trkpt>
<trkpt lat="47.525524" lon="8.518311">
<ele>397.1</ele>
<time>2003-05-17T08:55:59Z</time>
<speed>1.4</speed>
</trkpt>
<trkpt lat="47.525587" lon="8.518323">
<ele>396.1</ele>
<time>2003-05-17T08:56:04Z</time>
<speed>1.1</speed>
</trkpt>
<trkpt lat="47.525593" lon="8.518323">
<ele>396.8</ele>
<time>2003-05-17T08:56:09Z</time>
<speed>0.0</speed>
</trkpt>
<trkpt lat="47.525651" lon="8.518320">
<ele>396.3</ele>
<time>2003-05-17T08:56:14Z</time>
<speed>1.1</speed>
</trkpt>
<trkpt lat="47.525727" lon="8.518332">
<ele>396.7</ele>
<time>2003-05-17T08:56:19Z</time>
<speed>1.1</speed>
</trkpt>
<trkpt lat="47.525810" lon="8.518332">
<ele>396.4</ele>
<time>2003-05-17T08:56:24Z</time>
<speed>1.4</speed>
</trkpt>
<trkpt lat="47.525861" lon="8.518340">
<ele>396.7</ele>
<time>2003-05-17T08:56:29Z</time>
<speed>0.0</speed>
</trkpt>
<trkpt lat="47.525932" lon="8.518339">
<ele>396.3</ele>
<time>2003-05-17T08:56:34Z</time>
<speed>1.1</speed>
</trkpt>
<trkpt lat="47.526001" lon="8.518351">
<ele>395.9</ele>
<time>2003-05-17T08:56:39Z</time>
<speed>1.1</speed>
</trkpt>
<trkpt lat="47.526085" lon="8.518351">
<ele>395.6</ele>
<time>2003-05-17T08:56:44Z</time>
<speed>1.1</speed>
</trkpt>
<trkpt lat="47.526148" lon="8.518363">
<ele>394.5</ele>
<time>2003-05-17T08:56:49Z</time>
<speed>1.1</speed>
</trkpt>
<trkpt lat="47.526213" lon="8.518360">
<ele>394.8</ele>
<time>2003-05-17T08:56:54Z</time>
<speed>1.1</speed>
</trkpt>
<trkpt lat="47.526269" lon="8.518383">
<ele>394.5</ele>
<time>2003-05-17T08:56:59Z</time>
<speed>0.8</speed>
</trkpt>
<trkpt lat="47.526314" lon="8.518375">
<ele>395.3</ele>
<time>2003-05-17T08:57:04Z</time>
<speed>0.6</speed>
</trkpt>
<trkpt lat="47.526383" lon="8.518387">
<ele>395.0</ele>
<time>2003-05-17T08:57:09Z</time>
<speed>0.8</speed>
</trkpt>
<trkpt lat="47.526447" lon="8.518397">
<ele>395.4</ele>
<time>2003-05-17T08:57:14Z</time>
<speed>1.1</speed>
</trkpt>
<trkpt lat="47.526516" lon="8.518409">
<ele>395.0</ele>
<time>2003-05-17T08:57:19Z</time>
<speed>1.1</speed>
</trkpt>
<trkpt lat="47.526592" lon="8.518421">
<ele>395.5</ele>
<time>2003-05-17T08:57:24Z</time>
<speed>0.8</speed>
</trkpt>
<trkpt lat="47.526617" lon="8.518425">
<ele>395.6</ele>
<time>2003-05-17T08:57:29Z</time>
<speed>0.0</speed>
</trkpt>
<trkpt lat="47.526673" lon="8.518448">
<ele>395.3</ele>
<time>2003-05-17T08:57:34Z</time>
<speed>1.1</speed>
</trkpt>
<trkpt lat="47.526761" lon="8.518476">
<ele>394.5</ele>
<time>2003-05-17T08:57:39Z</time>
<speed>1.4</speed>
</trkpt>
<trkpt lat="47.526842" lon="8.518501">
<ele>395.8</ele>
<time>2003-05-17T08:57:44Z</time>
<speed>1.4</speed>
</trkpt>
<trkpt lat="47.526911" lon="8.518526">
<ele>395.5</ele>
<time>2003-05-17T08:57:49Z</time>
<speed>1.4</speed>
</trkpt>
<trkpt lat="47.526961" lon="8.518547">
<ele>395.9</ele>
<time>2003-05-17T08:57:54Z</time>
<speed>1.1</speed>
</trkpt>
<trkpt lat="47.527011" lon="8.518555">
<ele>396.2</ele>
<time>2003-05-17T08:57:59Z</time>
<speed>0.8</speed>
</trkpt>
<trkpt lat="47.527074" lon="8.518580">
<ele>395.2</ele>
<time>2003-05-17T08:58:04Z</time>
<speed>0.8</speed>
</trkpt>
<trkpt lat="47.527130" lon="8.518603">
<ele>395.0</ele>
<time>2003-05-17T08:58:09Z</time>
<speed>1.1</speed>
</trkpt>
<trkpt lat="47.527198" lon="8.518641">
<ele>394.8</ele>
<time>2003-05-17T08:58:14Z</time>
<speed>1.1</speed>
</trkpt>
<trkpt lat="47.527251" lon="8.518688">
<ele>396.2</ele>
<time>2003-05-17T08:58:19Z</time>
<speed>0.8</speed>
</trkpt>
<trkpt lat="47.527319" lon="8.518725">
<ele>397.4</ele>
<time>2003-05-17T08:58:24Z</time>
<speed>1.1</speed>
</trkpt>
<trkpt lat="47.527380" lon="8.518761">
<ele>398.0</ele>
<time>2003-05-17T08:58:29Z</time>
<speed>0.8</speed>
</trkpt>
<trkpt lat="47.527449" lon="8.518786">
<ele>397.8</ele>
<time>2003-05-17T08:58:34Z</time>
<speed>0.8</speed>
</trkpt>
<trkpt lat="47.527505" lon="8.518809">
<ele>397.5</ele>
<time>2003-05-17T08:58:39Z</time>
<speed>0.8</speed>
</trkpt>
<trkpt lat="47.527554" lon="8.518830">
<ele>397.9</ele>
<time>2003-05-17T08:58:44Z</time>
<speed>0.8</speed>
</trkpt>
<trkpt lat="47.527634" lon="8.518885">
<ele>396.5</ele>
<time>2003-05-17T08:58:49Z</time>
<speed>1.4</speed>
</trkpt>
<trkpt lat="47.527695" lon="8.518921">
<ele>397.1</ele>
<time>2003-05-17T08:58:54Z</time>
<speed>1.1</speed>
</trkpt>
<trkpt lat="47.527750" lon="8.518955">
<ele>398.3</ele>
<time>2003-05-17T08:58:59Z</time>
<speed>1.1</speed>
</trkpt>
<trkpt lat="47.527812" lon="8.518993">
<ele>397.4</ele>
<time>2003-05-17T08:59:04Z</time>
<speed>1.1</speed>
</trkpt>
<trkpt lat="47.527886" lon="8.519033">
<ele>396.6</ele>
<time>2003-05-17T08:59:09Z</time>
<speed>1.1</speed>
</trkpt>
<trkpt lat="47.527961" lon="8.519058">
<ele>397.1</ele>
<time>2003-05-17T08:59:14Z</time>
<speed>1.1</speed>
</trkpt>
<trkpt lat="47.528023" lon="8.519083">
<ele>396.2</ele>
<time>2003-05-17T08:59:19Z</time>
<speed>1.4</speed>
</trkpt>
<trkpt lat="47.528086" lon="8.519106">
<ele>396.6</ele>
<time>2003-05-17T08:59:24Z</time>
<speed>1.4</speed>
</trkpt>
<trkpt lat="47.528153" lon="8.519144">
<ele>396.5</ele>
<time>2003-05-17T08:59:29Z</time>
<speed>1.4</speed>
</trkpt>
<trkpt lat="47.528221" lon="8.519182">
<ele>396.4</ele>
<time>2003-05-17T08:59:34Z</time>
<speed>1.4</speed>
</trkpt>
<trkpt lat="47.528283" lon="8.519205">
<ele>396.9</ele>
<time>2003-05-17T08:59:39Z</time>
<speed>1.4</speed>
</trkpt>
<trkpt lat="47.528346" lon="8.519230">
<ele>395.9</ele>
<time>2003-05-17T08:59:44Z</time>
<speed>1.4</speed>
</trkpt>
<trkpt lat="47.528415" lon="8.519255">
<ele>395.7</ele>
<time>2003-05-17T08:59:49Z</time>
<speed>1.1</speed>
</trkpt>
<trkpt lat="47.528476" lon="8.519291">
<ele>396.2</ele>
<time>2003-05-17T08:59:54Z</time>
<speed>1.1</speed>
</trkpt>
<trkpt lat="47.528533" lon="8.519299">
<ele>397.2</ele>
<time>2003-05-17T08:59:59Z</time>
<speed>1.1</speed>
</trkpt>
<trkpt lat="47.528590" lon="8.519309">
<ele>396.9</ele>
<time>2003-05-17T09:00:04Z</time>
<speed>1.4</speed>
</trkpt>
<trkpt lat="47.528657" lon="8.519362">
<ele>395.4</ele>
<time>2003-05-17T09:00:09Z</time>
<speed>1.4</speed>
</trkpt>
<trkpt lat="47.528731" lon="8.519402">
<ele>394.6</ele>
<time>2003-05-17T09:00:14Z</time>
<speed>1.4</speed>
</trkpt>
<trkpt lat="47.528793" lon="8.519425">
<ele>395.1</ele>
<time>2003-05-17T09:00:19Z</time>
<speed>1.4</speed>
</trkpt>
<trkpt lat="47.528823" lon="8.519457">
<ele>394.8</ele>
<time>2003-05-17T09:00:24Z</time>
<speed>0.0</speed>
</trkpt>
<trkpt lat="47.528866" lon="8.519491">
<ele>394.5</ele>
<time>2003-05-17T09:00:29Z</time>
<speed>0.6</speed>
</trkpt>
<trkpt lat="47.528915" lon="8.519512">
<ele>394.9</ele>
<time>2003-05-17T09:00:34Z</time>
<speed>0.8</speed>
</trkpt>
<trkpt lat="47.528978" lon="8.519535">
<ele>395.3</ele>
<time>2003-05-17T09:00:39Z</time>
<speed>0.8</speed>
</trkpt>
<trkpt lat="47.529039" lon="8.519571">
<ele>395.9</ele>
<time>2003-05-17T09:00:44Z</time>
<speed>0.8</speed>
</trkpt>
<trkpt lat="47.529108" lon="8.519583">
<ele>395.6</ele>
<time>2003-05-17T09:00:49Z</time>
<speed>1.1</speed>
</trkpt>
<trkpt lat="47.529191" lon="8.519597">
<ele>395.3</ele>
<time>2003-05-17T09:00:54Z</time>
<speed>1.4</speed>
</trkpt>
<trkpt lat="47.529265" lon="8.519635">
<ele>395.9</ele>
<time>2003-05-17T09:00:59Z</time>
<speed>1.1</speed>
</trkpt>
<trkpt lat="47.529321" lon="8.519658">
<ele>395.7</ele>
<time>2003-05-17T09:01:04Z</time>
<speed>0.8</speed>
</trkpt>
<trkpt lat="47.529377" lon="8.519681">
<ele>395.4</ele>
<time>2003-05-17T09:01:09Z</time>
<speed>0.8</speed>
</trkpt>
<trkpt lat="47.529440" lon="8.519691">
<ele>395.7</ele>
<time>2003-05-17T09:01:14Z</time>
<speed>0.8</speed>
</trkpt>
<trkpt lat="47.529483" lon="8.519725">
<ele>395.5</ele>
<time>2003-05-17T09:01:19Z</time>
<speed>0.0</speed>
</trkpt>
<trkpt lat="47.529526" lon="8.519746">
<ele>395.1</ele>
<time>2003-05-17T09:01:24Z</time>
<speed>0.6</speed>
</trkpt>
<trkpt lat="47.529589" lon="8.519756">
<ele>395.4</ele>
<time>2003-05-17T09:01:29Z</time>
<speed>0.8</speed>
</trkpt>
<trkpt lat="47.529658" lon="8.519780">
<ele>395.2</ele>
<time>2003-05-17T09:01:34Z</time>
<speed>0.8</speed>
</trkpt>
<trkpt lat="47.529720" lon="8.519819">
<ele>394.4</ele>
<time>2003-05-17T09:01:39Z</time>
<speed>0.8</speed>
</trkpt>
<trkpt lat="47.529794" lon="8.519859">
<ele>393.6</ele>
<time>2003-05-17T09:01:44Z</time>
<speed>1.1</speed>
</trkpt>
<trkpt lat="47.529856" lon="8.519882">
<ele>394.0</ele>
<time>2003-05-17T09:01:49Z</time>
<speed>1.1</speed>
</trkpt>
<trkpt lat="47.529912" lon="8.519905">
<ele>393.7</ele>
<time>2003-05-17T09:01:54Z</time>
<speed>0.6</speed>
</trkpt>
<trkpt lat="47.529967" lon="8.519941">
<ele>393.6</ele>
<time>2003-05-17T09:01:59Z</time>
<speed>0.8</speed>
</trkpt>
<trkpt lat="47.530024" lon="8.519964">
<ele>393.3</ele>
<time>2003-05-17T09:02:04Z</time>
<speed>0.6</speed>
</trkpt>
<trkpt lat="47.530073" lon="8.519985">
<ele>393.6</ele>
<time>2003-05-17T09:02:09Z</time>
<speed>0.6</speed>
</trkpt>
<trkpt lat="47.530128" lon="8.520021">
<ele>393.5</ele>
<time>2003-05-17T09:02:14Z</time>
<speed>0.6</speed>
</trkpt>
<trkpt lat="47.530191" lon="8.520046">
<ele>392.5</ele>
<time>2003-05-17T09:02:19Z</time>
<speed>0.8</speed>
</trkpt>
<trkpt lat="47.530265" lon="8.520086">
<ele>391.7</ele>
<time>2003-05-17T09:02:24Z</time>
<speed>1.1</speed>
</trkpt>
<trkpt lat="47.530339" lon="8.520124">
<ele>392.3</ele>
<time>2003-05-17T09:02:29Z</time>
<speed>0.8</speed>
</trkpt>
<trkpt lat="47.530394" lon="8.520160">
<ele>392.2</ele>
<time>2003-05-17T09:02:34Z</time>
<speed>1.1</speed>
</trkpt>
<trkpt lat="47.530441" lon="8.520222">
<ele>391.4</ele>
<time>2003-05-17T09:02:39Z</time>
<speed>1.1</speed>
</trkpt>
<trkpt lat="47.530467" lon="8.520307">
<ele>391.5</ele>
<time>2003-05-17T09:02:44Z</time>
<speed>1.1</speed>
</trkpt>
<trkpt lat="47.530467" lon="8.520401">
<ele>391.5</ele>
<time>2003-05-17T09:02:49Z</time>
<speed>1.4</speed>
</trkpt>
<trkpt lat="47.530435" lon="8.520489">
<ele>392.1</ele>
<time>2003-05-17T09:02:54Z</time>
<speed>1.1</speed>
</trkpt>
<trkpt lat="47.530398" lon="8.520549">
<ele>393.1</ele>
<time>2003-05-17T09:02:59Z</time>
<speed>0.8</speed>
</trkpt>
<trkpt lat="47.530366" lon="8.520637">
<ele>393.7</ele>
<time>2003-05-17T09:03:04Z</time>
<speed>1.4</speed>
</trkpt>
<trkpt lat="47.530380" lon="8.520706">
<ele>393.6</ele>
<time>2003-05-17T09:03:09Z</time>
<speed>0.8</speed>
</trkpt>
<trkpt lat="47.530427" lon="8.520767">
<ele>394.3</ele>
<time>2003-05-17T09:03:14Z</time>
<speed>1.1</speed>
</trkpt>
<trkpt lat="47.530474" lon="8.520814">
<ele>394.8</ele>
<time>2003-05-17T09:03:19Z</time>
<speed>1.1</speed>
</trkpt>
<trkpt lat="47.530528" lon="8.520863">
<ele>394.8</ele>
<time>2003-05-17T09:03:24Z</time>
<speed>1.1</speed>
</trkpt>
<trkpt lat="47.530569" lon="8.520923">
<ele>394.7</ele>
<time>2003-05-17T09:03:29Z</time>
<speed>0.8</speed>
</trkpt>
<trkpt lat="47.530609" lon="8.520982">
<ele>396.0</ele>
<time>2003-05-17T09:03:34Z</time>
<speed>0.6</speed>
</trkpt>
<trkpt lat="47.530664" lon="8.521018">
<ele>395.9</ele>
<time>2003-05-17T09:03:39Z</time>
<speed>0.6</speed>
</trkpt>
<trkpt lat="47.530707" lon="8.521052">
<ele>395.6</ele>
<time>2003-05-17T09:03:45Z</time>
<speed>0.6</speed>
</trkpt>
<trkpt lat="47.530762" lon="8.521088">
<ele>395.4</ele>
<time>2003-05-17T09:03:50Z</time>
<speed>0.8</speed>
</trkpt>
<trkpt lat="47.530835" lon="8.521139">
<ele>396.1</ele>
<time>2003-05-17T09:03:55Z</time>
<speed>1.1</speed>
</trkpt>
<trkpt lat="47.530895" lon="8.521189">
<ele>396.8</ele>
<time>2003-05-17T09:04:00Z</time>
<speed>0.8</speed>
</trkpt>
<trkpt lat="47.530930" lon="8.521234">
<ele>397.3</ele>
<time>2003-05-17T09:04:05Z</time>
<speed>0.8</speed>
</trkpt>
<trkpt lat="47.530982" lon="8.521309">
<ele>397.4</ele>
<time>2003-05-17T09:04:10Z</time>
<speed>0.8</speed>
</trkpt>
<trkpt lat="47.531021" lon="8.521381">
<ele>398.8</ele>
<time>2003-05-17T09:04:15Z</time>
<speed>0.8</speed>
</trkpt>
<trkpt lat="47.531054" lon="8.521455">
<ele>398.2</ele>
<time>2003-05-17T09:04:20Z</time>
<speed>0.8</speed>
</trkpt>
<trkpt lat="47.531076" lon="8.521511">
<ele>398.7</ele>
<time>2003-05-17T09:04:25Z</time>
<speed>0.6</speed>
</trkpt>
<trkpt lat="47.531109" lon="8.521583">
<ele>399.4</ele>
<time>2003-05-17T09:04:30Z</time>
<speed>0.8</speed>
</trkpt>
<trkpt lat="47.531161" lon="8.521658">
<ele>399.5</ele>
<time>2003-05-17T09:04:35Z</time>
<speed>0.6</speed>
</trkpt>
<trkpt lat="47.531222" lon="8.521694">
<ele>400.1</ele>
<time>2003-05-17T09:04:40Z</time>
<speed>0.6</speed>
</trkpt>
<trkpt lat="47.531264" lon="8.521741">
<ele>399.9</ele>
<time>2003-05-17T09:04:45Z</time>
<speed>0.6</speed>
</trkpt>
<trkpt lat="47.531324" lon="8.521791">
<ele>400.6</ele>
<time>2003-05-17T09:04:50Z</time>
<speed>0.6</speed>
</trkpt>
<trkpt lat="47.531364" lon="8.521849">
<ele>401.9</ele>
<time>2003-05-17T09:04:55Z</time>
<speed>0.6</speed>
</trkpt>
<trkpt lat="47.531431" lon="8.521900">
<ele>401.9</ele>
<time>2003-05-17T09:05:00Z</time>
<speed>0.8</speed>
</trkpt>
<trkpt lat="47.531459" lon="8.521959">
<ele>401.8</ele>
<time>2003-05-17T09:05:05Z</time>
<speed>0.8</speed>
</trkpt>
<trkpt lat="47.531532" lon="8.522012">
<ele>401.1</ele>
<time>2003-05-17T09:05:10Z</time>
<speed>1.1</speed>
</trkpt>
<trkpt lat="47.531599" lon="8.522048">
<ele>402.4</ele>
<time>2003-05-17T09:05:15Z</time>
<speed>1.1</speed>
</trkpt>
<trkpt lat="47.531667" lon="8.522086">
<ele>402.2</ele>
<time>2003-05-17T09:05:20Z</time>
<speed>1.1</speed>
</trkpt>
<trkpt lat="47.531728" lon="8.522122">
<ele>402.8</ele>
<time>2003-05-17T09:05:25Z</time>
<speed>0.8</speed>
</trkpt>
<trkpt lat="47.531783" lon="8.522158">
<ele>402.6</ele>
<time>2003-05-17T09:05:30Z</time>
<speed>0.8</speed>
</trkpt>
<trkpt lat="47.531811" lon="8.522217">
<ele>402.5</ele>
<time>2003-05-17T09:05:35Z</time>
<speed>0.6</speed>
</trkpt>
<trkpt lat="47.531859" lon="8.522264">
<ele>403.1</ele>
<time>2003-05-17T09:05:40Z</time>
<speed>1.1</speed>
</trkpt>
<trkpt lat="47.531938" lon="8.522317">
<ele>403.1</ele>
<time>2003-05-17T09:05:45Z</time>
<speed>0.8</speed>
</trkpt>
<trkpt lat="47.532012" lon="8.522370">
<ele>402.4</ele>
<time>2003-05-17T09:05:50Z</time>
<speed>0.6</speed>
</trkpt>
<trkpt lat="47.532047" lon="8.522418">
<ele>401.5</ele>
<time>2003-05-17T09:05:55Z</time>
<speed>0.3</speed>
</trkpt>
<trkpt lat="47.532089" lon="8.522465">
<ele>401.4</ele>
<time>2003-05-17T09:06:00Z</time>
<speed>0.6</speed>
</trkpt>
<trkpt lat="47.532150" lon="8.522501">
<ele>401.9</ele>
<time>2003-05-17T09:06:05Z</time>
<speed>1.1</speed>
</trkpt>
<trkpt lat="47.532203" lon="8.522563">
<ele>401.9</ele>
<time>2003-05-17T09:06:10Z</time>
<speed>0.8</speed>
</trkpt>
<trkpt lat="47.532265" lon="8.522602">
<ele>401.1</ele>
<time>2003-05-17T09:06:15Z</time>
<speed>0.3</speed>
</trkpt>
<trkpt lat="47.532331" lon="8.522653">
<ele>401.1</ele>
<time>2003-05-17T09:06:20Z</time>
<speed>0.8</speed>
</trkpt>
<trkpt lat="47.532380" lon="8.522672">
<ele>402.8</ele>
<time>2003-05-17T09:06:25Z</time>
<speed>0.8</speed>
</trkpt>
<trkpt lat="47.532441" lon="8.522723">
<ele>402.1</ele>
<time>2003-05-17T09:06:30Z</time>
<speed>1.1</speed>
</trkpt>
<trkpt lat="47.532515" lon="8.522763">
<ele>401.3</ele>
<time>2003-05-17T09:06:35Z</time>
<speed>0.8</speed>
</trkpt>
<trkpt lat="47.532561" lon="8.522837">
<ele>402.1</ele>
<time>2003-05-17T09:06:40Z</time>
<speed>0.8</speed>
</trkpt>
<trkpt lat="47.532608" lon="8.522897">
<ele>402.8</ele>
<time>2003-05-17T09:06:45Z</time>
<speed>0.8</speed>
</trkpt>
<trkpt lat="47.532662" lon="8.522946">
<ele>402.7</ele>
<time>2003-05-17T09:06:50Z</time>
<speed>0.8</speed>
</trkpt>
<trkpt lat="47.532729" lon="8.522997">
<ele>402.7</ele>
<time>2003-05-17T09:06:55Z</time>
<speed>1.1</speed>
</trkpt>
<trkpt lat="47.532783" lon="8.523047">
<ele>402.6</ele>
<time>2003-05-17T09:07:00Z</time>
<speed>1.1</speed>
</trkpt>
<trkpt lat="47.532838" lon="8.523083">
<ele>402.4</ele>
<time>2003-05-17T09:07:05Z</time>
<speed>0.8</speed>
</trkpt>
<trkpt lat="47.532892" lon="8.523132">
<ele>402.3</ele>
<time>2003-05-17T09:07:10Z</time>
<speed>1.1</speed>
</trkpt>
<trkpt lat="47.532953" lon="8.523183">
<ele>401.5</ele>
<time>2003-05-17T09:07:15Z</time>
<speed>1.1</speed>
</trkpt>
<trkpt lat="47.533014" lon="8.523219">
<ele>402.1</ele>
<time>2003-05-17T09:07:20Z</time>
<speed>0.8</speed>
</trkpt>
<trkpt lat="47.533081" lon="8.523255">
<ele>403.4</ele>
<time>2003-05-17T09:07:25Z</time>
<speed>1.1</speed>
</trkpt>
<trkpt lat="47.533129" lon="8.523303">
<ele>404.0</ele>
<time>2003-05-17T09:07:30Z</time>
<speed>1.1</speed>
</trkpt>
<trkpt lat="47.533156" lon="8.523359">
<ele>405.2</ele>
<time>2003-05-17T09:07:35Z</time>
<speed>0.8</speed>
</trkpt>
<trkpt lat="47.533216" lon="8.523424">
<ele>404.6</ele>
<time>2003-05-17T09:07:40Z</time>
<speed>1.4</speed>
</trkpt>
<trkpt lat="47.533277" lon="8.523460">
<ele>405.1</ele>
<time>2003-05-17T09:07:45Z</time>
<speed>0.8</speed>
</trkpt>
<trkpt lat="47.533337" lon="8.523509">
<ele>405.8</ele>
<time>2003-05-17T09:07:50Z</time>
<speed>1.1</speed>
</trkpt>
<trkpt lat="47.533379" lon="8.523556">
<ele>405.6</ele>
<time>2003-05-17T09:07:55Z</time>
<speed>1.1</speed>
</trkpt>
<trkpt lat="47.533439" lon="8.523605">
<ele>406.3</ele>
<time>2003-05-17T09:08:00Z</time>
<speed>0.8</speed>
</trkpt>
<trkpt lat="47.533494" lon="8.523641">
<ele>406.1</ele>
<time>2003-05-17T09:08:05Z</time>
<speed>0.6</speed>
</trkpt>
<trkpt lat="47.533543" lon="8.523676">
<ele>406.6</ele>
<time>2003-05-17T09:08:10Z</time>
<speed>0.6</speed>
</trkpt>
<trkpt lat="47.533598" lon="8.523712">
<ele>406.4</ele>
<time>2003-05-17T09:08:15Z</time>
<speed>0.6</speed>
</trkpt>
<trkpt lat="47.533645" lon="8.523759">
<ele>407.0</ele>
<time>2003-05-17T09:08:20Z</time>
<speed>1.1</speed>
</trkpt>
<trkpt lat="47.533714" lon="8.523782">
<ele>408.1</ele>
<time>2003-05-17T09:08:25Z</time>
<speed>0.6</speed>
</trkpt>
<trkpt lat="47.533784" lon="8.523779">
<ele>409.1</ele>
<time>2003-05-17T09:08:30Z</time>
<speed>0.6</speed>
</trkpt>
<trkpt lat="47.533832" lon="8.523811">
<ele>411.0</ele>
<time>2003-05-17T09:08:35Z</time>
<speed>0.3</speed>
</trkpt>
<trkpt lat="47.533888" lon="8.523817">
<ele>413.4</ele>
<time>2003-05-17T09:08:40Z</time>
<speed>0.3</speed>
</trkpt>
<trkpt lat="47.533945" lon="8.523827">
<ele>413.0</ele>
<time>2003-05-17T09:08:45Z</time>
<speed>0.3</speed>
</trkpt>
<trkpt lat="47.534023" lon="8.523812">
<ele>413.3</ele>
<time>2003-05-17T09:08:50Z</time>
<speed>0.6</speed>
</trkpt>
<trkpt lat="47.534094" lon="8.523811">
<ele>412.9</ele>
<time>2003-05-17T09:08:55Z</time>
<speed>0.6</speed>
</trkpt>
<trkpt lat="47.534161" lon="8.523847">
<ele>414.1</ele>
<time>2003-05-17T09:09:00Z</time>
<speed>0.6</speed>
</trkpt>
<trkpt lat="47.534221" lon="8.523896">
<ele>414.8</ele>
<time>2003-05-17T09:09:05Z</time>
<speed>0.8</speed>
</trkpt>
<trkpt lat="47.534286" lon="8.523878">
<ele>416.3</ele>
<time>2003-05-17T09:09:10Z</time>
<speed>0.3</speed>
</trkpt>
<trkpt lat="47.534352" lon="8.523848">
<ele>416.4</ele>
<time>2003-05-17T09:09:15Z</time>
<speed>0.3</speed>
</trkpt>
<trkpt lat="47.534423" lon="8.523832">
<ele>417.3</ele>
<time>2003-05-17T09:09:20Z</time>
<speed>0.6</speed>
</trkpt>
<trkpt lat="47.534522" lon="8.523793">
<ele>418.1</ele>
<time>2003-05-17T09:09:25Z</time>
<speed>0.8</speed>
</trkpt>
<trkpt lat="47.534593" lon="8.523777">
<ele>419.0</ele>
<time>2003-05-17T09:09:30Z</time>
<speed>0.8</speed>
</trkpt>
<trkpt lat="47.534664" lon="8.523760">
<ele>419.9</ele>
<time>2003-05-17T09:09:35Z</time>
<speed>0.6</speed>
</trkpt>
<trkpt lat="47.534703" lon="8.523753">
<ele>420.0</ele>
<time>2003-05-17T09:09:40Z</time>
<speed>0.6</speed>
</trkpt>
<trkpt lat="47.534743" lon="8.523733">
<ele>420.0</ele>
<time>2003-05-17T09:09:45Z</time>
<speed>0.8</speed>
</trkpt>
<trkpt lat="47.534828" lon="8.523705">
<ele>420.9</ele>
<time>2003-05-17T09:09:50Z</time>
<speed>0.6</speed>
</trkpt>
<trkpt lat="47.534899" lon="8.523689">
<ele>421.7</ele>
<time>2003-05-17T09:09:55Z</time>
<speed>0.6</speed>
</trkpt>
<trkpt lat="47.534963" lon="8.523670">
<ele>423.3</ele>
<time>2003-05-17T09:10:00Z</time>
<speed>0.6</speed>
</trkpt>
<trkpt lat="47.535021" lon="8.523665">
<ele>424.2</ele>
<time>2003-05-17T09:10:05Z</time>
<speed>0.3</speed>
</trkpt>
<trkpt lat="47.535061" lon="8.523645">
<ele>424.2</ele>
<time>2003-05-17T09:10:10Z</time>
<speed>0.3</speed>
</trkpt>
<trkpt lat="47.535081" lon="8.523633">
<ele>424.9</ele>
<time>2003-05-17T09:10:15Z</time>
<speed>0.3</speed>
</trkpt>
<trkpt lat="47.535133" lon="8.523615">
<ele>425.0</ele>
<time>2003-05-17T09:10:20Z</time>
<speed>0.0</speed>
</trkpt>
<trkpt lat="47.535197" lon="8.523612">
<ele>425.3</ele>
<time>2003-05-17T09:10:25Z</time>
<speed>0.6</speed>
</trkpt>
<trkpt lat="47.535250" lon="8.523593">
<ele>425.3</ele>
<time>2003-05-17T09:10:30Z</time>
<speed>0.6</speed>
</trkpt>
<trkpt lat="47.535320" lon="8.523592">
<ele>424.9</ele>
<time>2003-05-17T09:10:35Z</time>
<speed>0.3</speed>
</trkpt>
<trkpt lat="47.535400" lon="8.523551">
<ele>425.0</ele>
<time>2003-05-17T09:10:40Z</time>
<speed>0.3</speed>
</trkpt>
<trkpt lat="47.535466" lon="8.523537">
<ele>423.7</ele>
<time>2003-05-17T09:10:45Z</time>
<speed>0.6</speed>
</trkpt>
<trkpt lat="47.535533" lon="8.523494">
<ele>423.6</ele>
<time>2003-05-17T09:10:50Z</time>
<speed>0.3</speed>
</trkpt>
<trkpt lat="47.535598" lon="8.523478">
<ele>423.8</ele>
<time>2003-05-17T09:10:55Z</time>
<speed>0.8</speed>
</trkpt>
<trkpt lat="47.535684" lon="8.523437">
<ele>424.6</ele>
<time>2003-05-17T09:11:00Z</time>
<speed>0.6</speed>
</trkpt>
<trkpt lat="47.535791" lon="8.523374">
<ele>424.5</ele>
<time>2003-05-17T09:11:05Z</time>
<speed>0.6</speed>
</trkpt>
<trkpt lat="47.535864" lon="8.523333">
<ele>423.8</ele>
<time>2003-05-17T09:11:10Z</time>
<speed>0.8</speed>
</trkpt>
<trkpt lat="47.535952" lon="8.523281">
<ele>423.0</ele>
<time>2003-05-17T09:11:15Z</time>
<speed>0.6</speed>
</trkpt>
<trkpt lat="47.536027" lon="8.523229">
<ele>420.8</ele>
<time>2003-05-17T09:11:20Z</time>
<speed>0.8</speed>
</trkpt>
<trkpt lat="47.536089" lon="8.523174">
<ele>419.9</ele>
<time>2003-05-17T09:11:25Z</time>
<speed>0.6</speed>
</trkpt>
<trkpt lat="47.536171" lon="8.523109">
<ele>418.4</ele>
<time>2003-05-17T09:11:30Z</time>
<speed>0.8</speed>
</trkpt>
<trkpt lat="47.536233" lon="8.523053">
<ele>417.5</ele>
<time>2003-05-17T09:11:35Z</time>
<speed>0.6</speed>
</trkpt>
<trkpt lat="47.536269" lon="8.523006">
<ele>416.5</ele>
<time>2003-05-17T09:11:40Z</time>
<speed>0.6</speed>
</trkpt>
<trkpt lat="47.536306" lon="8.522948">
<ele>414.1</ele>
<time>2003-05-17T09:11:45Z</time>
<speed>0.6</speed>
</trkpt>
<trkpt lat="47.536363" lon="8.522879">
<ele>412.4</ele>
<time>2003-05-17T09:11:50Z</time>
<speed>0.8</speed>
</trkpt>
<trkpt lat="47.536434" lon="8.522801">
<ele>409.2</ele>
<time>2003-05-17T09:11:55Z</time>
<speed>0.8</speed>
</trkpt>
<trkpt lat="47.536504" lon="8.522736">
<ele>406.2</ele>
<time>2003-05-17T09:12:00Z</time>
<speed>0.8</speed>
</trkpt>
<trkpt lat="47.536547" lon="8.522676">
<ele>405.9</ele>
<time>2003-05-17T09:12:05Z</time>
<speed>0.6</speed>
</trkpt>
<trkpt lat="47.536596" lon="8.522619">
<ele>404.9</ele>
<time>2003-05-17T09:12:10Z</time>
<speed>0.8</speed>
</trkpt>
<trkpt lat="47.536646" lon="8.522561">
<ele>403.9</ele>
<time>2003-05-17T09:12:15Z</time>
<speed>0.8</speed>
</trkpt>
<trkpt lat="47.536674" lon="8.522527">
<ele>402.4</ele>
<time>2003-05-17T09:12:20Z</time>
<speed>0.6</speed>
</trkpt>
<trkpt lat="47.536722" lon="8.522481">
<ele>402.9</ele>
<time>2003-05-17T09:12:25Z</time>
<speed>0.8</speed>
</trkpt>
<trkpt lat="47.536778" lon="8.522423">
<ele>402.7</ele>
<time>2003-05-17T09:12:30Z</time>
<speed>1.1</speed>
</trkpt>
<trkpt lat="47.536839" lon="8.522365">
<ele>403.2</ele>
<time>2003-05-17T09:12:35Z</time>
<speed>0.8</speed>
</trkpt>
<trkpt lat="47.536906" lon="8.522322">
<ele>403.2</ele>
<time>2003-05-17T09:12:40Z</time>
<speed>1.1</speed>
</trkpt>
<trkpt lat="47.536936" lon="8.522274">
<ele>402.9</ele>
<time>2003-05-17T09:12:45Z</time>
<speed>0.6</speed>
</trkpt>
<trkpt lat="47.536964" lon="8.522238">
<ele>402.8</ele>
<time>2003-05-17T09:12:50Z</time>
<speed>0.6</speed>
</trkpt>
<trkpt lat="47.537017" lon="8.522207">
<ele>402.7</ele>
<time>2003-05-17T09:12:55Z</time>
<speed>0.6</speed>
</trkpt>
<trkpt lat="47.537066" lon="8.522147">
<ele>403.2</ele>
<time>2003-05-17T09:13:00Z</time>
<speed>1.1</speed>
</trkpt>
<trkpt lat="47.537098" lon="8.522059">
<ele>402.6</ele>
<time>2003-05-17T09:13:05Z</time>
<speed>0.8</speed>
</trkpt>
<trkpt lat="47.537156" lon="8.521975">
<ele>402.2</ele>
<time>2003-05-17T09:13:10Z</time>
<speed>1.1</speed>
</trkpt>
<trkpt lat="47.537225" lon="8.521906">
<ele>402.0</ele>
<time>2003-05-17T09:13:15Z</time>
<speed>1.4</speed>
</trkpt>
<trkpt lat="47.537300" lon="8.521837">
<ele>402.4</ele>
<time>2003-05-17T09:13:20Z</time>
<speed>1.1</speed>
</trkpt>
<trkpt lat="47.537347" lon="8.521804">
<ele>403.1</ele>
<time>2003-05-17T09:13:25Z</time>
<speed>0.8</speed>
</trkpt>
<trkpt lat="47.537415" lon="8.521748">
<ele>402.9</ele>
<time>2003-05-17T09:13:30Z</time>
<speed>1.1</speed>
</trkpt>
<trkpt lat="47.537476" lon="8.521705">
<ele>402.2</ele>
<time>2003-05-17T09:13:35Z</time>
<speed>1.1</speed>
</trkpt>
<trkpt lat="47.537545" lon="8.521638">
<ele>400.5</ele>
<time>2003-05-17T09:13:40Z</time>
<speed>0.8</speed>
</trkpt>
<trkpt lat="47.537594" lon="8.521593">
<ele>399.6</ele>
<time>2003-05-17T09:13:45Z</time>
<speed>0.8</speed>
</trkpt>
<trkpt lat="47.537611" lon="8.521545">
<ele>397.9</ele>
<time>2003-05-17T09:13:50Z</time>
<speed>0.8</speed>
</trkpt>
<trkpt lat="47.537667" lon="8.521474">
<ele>397.6</ele>
<time>2003-05-17T09:13:55Z</time>
<speed>1.1</speed>
</trkpt>
<trkpt lat="47.537710" lon="8.521414">
<ele>397.3</ele>
<time>2003-05-17T09:14:00Z</time>
<speed>1.1</speed>
</trkpt>
<trkpt lat="47.537752" lon="8.521367">
<ele>397.1</ele>
<time>2003-05-17T09:14:05Z</time>
<speed>0.8</speed>
</trkpt>
<trkpt lat="47.537801" lon="8.521310">
<ele>396.1</ele>
<time>2003-05-17T09:14:10Z</time>
<speed>1.1</speed>
</trkpt>
<trkpt lat="47.537852" lon="8.521239">
<ele>395.1</ele>
<time>2003-05-17T09:14:15Z</time>
<speed>0.8</speed>
</trkpt>
<trkpt lat="47.537900" lon="8.521194">
<ele>394.2</ele>
<time>2003-05-17T09:14:20Z</time>
<speed>1.1</speed>
</trkpt>
<trkpt lat="47.537949" lon="8.521136">
<ele>393.3</ele>
<time>2003-05-17T09:14:25Z</time>
<speed>1.4</speed>
</trkpt>
<trkpt lat="47.538004" lon="8.521091">
<ele>393.2</ele>
<time>2003-05-17T09:14:30Z</time>
<speed>1.1</speed>
</trkpt>
<trkpt lat="47.538047" lon="8.521032">
<ele>392.9</ele>
<time>2003-05-17T09:14:36Z</time>
<speed>1.4</speed>
</trkpt>
<trkpt lat="47.538088" lon="8.520998">
<ele>392.8</ele>
<time>2003-05-17T09:14:41Z</time>
<speed>1.4</speed>
</trkpt>
<trkpt lat="47.538141" lon="8.520967">
<ele>392.8</ele>
<time>2003-05-17T09:14:46Z</time>
<speed>1.4</speed>
</trkpt>
<trkpt lat="47.538195" lon="8.520935">
<ele>392.7</ele>
<time>2003-05-17T09:14:51Z</time>
<speed>1.4</speed>
</trkpt>
<trkpt lat="47.538255" lon="8.520906">
<ele>392.0</ele>
<time>2003-05-17T09:14:56Z</time>
<speed>1.1</speed>
</trkpt>
<trkpt lat="47.538313" lon="8.520887">
<ele>392.9</ele>
<time>2003-05-17T09:15:01Z</time>
<speed>1.4</speed>
</trkpt>
<trkpt lat="47.538372" lon="8.520871">
<ele>392.3</ele>
<time>2003-05-17T09:15:06Z</time>
<speed>1.4</speed>
</trkpt>
<trkpt lat="47.538432" lon="8.520841">
<ele>391.6</ele>
<time>2003-05-17T09:15:11Z</time>
<speed>1.1</speed>
</trkpt>
<trkpt lat="47.538496" lon="8.520838">
<ele>391.8</ele>
<time>2003-05-17T09:15:16Z</time>
<speed>1.4</speed>
</trkpt>
<trkpt lat="47.538555" lon="8.520835">
<ele>391.4</ele>
<time>2003-05-17T09:15:21Z</time>
<speed>1.4</speed>
</trkpt>
<trkpt lat="47.538619" lon="8.520831">
<ele>391.6</ele>
<time>2003-05-17T09:15:26Z</time>
<speed>1.4</speed>
</trkpt>
<trkpt lat="47.538683" lon="8.520830">
<ele>390.5</ele>
<time>2003-05-17T09:15:31Z</time>
<speed>1.4</speed>
</trkpt>
<trkpt lat="47.538747" lon="8.520827">
<ele>390.7</ele>
<time>2003-05-17T09:15:36Z</time>
<speed>1.1</speed>
</trkpt>
<trkpt lat="47.538805" lon="8.520837">
<ele>390.3</ele>
<time>2003-05-17T09:15:41Z</time>
<speed>1.4</speed>
</trkpt>
<trkpt lat="47.538868" lon="8.520848">
<ele>389.3</ele>
<time>2003-05-17T09:15:46Z</time>
<speed>1.4</speed>
</trkpt>
<trkpt lat="47.538931" lon="8.520858">
<ele>389.6</ele>
<time>2003-05-17T09:15:51Z</time>
<speed>1.1</speed>
</trkpt>
<trkpt lat="47.538986" lon="8.520907">
<ele>389.5</ele>
<time>2003-05-17T09:15:56Z</time>
<speed>1.1</speed>
</trkpt>
<trkpt lat="47.539048" lon="8.520930">
<ele>390.0</ele>
<time>2003-05-17T09:16:01Z</time>
<speed>1.4</speed>
</trkpt>
<trkpt lat="47.539109" lon="8.520968">
<ele>389.1</ele>
<time>2003-05-17T09:16:06Z</time>
<speed>1.4</speed>
</trkpt>
<trkpt lat="47.539170" lon="8.521018">
<ele>389.8</ele>
<time>2003-05-17T09:16:11Z</time>
<speed>1.1</speed>
</trkpt>
<trkpt lat="47.539223" lon="8.521080">
<ele>389.8</ele>
<time>2003-05-17T09:16:16Z</time>
<speed>1.4</speed>
</trkpt>
<trkpt lat="47.539284" lon="8.521116">
<ele>390.3</ele>
<time>2003-05-17T09:16:21Z</time>
<speed>1.1</speed>
</trkpt>
<trkpt lat="47.539337" lon="8.521177">
<ele>391.8</ele>
<time>2003-05-17T09:16:26Z</time>
<speed>1.1</speed>
</trkpt>
<trkpt lat="47.539392" lon="8.521213">
<ele>391.6</ele>
<time>2003-05-17T09:16:31Z</time>
<speed>1.1</speed>
</trkpt>
<trkpt lat="47.539446" lon="8.521262">
<ele>391.5</ele>
<time>2003-05-17T09:16:36Z</time>
<speed>1.1</speed>
</trkpt>
<trkpt lat="47.539486" lon="8.521322">
<ele>391.4</ele>
<time>2003-05-17T09:16:41Z</time>
<speed>1.1</speed>
</trkpt>
<trkpt lat="47.539526" lon="8.521396">
<ele>391.5</ele>
<time>2003-05-17T09:16:46Z</time>
<speed>1.1</speed>
</trkpt>
<trkpt lat="47.539567" lon="8.521456">
<ele>391.4</ele>
<time>2003-05-17T09:16:51Z</time>
<speed>1.1</speed>
</trkpt>
<trkpt lat="47.539600" lon="8.521528">
<ele>392.1</ele>
<time>2003-05-17T09:16:56Z</time>
<speed>1.1</speed>
</trkpt>
<trkpt lat="47.539645" lon="8.521601">
<ele>392.9</ele>
<time>2003-05-17T09:17:01Z</time>
<speed>0.8</speed>
</trkpt>
<trkpt lat="47.539678" lon="8.521673">
<ele>393.6</ele>
<time>2003-05-17T09:17:06Z</time>
<speed>0.8</speed>
</trkpt>
<trkpt lat="47.539720" lon="8.521705">
<ele>394.8</ele>
<time>2003-05-17T09:17:11Z</time>
<speed>0.6</speed>
</trkpt>
<trkpt lat="47.539774" lon="8.521659">
<ele>396.0</ele>
<time>2003-05-17T09:17:16Z</time>
<speed>0.6</speed>
</trkpt>
<trkpt lat="47.539841" lon="8.521631">
<ele>394.7</ele>
<time>2003-05-17T09:17:21Z</time>
<speed>1.1</speed>
</trkpt>
<trkpt lat="47.539903" lon="8.521575">
<ele>393.8</ele>
<time>2003-05-17T09:17:26Z</time>
<speed>0.8</speed>
</trkpt>
<trkpt lat="47.539962" lon="8.521544">
<ele>394.5</ele>
<time>2003-05-17T09:17:31Z</time>
<speed>1.1</speed>
</trkpt>
<trkpt lat="47.539995" lon="8.521534">
<ele>395.3</ele>
<time>2003-05-17T09:17:36Z</time>
<speed>0.8</speed>
</trkpt>
<trkpt lat="47.540035" lon="8.521595">
<ele>395.2</ele>
<time>2003-05-17T09:17:41Z</time>
<speed>1.1</speed>
</trkpt>
<trkpt lat="47.540070" lon="8.521655">
<ele>394.4</ele>
<time>2003-05-17T09:17:46Z</time>
<speed>1.1</speed>
</trkpt>
<trkpt lat="47.540088" lon="8.521753">
<ele>393.9</ele>
<time>2003-05-17T09:17:51Z</time>
<speed>1.1</speed>
</trkpt>
<trkpt lat="47.540115" lon="8.521840">
<ele>392.5</ele>
<time>2003-05-17T09:17:56Z</time>
<speed>1.1</speed>
</trkpt>
<trkpt lat="47.540141" lon="8.521925">
<ele>392.6</ele>
<time>2003-05-17T09:18:01Z</time>
<speed>1.4</speed>
</trkpt>
<trkpt lat="47.540167" lon="8.522009">
<ele>392.7</ele>
<time>2003-05-17T09:18:06Z</time>
<speed>1.1</speed>
</trkpt>
<trkpt lat="47.540199" lon="8.522094">
<ele>393.5</ele>
<time>2003-05-17T09:18:11Z</time>
<speed>1.4</speed>
</trkpt>
<trkpt lat="47.540225" lon="8.522179">
<ele>393.6</ele>
<time>2003-05-17T09:18:16Z</time>
<speed>1.1</speed>
</trkpt>
<trkpt lat="47.540256" lon="8.522277">
<ele>394.5</ele>
<time>2003-05-17T09:18:21Z</time>
<speed>1.4</speed>
</trkpt>
<trkpt lat="47.540288" lon="8.522361">
<ele>395.3</ele>
<time>2003-05-17T09:18:26Z</time>
<speed>1.4</speed>
</trkpt>
<trkpt lat="47.540320" lon="8.522448">
<ele>394.7</ele>
<time>2003-05-17T09:18:31Z</time>
<speed>1.1</speed>
</trkpt>
<trkpt lat="47.540346" lon="8.522533">
<ele>394.8</ele>
<time>2003-05-17T09:18:36Z</time>
<speed>1.1</speed>
</trkpt>
<trkpt lat="47.540372" lon="8.522617">
<ele>394.8</ele>
<time>2003-05-17T09:18:41Z</time>
<speed>1.1</speed>
</trkpt>
<trkpt lat="47.540406" lon="8.522691">
<ele>394.2</ele>
<time>2003-05-17T09:18:46Z</time>
<speed>1.1</speed>
</trkpt>
<trkpt lat="47.540437" lon="8.522791">
<ele>393.7</ele>
<time>2003-05-17T09:18:51Z</time>
<speed>1.4</speed>
</trkpt>
<trkpt lat="47.540462" lon="8.522873">
<ele>395.1</ele>
<time>2003-05-17T09:18:56Z</time>
<speed>1.1</speed>
</trkpt>
<trkpt lat="47.540487" lon="8.522969">
<ele>396.7</ele>
<time>2003-05-17T09:19:01Z</time>
<speed>1.4</speed>
</trkpt>
<trkpt lat="47.540507" lon="8.523054">
<ele>396.0</ele>
<time>2003-05-17T09:19:06Z</time>
<speed>0.8</speed>
</trkpt>
<trkpt lat="47.540547" lon="8.523114">
<ele>396.0</ele>
<time>2003-05-17T09:19:11Z</time>
<speed>1.1</speed>
</trkpt>
<trkpt lat="47.540600" lon="8.523177">
<ele>396.0</ele>
<time>2003-05-17T09:19:16Z</time>
<speed>1.1</speed>
</trkpt>
<trkpt lat="47.540653" lon="8.523254">
<ele>394.7</ele>
<time>2003-05-17T09:19:21Z</time>
<speed>1.1</speed>
</trkpt>
<trkpt lat="47.540700" lon="8.523315">
<ele>395.4</ele>
<time>2003-05-17T09:19:26Z</time>
<speed>1.4</speed>
</trkpt>
<trkpt lat="47.540766" lon="8.523381">
<ele>394.1</ele>
<time>2003-05-17T09:19:31Z</time>
<speed>1.1</speed>
</trkpt>
<trkpt lat="47.540801" lon="8.523428">
<ele>393.2</ele>
<time>2003-05-17T09:19:36Z</time>
<speed>1.1</speed>
</trkpt>
<trkpt lat="47.540857" lon="8.523464">
<ele>393.0</ele>
<time>2003-05-17T09:19:41Z</time>
<speed>1.4</speed>
</trkpt>
<trkpt lat="47.540909" lon="8.523525">
<ele>394.4</ele>
<time>2003-05-17T09:19:46Z</time>
<speed>1.4</speed>
</trkpt>
<trkpt lat="47.540982" lon="8.523576">
<ele>395.1</ele>
<time>2003-05-17T09:19:51Z</time>
<speed>1.1</speed>
</trkpt>
<trkpt lat="47.541043" lon="8.523612">
<ele>395.7</ele>
<time>2003-05-17T09:19:56Z</time>
<speed>1.1</speed>
</trkpt>
<trkpt lat="47.541112" lon="8.523637">
<ele>395.5</ele>
<time>2003-05-17T09:20:01Z</time>
<speed>1.1</speed>
</trkpt>
<trkpt lat="47.541170" lon="8.523634">
<ele>395.0</ele>
<time>2003-05-17T09:20:06Z</time>
<speed>0.6</speed>
</trkpt>
<trkpt lat="47.541223" lon="8.523615">
<ele>395.1</ele>
<time>2003-05-17T09:20:11Z</time>
<speed>0.6</speed>
</trkpt>
<trkpt lat="47.541288" lon="8.523601">
<ele>393.8</ele>
<time>2003-05-17T09:20:16Z</time>
<speed>0.8</speed>
</trkpt>
<trkpt lat="47.541348" lon="8.523571">
<ele>393.1</ele>
<time>2003-05-17T09:20:21Z</time>
<speed>0.3</speed>
</trkpt>
<trkpt lat="47.541409" lon="8.523529">
<ele>392.3</ele>
<time>2003-05-17T09:20:26Z</time>
<speed>0.6</speed>
</trkpt>
<trkpt lat="47.541469" lon="8.523499">
<ele>391.6</ele>
<time>2003-05-17T09:20:31Z</time>
<speed>0.6</speed>
</trkpt>
<trkpt lat="47.541529" lon="8.523468">
<ele>392.4</ele>
<time>2003-05-17T09:20:36Z</time>
<speed>0.3</speed>
</trkpt>
<trkpt lat="47.541584" lon="8.523410">
<ele>392.1</ele>
<time>2003-05-17T09:20:41Z</time>
<speed>0.8</speed>
</trkpt>
<trkpt lat="47.541665" lon="8.523356">
<ele>392.1</ele>
<time>2003-05-17T09:20:46Z</time>
<speed>0.8</speed>
</trkpt>
<trkpt lat="47.541713" lon="8.523311">
<ele>391.2</ele>
<time>2003-05-17T09:20:51Z</time>
<speed>0.8</speed>
</trkpt>
<trkpt lat="47.541768" lon="8.523267">
<ele>391.1</ele>
<time>2003-05-17T09:20:56Z</time>
<speed>0.6</speed>
</trkpt>
<trkpt lat="47.541810" lon="8.523220">
<ele>390.9</ele>
<time>2003-05-17T09:21:01Z</time>
<speed>0.6</speed>
</trkpt>
<trkpt lat="47.541873" lon="8.523151">
<ele>389.9</ele>
<time>2003-05-17T09:21:06Z</time>
<speed>0.6</speed>
</trkpt>
<trkpt lat="47.541922" lon="8.523091">
<ele>390.4</ele>
<time>2003-05-17T09:21:11Z</time>
<speed>0.6</speed>
</trkpt>
<trkpt lat="47.541990" lon="8.523035">
<ele>390.2</ele>
<time>2003-05-17T09:21:16Z</time>
<speed>0.8</speed>
</trkpt>
<trkpt lat="47.542058" lon="8.522980">
<ele>390.1</ele>
<time>2003-05-17T09:21:21Z</time>
<speed>0.6</speed>
</trkpt>
<trkpt lat="47.542101" lon="8.522920">
<ele>389.8</ele>
<time>2003-05-17T09:21:26Z</time>
<speed>0.6</speed>
</trkpt>
<trkpt lat="47.542156" lon="8.522862">
<ele>389.5</ele>
<time>2003-05-17T09:21:31Z</time>
<speed>0.8</speed>
</trkpt>
<trkpt lat="47.542205" lon="8.522804">
<ele>388.6</ele>
<time>2003-05-17T09:21:36Z</time>
<speed>0.6</speed>
</trkpt>
<trkpt lat="47.542253" lon="8.522758">
<ele>389.1</ele>
<time>2003-05-17T09:21:41Z</time>
<speed>0.8</speed>
</trkpt>
<trkpt lat="47.542295" lon="8.522709">
<ele>390.4</ele>
<time>2003-05-17T09:21:46Z</time>
<speed>0.8</speed>
</trkpt>
<trkpt lat="47.542344" lon="8.522651">
<ele>389.4</ele>
<time>2003-05-17T09:21:51Z</time>
<speed>0.6</speed>
</trkpt>
<trkpt lat="47.542386" lon="8.522605">
<ele>389.2</ele>
<time>2003-05-17T09:21:56Z</time>
<speed>0.6</speed>
</trkpt>
<trkpt lat="47.542429" lon="8.522545">
<ele>388.9</ele>
<time>2003-05-17T09:22:01Z</time>
<speed>0.6</speed>
</trkpt>
<trkpt lat="47.542485" lon="8.522474">
<ele>388.6</ele>
<time>2003-05-17T09:22:06Z</time>
<speed>0.6</speed>
</trkpt>
<trkpt lat="47.542554" lon="8.522420">
<ele>387.0</ele>
<time>2003-05-17T09:22:11Z</time>
<speed>0.6</speed>
</trkpt>
<trkpt lat="47.542603" lon="8.522360">
<ele>387.5</ele>
<time>2003-05-17T09:22:16Z</time>
<speed>0.8</speed>
</trkpt>
<trkpt lat="47.542646" lon="8.522287">
<ele>387.1</ele>
<time>2003-05-17T09:22:21Z</time>
<speed>0.8</speed>
</trkpt>
<trkpt lat="47.542703" lon="8.522216">
<ele>386.8</ele>
<time>2003-05-17T09:22:26Z</time>
<speed>0.6</speed>
</trkpt>
<trkpt lat="47.542748" lon="8.522130">
<ele>386.3</ele>
<time>2003-05-17T09:22:31Z</time>
<speed>0.8</speed>
</trkpt>
<trkpt lat="47.542798" lon="8.522057">
<ele>386.6</ele>
<time>2003-05-17T09:22:36Z</time>
<speed>0.8</speed>
</trkpt>
<trkpt lat="47.542836" lon="8.521969">
<ele>386.8</ele>
<time>2003-05-17T09:22:41Z</time>
<speed>0.8</speed>
</trkpt>
<trkpt lat="47.542874" lon="8.521883">
<ele>385.6</ele>
<time>2003-05-17T09:22:46Z</time>
<speed>0.8</speed>
</trkpt>
<trkpt lat="47.542913" lon="8.521795">
<ele>385.8</ele>
<time>2003-05-17T09:22:51Z</time>
<speed>0.8</speed>
</trkpt>
<trkpt lat="47.542944" lon="8.521720">
<ele>385.3</ele>
<time>2003-05-17T09:22:56Z</time>
<speed>0.8</speed>
</trkpt>
<trkpt lat="47.542990" lon="8.521621">
<ele>384.7</ele>
<time>2003-05-17T09:23:01Z</time>
<speed>0.8</speed>
</trkpt>
<trkpt lat="47.543017" lon="8.521520">
<ele>383.3</ele>
<time>2003-05-17T09:23:06Z</time>
<speed>0.8</speed>
</trkpt>
<trkpt lat="47.543082" lon="8.521425">
<ele>382.1</ele>
<time>2003-05-17T09:23:11Z</time>
<speed>1.1</speed>
</trkpt>
<trkpt lat="47.543095" lon="8.521333">
<ele>382.2</ele>
<time>2003-05-17T09:23:16Z</time>
<speed>0.8</speed>
</trkpt>
<trkpt lat="47.543126" lon="8.521243">
<ele>383.0</ele>
<time>2003-05-17T09:23:21Z</time>
<speed>1.1</speed>
</trkpt>
<trkpt lat="47.543145" lon="8.521151">
<ele>383.8</ele>
<time>2003-05-17T09:23:26Z</time>
<speed>0.8</speed>
</trkpt>
<trkpt lat="47.543157" lon="8.521072">
<ele>383.9</ele>
<time>2003-05-17T09:23:31Z</time>
<speed>1.1</speed>
</trkpt>
<trkpt lat="47.543183" lon="8.520982">
<ele>384.0</ele>
<time>2003-05-17T09:23:36Z</time>
<speed>1.1</speed>
</trkpt>
<trkpt lat="47.543208" lon="8.520892">
<ele>384.1</ele>
<time>2003-05-17T09:23:41Z</time>
<speed>0.8</speed>
</trkpt>
<trkpt lat="47.543222" lon="8.520787">
<ele>384.1</ele>
<time>2003-05-17T09:23:46Z</time>
<speed>1.1</speed>
</trkpt>
<trkpt lat="47.543242" lon="8.520697">
<ele>383.5</ele>
<time>2003-05-17T09:23:51Z</time>
<speed>1.1</speed>
</trkpt>
<trkpt lat="47.543254" lon="8.520618">
<ele>383.6</ele>
<time>2003-05-17T09:23:56Z</time>
<speed>0.8</speed>
</trkpt>
<trkpt lat="47.543280" lon="8.520515">
<ele>383.6</ele>
<time>2003-05-17T09:24:01Z</time>
<speed>1.1</speed>
</trkpt>
<trkpt lat="47.543312" lon="8.520440">
<ele>383.1</ele>
<time>2003-05-17T09:24:06Z</time>
<speed>1.1</speed>
</trkpt>
<trkpt lat="47.543326" lon="8.520335">
<ele>383.1</ele>
<time>2003-05-17T09:24:11Z</time>
<speed>0.8</speed>
</trkpt>
<trkpt lat="47.543332" lon="8.520243">
<ele>382.4</ele>
<time>2003-05-17T09:24:16Z</time>
<speed>1.1</speed>
</trkpt>
<trkpt lat="47.543340" lon="8.520136">
<ele>383.0</ele>
<time>2003-05-17T09:24:21Z</time>
<speed>1.1</speed>
</trkpt>
<trkpt lat="47.543365" lon="8.520046">
<ele>383.1</ele>
<time>2003-05-17T09:24:26Z</time>
<speed>1.1</speed>
</trkpt>
<trkpt lat="47.543391" lon="8.519958">
<ele>381.8</ele>
<time>2003-05-17T09:24:31Z</time>
<speed>1.1</speed>
</trkpt>
<trkpt lat="47.543411" lon="8.519853">
<ele>382.5</ele>
<time>2003-05-17T09:24:36Z</time>
<speed>1.1</speed>
</trkpt>
<trkpt lat="47.543429" lon="8.519774">
<ele>383.3</ele>
<time>2003-05-17T09:24:41Z</time>
<speed>1.1</speed>
</trkpt>
<trkpt lat="47.543450" lon="8.519669">
<ele>384.0</ele>
<time>2003-05-17T09:24:46Z</time>
<speed>1.1</speed>
</trkpt>
<trkpt lat="47.543461" lon="8.519590">
<ele>384.2</ele>
<time>2003-05-17T09:24:51Z</time>
<speed>0.8</speed>
</trkpt>
<trkpt lat="47.543449" lon="8.519494">
<ele>384.1</ele>
<time>2003-05-17T09:24:56Z</time>
<speed>1.4</speed>
</trkpt>
<trkpt lat="47.543462" lon="8.519401">
<ele>385.5</ele>
<time>2003-05-17T09:25:01Z</time>
<speed>0.8</speed>
</trkpt>
<trkpt lat="47.543468" lon="8.519307">
<ele>386.2</ele>
<time>2003-05-17T09:25:06Z</time>
<speed>1.1</speed>
</trkpt>
<trkpt lat="47.543484" lon="8.519177">
<ele>384.5</ele>
<time>2003-05-17T09:25:11Z</time>
<speed>1.1</speed>
</trkpt>
<trkpt lat="47.543457" lon="8.519106">
<ele>384.6</ele>
<time>2003-05-17T09:25:16Z</time>
<speed>0.6</speed>
</trkpt>
<trkpt lat="47.543437" lon="8.519034">
<ele>385.3</ele>
<time>2003-05-17T09:25:21Z</time>
<speed>0.6</speed>
</trkpt>
<trkpt lat="47.543424" lon="8.518938">
<ele>385.2</ele>
<time>2003-05-17T09:25:26Z</time>
<speed>0.8</speed>
</trkpt>
<trkpt lat="47.543412" lon="8.518842">
<ele>385.1</ele>
<time>2003-05-17T09:25:31Z</time>
<speed>0.8</speed>
</trkpt>
<trkpt lat="47.543412" lon="8.518748">
<ele>385.1</ele>
<time>2003-05-17T09:25:36Z</time>
<speed>0.8</speed>
</trkpt>
<trkpt lat="47.543419" lon="8.518654">
<ele>385.8</ele>
<time>2003-05-17T09:25:41Z</time>
<speed>0.8</speed>
</trkpt>
<trkpt lat="47.543428" lon="8.518538">
<ele>383.5</ele>
<time>2003-05-17T09:25:46Z</time>
<speed>1.1</speed>
</trkpt>
<trkpt lat="47.543435" lon="8.518431">
<ele>384.1</ele>
<time>2003-05-17T09:25:51Z</time>
<speed>1.1</speed>
</trkpt>
<trkpt lat="47.543449" lon="8.518326">
<ele>384.0</ele>
<time>2003-05-17T09:25:56Z</time>
<speed>0.8</speed>
</trkpt>
<trkpt lat="47.543455" lon="8.518245">
<ele>384.8</ele>
<time>2003-05-17T09:26:01Z</time>
<speed>1.4</speed>
</trkpt>
<trkpt lat="47.543449" lon="8.518149">
<ele>385.5</ele>
<time>2003-05-17T09:26:06Z</time>
<speed>1.1</speed>
</trkpt>
<trkpt lat="47.543435" lon="8.518065">
<ele>386.9</ele>
<time>2003-05-17T09:26:11Z</time>
<speed>1.1</speed>
</trkpt>
<trkpt lat="47.543408" lon="8.517978">
<ele>388.2</ele>
<time>2003-05-17T09:26:16Z</time>
<speed>1.1</speed>
</trkpt>
<trkpt lat="47.543409" lon="8.517884">
<ele>388.2</ele>
<time>2003-05-17T09:26:21Z</time>
<speed>1.1</speed>
</trkpt>
<trkpt lat="47.543406" lon="8.517814">
<ele>389.8</ele>
<time>2003-05-17T09:26:26Z</time>
<speed>0.8</speed>
</trkpt>
<trkpt lat="47.543385" lon="8.517756">
<ele>390.6</ele>
<time>2003-05-17T09:26:31Z</time>
<speed>0.8</speed>
</trkpt>
<trkpt lat="47.543383" lon="8.517686">
<ele>392.2</ele>
<time>2003-05-17T09:26:36Z</time>
<speed>0.6</speed>
</trkpt>
<trkpt lat="47.543406" lon="8.517623">
<ele>392.5</ele>
<time>2003-05-17T09:26:41Z</time>
<speed>0.8</speed>
</trkpt>
<trkpt lat="47.543430" lon="8.517542">
<ele>395.5</ele>
<time>2003-05-17T09:26:46Z</time>
<speed>0.8</speed>
</trkpt>
<trkpt lat="47.543466" lon="8.517480">
<ele>395.9</ele>
<time>2003-05-17T09:26:51Z</time>
<speed>1.1</speed>
</trkpt>
<trkpt lat="47.543509" lon="8.517405">
<ele>396.9</ele>
<time>2003-05-17T09:26:56Z</time>
<speed>1.1</speed>
</trkpt>
<trkpt lat="47.543538" lon="8.517355">
<ele>398.1</ele>
<time>2003-05-17T09:27:01Z</time>
<speed>0.8</speed>
</trkpt>
<trkpt lat="47.543578" lon="8.517319">
<ele>399.4</ele>
<time>2003-05-17T09:27:06Z</time>
<speed>0.8</speed>
</trkpt>
<trkpt lat="47.543619" lon="8.517284">
<ele>400.7</ele>
<time>2003-05-17T09:27:11Z</time>
<speed>1.1</speed>
</trkpt>
<trkpt lat="47.543673" lon="8.517237">
<ele>402.0</ele>
<time>2003-05-17T09:27:16Z</time>
<speed>1.1</speed>
</trkpt>
<trkpt lat="47.543744" lon="8.517221">
<ele>402.9</ele>
<time>2003-05-17T09:27:21Z</time>
<speed>1.1</speed>
</trkpt>
<trkpt lat="47.543764" lon="8.517209">
<ele>403.6</ele>
<time>2003-05-17T09:27:26Z</time>
<speed>0.3</speed>
</trkpt>
<trkpt lat="47.543828" lon="8.517191">
<ele>405.1</ele>
<time>2003-05-17T09:27:31Z</time>
<speed>1.4</speed>
</trkpt>
<trkpt lat="47.543898" lon="8.517188">
<ele>406.1</ele>
<time>2003-05-17T09:27:36Z</time>
<speed>1.4</speed>
</trkpt>
<trkpt lat="47.543975" lon="8.517186">
<ele>406.4</ele>
<time>2003-05-17T09:27:41Z</time>
<speed>1.1</speed>
</trkpt>
<trkpt lat="47.544025" lon="8.517192">
<ele>408.1</ele>
<time>2003-05-17T09:27:46Z</time>
<speed>0.8</speed>
</trkpt>
<trkpt lat="47.544088" lon="8.517202">
<ele>408.5</ele>
<time>2003-05-17T09:27:51Z</time>
<speed>1.4</speed>
</trkpt>
<trkpt lat="47.544156" lon="8.517238">
<ele>409.8</ele>
<time>2003-05-17T09:27:56Z</time>
<speed>1.4</speed>
</trkpt>
<trkpt lat="47.544220" lon="8.517235">
<ele>410.0</ele>
<time>2003-05-17T09:28:01Z</time>
<speed>1.4</speed>
</trkpt>
<trkpt lat="47.544275" lon="8.517254">
<ele>412.5</ele>
<time>2003-05-17T09:28:06Z</time>
<speed>1.1</speed>
</trkpt>
<trkpt lat="47.544336" lon="8.517288">
<ele>414.5</ele>
<time>2003-05-17T09:28:11Z</time>
<speed>1.1</speed>
</trkpt>
<trkpt lat="47.544385" lon="8.517309">
<ele>414.9</ele>
<time>2003-05-17T09:28:16Z</time>
<speed>1.1</speed>
</trkpt>
<trkpt lat="47.544447" lon="8.517347">
<ele>414.0</ele>
<time>2003-05-17T09:28:21Z</time>
<speed>1.1</speed>
</trkpt>
<trkpt lat="47.544510" lon="8.517372">
<ele>413.1</ele>
<time>2003-05-17T09:28:26Z</time>
<speed>1.1</speed>
</trkpt>
<trkpt lat="47.544553" lon="8.517393">
<ele>412.7</ele>
<time>2003-05-17T09:28:31Z</time>
<speed>0.8</speed>
</trkpt>
<trkpt lat="47.544621" lon="8.517431">
<ele>412.6</ele>
<time>2003-05-17T09:28:36Z</time>
<speed>1.1</speed>
</trkpt>
<trkpt lat="47.544687" lon="8.517496">
<ele>412.7</ele>
<time>2003-05-17T09:28:41Z</time>
<speed>1.1</speed>
</trkpt>
<trkpt lat="47.544730" lon="8.517517">
<ele>412.3</ele>
<time>2003-05-17T09:28:46Z</time>
<speed>0.6</speed>
</trkpt>
<trkpt lat="47.544787" lon="8.517542">
<ele>410.6</ele>
<time>2003-05-17T09:28:51Z</time>
<speed>1.1</speed>
</trkpt>
<trkpt lat="47.544842" lon="8.517578">
<ele>410.4</ele>
<time>2003-05-17T09:28:56Z</time>
<speed>1.1</speed>
</trkpt>
<trkpt lat="47.544911" lon="8.517605">
<ele>408.8</ele>
<time>2003-05-17T09:29:01Z</time>
<speed>1.1</speed>
</trkpt>
<trkpt lat="47.544961" lon="8.517628">
<ele>407.8</ele>
<time>2003-05-17T09:29:06Z</time>
<speed>1.4</speed>
</trkpt>
<trkpt lat="47.544998" lon="8.517662">
<ele>406.8</ele>
<time>2003-05-17T09:29:11Z</time>
<speed>0.8</speed>
</trkpt>
<trkpt lat="47.545054" lon="8.517687">
<ele>405.1</ele>
<time>2003-05-17T09:29:16Z</time>
<speed>1.1</speed>
</trkpt>
<trkpt lat="47.545102" lon="8.517736">
<ele>404.3</ele>
<time>2003-05-17T09:29:21Z</time>
<speed>0.8</speed>
</trkpt>
<trkpt lat="47.545149" lon="8.517798">
<ele>403.6</ele>
<time>2003-05-17T09:29:26Z</time>
<speed>1.1</speed>
</trkpt>
<trkpt lat="47.545197" lon="8.517863">
<ele>401.4</ele>
<time>2003-05-17T09:29:31Z</time>
<speed>1.1</speed>
</trkpt>
<trkpt lat="47.545238" lon="8.517925">
<ele>400.0</ele>
<time>2003-05-17T09:29:36Z</time>
<speed>1.1</speed>
</trkpt>
<trkpt lat="47.545266" lon="8.517985">
<ele>398.4</ele>
<time>2003-05-17T09:29:41Z</time>
<speed>1.1</speed>
</trkpt>
<trkpt lat="47.545300" lon="8.518044">
<ele>399.0</ele>
<time>2003-05-17T09:29:46Z</time>
<speed>0.8</speed>
</trkpt>
<trkpt lat="47.545330" lon="8.518091">
<ele>397.4</ele>
<time>2003-05-17T09:29:51Z</time>
<speed>0.3</speed>
</trkpt>
<trkpt lat="47.545319" lon="8.518061">
<ele>398.6</ele>
<time>2003-05-17T09:29:56Z</time>
<speed>0.3</speed>
</trkpt>
<trkpt lat="47.545320" lon="8.518050">
<ele>397.0</ele>
<time>2003-05-17T09:30:01Z</time>
<speed>0.0</speed>
</trkpt>
<trkpt lat="47.545320" lon="8.518050">
<ele>397.0</ele>
<time>2003-05-17T09:30:06Z</time>
<speed>0.0</speed>
</trkpt>
<trkpt lat="47.545320" lon="8.518050">
<ele>397.0</ele>
<time>2003-05-17T09:30:11Z</time>
<speed>0.0</speed>
</trkpt>
<trkpt lat="47.545320" lon="8.518050">
<ele>397.0</ele>
<time>2003-05-17T09:30:16Z</time>
<speed>0.0</speed>
</trkpt>
<trkpt lat="47.545320" lon="8.518050">
<ele>397.0</ele>
<time>2003-05-17T09:30:21Z</time>
<speed>0.0</speed>
</trkpt>
<trkpt lat="47.545319" lon="8.518061">
<ele>398.6</ele>
<time>2003-05-17T09:30:26Z</time>
<speed>0.3</speed>
</trkpt>
<trkpt lat="47.545352" lon="8.518133">
<ele>399.3</ele>
<time>2003-05-17T09:30:31Z</time>
<speed>1.1</speed>
</trkpt>
<trkpt lat="47.545385" lon="8.518206">
<ele>398.6</ele>
<time>2003-05-17T09:30:36Z</time>
<speed>1.1</speed>
</trkpt>
<trkpt lat="47.545417" lon="8.518306">
<ele>398.1</ele>
<time>2003-05-17T09:30:41Z</time>
<speed>1.1</speed>
</trkpt>
<trkpt lat="47.545449" lon="8.518393">
<ele>397.5</ele>
<time>2003-05-17T09:30:46Z</time>
<speed>1.1</speed>
</trkpt>
<trkpt lat="47.545469" lon="8.518479">
<ele>395.4</ele>
<time>2003-05-17T09:30:51Z</time>
<speed>1.1</speed>
</trkpt>
<trkpt lat="47.545504" lon="8.518542">
<ele>393.2</ele>
<time>2003-05-17T09:30:56Z</time>
<speed>0.8</speed>
</trkpt>
<trkpt lat="47.545509" lon="8.518572">
<ele>391.3</ele>
<time>2003-05-17T09:31:01Z</time>
<speed>0.8</speed>
</trkpt>
<trkpt lat="47.545529" lon="8.518657">
<ele>390.7</ele>
<time>2003-05-17T09:31:06Z</time>
<speed>1.1</speed>
</trkpt>
<trkpt lat="47.545537" lon="8.518741">
<ele>388.5</ele>
<time>2003-05-17T09:31:11Z</time>
<speed>1.1</speed>
</trkpt>
<trkpt lat="47.545543" lon="8.518837">
<ele>387.9</ele>
<time>2003-05-17T09:31:16Z</time>
<speed>1.1</speed>
</trkpt>
<trkpt lat="47.545530" lon="8.518929">
<ele>387.9</ele>
<time>2003-05-17T09:31:21Z</time>
<speed>1.1</speed>
</trkpt>
<trkpt lat="47.545517" lon="8.519036">
<ele>386.5</ele>
<time>2003-05-17T09:31:26Z</time>
<speed>1.1</speed>
</trkpt>
<trkpt lat="47.545511" lon="8.519117">
<ele>385.7</ele>
<time>2003-05-17T09:31:31Z</time>
<speed>1.1</speed>
</trkpt>
<trkpt lat="47.545505" lon="8.519211">
<ele>385.0</ele>
<time>2003-05-17T09:31:36Z</time>
<speed>1.1</speed>
</trkpt>
<trkpt lat="47.545500" lon="8.519292">
<ele>384.2</ele>
<time>2003-05-17T09:31:41Z</time>
<speed>1.1</speed>
</trkpt>
<trkpt lat="47.545507" lon="8.519376">
<ele>382.1</ele>
<time>2003-05-17T09:31:46Z</time>
<speed>0.8</speed>
</trkpt>
<trkpt lat="47.545494" lon="8.519468">
<ele>382.0</ele>
<time>2003-05-17T09:31:51Z</time>
<speed>1.1</speed>
</trkpt>
<trkpt lat="47.545481" lon="8.519575">
<ele>380.7</ele>
<time>2003-05-17T09:31:56Z</time>
<speed>1.4</speed>
</trkpt>
<trkpt lat="47.545468" lon="8.519667">
<ele>380.6</ele>
<time>2003-05-17T09:32:01Z</time>
<speed>1.1</speed>
</trkpt>
<trkpt lat="47.545455" lon="8.519759">
<ele>380.6</ele>
<time>2003-05-17T09:32:06Z</time>
<speed>1.1</speed>
</trkpt>
<trkpt lat="47.545448" lon="8.519866">
<ele>380.0</ele>
<time>2003-05-17T09:32:11Z</time>
<speed>1.1</speed>
</trkpt>
<trkpt lat="47.545448" lon="8.519962">
<ele>378.6</ele>
<time>2003-05-17T09:32:16Z</time>
<speed>0.8</speed>
</trkpt>
<trkpt lat="47.545441" lon="8.520054">
<ele>379.3</ele>
<time>2003-05-17T09:32:21Z</time>
<speed>1.1</speed>
</trkpt>
<trkpt lat="47.545428" lon="8.520146">
<ele>379.3</ele>
<time>2003-05-17T09:32:26Z</time>
<speed>1.1</speed>
</trkpt>
<trkpt lat="47.545419" lon="8.520264">
<ele>380.2</ele>
<time>2003-05-17T09:32:31Z</time>
<speed>1.1</speed>
</trkpt>
<trkpt lat="47.545413" lon="8.520358">
<ele>379.5</ele>
<time>2003-05-17T09:32:36Z</time>
<speed>1.1</speed>
</trkpt>
<trkpt lat="47.545425" lon="8.520454">
<ele>379.6</ele>
<time>2003-05-17T09:32:41Z</time>
<speed>1.1</speed>
</trkpt>
<trkpt lat="47.545452" lon="8.520526">
<ele>379.6</ele>
<time>2003-05-17T09:32:46Z</time>
<speed>1.1</speed>
</trkpt>
<trkpt lat="47.545478" lon="8.520611">
<ele>379.6</ele>
<time>2003-05-17T09:32:51Z</time>
<speed>1.1</speed>
</trkpt>
<trkpt lat="47.545504" lon="8.520695">
<ele>379.7</ele>
<time>2003-05-17T09:32:56Z</time>
<speed>0.8</speed>
</trkpt>
<trkpt lat="47.545528" lon="8.520791">
<ele>381.3</ele>
<time>2003-05-17T09:33:01Z</time>
<speed>1.1</speed>
</trkpt>
<trkpt lat="47.545562" lon="8.520850">
<ele>381.9</ele>
<time>2003-05-17T09:33:06Z</time>
<speed>0.6</speed>
</trkpt>
<trkpt lat="47.545609" lon="8.520910">
<ele>382.6</ele>
<time>2003-05-17T09:33:11Z</time>
<speed>1.1</speed>
</trkpt>
<trkpt lat="47.545677" lon="8.520948">
<ele>382.5</ele>
<time>2003-05-17T09:33:16Z</time>
<speed>1.1</speed>
</trkpt>
<trkpt lat="47.545729" lon="8.521024">
<ele>382.6</ele>
<time>2003-05-17T09:33:21Z</time>
<speed>1.1</speed>
</trkpt>
<trkpt lat="47.545790" lon="8.521060">
<ele>383.1</ele>
<time>2003-05-17T09:33:26Z</time>
<speed>0.8</speed>
</trkpt>
<trkpt lat="47.545863" lon="8.521111">
<ele>383.8</ele>
<time>2003-05-17T09:33:31Z</time>
<speed>0.8</speed>
</trkpt>
<trkpt lat="47.545927" lon="8.521108">
<ele>384.1</ele>
<time>2003-05-17T09:33:36Z</time>
<speed>0.8</speed>
</trkpt>
<trkpt lat="47.545979" lon="8.521104">
<ele>382.9</ele>
<time>2003-05-17T09:33:41Z</time>
<speed>0.8</speed>
</trkpt>
<trkpt lat="47.546039" lon="8.521075">
<ele>382.2</ele>
<time>2003-05-17T09:33:46Z</time>
<speed>0.6</speed>
</trkpt>
<trkpt lat="47.546124" lon="8.521049">
<ele>381.6</ele>
<time>2003-05-17T09:33:51Z</time>
<speed>1.1</speed>
</trkpt>
<trkpt lat="47.546213" lon="8.520984">
<ele>380.8</ele>
<time>2003-05-17T09:33:56Z</time>
<speed>1.4</speed>
</trkpt>
<trkpt lat="47.546273" lon="8.520940">
<ele>381.4</ele>
<time>2003-05-17T09:34:01Z</time>
<speed>1.4</speed>
</trkpt>
<trkpt lat="47.546334" lon="8.520895">
<ele>382.0</ele>
<time>2003-05-17T09:34:06Z</time>
<speed>1.1</speed>
</trkpt>
<trkpt lat="47.546370" lon="8.520833">
<ele>382.4</ele>
<time>2003-05-17T09:34:11Z</time>
<speed>1.1</speed>
</trkpt>
<trkpt lat="47.546401" lon="8.520758">
<ele>381.9</ele>
<time>2003-05-17T09:34:16Z</time>
<speed>0.8</speed>
</trkpt>
<trkpt lat="47.546427" lon="8.520670">
<ele>380.6</ele>
<time>2003-05-17T09:34:21Z</time>
<speed>1.1</speed>
</trkpt>
<trkpt lat="47.546479" lon="8.520586">
<ele>379.5</ele>
<time>2003-05-17T09:34:26Z</time>
<speed>1.4</speed>
</trkpt>
<trkpt lat="47.546524" lon="8.520487">
<ele>378.9</ele>
<time>2003-05-17T09:34:31Z</time>
<speed>1.4</speed>
</trkpt>
<trkpt lat="47.546569" lon="8.520401">
<ele>378.4</ele>
<time>2003-05-17T09:34:36Z</time>
<speed>1.4</speed>
</trkpt>
<trkpt lat="47.546600" lon="8.520326">
<ele>378.0</ele>
<time>2003-05-17T09:34:41Z</time>
<speed>1.1</speed>
</trkpt>
<trkpt lat="47.546632" lon="8.520238">
<ele>377.4</ele>
<time>2003-05-17T09:34:46Z</time>
<speed>1.1</speed>
</trkpt>
<trkpt lat="47.546658" lon="8.520148">
<ele>377.5</ele>
<time>2003-05-17T09:34:51Z</time>
<speed>1.4</speed>
</trkpt>
<trkpt lat="47.546696" lon="8.520060">
<ele>377.7</ele>
<time>2003-05-17T09:34:56Z</time>
<speed>1.1</speed>
</trkpt>
<trkpt lat="47.546734" lon="8.519972">
<ele>377.9</ele>
<time>2003-05-17T09:35:01Z</time>
<speed>1.4</speed>
</trkpt>
<trkpt lat="47.546779" lon="8.519886">
<ele>377.4</ele>
<time>2003-05-17T09:35:06Z</time>
<speed>1.1</speed>
</trkpt>
<trkpt lat="47.546798" lon="8.519809">
<ele>376.8</ele>
<time>2003-05-17T09:35:11Z</time>
<speed>0.8</speed>
</trkpt>
<trkpt lat="47.546823" lon="8.519719">
<ele>376.9</ele>
<time>2003-05-17T09:35:16Z</time>
<speed>1.1</speed>
</trkpt>
<trkpt lat="47.546861" lon="8.519644">
<ele>377.2</ele>
<time>2003-05-17T09:35:21Z</time>
<speed>0.8</speed>
</trkpt>
<trkpt lat="47.546893" lon="8.519556">
<ele>376.7</ele>
<time>2003-05-17T09:35:26Z</time>
<speed>1.1</speed>
</trkpt>
<trkpt lat="47.546924" lon="8.519481">
<ele>376.2</ele>
<time>2003-05-17T09:35:31Z</time>
<speed>1.1</speed>
</trkpt>
<trkpt lat="47.546949" lon="8.519406">
<ele>375.0</ele>
<time>2003-05-17T09:35:36Z</time>
<speed>0.8</speed>
</trkpt>
<trkpt lat="47.546953" lon="8.519339">
<ele>375.9</ele>
<time>2003-05-17T09:35:41Z</time>
<speed>0.6</speed>
</trkpt>
<trkpt lat="47.547002" lon="8.519279">
<ele>376.4</ele>
<time>2003-05-17T09:35:46Z</time>
<speed>0.8</speed>
</trkpt>
<trkpt lat="47.547050" lon="8.519232">
<ele>376.9</ele>
<time>2003-05-17T09:35:51Z</time>
<speed>1.1</speed>
</trkpt>
<trkpt lat="47.547113" lon="8.519161">
<ele>377.3</ele>
<time>2003-05-17T09:35:56Z</time>
<speed>1.4</speed>
</trkpt>
<trkpt lat="47.547161" lon="8.519115">
<ele>377.9</ele>
<time>2003-05-17T09:36:01Z</time>
<speed>1.4</speed>
</trkpt>
<trkpt lat="47.547208" lon="8.519081">
<ele>378.5</ele>
<time>2003-05-17T09:36:06Z</time>
<speed>1.1</speed>
</trkpt>
<trkpt lat="47.547267" lon="8.519050">
<ele>379.2</ele>
<time>2003-05-17T09:36:11Z</time>
<speed>1.4</speed>
</trkpt>
<trkpt lat="47.547338" lon="8.519033">
<ele>380.1</ele>
<time>2003-05-17T09:36:16Z</time>
<speed>1.4</speed>
</trkpt>
<trkpt lat="47.547403" lon="8.519017">
<ele>380.3</ele>
<time>2003-05-17T09:36:21Z</time>
<speed>1.4</speed>
</trkpt>
<trkpt lat="47.547468" lon="8.519013">
<ele>380.5</ele>
<time>2003-05-17T09:36:26Z</time>
<speed>1.4</speed>
</trkpt>
<trkpt lat="47.547532" lon="8.519010">
<ele>380.8</ele>
<time>2003-05-17T09:36:31Z</time>
<speed>1.1</speed>
</trkpt>
<trkpt lat="47.547588" lon="8.519033">
<ele>380.5</ele>
<time>2003-05-17T09:36:36Z</time>
<speed>1.4</speed>
</trkpt>
<trkpt lat="47.547656" lon="8.519056">
<ele>381.7</ele>
<time>2003-05-17T09:36:41Z</time>
<speed>1.1</speed>
</trkpt>
<trkpt lat="47.547705" lon="8.519090">
<ele>382.2</ele>
<time>2003-05-17T09:36:46Z</time>
<speed>1.1</speed>
</trkpt>
<trkpt lat="47.547767" lon="8.519115">
<ele>381.2</ele>
<time>2003-05-17T09:36:51Z</time>
<speed>1.1</speed>
</trkpt>
<trkpt lat="47.547822" lon="8.519151">
<ele>381.0</ele>
<time>2003-05-17T09:36:56Z</time>
<speed>1.1</speed>
</trkpt>
<trkpt lat="47.547876" lon="8.519214">
<ele>381.1</ele>
<time>2003-05-17T09:37:01Z</time>
<speed>1.1</speed>
</trkpt>
<trkpt lat="47.547924" lon="8.519248">
<ele>381.5</ele>
<time>2003-05-17T09:37:06Z</time>
<speed>1.1</speed>
</trkpt>
<trkpt lat="47.547970" lon="8.519323">
<ele>380.9</ele>
<time>2003-05-17T09:37:11Z</time>
<speed>1.1</speed>
</trkpt>
<trkpt lat="47.548011" lon="8.519386">
<ele>379.4</ele>
<time>2003-05-17T09:37:16Z</time>
<speed>1.1</speed>
</trkpt>
<trkpt lat="47.548051" lon="8.519459">
<ele>379.5</ele>
<time>2003-05-17T09:37:21Z</time>
<speed>1.1</speed>
</trkpt>
<trkpt lat="47.548103" lon="8.519535">
<ele>379.6</ele>
<time>2003-05-17T09:37:26Z</time>
<speed>1.4</speed>
</trkpt>
<trkpt lat="47.548150" lon="8.519597">
<ele>378.9</ele>
<time>2003-05-17T09:37:31Z</time>
<speed>1.1</speed>
</trkpt>
<trkpt lat="47.548190" lon="8.519656">
<ele>380.2</ele>
<time>2003-05-17T09:37:36Z</time>
<speed>1.1</speed>
</trkpt>
<trkpt lat="47.548230" lon="8.519729">
<ele>380.3</ele>
<time>2003-05-17T09:37:41Z</time>
<speed>1.1</speed>
</trkpt>
<trkpt lat="47.548277" lon="8.519792">
<ele>379.5</ele>
<time>2003-05-17T09:37:46Z</time>
<speed>1.1</speed>
</trkpt>
<trkpt lat="47.548308" lon="8.519890">
<ele>380.5</ele>
<time>2003-05-17T09:37:51Z</time>
<speed>1.1</speed>
</trkpt>
<trkpt lat="47.548355" lon="8.519952">
<ele>379.7</ele>
<time>2003-05-17T09:37:56Z</time>
<speed>1.4</speed>
</trkpt>
<trkpt lat="47.548407" lon="8.520025">
<ele>381.3</ele>
<time>2003-05-17T09:38:01Z</time>
<speed>1.1</speed>
</trkpt>
<trkpt lat="47.548454" lon="8.520088">
<ele>380.5</ele>
<time>2003-05-17T09:38:06Z</time>
<speed>1.4</speed>
</trkpt>
<trkpt lat="47.548506" lon="8.520165">
<ele>379.2</ele>
<time>2003-05-17T09:38:11Z</time>
<speed>1.4</speed>
</trkpt>
<trkpt lat="47.548546" lon="8.520241">
<ele>377.9</ele>
<time>2003-05-17T09:38:16Z</time>
<speed>1.4</speed>
</trkpt>
<trkpt lat="47.548585" lon="8.520328">
<ele>378.0</ele>
<time>2003-05-17T09:38:21Z</time>
<speed>1.4</speed>
</trkpt>
<trkpt lat="47.548624" lon="8.520414">
<ele>378.2</ele>
<time>2003-05-17T09:38:26Z</time>
<speed>1.4</speed>
</trkpt>
<trkpt lat="47.548649" lon="8.520499">
<ele>378.2</ele>
<time>2003-05-17T09:38:31Z</time>
<speed>1.4</speed>
</trkpt>
<trkpt lat="47.548681" lon="8.520584">
<ele>379.0</ele>
<time>2003-05-17T09:38:36Z</time>
<speed>1.1</speed>
</trkpt>
<trkpt lat="47.548715" lon="8.520657">
<ele>378.4</ele>
<time>2003-05-17T09:38:41Z</time>
<speed>1.1</speed>
</trkpt>
<trkpt lat="47.548736" lon="8.520714">
<ele>378.9</ele>
<time>2003-05-17T09:38:46Z</time>
<speed>1.1</speed>
</trkpt>
<trkpt lat="47.548769" lon="8.520800">
<ele>378.3</ele>
<time>2003-05-17T09:38:51Z</time>
<speed>1.1</speed>
</trkpt>
<trkpt lat="47.548795" lon="8.520885">
<ele>378.4</ele>
<time>2003-05-17T09:38:56Z</time>
<speed>1.4</speed>
</trkpt>
<trkpt lat="47.548827" lon="8.520970">
<ele>379.2</ele>
<time>2003-05-17T09:39:01Z</time>
<speed>0.8</speed>
</trkpt>
<trkpt lat="47.548840" lon="8.521053">
<ele>379.2</ele>
<time>2003-05-17T09:39:06Z</time>
<speed>1.1</speed>
</trkpt>
<trkpt lat="47.548885" lon="8.521141">
<ele>378.7</ele>
<time>2003-05-17T09:39:11Z</time>
<speed>1.1</speed>
</trkpt>
<trkpt lat="47.548905" lon="8.521226">
<ele>378.0</ele>
<time>2003-05-17T09:39:16Z</time>
<speed>1.1</speed>
</trkpt>
<trkpt lat="47.548923" lon="8.521322">
<ele>378.8</ele>
<time>2003-05-17T09:39:21Z</time>
<speed>1.1</speed>
</trkpt>
<trkpt lat="47.548941" lon="8.521433">
<ele>378.4</ele>
<time>2003-05-17T09:39:26Z</time>
<speed>1.1</speed>
</trkpt>
<trkpt lat="47.548966" lon="8.521531">
<ele>378.5</ele>
<time>2003-05-17T09:39:31Z</time>
<speed>1.1</speed>
</trkpt>
<trkpt lat="47.548986" lon="8.521616">
<ele>377.9</ele>
<time>2003-05-17T09:39:36Z</time>
<speed>1.1</speed>
</trkpt>
<trkpt lat="47.549013" lon="8.521687">
<ele>377.9</ele>
<time>2003-05-17T09:39:41Z</time>
<speed>1.1</speed>
</trkpt>
<trkpt lat="47.549040" lon="8.521776">
<ele>375.1</ele>
<time>2003-05-17T09:39:46Z</time>
<speed>0.8</speed>
</trkpt>
<trkpt lat="47.549078" lon="8.521863">
<ele>375.3</ele>
<time>2003-05-17T09:39:51Z</time>
<speed>1.1</speed>
</trkpt>
<trkpt lat="47.549098" lon="8.521945">
<ele>376.0</ele>
<time>2003-05-17T09:39:56Z</time>
<speed>1.1</speed>
</trkpt>
<trkpt lat="47.549110" lon="8.522041">
<ele>376.1</ele>
<time>2003-05-17T09:40:01Z</time>
<speed>1.1</speed>
</trkpt>
<trkpt lat="47.549149" lon="8.522128">
<ele>376.3</ele>
<time>2003-05-17T09:40:06Z</time>
<speed>1.1</speed>
</trkpt>
<trkpt lat="47.549174" lon="8.522226">
<ele>376.4</ele>
<time>2003-05-17T09:40:11Z</time>
<speed>1.4</speed>
</trkpt>
<trkpt lat="47.549199" lon="8.522324">
<ele>376.6</ele>
<time>2003-05-17T09:40:16Z</time>
<speed>1.4</speed>
</trkpt>
<trkpt lat="47.549237" lon="8.522410">
<ele>376.7</ele>
<time>2003-05-17T09:40:21Z</time>
<speed>1.1</speed>
</trkpt>
<trkpt lat="47.549276" lon="8.522497">
<ele>376.9</ele>
<time>2003-05-17T09:40:26Z</time>
<speed>1.4</speed>
</trkpt>
<trkpt lat="47.549309" lon="8.522569">
<ele>377.6</ele>
<time>2003-05-17T09:40:31Z</time>
<speed>1.1</speed>
</trkpt>
<trkpt lat="47.549361" lon="8.522629">
<ele>379.0</ele>
<time>2003-05-17T09:40:36Z</time>
<speed>1.1</speed>
</trkpt>
<trkpt lat="47.549430" lon="8.522654">
<ele>378.8</ele>
<time>2003-05-17T09:40:41Z</time>
<speed>1.4</speed>
</trkpt>
<trkpt lat="47.549492" lon="8.522677">
<ele>379.3</ele>
<time>2003-05-17T09:40:46Z</time>
<speed>1.1</speed>
</trkpt>
<trkpt lat="47.549562" lon="8.522689">
<ele>378.9</ele>
<time>2003-05-17T09:40:51Z</time>
<speed>1.1</speed>
</trkpt>
<trkpt lat="47.549638" lon="8.522701">
<ele>379.4</ele>
<time>2003-05-17T09:40:56Z</time>
<speed>1.4</speed>
</trkpt>
<trkpt lat="47.549711" lon="8.522673">
<ele>378.7</ele>
<time>2003-05-17T09:41:01Z</time>
<speed>1.4</speed>
</trkpt>
<trkpt lat="47.549764" lon="8.522641">
<ele>378.7</ele>
<time>2003-05-17T09:41:06Z</time>
<speed>0.8</speed>
</trkpt>
<trkpt lat="47.549812" lon="8.522597">
<ele>377.9</ele>
<time>2003-05-17T09:41:11Z</time>
<speed>0.8</speed>
</trkpt>
<trkpt lat="47.549888" lon="8.522528">
<ele>378.4</ele>
<time>2003-05-17T09:41:16Z</time>
<speed>1.4</speed>
</trkpt>
<trkpt lat="47.549949" lon="8.522470">
<ele>378.9</ele>
<time>2003-05-17T09:41:21Z</time>
<speed>1.1</speed>
</trkpt>
<trkpt lat="47.549994" lon="8.522384">
<ele>378.4</ele>
<time>2003-05-17T09:41:26Z</time>
<speed>1.1</speed>
</trkpt>
<trkpt lat="47.550033" lon="8.522298">
<ele>377.2</ele>
<time>2003-05-17T09:41:31Z</time>
<speed>1.1</speed>
</trkpt>
<trkpt lat="47.550072" lon="8.522199">
<ele>375.8</ele>
<time>2003-05-17T09:41:36Z</time>
<speed>1.1</speed>
</trkpt>
<trkpt lat="47.550105" lon="8.522098">
<ele>375.2</ele>
<time>2003-05-17T09:41:41Z</time>
<speed>1.1</speed>
</trkpt>
<trkpt lat="47.550126" lon="8.521979">
<ele>375.7</ele>
<time>2003-05-17T09:41:46Z</time>
<speed>1.1</speed>
</trkpt>
<trkpt lat="47.550134" lon="8.521872">
<ele>376.4</ele>
<time>2003-05-17T09:41:51Z</time>
<speed>1.1</speed>
</trkpt>
<trkpt lat="47.550120" lon="8.521789">
<ele>376.4</ele>
<time>2003-05-17T09:41:56Z</time>
<speed>1.1</speed>
</trkpt>
<trkpt lat="47.550115" lon="8.521696">
<ele>375.6</ele>
<time>2003-05-17T09:42:01Z</time>
<speed>1.1</speed>
</trkpt>
<trkpt lat="47.550101" lon="8.521611">
<ele>377.0</ele>
<time>2003-05-17T09:42:06Z</time>
<speed>1.1</speed>
</trkpt>
<trkpt lat="47.550089" lon="8.521515">
<ele>376.9</ele>
<time>2003-05-17T09:42:11Z</time>
<speed>1.4</speed>
</trkpt>
<trkpt lat="47.550056" lon="8.521428">
<ele>377.5</ele>
<time>2003-05-17T09:42:16Z</time>
<speed>1.1</speed>
</trkpt>
<trkpt lat="47.550043" lon="8.521345">
<ele>377.5</ele>
<time>2003-05-17T09:42:21Z</time>
<speed>1.1</speed>
</trkpt>
<trkpt lat="47.550004" lon="8.521259">
<ele>377.3</ele>
<time>2003-05-17T09:42:26Z</time>
<speed>1.1</speed>
</trkpt>
<trkpt lat="47.549979" lon="8.521176">
<ele>375.8</ele>
<time>2003-05-17T09:42:31Z</time>
<speed>0.8</speed>
</trkpt>
<trkpt lat="47.549954" lon="8.521078">
<ele>375.7</ele>
<time>2003-05-17T09:42:36Z</time>
<speed>1.1</speed>
</trkpt>
<trkpt lat="47.549935" lon="8.520982">
<ele>374.8</ele>
<time>2003-05-17T09:42:41Z</time>
<speed>1.1</speed>
</trkpt>
<trkpt lat="47.549895" lon="8.520907">
<ele>376.2</ele>
<time>2003-05-17T09:42:46Z</time>
<speed>0.8</speed>
</trkpt>
<trkpt lat="47.549869" lon="8.520835">
<ele>376.2</ele>
<time>2003-05-17T09:42:51Z</time>
<speed>0.6</speed>
</trkpt>
<trkpt lat="47.549856" lon="8.520754">
<ele>374.8</ele>
<time>2003-05-17T09:42:56Z</time>
<speed>0.6</speed>
</trkpt>
<trkpt lat="47.549849" lon="8.520672">
<ele>375.6</ele>
<time>2003-05-17T09:43:01Z</time>
<speed>0.8</speed>
</trkpt>
<trkpt lat="47.549883" lon="8.520636">
<ele>376.1</ele>
<time>2003-05-17T09:43:06Z</time>
<speed>1.1</speed>
</trkpt>
<trkpt lat="47.549937" lon="8.520591">
<ele>376.0</ele>
<time>2003-05-17T09:43:11Z</time>
<speed>1.4</speed>
</trkpt>
<trkpt lat="47.549991" lon="8.520560">
<ele>376.0</ele>
<time>2003-05-17T09:43:16Z</time>
<speed>1.4</speed>
</trkpt>
<trkpt lat="47.550052" lon="8.520502">
<ele>376.5</ele>
<time>2003-05-17T09:43:21Z</time>
<speed>1.4</speed>
</trkpt>
<trkpt lat="47.550091" lon="8.520416">
<ele>375.3</ele>
<time>2003-05-17T09:43:26Z</time>
<speed>1.4</speed>
</trkpt>
<trkpt lat="47.550085" lon="8.520322">
<ele>374.5</ele>
<time>2003-05-17T09:43:31Z</time>
<speed>1.1</speed>
</trkpt>
<trkpt lat="47.550059" lon="8.520237">
<ele>374.4</ele>
<time>2003-05-17T09:43:36Z</time>
<speed>1.1</speed>
</trkpt>
<trkpt lat="47.550041" lon="8.520141">
<ele>373.6</ele>
<time>2003-05-17T09:43:41Z</time>
<speed>1.4</speed>
</trkpt>
<trkpt lat="47.550023" lon="8.520045">
<ele>372.8</ele>
<time>2003-05-17T09:43:46Z</time>
<speed>1.1</speed>
</trkpt>
<trkpt lat="47.549991" lon="8.519961">
<ele>371.9</ele>
<time>2003-05-17T09:43:51Z</time>
<speed>1.1</speed>
</trkpt>
<trkpt lat="47.549966" lon="8.519863">
<ele>371.8</ele>
<time>2003-05-17T09:43:56Z</time>
<speed>1.4</speed>
</trkpt>
<trkpt lat="47.549941" lon="8.519765">
<ele>371.6</ele>
<time>2003-05-17T09:44:01Z</time>
<speed>1.1</speed>
</trkpt>
<trkpt lat="47.549940" lon="8.519684">
<ele>371.7</ele>
<time>2003-05-17T09:44:06Z</time>
<speed>1.1</speed>
</trkpt>
<trkpt lat="47.549921" lon="8.519586">
<ele>372.2</ele>
<time>2003-05-17T09:44:11Z</time>
<speed>1.4</speed>
</trkpt>
<trkpt lat="47.549895" lon="8.519502">
<ele>372.2</ele>
<time>2003-05-17T09:44:16Z</time>
<speed>1.4</speed>
</trkpt>
<trkpt lat="47.549864" lon="8.519402">
<ele>372.7</ele>
<time>2003-05-17T09:44:21Z</time>
<speed>1.1</speed>
</trkpt>
<trkpt lat="47.549831" lon="8.519330">
<ele>371.9</ele>
<time>2003-05-17T09:44:26Z</time>
<speed>1.1</speed>
</trkpt>
<trkpt lat="47.549799" lon="8.519230">
<ele>372.4</ele>
<time>2003-05-17T09:44:31Z</time>
<speed>1.4</speed>
</trkpt>
<trkpt lat="47.549773" lon="8.519146">
<ele>372.4</ele>
<time>2003-05-17T09:44:36Z</time>
<speed>1.1</speed>
</trkpt>
<trkpt lat="47.549753" lon="8.519061">
<ele>373.0</ele>
<time>2003-05-17T09:44:41Z</time>
<speed>1.4</speed>
</trkpt>
<trkpt lat="47.549727" lon="8.518976">
<ele>373.0</ele>
<time>2003-05-17T09:44:46Z</time>
<speed>1.1</speed>
</trkpt>
<trkpt lat="47.549701" lon="8.518891">
<ele>372.9</ele>
<time>2003-05-17T09:44:51Z</time>
<speed>1.4</speed>
</trkpt>
<trkpt lat="47.549683" lon="8.518794">
<ele>373.4</ele>
<time>2003-05-17T09:44:56Z</time>
<speed>1.1</speed>
</trkpt>
<trkpt lat="47.549650" lon="8.518707">
<ele>374.0</ele>
<time>2003-05-17T09:45:01Z</time>
<speed>1.1</speed>
</trkpt>
<trkpt lat="47.549631" lon="8.518609">
<ele>374.6</ele>
<time>2003-05-17T09:45:06Z</time>
<speed>1.4</speed>
</trkpt>
<trkpt lat="47.549619" lon="8.518513">
<ele>374.5</ele>
<time>2003-05-17T09:45:11Z</time>
<speed>1.4</speed>
</trkpt>
<trkpt lat="47.549613" lon="8.518419">
<ele>373.7</ele>
<time>2003-05-17T09:45:16Z</time>
<speed>1.1</speed>
</trkpt>
<trkpt lat="47.549607" lon="8.518325">
<ele>373.0</ele>
<time>2003-05-17T09:45:21Z</time>
<speed>1.1</speed>
</trkpt>
<trkpt lat="47.549596" lon="8.518214">
<ele>374.2</ele>
<time>2003-05-17T09:45:26Z</time>
<speed>1.4</speed>
</trkpt>
<trkpt lat="47.549610" lon="8.518109">
<ele>374.1</ele>
<time>2003-05-17T09:45:31Z</time>
<speed>1.1</speed>
</trkpt>
<trkpt lat="47.549617" lon="8.518002">
<ele>374.7</ele>
<time>2003-05-17T09:45:36Z</time>
<speed>1.1</speed>
</trkpt>
<trkpt lat="47.549649" lon="8.517914">
<ele>374.2</ele>
<time>2003-05-17T09:45:41Z</time>
<speed>1.1</speed>
</trkpt>
<trkpt lat="47.549670" lon="8.517811">
<ele>373.4</ele>
<time>2003-05-17T09:45:46Z</time>
<speed>1.1</speed>
</trkpt>
<trkpt lat="47.549683" lon="8.517719">
<ele>373.5</ele>
<time>2003-05-17T09:45:51Z</time>
<speed>1.4</speed>
</trkpt>
<trkpt lat="47.549702" lon="8.517629">
<ele>372.8</ele>
<time>2003-05-17T09:45:56Z</time>
<speed>1.1</speed>
</trkpt>
<trkpt lat="47.549728" lon="8.517539">
<ele>372.9</ele>
<time>2003-05-17T09:46:01Z</time>
<speed>1.4</speed>
</trkpt>
<trkpt lat="47.549753" lon="8.517449">
<ele>373.0</ele>
<time>2003-05-17T09:46:06Z</time>
<speed>1.4</speed>
</trkpt>
<trkpt lat="47.549772" lon="8.517357">
<ele>373.8</ele>
<time>2003-05-17T09:46:11Z</time>
<speed>1.4</speed>
</trkpt>
<trkpt lat="47.549803" lon="8.517282">
<ele>373.4</ele>
<time>2003-05-17T09:46:16Z</time>
<speed>1.1</speed>
</trkpt>
<trkpt lat="47.549829" lon="8.517192">
<ele>373.5</ele>
<time>2003-05-17T09:46:21Z</time>
<speed>1.4</speed>
</trkpt>
<trkpt lat="47.549873" lon="8.517119">
<ele>373.1</ele>
<time>2003-05-17T09:46:26Z</time>
<speed>1.1</speed>
</trkpt>
<trkpt lat="47.549923" lon="8.517046">
<ele>373.4</ele>
<time>2003-05-17T09:46:31Z</time>
<speed>1.1</speed>
</trkpt>
<trkpt lat="47.549964" lon="8.517000">
<ele>373.2</ele>
<time>2003-05-17T09:46:36Z</time>
<speed>1.4</speed>
</trkpt>
<trkpt lat="47.550002" lon="8.516925">
<ele>373.5</ele>
<time>2003-05-17T09:46:41Z</time>
<speed>1.1</speed>
</trkpt>
<trkpt lat="47.550052" lon="8.516852">
<ele>373.9</ele>
<time>2003-05-17T09:46:46Z</time>
<speed>1.4</speed>
</trkpt>
<trkpt lat="47.550089" lon="8.516777">
<ele>374.2</ele>
<time>2003-05-17T09:46:51Z</time>
<speed>1.1</speed>
</trkpt>
<trkpt lat="47.550133" lon="8.516704">
<ele>373.8</ele>
<time>2003-05-17T09:46:56Z</time>
<speed>1.4</speed>
</trkpt>
<trkpt lat="47.550182" lon="8.516631">
<ele>374.1</ele>
<time>2003-05-17T09:47:01Z</time>
<speed>1.1</speed>
</trkpt>
<trkpt lat="47.550219" lon="8.516571">
<ele>373.1</ele>
<time>2003-05-17T09:47:06Z</time>
<speed>1.1</speed>
</trkpt>
<trkpt lat="47.550281" lon="8.516513">
<ele>373.6</ele>
<time>2003-05-17T09:47:11Z</time>
<speed>1.4</speed>
</trkpt>
<trkpt lat="47.550325" lon="8.516440">
<ele>373.2</ele>
<time>2003-05-17T09:47:16Z</time>
<speed>1.4</speed>
</trkpt>
<trkpt lat="47.550368" lon="8.516368">
<ele>372.8</ele>
<time>2003-05-17T09:47:21Z</time>
<speed>1.4</speed>
</trkpt>
<trkpt lat="47.550424" lon="8.516310">
<ele>372.6</ele>
<time>2003-05-17T09:47:26Z</time>
<speed>1.4</speed>
</trkpt>
<trkpt lat="47.550468" lon="8.516237">
<ele>372.2</ele>
<time>2003-05-17T09:47:31Z</time>
<speed>1.1</speed>
</trkpt>
<trkpt lat="47.550517" lon="8.516164">
<ele>372.6</ele>
<time>2003-05-17T09:47:36Z</time>
<speed>1.4</speed>
</trkpt>
<trkpt lat="47.550566" lon="8.516104">
<ele>373.0</ele>
<time>2003-05-17T09:47:41Z</time>
<speed>1.1</speed>
</trkpt>
<trkpt lat="47.550610" lon="8.516031">
<ele>372.6</ele>
<time>2003-05-17T09:47:46Z</time>
<speed>1.4</speed>
</trkpt>
<trkpt lat="47.550660" lon="8.515958">
<ele>373.0</ele>
<time>2003-05-17T09:47:51Z</time>
<speed>1.1</speed>
</trkpt>
<trkpt lat="47.550715" lon="8.515900">
<ele>372.8</ele>
<time>2003-05-17T09:47:56Z</time>
<speed>1.4</speed>
</trkpt>
<trkpt lat="47.550770" lon="8.515856">
<ele>372.6</ele>
<time>2003-05-17T09:48:01Z</time>
<speed>1.1</speed>
</trkpt>
<trkpt lat="47.550820" lon="8.515783">
<ele>373.0</ele>
<time>2003-05-17T09:48:06Z</time>
<speed>1.1</speed>
</trkpt>
<trkpt lat="47.550863" lon="8.515723">
<ele>372.7</ele>
<time>2003-05-17T09:48:11Z</time>
<speed>1.1</speed>
</trkpt>
<trkpt lat="47.550905" lon="8.515663">
<ele>372.4</ele>
<time>2003-05-17T09:48:16Z</time>
<speed>1.1</speed>
</trkpt>
<trkpt lat="47.550937" lon="8.515588">
<ele>372.0</ele>
<time>2003-05-17T09:48:21Z</time>
<speed>0.8</speed>
</trkpt>
<trkpt lat="47.550992" lon="8.515531">
<ele>371.7</ele>
<time>2003-05-17T09:48:26Z</time>
<speed>1.1</speed>
</trkpt>
<trkpt lat="47.551049" lon="8.515446">
<ele>371.3</ele>
<time>2003-05-17T09:48:31Z</time>
<speed>1.1</speed>
</trkpt>
<trkpt lat="47.551087" lon="8.515372">
<ele>371.6</ele>
<time>2003-05-17T09:48:36Z</time>
<speed>1.1</speed>
</trkpt>
<trkpt lat="47.551124" lon="8.515299">
<ele>370.5</ele>
<time>2003-05-17T09:48:41Z</time>
<speed>1.1</speed>
</trkpt>
<trkpt lat="47.551162" lon="8.515226">
<ele>369.3</ele>
<time>2003-05-17T09:48:46Z</time>
<speed>0.8</speed>
</trkpt>
<trkpt lat="47.551194" lon="8.515136">
<ele>370.2</ele>
<time>2003-05-17T09:48:51Z</time>
<speed>1.1</speed>
</trkpt>
<trkpt lat="47.551218" lon="8.515059">
<ele>370.4</ele>
<time>2003-05-17T09:48:56Z</time>
<speed>1.1</speed>
</trkpt>
<trkpt lat="47.551250" lon="8.514971">
<ele>369.8</ele>
<time>2003-05-17T09:49:01Z</time>
<speed>1.1</speed>
</trkpt>
<trkpt lat="47.551295" lon="8.514885">
<ele>369.4</ele>
<time>2003-05-17T09:49:06Z</time>
<speed>1.1</speed>
</trkpt>
<trkpt lat="47.551327" lon="8.514797">
<ele>368.8</ele>
<time>2003-05-17T09:49:11Z</time>
<speed>1.1</speed>
</trkpt>
<trkpt lat="47.551347" lon="8.514707">
<ele>368.2</ele>
<time>2003-05-17T09:49:16Z</time>
<speed>1.4</speed>
</trkpt>
<trkpt lat="47.551372" lon="8.514617">
<ele>368.3</ele>
<time>2003-05-17T09:49:21Z</time>
<speed>1.1</speed>
</trkpt>
<trkpt lat="47.551379" lon="8.514523">
<ele>369.0</ele>
<time>2003-05-17T09:49:26Z</time>
<speed>1.1</speed>
</trkpt>
<trkpt lat="47.551397" lon="8.514446">
<ele>368.5</ele>
<time>2003-05-17T09:49:31Z</time>
<speed>1.1</speed>
</trkpt>
<trkpt lat="47.551430" lon="8.514343">
<ele>369.2</ele>
<time>2003-05-17T09:49:36Z</time>
<speed>1.1</speed>
</trkpt>
<trkpt lat="47.551451" lon="8.514240">
<ele>368.5</ele>
<time>2003-05-17T09:49:41Z</time>
<speed>1.4</speed>
</trkpt>
<trkpt lat="47.551463" lon="8.514148">
<ele>368.5</ele>
<time>2003-05-17T09:49:46Z</time>
<speed>1.1</speed>
</trkpt>
<trkpt lat="47.551471" lon="8.514041">
<ele>369.1</ele>
<time>2003-05-17T09:49:51Z</time>
<speed>1.1</speed>
</trkpt>
<trkpt lat="47.551478" lon="8.513949">
<ele>368.4</ele>
<time>2003-05-17T09:49:56Z</time>
<speed>1.4</speed>
</trkpt>
<trkpt lat="47.551478" lon="8.513855">
<ele>368.4</ele>
<time>2003-05-17T09:50:01Z</time>
<speed>1.4</speed>
</trkpt>
<trkpt lat="47.551484" lon="8.513761">
<ele>369.1</ele>
<time>2003-05-17T09:50:06Z</time>
<speed>1.4</speed>
</trkpt>
<trkpt lat="47.551492" lon="8.513656">
<ele>368.3</ele>
<time>2003-05-17T09:50:11Z</time>
<speed>1.4</speed>
</trkpt>
<trkpt lat="47.551493" lon="8.513562">
<ele>368.3</ele>
<time>2003-05-17T09:50:16Z</time>
<speed>1.4</speed>
</trkpt>
<trkpt lat="47.551480" lon="8.513466">
<ele>368.2</ele>
<time>2003-05-17T09:50:21Z</time>
<speed>1.1</speed>
</trkpt>
<trkpt lat="47.551481" lon="8.513372">
<ele>368.1</ele>
<time>2003-05-17T09:50:26Z</time>
<speed>1.1</speed>
</trkpt>
<trkpt lat="47.551476" lon="8.513265">
<ele>367.3</ele>
<time>2003-05-17T09:50:31Z</time>
<speed>1.1</speed>
</trkpt>
<trkpt lat="47.551463" lon="8.513169">
<ele>367.2</ele>
<time>2003-05-17T09:50:36Z</time>
<speed>1.1</speed>
</trkpt>
<trkpt lat="47.551458" lon="8.513075">
<ele>366.4</ele>
<time>2003-05-17T09:50:41Z</time>
<speed>1.4</speed>
</trkpt>
<trkpt lat="47.551445" lon="8.512979">
<ele>366.3</ele>
<time>2003-05-17T09:50:46Z</time>
<speed>1.1</speed>
</trkpt>
<trkpt lat="47.551440" lon="8.512870">
<ele>366.8</ele>
<time>2003-05-17T09:50:51Z</time>
<speed>1.4</speed>
</trkpt>
<trkpt lat="47.551440" lon="8.512776">
<ele>366.8</ele>
<time>2003-05-17T09:50:56Z</time>
<speed>1.1</speed>
</trkpt>
<trkpt lat="47.551435" lon="8.512667">
<ele>367.3</ele>
<time>2003-05-17T09:51:01Z</time>
<speed>1.4</speed>
</trkpt>
<trkpt lat="47.551436" lon="8.512573">
<ele>367.3</ele>
<time>2003-05-17T09:51:06Z</time>
<speed>1.1</speed>
</trkpt>
<trkpt lat="47.551422" lon="8.512490">
<ele>367.3</ele>
<time>2003-05-17T09:51:11Z</time>
<speed>1.4</speed>
</trkpt>
<trkpt lat="47.551423" lon="8.512396">
<ele>367.3</ele>
<time>2003-05-17T09:51:16Z</time>
<speed>1.1</speed>
</trkpt>
<trkpt lat="47.551416" lon="8.512300">
<ele>367.9</ele>
<time>2003-05-17T09:51:21Z</time>
<speed>1.1</speed>
</trkpt>
<trkpt lat="47.551404" lon="8.512205">
<ele>367.8</ele>
<time>2003-05-17T09:51:26Z</time>
<speed>1.1</speed>
</trkpt>
<trkpt lat="47.551398" lon="8.512109">
<ele>368.4</ele>
<time>2003-05-17T09:51:31Z</time>
<speed>1.1</speed>
</trkpt>
<trkpt lat="47.551398" lon="8.512015">
<ele>368.4</ele>
<time>2003-05-17T09:51:36Z</time>
<speed>1.1</speed>
</trkpt>
<trkpt lat="47.551392" lon="8.511919">
<ele>369.0</ele>
<time>2003-05-17T09:51:41Z</time>
<speed>1.1</speed>
</trkpt>
<trkpt lat="47.551386" lon="8.511825">
<ele>368.3</ele>
<time>2003-05-17T09:51:46Z</time>
<speed>1.1</speed>
</trkpt>
<trkpt lat="47.551386" lon="8.511731">
<ele>368.2</ele>
<time>2003-05-17T09:51:51Z</time>
<speed>1.1</speed>
</trkpt>
<trkpt lat="47.551381" lon="8.511637">
<ele>367.5</ele>
<time>2003-05-17T09:51:56Z</time>
<speed>1.1</speed>
</trkpt>
<trkpt lat="47.551373" lon="8.511554">
<ele>368.2</ele>
<time>2003-05-17T09:52:01Z</time>
<speed>1.1</speed>
</trkpt>
<trkpt lat="47.551375" lon="8.511447">
<ele>368.1</ele>
<time>2003-05-17T09:52:06Z</time>
<speed>1.1</speed>
</trkpt>
<trkpt lat="47.551375" lon="8.511353">
<ele>368.0</ele>
<time>2003-05-17T09:52:11Z</time>
<speed>1.1</speed>
</trkpt>
<trkpt lat="47.551368" lon="8.511270">
<ele>368.8</ele>
<time>2003-05-17T09:52:16Z</time>
<speed>0.8</speed>
</trkpt>
<trkpt lat="47.551362" lon="8.511177">
<ele>368.0</ele>
<time>2003-05-17T09:52:21Z</time>
<speed>1.1</speed>
</trkpt>
<trkpt lat="47.551350" lon="8.511081">
<ele>367.9</ele>
<time>2003-05-17T09:52:26Z</time>
<speed>1.1</speed>
</trkpt>
<trkpt lat="47.551344" lon="8.510987">
<ele>367.1</ele>
<time>2003-05-17T09:52:31Z</time>
<speed>1.1</speed>
</trkpt>
<trkpt lat="47.551325" lon="8.510891">
<ele>366.3</ele>
<time>2003-05-17T09:52:36Z</time>
<speed>1.4</speed>
</trkpt>
<trkpt lat="47.551321" lon="8.510784">
<ele>365.4</ele>
<time>2003-05-17T09:52:41Z</time>
<speed>1.1</speed>
</trkpt>
<trkpt lat="47.551315" lon="8.510675">
<ele>365.9</ele>
<time>2003-05-17T09:52:46Z</time>
<speed>1.1</speed>
</trkpt>
<trkpt lat="47.551315" lon="8.510594">
<ele>366.0</ele>
<time>2003-05-17T09:52:51Z</time>
<speed>1.1</speed>
</trkpt>
<trkpt lat="47.551321" lon="8.510500">
<ele>366.7</ele>
<time>2003-05-17T09:52:56Z</time>
<speed>0.8</speed>
</trkpt>
<trkpt lat="47.551327" lon="8.510419">
<ele>367.5</ele>
<time>2003-05-17T09:53:01Z</time>
<speed>1.1</speed>
</trkpt>
<trkpt lat="47.551314" lon="8.510323">
<ele>367.4</ele>
<time>2003-05-17T09:53:06Z</time>
<speed>0.8</speed>
</trkpt>
<trkpt lat="47.551315" lon="8.510229">
<ele>367.4</ele>
<time>2003-05-17T09:53:11Z</time>
<speed>1.1</speed>
</trkpt>
<trkpt lat="47.551316" lon="8.510122">
<ele>367.3</ele>
<time>2003-05-17T09:53:16Z</time>
<speed>1.4</speed>
</trkpt>
<trkpt lat="47.551310" lon="8.510028">
<ele>366.5</ele>
<time>2003-05-17T09:53:21Z</time>
<speed>1.1</speed>
</trkpt>
<trkpt lat="47.551291" lon="8.509930">
<ele>367.1</ele>
<time>2003-05-17T09:53:26Z</time>
<speed>1.1</speed>
</trkpt>
<trkpt lat="47.551285" lon="8.509835">
<ele>367.7</ele>
<time>2003-05-17T09:53:31Z</time>
<speed>1.1</speed>
</trkpt>
<trkpt lat="47.551279" lon="8.509741">
<ele>366.9</ele>
<time>2003-05-17T09:53:36Z</time>
<speed>1.4</speed>
</trkpt>
<trkpt lat="47.551268" lon="8.509632">
<ele>366.7</ele>
<time>2003-05-17T09:53:41Z</time>
<speed>1.1</speed>
</trkpt>
<trkpt lat="47.551288" lon="8.509526">
<ele>367.4</ele>
<time>2003-05-17T09:53:46Z</time>
<speed>1.4</speed>
</trkpt>
<trkpt lat="47.551275" lon="8.509431">
<ele>367.3</ele>
<time>2003-05-17T09:53:51Z</time>
<speed>1.4</speed>
</trkpt>
<trkpt lat="47.551276" lon="8.509337">
<ele>367.3</ele>
<time>2003-05-17T09:53:56Z</time>
<speed>1.4</speed>
</trkpt>
<trkpt lat="47.551278" lon="8.509232">
<ele>365.7</ele>
<time>2003-05-17T09:54:01Z</time>
<speed>1.1</speed>
</trkpt>
<trkpt lat="47.551271" lon="8.509136">
<ele>366.4</ele>
<time>2003-05-17T09:54:06Z</time>
<speed>1.4</speed>
</trkpt>
<trkpt lat="47.551272" lon="8.509042">
<ele>366.3</ele>
<time>2003-05-17T09:54:11Z</time>
<speed>1.1</speed>
</trkpt>
<trkpt lat="47.551259" lon="8.508946">
<ele>366.2</ele>
<time>2003-05-17T09:54:16Z</time>
<speed>1.1</speed>
</trkpt>
<trkpt lat="47.551246" lon="8.508863">
<ele>366.2</ele>
<time>2003-05-17T09:54:21Z</time>
<speed>1.1</speed>
</trkpt>
<trkpt lat="47.551247" lon="8.508756">
<ele>366.1</ele>
<time>2003-05-17T09:54:26Z</time>
<speed>1.4</speed>
</trkpt>
<trkpt lat="47.551242" lon="8.508662">
<ele>365.3</ele>
<time>2003-05-17T09:54:31Z</time>
<speed>1.1</speed>
</trkpt>
<trkpt lat="47.551235" lon="8.508566">
<ele>366.0</ele>
<time>2003-05-17T09:54:36Z</time>
<speed>1.1</speed>
</trkpt>
<trkpt lat="47.551229" lon="8.508470">
<ele>366.6</ele>
<time>2003-05-17T09:54:41Z</time>
<speed>1.4</speed>
</trkpt>
<trkpt lat="47.551224" lon="8.508363">
<ele>365.7</ele>
<time>2003-05-17T09:54:46Z</time>
<speed>1.1</speed>
</trkpt>
<trkpt lat="47.551225" lon="8.508269">
<ele>365.7</ele>
<time>2003-05-17T09:54:51Z</time>
<speed>1.4</speed>
</trkpt>
<trkpt lat="47.551212" lon="8.508173">
<ele>365.6</ele>
<time>2003-05-17T09:54:56Z</time>
<speed>1.1</speed>
</trkpt>
<trkpt lat="47.551200" lon="8.508077">
<ele>365.5</ele>
<time>2003-05-17T09:55:01Z</time>
<speed>0.8</speed>
</trkpt>
<trkpt lat="47.551256" lon="8.507970">
<ele>372.0</ele>
<time>2003-05-17T09:55:06Z</time>
<speed>1.4</speed>
</trkpt>
<trkpt lat="47.551245" lon="8.507861">
<ele>371.8</ele>
<time>2003-05-17T09:55:11Z</time>
<speed>1.4</speed>
</trkpt>
<trkpt lat="47.551225" lon="8.507779">
<ele>371.1</ele>
<time>2003-05-17T09:55:16Z</time>
<speed>1.4</speed>
</trkpt>
<trkpt lat="47.551219" lon="8.507685">
<ele>370.3</ele>
<time>2003-05-17T09:55:21Z</time>
<speed>1.4</speed>
</trkpt>
<trkpt lat="47.551202" lon="8.507576">
<ele>369.4</ele>
<time>2003-05-17T09:55:26Z</time>
<speed>1.1</speed>
</trkpt>
<trkpt lat="47.551195" lon="8.507495">
<ele>368.7</ele>
<time>2003-05-17T09:55:31Z</time>
<speed>1.1</speed>
</trkpt>
<trkpt lat="47.551189" lon="8.507399">
<ele>369.3</ele>
<time>2003-05-17T09:55:36Z</time>
<speed>1.1</speed>
</trkpt>
<trkpt lat="47.551183" lon="8.507305">
<ele>368.6</ele>
<time>2003-05-17T09:55:41Z</time>
<speed>1.4</speed>
</trkpt>
<trkpt lat="47.551171" lon="8.507209">
<ele>368.5</ele>
<time>2003-05-17T09:55:46Z</time>
<speed>1.1</speed>
</trkpt>
<trkpt lat="47.551159" lon="8.507113">
<ele>368.3</ele>
<time>2003-05-17T09:55:51Z</time>
<speed>1.1</speed>
</trkpt>
<trkpt lat="47.551165" lon="8.507019">
<ele>369.1</ele>
<time>2003-05-17T09:55:56Z</time>
<speed>1.4</speed>
</trkpt>
<trkpt lat="47.551173" lon="8.506899">
<ele>369.6</ele>
<time>2003-05-17T09:56:02Z</time>
<speed>1.4</speed>
</trkpt>
<trkpt lat="47.551174" lon="8.506807">
<ele>368.1</ele>
<time>2003-05-17T09:56:07Z</time>
<speed>1.4</speed>
</trkpt>
<trkpt lat="47.551174" lon="8.506713">
<ele>368.1</ele>
<time>2003-05-17T09:56:12Z</time>
<speed>1.1</speed>
</trkpt>
<trkpt lat="47.551181" lon="8.506621">
<ele>367.4</ele>
<time>2003-05-17T09:56:17Z</time>
<speed>1.1</speed>
</trkpt>
<trkpt lat="47.551182" lon="8.506527">
<ele>367.4</ele>
<time>2003-05-17T09:56:22Z</time>
<speed>1.1</speed>
</trkpt>
<trkpt lat="47.551181" lon="8.506446">
<ele>367.4</ele>
<time>2003-05-17T09:56:27Z</time>
<speed>0.8</speed>
</trkpt>
<trkpt lat="47.551194" lon="8.506354">
<ele>367.5</ele>
<time>2003-05-17T09:56:32Z</time>
<speed>1.4</speed>
</trkpt>
<trkpt lat="47.551208" lon="8.506249">
<ele>367.4</ele>
<time>2003-05-17T09:56:37Z</time>
<speed>1.4</speed>
</trkpt>
<trkpt lat="47.551221" lon="8.506159">
<ele>366.0</ele>
<time>2003-05-17T09:56:42Z</time>
<speed>1.1</speed>
</trkpt>
<trkpt lat="47.551228" lon="8.506067">
<ele>365.3</ele>
<time>2003-05-17T09:56:47Z</time>
<speed>1.4</speed>
</trkpt>
<trkpt lat="47.551248" lon="8.505977">
<ele>364.7</ele>
<time>2003-05-17T09:56:52Z</time>
<speed>1.1</speed>
</trkpt>
<trkpt lat="47.551273" lon="8.505887">
<ele>364.8</ele>
<time>2003-05-17T09:56:57Z</time>
<speed>1.4</speed>
</trkpt>
<trkpt lat="47.551299" lon="8.505799">
<ele>363.5</ele>
<time>2003-05-17T09:57:02Z</time>
<speed>1.1</speed>
</trkpt>
<trkpt lat="47.551331" lon="8.505711">
<ele>363.0</ele>
<time>2003-05-17T09:57:07Z</time>
<speed>1.4</speed>
</trkpt>
<trkpt lat="47.551356" lon="8.505634">
<ele>363.2</ele>
<time>2003-05-17T09:57:12Z</time>
<speed>1.4</speed>
</trkpt>
<trkpt lat="47.551388" lon="8.505546">
<ele>362.6</ele>
<time>2003-05-17T09:57:17Z</time>
<speed>1.4</speed>
</trkpt>
<trkpt lat="47.551420" lon="8.505456">
<ele>363.5</ele>
<time>2003-05-17T09:57:22Z</time>
<speed>1.4</speed>
</trkpt>
<trkpt lat="47.551452" lon="8.505368">
<ele>362.9</ele>
<time>2003-05-17T09:57:27Z</time>
<speed>1.4</speed>
</trkpt>
<trkpt lat="47.551483" lon="8.505293">
<ele>362.5</ele>
<time>2003-05-17T09:57:32Z</time>
<speed>1.7</speed>
</trkpt>
<trkpt lat="47.551521" lon="8.505205">
<ele>362.6</ele>
<time>2003-05-17T09:57:37Z</time>
<speed>1.1</speed>
</trkpt>
<trkpt lat="47.551547" lon="8.505115">
<ele>362.7</ele>
<time>2003-05-17T09:57:42Z</time>
<speed>1.4</speed>
</trkpt>
<trkpt lat="47.551578" lon="8.505040">
<ele>362.3</ele>
<time>2003-05-17T09:57:47Z</time>
<speed>1.4</speed>
</trkpt>
<trkpt lat="47.551604" lon="8.504950">
<ele>362.4</ele>
<time>2003-05-17T09:57:52Z</time>
<speed>1.1</speed>
</trkpt>
<trkpt lat="47.551635" lon="8.504876">
<ele>361.9</ele>
<time>2003-05-17T09:57:57Z</time>
<speed>1.1</speed>
</trkpt>
<trkpt lat="47.551672" lon="8.504801">
<ele>362.2</ele>
<time>2003-05-17T09:58:02Z</time>
<speed>1.4</speed>
</trkpt>
<trkpt lat="47.551704" lon="8.504713">
<ele>361.7</ele>
<time>2003-05-17T09:58:07Z</time>
<speed>1.1</speed>
</trkpt>
<trkpt lat="47.551730" lon="8.504623">
<ele>361.8</ele>
<time>2003-05-17T09:58:12Z</time>
<speed>1.4</speed>
</trkpt>
<trkpt lat="47.551767" lon="8.504548">
<ele>362.0</ele>
<time>2003-05-17T09:58:17Z</time>
<speed>1.1</speed>
</trkpt>
<trkpt lat="47.551805" lon="8.504460">
<ele>362.2</ele>
<time>2003-05-17T09:58:22Z</time>
<speed>1.4</speed>
</trkpt>
<trkpt lat="47.551836" lon="8.504385">
<ele>361.8</ele>
<time>2003-05-17T09:58:27Z</time>
<speed>1.1</speed>
</trkpt>
<trkpt lat="47.551880" lon="8.504312">
<ele>361.4</ele>
<time>2003-05-17T09:58:32Z</time>
<speed>1.4</speed>
</trkpt>
<trkpt lat="47.551924" lon="8.504239">
<ele>361.0</ele>
<time>2003-05-17T09:58:37Z</time>
<speed>1.4</speed>
</trkpt>
<trkpt lat="47.551968" lon="8.504166">
<ele>360.6</ele>
<time>2003-05-17T09:58:42Z</time>
<speed>1.1</speed>
</trkpt>
<trkpt lat="47.552011" lon="8.504093">
<ele>360.2</ele>
<time>2003-05-17T09:58:47Z</time>
<speed>1.4</speed>
</trkpt>
<trkpt lat="47.552054" lon="8.504033">
<ele>359.9</ele>
<time>2003-05-17T09:58:52Z</time>
<speed>1.4</speed>
</trkpt>
<trkpt lat="47.552110" lon="8.503975">
<ele>359.7</ele>
<time>2003-05-17T09:58:57Z</time>
<speed>1.4</speed>
</trkpt>
<trkpt lat="47.552153" lon="8.503902">
<ele>359.3</ele>
<time>2003-05-17T09:59:02Z</time>
<speed>1.4</speed>
</trkpt>
<trkpt lat="47.552202" lon="8.503843">
<ele>359.8</ele>
<time>2003-05-17T09:59:07Z</time>
<speed>1.1</speed>
</trkpt>
<trkpt lat="47.552251" lon="8.503783">
<ele>360.2</ele>
<time>2003-05-17T09:59:12Z</time>
<speed>1.4</speed>
</trkpt>
<trkpt lat="47.552302" lon="8.503712">
<ele>359.2</ele>
<time>2003-05-17T09:59:17Z</time>
<speed>1.1</speed>
</trkpt>
<trkpt lat="47.552350" lon="8.503652">
<ele>359.6</ele>
<time>2003-05-17T09:59:22Z</time>
<speed>1.1</speed>
</trkpt>
<trkpt lat="47.552393" lon="8.503592">
<ele>359.3</ele>
<time>2003-05-17T09:59:27Z</time>
<speed>1.4</speed>
</trkpt>
<trkpt lat="47.552442" lon="8.503532">
<ele>359.8</ele>
<time>2003-05-17T09:59:32Z</time>
<speed>1.1</speed>
</trkpt>
<trkpt lat="47.552486" lon="8.503459">
<ele>359.4</ele>
<time>2003-05-17T09:59:37Z</time>
<speed>1.4</speed>
</trkpt>
<trkpt lat="47.552535" lon="8.503400">
<ele>359.8</ele>
<time>2003-05-17T09:59:42Z</time>
<speed>1.1</speed>
</trkpt>
<trkpt lat="47.552584" lon="8.503342">
<ele>358.9</ele>
<time>2003-05-17T09:59:47Z</time>
<speed>1.4</speed>
</trkpt>
<trkpt lat="47.552634" lon="8.503269">
<ele>359.2</ele>
<time>2003-05-17T09:59:52Z</time>
<speed>1.4</speed>
</trkpt>
<trkpt lat="47.552677" lon="8.503209">
<ele>359.0</ele>
<time>2003-05-17T09:59:57Z</time>
<speed>1.1</speed>
</trkpt>
<trkpt lat="47.552721" lon="8.503136">
<ele>358.6</ele>
<time>2003-05-17T10:00:02Z</time>
<speed>1.4</speed>
</trkpt>
<trkpt lat="47.552763" lon="8.503076">
<ele>358.3</ele>
<time>2003-05-17T10:00:07Z</time>
<speed>1.4</speed>
</trkpt>
<trkpt lat="47.552813" lon="8.503003">
<ele>358.6</ele>
<time>2003-05-17T10:00:12Z</time>
<speed>1.1</speed>
</trkpt>
<trkpt lat="47.552862" lon="8.502944">
<ele>359.1</ele>
<time>2003-05-17T10:00:17Z</time>
<speed>1.1</speed>
</trkpt>
<trkpt lat="47.552906" lon="8.502871">
<ele>358.7</ele>
<time>2003-05-17T10:00:22Z</time>
<speed>1.1</speed>
</trkpt>
<trkpt lat="47.552955" lon="8.502811">
<ele>359.1</ele>
<time>2003-05-17T10:00:27Z</time>
<speed>1.4</speed>
</trkpt>
<trkpt lat="47.552999" lon="8.502738">
<ele>358.8</ele>
<time>2003-05-17T10:00:32Z</time>
<speed>1.1</speed>
</trkpt>
<trkpt lat="47.553047" lon="8.502678">
<ele>359.2</ele>
<time>2003-05-17T10:00:37Z</time>
<speed>1.7</speed>
</trkpt>
<trkpt lat="47.553098" lon="8.502607">
<ele>358.2</ele>
<time>2003-05-17T10:00:42Z</time>
<speed>1.4</speed>
</trkpt>
<trkpt lat="47.553148" lon="8.502534">
<ele>358.5</ele>
<time>2003-05-17T10:00:47Z</time>
<speed>1.4</speed>
</trkpt>
<trkpt lat="47.553197" lon="8.502474">
<ele>359.0</ele>
<time>2003-05-17T10:00:52Z</time>
<speed>1.4</speed>
</trkpt>
<trkpt lat="47.553246" lon="8.502401">
<ele>359.3</ele>
<time>2003-05-17T10:00:57Z</time>
<speed>1.4</speed>
</trkpt>
<trkpt lat="47.553297" lon="8.502330">
<ele>358.2</ele>
<time>2003-05-17T10:01:02Z</time>
<speed>1.4</speed>
</trkpt>
<trkpt lat="47.553346" lon="8.502271">
<ele>358.7</ele>
<time>2003-05-17T10:01:07Z</time>
<speed>1.4</speed>
</trkpt>
<trkpt lat="47.553389" lon="8.502198">
<ele>358.3</ele>
<time>2003-05-17T10:01:12Z</time>
<speed>1.4</speed>
</trkpt>
<trkpt lat="47.553432" lon="8.502138">
<ele>358.0</ele>
<time>2003-05-17T10:01:17Z</time>
<speed>1.4</speed>
</trkpt>
<trkpt lat="47.553482" lon="8.502065">
<ele>358.4</ele>
<time>2003-05-17T10:01:22Z</time>
<speed>1.1</speed>
</trkpt>
<trkpt lat="47.553532" lon="8.501994">
<ele>357.3</ele>
<time>2003-05-17T10:01:27Z</time>
<speed>1.4</speed>
</trkpt>
<trkpt lat="47.553581" lon="8.501934">
<ele>357.8</ele>
<time>2003-05-17T10:01:32Z</time>
<speed>1.4</speed>
</trkpt>
<trkpt lat="47.553625" lon="8.501861">
<ele>357.4</ele>
<time>2003-05-17T10:01:37Z</time>
<speed>1.4</speed>
</trkpt>
<trkpt lat="47.553680" lon="8.501801">
<ele>358.6</ele>
<time>2003-05-17T10:01:42Z</time>
<speed>1.4</speed>
</trkpt>
<trkpt lat="47.553724" lon="8.501729">
<ele>358.2</ele>
<time>2003-05-17T10:01:47Z</time>
<speed>1.1</speed>
</trkpt>
<trkpt lat="47.553768" lon="8.501656">
<ele>357.8</ele>
<time>2003-05-17T10:01:52Z</time>
<speed>1.1</speed>
</trkpt>
<trkpt lat="47.553804" lon="8.501594">
<ele>358.2</ele>
<time>2003-05-17T10:01:57Z</time>
<speed>1.1</speed>
</trkpt>
<trkpt lat="47.553854" lon="8.501523">
<ele>357.1</ele>
<time>2003-05-17T10:02:02Z</time>
<speed>1.4</speed>
</trkpt>
<trkpt lat="47.553903" lon="8.501463">
<ele>357.6</ele>
<time>2003-05-17T10:02:07Z</time>
<speed>1.4</speed>
</trkpt>
<trkpt lat="47.553946" lon="8.501403">
<ele>357.3</ele>
<time>2003-05-17T10:02:12Z</time>
<speed>1.1</speed>
</trkpt>
<trkpt lat="47.554001" lon="8.501345">
<ele>357.1</ele>
<time>2003-05-17T10:02:17Z</time>
<speed>1.4</speed>
</trkpt>
<trkpt lat="47.554049" lon="8.501299">
<ele>357.6</ele>
<time>2003-05-17T10:02:22Z</time>
<speed>1.4</speed>
</trkpt>
<trkpt lat="47.554100" lon="8.501228">
<ele>356.6</ele>
<time>2003-05-17T10:02:27Z</time>
<speed>1.4</speed>
</trkpt>
<trkpt lat="47.554156" lon="8.501157">
<ele>356.2</ele>
<time>2003-05-17T10:02:32Z</time>
<speed>1.1</speed>
</trkpt>
<trkpt lat="47.554200" lon="8.501084">
<ele>355.9</ele>
<time>2003-05-17T10:02:37Z</time>
<speed>1.1</speed>
</trkpt>
<trkpt lat="47.554243" lon="8.501024">
<ele>355.6</ele>
<time>2003-05-17T10:02:42Z</time>
<speed>1.4</speed>
</trkpt>
<trkpt lat="47.554299" lon="8.500953">
<ele>355.3</ele>
<time>2003-05-17T10:02:47Z</time>
<speed>1.4</speed>
</trkpt>
<trkpt lat="47.554348" lon="8.500893">
<ele>355.7</ele>
<time>2003-05-17T10:02:52Z</time>
<speed>1.4</speed>
</trkpt>
<trkpt lat="47.554398" lon="8.500820">
<ele>356.1</ele>
<time>2003-05-17T10:02:57Z</time>
<speed>1.4</speed>
</trkpt>
<trkpt lat="47.554441" lon="8.500745">
<ele>357.1</ele>
<time>2003-05-17T10:03:02Z</time>
<speed>1.4</speed>
</trkpt>
<trkpt lat="47.554490" lon="8.500686">
<ele>357.5</ele>
<time>2003-05-17T10:03:07Z</time>
<speed>1.1</speed>
</trkpt>
<trkpt lat="47.554539" lon="8.500626">
<ele>358.0</ele>
<time>2003-05-17T10:03:12Z</time>
<speed>1.1</speed>
</trkpt>
<trkpt lat="47.554589" lon="8.500555">
<ele>356.9</ele>
<time>2003-05-17T10:03:17Z</time>
<speed>1.4</speed>
</trkpt>
<trkpt lat="47.554633" lon="8.500482">
<ele>356.5</ele>
<time>2003-05-17T10:03:22Z</time>
<speed>1.1</speed>
</trkpt>
<trkpt lat="47.554675" lon="8.500420">
<ele>357.6</ele>
<time>2003-05-17T10:03:27Z</time>
<speed>1.1</speed>
</trkpt>
<trkpt lat="47.554725" lon="8.500347">
<ele>358.0</ele>
<time>2003-05-17T10:03:32Z</time>
<speed>1.4</speed>
</trkpt>
<trkpt lat="47.554768" lon="8.500287">
<ele>357.7</ele>
<time>2003-05-17T10:03:37Z</time>
<speed>1.1</speed>
</trkpt>
<trkpt lat="47.554824" lon="8.500216">
<ele>357.4</ele>
<time>2003-05-17T10:03:42Z</time>
<speed>1.4</speed>
</trkpt>
<trkpt lat="47.554880" lon="8.500158">
<ele>357.2</ele>
<time>2003-05-17T10:03:47Z</time>
<speed>1.1</speed>
</trkpt>
<trkpt lat="47.554930" lon="8.500086">
<ele>357.5</ele>
<time>2003-05-17T10:03:52Z</time>
<speed>1.4</speed>
</trkpt>
<trkpt lat="47.554953" lon="8.500022">
<ele>357.8</ele>
<time>2003-05-17T10:03:57Z</time>
<speed>1.1</speed>
</trkpt>
<trkpt lat="47.554990" lon="8.499947">
<ele>358.1</ele>
<time>2003-05-17T10:04:02Z</time>
<speed>0.8</speed>
</trkpt>
<trkpt lat="47.555041" lon="8.499876">
<ele>357.1</ele>
<time>2003-05-17T10:04:07Z</time>
<speed>1.1</speed>
</trkpt>
<trkpt lat="47.555090" lon="8.499818">
<ele>356.1</ele>
<time>2003-05-17T10:04:12Z</time>
<speed>1.1</speed>
</trkpt>
<trkpt lat="47.555139" lon="8.499758">
<ele>356.6</ele>
<time>2003-05-17T10:04:17Z</time>
<speed>1.1</speed>
</trkpt>
<trkpt lat="47.555195" lon="8.499687">
<ele>356.2</ele>
<time>2003-05-17T10:04:22Z</time>
<speed>1.4</speed>
</trkpt>
<trkpt lat="47.555244" lon="8.499627">
<ele>356.7</ele>
<time>2003-05-17T10:04:27Z</time>
<speed>1.1</speed>
</trkpt>
<trkpt lat="47.555282" lon="8.499554">
<ele>355.6</ele>
<time>2003-05-17T10:04:32Z</time>
<speed>1.1</speed>
</trkpt>
<trkpt lat="47.555337" lon="8.499497">
<ele>355.4</ele>
<time>2003-05-17T10:04:37Z</time>
<speed>1.1</speed>
</trkpt>
<trkpt lat="47.555388" lon="8.499426">
<ele>354.3</ele>
<time>2003-05-17T10:04:42Z</time>
<speed>1.4</speed>
</trkpt>
<trkpt lat="47.555432" lon="8.499353">
<ele>353.9</ele>
<time>2003-05-17T10:04:47Z</time>
<speed>1.1</speed>
</trkpt>
<trkpt lat="47.555475" lon="8.499280">
<ele>353.5</ele>
<time>2003-05-17T10:04:52Z</time>
<speed>1.4</speed>
</trkpt>
<trkpt lat="47.555524" lon="8.499220">
<ele>354.0</ele>
<time>2003-05-17T10:04:57Z</time>
<speed>0.8</speed>
</trkpt>
<trkpt lat="47.555561" lon="8.499158">
<ele>354.4</ele>
<time>2003-05-17T10:05:02Z</time>
<speed>1.1</speed>
</trkpt>
<trkpt lat="47.555603" lon="8.499098">
<ele>354.1</ele>
<time>2003-05-17T10:05:07Z</time>
<speed>1.4</speed>
</trkpt>
<trkpt lat="47.555666" lon="8.499027">
<ele>354.5</ele>
<time>2003-05-17T10:05:12Z</time>
<speed>1.4</speed>
</trkpt>
<trkpt lat="47.555709" lon="8.498968">
<ele>354.2</ele>
<time>2003-05-17T10:05:17Z</time>
<speed>1.1</speed>
</trkpt>
<trkpt lat="47.555758" lon="8.498895">
<ele>354.6</ele>
<time>2003-05-17T10:05:22Z</time>
<speed>1.4</speed>
</trkpt>
<trkpt lat="47.555795" lon="8.498833">
<ele>354.9</ele>
<time>2003-05-17T10:05:27Z</time>
<speed>1.1</speed>
</trkpt>
<trkpt lat="47.555845" lon="8.498762">
<ele>353.9</ele>
<time>2003-05-17T10:05:32Z</time>
<speed>1.1</speed>
</trkpt>
<trkpt lat="47.555887" lon="8.498700">
<ele>355.0</ele>
<time>2003-05-17T10:05:37Z</time>
<speed>1.1</speed>
</trkpt>
<trkpt lat="47.555937" lon="8.498627">
<ele>355.3</ele>
<time>2003-05-17T10:05:42Z</time>
<speed>1.1</speed>
</trkpt>
<trkpt lat="47.555967" lon="8.498565">
<ele>355.0</ele>
<time>2003-05-17T10:05:47Z</time>
<speed>1.1</speed>
</trkpt>
<trkpt lat="47.556011" lon="8.498492">
<ele>354.6</ele>
<time>2003-05-17T10:05:52Z</time>
<speed>1.1</speed>
</trkpt>
<trkpt lat="47.556061" lon="8.498435">
<ele>353.6</ele>
<time>2003-05-17T10:05:57Z</time>
<speed>1.4</speed>
</trkpt>
<trkpt lat="47.556116" lon="8.498362">
<ele>354.7</ele>
<time>2003-05-17T10:06:02Z</time>
<speed>1.1</speed>
</trkpt>
<trkpt lat="47.556160" lon="8.498289">
<ele>354.3</ele>
<time>2003-05-17T10:06:07Z</time>
<speed>1.1</speed>
</trkpt>
<trkpt lat="47.556196" lon="8.498240">
<ele>354.8</ele>
<time>2003-05-17T10:06:12Z</time>
<speed>1.1</speed>
</trkpt>
<trkpt lat="47.556246" lon="8.498169">
<ele>353.8</ele>
<time>2003-05-17T10:06:17Z</time>
<speed>1.1</speed>
</trkpt>
<trkpt lat="47.556296" lon="8.498096">
<ele>354.1</ele>
<time>2003-05-17T10:06:22Z</time>
<speed>1.1</speed>
</trkpt>
<trkpt lat="47.556345" lon="8.498036">
<ele>354.6</ele>
<time>2003-05-17T10:06:27Z</time>
<speed>0.8</speed>
</trkpt>
<trkpt lat="47.556389" lon="8.497950">
<ele>354.1</ele>
<time>2003-05-17T10:06:32Z</time>
<speed>1.4</speed>
</trkpt>
<trkpt lat="47.556439" lon="8.497892">
<ele>353.1</ele>
<time>2003-05-17T10:06:37Z</time>
<speed>1.4</speed>
</trkpt>
<trkpt lat="47.556481" lon="8.497831">
<ele>354.3</ele>
<time>2003-05-17T10:06:42Z</time>
<speed>1.1</speed>
</trkpt>
<trkpt lat="47.556538" lon="8.497746">
<ele>353.8</ele>
<time>2003-05-17T10:06:47Z</time>
<speed>1.4</speed>
</trkpt>
<trkpt lat="47.556587" lon="8.497687">
<ele>354.3</ele>
<time>2003-05-17T10:06:52Z</time>
<speed>1.1</speed>
</trkpt>
<trkpt lat="47.556631" lon="8.497614">
<ele>353.9</ele>
<time>2003-05-17T10:06:57Z</time>
<speed>1.1</speed>
</trkpt>
<trkpt lat="47.556687" lon="8.497539">
<ele>356.4</ele>
<time>2003-05-17T10:07:02Z</time>
<speed>1.4</speed>
</trkpt>
<trkpt lat="47.556729" lon="8.497479">
<ele>356.1</ele>
<time>2003-05-17T10:07:07Z</time>
<speed>1.1</speed>
</trkpt>
<trkpt lat="47.556786" lon="8.497408">
<ele>355.8</ele>
<time>2003-05-17T10:07:12Z</time>
<speed>1.4</speed>
</trkpt>
<trkpt lat="47.556835" lon="8.497350">
<ele>354.8</ele>
<time>2003-05-17T10:07:17Z</time>
<speed>1.1</speed>
</trkpt>
<trkpt lat="47.556879" lon="8.497277">
<ele>354.4</ele>
<time>2003-05-17T10:07:22Z</time>
<speed>1.4</speed>
</trkpt>
<trkpt lat="47.556947" lon="8.497206">
<ele>355.6</ele>
<time>2003-05-17T10:07:28Z</time>
<speed>1.4</speed>
</trkpt>
<trkpt lat="47.556997" lon="8.497148">
<ele>354.7</ele>
<time>2003-05-17T10:07:33Z</time>
<speed>1.1</speed>
</trkpt>
<trkpt lat="47.557052" lon="8.497089">
<ele>355.8</ele>
<time>2003-05-17T10:07:38Z</time>
<speed>1.4</speed>
</trkpt>
<trkpt lat="47.557095" lon="8.497029">
<ele>355.6</ele>
<time>2003-05-17T10:07:43Z</time>
<speed>1.1</speed>
</trkpt>
<trkpt lat="47.557137" lon="8.496969">
<ele>355.3</ele>
<time>2003-05-17T10:07:48Z</time>
<speed>1.1</speed>
</trkpt>
<trkpt lat="47.557186" lon="8.496924">
<ele>354.4</ele>
<time>2003-05-17T10:07:53Z</time>
<speed>1.1</speed>
</trkpt>
<trkpt lat="47.557191" lon="8.496858">
<ele>353.9</ele>
<time>2003-05-17T10:07:58Z</time>
<speed>0.8</speed>
</trkpt>
<trkpt lat="47.557162" lon="8.496813">
<ele>354.1</ele>
<time>2003-05-17T10:08:03Z</time>
<speed>0.8</speed>
</trkpt>
<trkpt lat="47.557133" lon="8.496768">
<ele>354.4</ele>
<time>2003-05-17T10:08:08Z</time>
<speed>0.8</speed>
</trkpt>
<trkpt lat="47.557086" lon="8.496705">
<ele>355.1</ele>
<time>2003-05-17T10:08:13Z</time>
<speed>1.1</speed>
</trkpt>
<trkpt lat="47.557026" lon="8.496641">
<ele>355.7</ele>
<time>2003-05-17T10:08:18Z</time>
<speed>1.1</speed>
</trkpt>
<trkpt lat="47.556960" lon="8.496575">
<ele>357.1</ele>
<time>2003-05-17T10:08:23Z</time>
<speed>0.8</speed>
</trkpt>
<trkpt lat="47.556894" lon="8.496511">
<ele>357.0</ele>
<time>2003-05-17T10:08:28Z</time>
<speed>1.1</speed>
</trkpt>
<trkpt lat="47.556833" lon="8.496459">
<ele>357.7</ele>
<time>2003-05-17T10:08:33Z</time>
<speed>1.1</speed>
</trkpt>
<trkpt lat="47.556772" lon="8.496421">
<ele>358.6</ele>
<time>2003-05-17T10:08:38Z</time>
<speed>1.1</speed>
</trkpt>
<trkpt lat="47.556716" lon="8.496385">
<ele>358.8</ele>
<time>2003-05-17T10:08:43Z</time>
<speed>1.4</speed>
</trkpt>
<trkpt lat="47.556648" lon="8.496345">
<ele>360.3</ele>
<time>2003-05-17T10:08:48Z</time>
<speed>1.1</speed>
</trkpt>
<trkpt lat="47.556579" lon="8.496320">
<ele>360.5</ele>
<time>2003-05-17T10:08:53Z</time>
<speed>1.1</speed>
</trkpt>
<trkpt lat="47.556517" lon="8.496297">
<ele>360.1</ele>
<time>2003-05-17T10:08:58Z</time>
<speed>1.4</speed>
</trkpt>
<trkpt lat="47.556437" lon="8.496259">
<ele>358.7</ele>
<time>2003-05-17T10:09:03Z</time>
<speed>1.1</speed>
</trkpt>
<trkpt lat="47.556381" lon="8.496251">
<ele>357.7</ele>
<time>2003-05-17T10:09:08Z</time>
<speed>1.1</speed>
</trkpt>
<trkpt lat="47.556318" lon="8.496226">
<ele>358.6</ele>
<time>2003-05-17T10:09:13Z</time>
<speed>1.1</speed>
</trkpt>
<trkpt lat="47.556263" lon="8.496190">
<ele>358.8</ele>
<time>2003-05-17T10:09:18Z</time>
<speed>0.8</speed>
</trkpt>
<trkpt lat="47.556207" lon="8.496167">
<ele>359.1</ele>
<time>2003-05-17T10:09:23Z</time>
<speed>0.8</speed>
</trkpt>
<trkpt lat="47.556139" lon="8.496129">
<ele>359.2</ele>
<time>2003-05-17T10:09:28Z</time>
<speed>0.8</speed>
</trkpt>
<trkpt lat="47.556065" lon="8.496091">
<ele>358.6</ele>
<time>2003-05-17T10:09:33Z</time>
<speed>1.1</speed>
</trkpt>
<trkpt lat="47.556004" lon="8.496055">
<ele>358.1</ele>
<time>2003-05-17T10:09:38Z</time>
<speed>1.1</speed>
</trkpt>
<trkpt lat="47.555941" lon="8.496045">
<ele>357.7</ele>
<time>2003-05-17T10:09:43Z</time>
<speed>1.1</speed>
</trkpt>
<trkpt lat="47.555890" lon="8.496038">
<ele>357.4</ele>
<time>2003-05-17T10:09:48Z</time>
<speed>1.1</speed>
</trkpt>
<trkpt lat="47.555833" lon="8.496026">
<ele>359.2</ele>
<time>2003-05-17T10:09:53Z</time>
<speed>0.8</speed>
</trkpt>
<trkpt lat="47.555775" lon="8.496029">
<ele>359.7</ele>
<time>2003-05-17T10:09:58Z</time>
<speed>0.8</speed>
</trkpt>
<trkpt lat="47.555729" lon="8.496032">
<ele>361.7</ele>
<time>2003-05-17T10:10:03Z</time>
<speed>1.1</speed>
</trkpt>
<trkpt lat="47.555668" lon="8.496075">
<ele>362.4</ele>
<time>2003-05-17T10:10:08Z</time>
<speed>1.4</speed>
</trkpt>
<trkpt lat="47.555631" lon="8.496120">
<ele>364.8</ele>
<time>2003-05-17T10:10:13Z</time>
<speed>0.8</speed>
</trkpt>
<trkpt lat="47.555565" lon="8.496149">
<ele>364.7</ele>
<time>2003-05-17T10:10:18Z</time>
<speed>1.1</speed>
</trkpt>
<trkpt lat="47.555493" lon="8.496179">
<ele>363.9</ele>
<time>2003-05-17T10:10:23Z</time>
<speed>1.4</speed>
</trkpt>
<trkpt lat="47.555414" lon="8.496222">
<ele>362.5</ele>
<time>2003-05-17T10:10:28Z</time>
<speed>1.1</speed>
</trkpt>
<trkpt lat="47.555360" lon="8.496268">
<ele>361.2</ele>
<time>2003-05-17T10:10:33Z</time>
<speed>1.1</speed>
</trkpt>
<trkpt lat="47.555288" lon="8.496300">
<ele>359.0</ele>
<time>2003-05-17T10:10:38Z</time>
<speed>1.1</speed>
</trkpt>
<trkpt lat="47.555245" lon="8.496375">
<ele>358.0</ele>
<time>2003-05-17T10:10:43Z</time>
<speed>1.1</speed>
</trkpt>
<trkpt lat="47.555207" lon="8.496448">
<ele>359.1</ele>
<time>2003-05-17T10:10:48Z</time>
<speed>1.1</speed>
</trkpt>
<trkpt lat="47.555187" lon="8.496536">
<ele>361.1</ele>
<time>2003-05-17T10:10:53Z</time>
<speed>1.1</speed>
</trkpt>
<trkpt lat="47.555157" lon="8.496598">
<ele>361.5</ele>
<time>2003-05-17T10:10:58Z</time>
<speed>1.1</speed>
</trkpt>
<trkpt lat="47.555132" lon="8.496673">
<ele>362.7</ele>
<time>2003-05-17T10:11:03Z</time>
<speed>1.1</speed>
</trkpt>
<trkpt lat="47.555088" lon="8.496746">
<ele>363.1</ele>
<time>2003-05-17T10:11:08Z</time>
<speed>1.4</speed>
</trkpt>
<trkpt lat="47.555068" lon="8.496834">
<ele>365.1</ele>
<time>2003-05-17T10:11:13Z</time>
<speed>1.1</speed>
</trkpt>
<trkpt lat="47.555037" lon="8.496909">
<ele>365.6</ele>
<time>2003-05-17T10:11:18Z</time>
<speed>1.1</speed>
</trkpt>
<trkpt lat="47.554983" lon="8.496953">
<ele>365.7</ele>
<time>2003-05-17T10:11:23Z</time>
<speed>1.4</speed>
</trkpt>
<trkpt lat="47.554945" lon="8.497026">
<ele>366.8</ele>
<time>2003-05-17T10:11:28Z</time>
<speed>1.1</speed>
</trkpt>
<trkpt lat="47.554901" lon="8.497099">
<ele>367.2</ele>
<time>2003-05-17T10:11:33Z</time>
<speed>1.4</speed>
</trkpt>
<trkpt lat="47.554871" lon="8.497161">
<ele>367.6</ele>
<time>2003-05-17T10:11:38Z</time>
<speed>1.1</speed>
</trkpt>
<trkpt lat="47.554790" lon="8.497215">
<ele>367.6</ele>
<time>2003-05-17T10:11:43Z</time>
<speed>1.4</speed>
</trkpt>
<trkpt lat="47.554724" lon="8.497244">
<ele>367.6</ele>
<time>2003-05-17T10:11:48Z</time>
<speed>1.1</speed>
</trkpt>
<trkpt lat="47.554656" lon="8.497302">
<ele>366.3</ele>
<time>2003-05-17T10:11:53Z</time>
<speed>1.1</speed>
</trkpt>
<trkpt lat="47.554602" lon="8.497347">
<ele>366.4</ele>
<time>2003-05-17T10:11:58Z</time>
<speed>1.1</speed>
</trkpt>
<trkpt lat="47.554530" lon="8.497377">
<ele>365.7</ele>
<time>2003-05-17T10:12:03Z</time>
<speed>1.1</speed>
</trkpt>
<trkpt lat="47.554476" lon="8.497423">
<ele>364.4</ele>
<time>2003-05-17T10:12:08Z</time>
<speed>1.4</speed>
</trkpt>
<trkpt lat="47.554452" lon="8.497485">
<ele>365.5</ele>
<time>2003-05-17T10:12:13Z</time>
<speed>1.4</speed>
</trkpt>
<trkpt lat="47.554439" lon="8.497562">
<ele>366.7</ele>
<time>2003-05-17T10:12:18Z</time>
<speed>1.1</speed>
</trkpt>
<trkpt lat="47.554414" lon="8.497637">
<ele>367.9</ele>
<time>2003-05-17T10:12:23Z</time>
<speed>1.1</speed>
</trkpt>
<trkpt lat="47.554383" lon="8.497710">
<ele>369.8</ele>
<time>2003-05-17T10:12:28Z</time>
<speed>1.4</speed>
</trkpt>
<trkpt lat="47.554340" lon="8.497770">
<ele>370.1</ele>
<time>2003-05-17T10:12:33Z</time>
<speed>1.4</speed>
</trkpt>
<trkpt lat="47.554303" lon="8.497829">
<ele>371.1</ele>
<time>2003-05-17T10:12:38Z</time>
<speed>1.1</speed>
</trkpt>
<trkpt lat="47.554260" lon="8.497889">
<ele>371.4</ele>
<time>2003-05-17T10:12:43Z</time>
<speed>1.1</speed>
</trkpt>
<trkpt lat="47.554217" lon="8.497949">
<ele>371.7</ele>
<time>2003-05-17T10:12:48Z</time>
<speed>1.4</speed>
</trkpt>
<trkpt lat="47.554175" lon="8.498009">
<ele>372.0</ele>
<time>2003-05-17T10:12:53Z</time>
<speed>1.1</speed>
</trkpt>
<trkpt lat="47.554114" lon="8.498054">
<ele>371.3</ele>
<time>2003-05-17T10:12:58Z</time>
<speed>1.1</speed>
</trkpt>
<trkpt lat="47.554048" lon="8.498098">
<ele>370.0</ele>
<time>2003-05-17T10:13:03Z</time>
<speed>1.1</speed>
</trkpt>
<trkpt lat="47.554005" lon="8.498143">
<ele>371.6</ele>
<time>2003-05-17T10:13:08Z</time>
<speed>1.1</speed>
</trkpt>
<trkpt lat="47.553978" lon="8.498167">
<ele>370.2</ele>
<time>2003-05-17T10:13:13Z</time>
<speed>0.8</speed>
</trkpt>
<trkpt lat="47.553923" lon="8.498225">
<ele>370.4</ele>
<time>2003-05-17T10:13:18Z</time>
<speed>1.1</speed>
</trkpt>
<trkpt lat="47.553874" lon="8.498283">
<ele>371.4</ele>
<time>2003-05-17T10:13:23Z</time>
<speed>1.4</speed>
</trkpt>
<trkpt lat="47.553813" lon="8.498328">
<ele>370.8</ele>
<time>2003-05-17T10:13:28Z</time>
<speed>1.1</speed>
</trkpt>
<trkpt lat="47.553769" lon="8.498399">
<ele>372.6</ele>
<time>2003-05-17T10:13:33Z</time>
<speed>1.1</speed>
</trkpt>
<trkpt lat="47.553726" lon="8.498458">
<ele>372.9</ele>
<time>2003-05-17T10:13:38Z</time>
<speed>1.1</speed>
</trkpt>
<trkpt lat="47.553678" lon="8.498503">
<ele>373.7</ele>
<time>2003-05-17T10:13:43Z</time>
<speed>1.1</speed>
</trkpt>
<trkpt lat="47.553640" lon="8.498576">
<ele>374.8</ele>
<time>2003-05-17T10:13:48Z</time>
<speed>1.4</speed>
</trkpt>
<trkpt lat="47.553585" lon="8.498621">
<ele>375.0</ele>
<time>2003-05-17T10:13:53Z</time>
<speed>1.1</speed>
</trkpt>
<trkpt lat="47.553524" lon="8.498679">
<ele>374.4</ele>
<time>2003-05-17T10:13:58Z</time>
<speed>1.4</speed>
</trkpt>
<trkpt lat="47.553463" lon="8.498723">
<ele>373.8</ele>
<time>2003-05-17T10:14:03Z</time>
<speed>1.4</speed>
</trkpt>
<trkpt lat="47.553420" lon="8.498796">
<ele>374.2</ele>
<time>2003-05-17T10:14:08Z</time>
<speed>1.1</speed>
</trkpt>
<trkpt lat="47.553376" lon="8.498869">
<ele>374.6</ele>
<time>2003-05-17T10:14:13Z</time>
<speed>1.1</speed>
</trkpt>
<trkpt lat="47.553333" lon="8.498929">
<ele>374.9</ele>
<time>2003-05-17T10:14:18Z</time>
<speed>1.1</speed>
</trkpt>
<trkpt lat="47.553289" lon="8.499002">
<ele>375.3</ele>
<time>2003-05-17T10:14:23Z</time>
<speed>1.4</speed>
</trkpt>
<trkpt lat="47.553258" lon="8.499075">
<ele>377.1</ele>
<time>2003-05-17T10:14:28Z</time>
<speed>1.1</speed>
</trkpt>
<trkpt lat="47.553232" lon="8.499163">
<ele>378.4</ele>
<time>2003-05-17T10:14:33Z</time>
<speed>1.1</speed>
</trkpt>
<trkpt lat="47.553183" lon="8.499223">
<ele>378.0</ele>
<time>2003-05-17T10:14:38Z</time>
<speed>1.1</speed>
</trkpt>
<trkpt lat="47.553145" lon="8.499298">
<ele>377.7</ele>
<time>2003-05-17T10:14:43Z</time>
<speed>1.1</speed>
</trkpt>
<trkpt lat="47.553108" lon="8.499371">
<ele>378.8</ele>
<time>2003-05-17T10:14:48Z</time>
<speed>1.1</speed>
</trkpt>
<trkpt lat="47.553075" lon="8.499457">
<ele>380.8</ele>
<time>2003-05-17T10:14:53Z</time>
<speed>1.1</speed>
</trkpt>
<trkpt lat="47.553044" lon="8.499532">
<ele>381.2</ele>
<time>2003-05-17T10:14:58Z</time>
<speed>1.4</speed>
</trkpt>
<trkpt lat="47.553016" lon="8.499631">
<ele>384.0</ele>
<time>2003-05-17T10:15:03Z</time>
<speed>1.1</speed>
</trkpt>
<trkpt lat="47.552978" lon="8.499717">
<ele>385.3</ele>
<time>2003-05-17T10:15:08Z</time>
<speed>1.1</speed>
</trkpt>
<trkpt lat="47.552946" lon="8.499805">
<ele>385.8</ele>
<time>2003-05-17T10:15:13Z</time>
<speed>1.1</speed>
</trkpt>
<trkpt lat="47.552908" lon="8.499878">
<ele>386.9</ele>
<time>2003-05-17T10:15:18Z</time>
<speed>1.1</speed>
</trkpt>
<trkpt lat="47.552868" lon="8.499977">
<ele>388.3</ele>
<time>2003-05-17T10:15:23Z</time>
<speed>1.4</speed>
</trkpt>
<trkpt lat="47.552838" lon="8.500039">
<ele>388.6</ele>
<time>2003-05-17T10:15:28Z</time>
<speed>0.8</speed>
</trkpt>
<trkpt lat="47.552799" lon="8.500125">
<ele>389.9</ele>
<time>2003-05-17T10:15:33Z</time>
<speed>1.1</speed>
</trkpt>
<trkpt lat="47.552774" lon="8.500200">
<ele>391.1</ele>
<time>2003-05-17T10:15:38Z</time>
<speed>1.1</speed>
</trkpt>
<trkpt lat="47.552738" lon="8.500262">
<ele>390.7</ele>
<time>2003-05-17T10:15:43Z</time>
<speed>1.1</speed>
</trkpt>
<trkpt lat="47.552706" lon="8.500350">
<ele>391.2</ele>
<time>2003-05-17T10:15:48Z</time>
<speed>1.1</speed>
</trkpt>
<trkpt lat="47.552661" lon="8.500436">
<ele>391.7</ele>
<time>2003-05-17T10:15:53Z</time>
<speed>1.1</speed>
</trkpt>
<trkpt lat="47.552624" lon="8.500511">
<ele>391.4</ele>
<time>2003-05-17T10:15:58Z</time>
<speed>0.8</speed>
</trkpt>
<trkpt lat="47.552575" lon="8.500571">
<ele>391.0</ele>
<time>2003-05-17T10:16:03Z</time>
<speed>1.1</speed>
</trkpt>
<trkpt lat="47.552545" lon="8.500632">
<ele>391.3</ele>
<time>2003-05-17T10:16:08Z</time>
<speed>0.8</speed>
</trkpt>
<trkpt lat="47.552509" lon="8.500694">
<ele>391.0</ele>
<time>2003-05-17T10:16:13Z</time>
<speed>1.1</speed>
</trkpt>
<trkpt lat="47.552472" lon="8.500756">
<ele>390.6</ele>
<time>2003-05-17T10:16:18Z</time>
<speed>0.8</speed>
</trkpt>
<trkpt lat="47.552424" lon="8.500802">
<ele>390.0</ele>
<time>2003-05-17T10:16:23Z</time>
<speed>1.1</speed>
</trkpt>
<trkpt lat="47.552370" lon="8.500847">
<ele>390.2</ele>
<time>2003-05-17T10:16:28Z</time>
<speed>1.1</speed>
</trkpt>
<trkpt lat="47.552317" lon="8.500881">
<ele>388.8</ele>
<time>2003-05-17T10:16:33Z</time>
<speed>1.1</speed>
</trkpt>
<trkpt lat="47.552250" lon="8.500925">
<ele>387.4</ele>
<time>2003-05-17T10:16:38Z</time>
<speed>0.8</speed>
</trkpt>
<trkpt lat="47.552197" lon="8.500959">
<ele>386.0</ele>
<time>2003-05-17T10:16:43Z</time>
<speed>1.1</speed>
</trkpt>
<trkpt lat="47.552139" lon="8.500977">
<ele>385.2</ele>
<time>2003-05-17T10:16:48Z</time>
<speed>0.8</speed>
</trkpt>
<trkpt lat="47.552078" lon="8.501020">
<ele>386.0</ele>
<time>2003-05-17T10:16:53Z</time>
<speed>1.1</speed>
</trkpt>
<trkpt lat="47.552006" lon="8.501035">
<ele>386.5</ele>
<time>2003-05-17T10:16:58Z</time>
<speed>1.4</speed>
</trkpt>
<trkpt lat="47.551952" lon="8.501081">
<ele>385.2</ele>
<time>2003-05-17T10:17:03Z</time>
<speed>1.1</speed>
</trkpt>
<trkpt lat="47.551905" lon="8.501113">
<ele>386.0</ele>
<time>2003-05-17T10:17:08Z</time>
<speed>0.8</speed>
</trkpt>
<trkpt lat="47.551851" lon="8.501142">
<ele>387.4</ele>
<time>2003-05-17T10:17:13Z</time>
<speed>1.4</speed>
</trkpt>
<trkpt lat="47.551784" lon="8.501170">
<ele>388.7</ele>
<time>2003-05-17T10:17:18Z</time>
<speed>1.4</speed>
</trkpt>
<trkpt lat="47.551736" lon="8.501200">
<ele>390.9</ele>
<time>2003-05-17T10:17:23Z</time>
<speed>1.1</speed>
</trkpt>
<trkpt lat="47.551662" lon="8.501256">
<ele>390.3</ele>
<time>2003-05-17T10:17:28Z</time>
<speed>1.1</speed>
</trkpt>
<trkpt lat="47.551614" lon="8.501302">
<ele>389.8</ele>
<time>2003-05-17T10:17:33Z</time>
<speed>1.1</speed>
</trkpt>
<trkpt lat="47.551566" lon="8.501332">
<ele>391.9</ele>
<time>2003-05-17T10:17:38Z</time>
<speed>1.1</speed>
</trkpt>
<trkpt lat="47.551515" lon="8.501337">
<ele>391.7</ele>
<time>2003-05-17T10:17:43Z</time>
<speed>0.8</speed>
</trkpt>
<trkpt lat="47.551461" lon="8.501367">
<ele>393.2</ele>
<time>2003-05-17T10:17:48Z</time>
<speed>0.8</speed>
</trkpt>
<trkpt lat="47.551405" lon="8.501425">
<ele>393.4</ele>
<time>2003-05-17T10:17:53Z</time>
<speed>1.1</speed>
</trkpt>
<trkpt lat="47.551358" lon="8.501471">
<ele>392.8</ele>
<time>2003-05-17T10:17:58Z</time>
<speed>1.1</speed>
</trkpt>
<trkpt lat="47.551297" lon="8.501516">
<ele>392.2</ele>
<time>2003-05-17T10:18:03Z</time>
<speed>0.8</speed>
</trkpt>
<trkpt lat="47.551276" lon="8.501538">
<ele>393.0</ele>
<time>2003-05-17T10:18:08Z</time>
<speed>0.3</speed>
</trkpt>
<trkpt lat="47.551211" lon="8.501555">
<ele>392.9</ele>
<time>2003-05-17T10:18:13Z</time>
<speed>0.8</speed>
</trkpt>
<trkpt lat="47.551126" lon="8.501567">
<ele>393.3</ele>
<time>2003-05-17T10:18:18Z</time>
<speed>0.8</speed>
</trkpt>
<trkpt lat="47.551052" lon="8.501606">
<ele>395.4</ele>
<time>2003-05-17T10:18:23Z</time>
<speed>1.4</speed>
</trkpt>
<trkpt lat="47.550988" lon="8.501607">
<ele>396.6</ele>
<time>2003-05-17T10:18:28Z</time>
<speed>0.8</speed>
</trkpt>
<trkpt lat="47.550897" lon="8.501618">
<ele>397.7</ele>
<time>2003-05-17T10:18:33Z</time>
<speed>1.4</speed>
</trkpt>
<trkpt lat="47.550836" lon="8.501646">
<ele>399.8</ele>
<time>2003-05-17T10:18:38Z</time>
<speed>1.1</speed>
</trkpt>
<trkpt lat="47.550771" lon="8.501660">
<ele>401.0</ele>
<time>2003-05-17T10:18:43Z</time>
<speed>1.1</speed>
</trkpt>
<trkpt lat="47.550717" lon="8.501690">
<ele>402.5</ele>
<time>2003-05-17T10:18:48Z</time>
<speed>0.8</speed>
</trkpt>
<trkpt lat="47.550675" lon="8.501721">
<ele>403.9</ele>
<time>2003-05-17T10:18:53Z</time>
<speed>0.8</speed>
</trkpt>
<trkpt lat="47.550634" lon="8.501753">
<ele>405.4</ele>
<time>2003-05-17T10:18:58Z</time>
<speed>0.8</speed>
</trkpt>
<trkpt lat="47.550600" lon="8.501773">
<ele>406.2</ele>
<time>2003-05-17T10:19:03Z</time>
<speed>0.6</speed>
</trkpt>
<trkpt lat="47.550558" lon="8.501820">
<ele>406.4</ele>
<time>2003-05-17T10:19:08Z</time>
<speed>0.8</speed>
</trkpt>
<trkpt lat="47.550504" lon="8.501849">
<ele>407.8</ele>
<time>2003-05-17T10:19:13Z</time>
<speed>1.1</speed>
</trkpt>
<trkpt lat="47.550437" lon="8.501892">
<ele>407.8</ele>
<time>2003-05-17T10:19:18Z</time>
<speed>1.1</speed>
</trkpt>
<trkpt lat="47.550402" lon="8.501924">
<ele>410.1</ele>
<time>2003-05-17T10:19:23Z</time>
<speed>0.6</speed>
</trkpt>
<trkpt lat="47.550344" lon="8.501927">
<ele>410.5</ele>
<time>2003-05-17T10:19:28Z</time>
<speed>0.8</speed>
</trkpt>
<trkpt lat="47.550278" lon="8.501959">
<ele>409.1</ele>
<time>2003-05-17T10:19:33Z</time>
<speed>0.8</speed>
</trkpt>
<trkpt lat="47.550201" lon="8.501973">
<ele>408.9</ele>
<time>2003-05-17T10:19:38Z</time>
<speed>0.6</speed>
</trkpt>
<trkpt lat="47.550143" lon="8.501978">
<ele>407.9</ele>
<time>2003-05-17T10:19:43Z</time>
<speed>0.6</speed>
</trkpt>
<trkpt lat="47.550103" lon="8.501999">
<ele>407.9</ele>
<time>2003-05-17T10:19:48Z</time>
<speed>0.6</speed>
</trkpt>
<trkpt lat="47.550045" lon="8.502002">
<ele>408.4</ele>
<time>2003-05-17T10:19:53Z</time>
<speed>0.8</speed>
</trkpt>
<trkpt lat="47.549985" lon="8.502032">
<ele>409.1</ele>
<time>2003-05-17T10:19:58Z</time>
<speed>0.8</speed>
</trkpt>
<trkpt lat="47.549913" lon="8.502044">
<ele>411.0</ele>
<time>2003-05-17T10:20:03Z</time>
<speed>1.1</speed>
</trkpt>
<trkpt lat="47.549836" lon="8.502030">
<ele>412.0</ele>
<time>2003-05-17T10:20:08Z</time>
<speed>1.1</speed>
</trkpt>
<trkpt lat="47.549786" lon="8.502006">
<ele>414.4</ele>
<time>2003-05-17T10:20:13Z</time>
<speed>0.8</speed>
</trkpt>
<trkpt lat="47.549728" lon="8.501994">
<ele>416.2</ele>
<time>2003-05-17T10:20:18Z</time>
<speed>0.8</speed>
</trkpt>
<trkpt lat="47.549676" lon="8.501997">
<ele>417.5</ele>
<time>2003-05-17T10:20:23Z</time>
<speed>0.6</speed>
</trkpt>
<trkpt lat="47.549612" lon="8.501998">
<ele>418.6</ele>
<time>2003-05-17T10:20:28Z</time>
<speed>1.1</speed>
</trkpt>
<trkpt lat="47.549563" lon="8.501962">
<ele>419.5</ele>
<time>2003-05-17T10:20:33Z</time>
<speed>0.6</speed>
</trkpt>
<trkpt lat="47.549514" lon="8.501926">
<ele>420.5</ele>
<time>2003-05-17T10:20:38Z</time>
<speed>0.6</speed>
</trkpt>
<trkpt lat="47.549458" lon="8.501890">
<ele>420.6</ele>
<time>2003-05-17T10:20:43Z</time>
<speed>0.6</speed>
</trkpt>
<trkpt lat="47.549384" lon="8.501850">
<ele>421.4</ele>
<time>2003-05-17T10:20:48Z</time>
<speed>1.1</speed>
</trkpt>
<trkpt lat="47.549316" lon="8.501827">
<ele>420.2</ele>
<time>2003-05-17T10:20:53Z</time>
<speed>1.1</speed>
</trkpt>
<trkpt lat="47.549246" lon="8.501815">
<ele>420.6</ele>
<time>2003-05-17T10:20:58Z</time>
<speed>0.8</speed>
</trkpt>
<trkpt lat="47.549196" lon="8.501792">
<ele>421.6</ele>
<time>2003-05-17T10:21:03Z</time>
<speed>0.8</speed>
</trkpt>
<trkpt lat="47.549145" lon="8.501783">
<ele>422.7</ele>
<time>2003-05-17T10:21:08Z</time>
<speed>0.8</speed>
</trkpt>
<trkpt lat="47.549099" lon="8.501786">
<ele>424.7</ele>
<time>2003-05-17T10:21:13Z</time>
<speed>0.8</speed>
</trkpt>
<trkpt lat="47.549041" lon="8.501789">
<ele>425.2</ele>
<time>2003-05-17T10:21:18Z</time>
<speed>0.8</speed>
</trkpt>
<trkpt lat="47.549008" lon="8.501796">
<ele>425.8</ele>
<time>2003-05-17T10:21:23Z</time>
<speed>0.8</speed>
</trkpt>
<trkpt lat="47.548949" lon="8.501813">
<ele>426.4</ele>
<time>2003-05-17T10:21:28Z</time>
<speed>1.1</speed>
</trkpt>
<trkpt lat="47.548872" lon="8.501812">
<ele>427.4</ele>
<time>2003-05-17T10:21:33Z</time>
<speed>1.1</speed>
</trkpt>
<trkpt lat="47.548831" lon="8.501844">
<ele>428.9</ele>
<time>2003-05-17T10:21:38Z</time>
<speed>1.1</speed>
</trkpt>
<trkpt lat="47.548764" lon="8.501856">
<ele>431.6</ele>
<time>2003-05-17T10:21:43Z</time>
<speed>1.4</speed>
</trkpt>
<trkpt lat="47.548719" lon="8.501860">
<ele>433.6</ele>
<time>2003-05-17T10:21:48Z</time>
<speed>0.6</speed>
</trkpt>
<trkpt lat="47.548687" lon="8.501854">
<ele>434.1</ele>
<time>2003-05-17T10:21:53Z</time>
<speed>0.6</speed>
</trkpt>
<trkpt lat="47.548629" lon="8.501842">
<ele>435.9</ele>
<time>2003-05-17T10:21:58Z</time>
<speed>0.8</speed>
</trkpt>
<trkpt lat="47.548552" lon="8.501841">
<ele>437.0</ele>
<time>2003-05-17T10:22:03Z</time>
<speed>0.6</speed>
</trkpt>
<trkpt lat="47.548490" lon="8.501818">
<ele>436.5</ele>
<time>2003-05-17T10:22:08Z</time>
<speed>0.8</speed>
</trkpt>
<trkpt lat="47.548406" lon="8.501818">
<ele>436.9</ele>
<time>2003-05-17T10:22:13Z</time>
<speed>0.6</speed>
</trkpt>
<trkpt lat="47.548355" lon="8.501823">
<ele>436.7</ele>
<time>2003-05-17T10:22:18Z</time>
<speed>0.6</speed>
</trkpt>
<trkpt lat="47.548278" lon="8.501826">
<ele>434.9</ele>
<time>2003-05-17T10:22:23Z</time>
<speed>0.6</speed>
</trkpt>
<trkpt lat="47.548201" lon="8.501841">
<ele>434.7</ele>
<time>2003-05-17T10:22:28Z</time>
<speed>0.6</speed>
</trkpt>
<trkpt lat="47.548122" lon="8.501869">
<ele>434.6</ele>
<time>2003-05-17T10:22:33Z</time>
<speed>1.1</speed>
</trkpt>
<trkpt lat="47.548037" lon="8.501896">
<ele>433.7</ele>
<time>2003-05-17T10:22:38Z</time>
<speed>1.1</speed>
</trkpt>
<trkpt lat="47.547965" lon="8.501911">
<ele>434.3</ele>
<time>2003-05-17T10:22:43Z</time>
<speed>0.8</speed>
</trkpt>
<trkpt lat="47.547894" lon="8.501927">
<ele>433.4</ele>
<time>2003-05-17T10:22:48Z</time>
<speed>0.6</speed>
</trkpt>
<trkpt lat="47.547854" lon="8.501948">
<ele>433.4</ele>
<time>2003-05-17T10:22:53Z</time>
<speed>0.8</speed>
</trkpt>
<trkpt lat="47.547793" lon="8.501990">
<ele>434.1</ele>
<time>2003-05-17T10:22:58Z</time>
<speed>0.6</speed>
</trkpt>
<trkpt lat="47.547727" lon="8.502020">
<ele>434.1</ele>
<time>2003-05-17T10:23:03Z</time>
<speed>0.8</speed>
</trkpt>
<trkpt lat="47.547672" lon="8.502078">
<ele>434.3</ele>
<time>2003-05-17T10:23:08Z</time>
<speed>0.8</speed>
</trkpt>
<trkpt lat="47.547619" lon="8.502096">
<ele>434.2</ele>
<time>2003-05-17T10:23:13Z</time>
<speed>0.6</speed>
</trkpt>
<trkpt lat="47.547554" lon="8.502128">
<ele>432.8</ele>
<time>2003-05-17T10:23:18Z</time>
<speed>1.1</speed>
</trkpt>
<trkpt lat="47.547485" lon="8.502182">
<ele>434.3</ele>
<time>2003-05-17T10:23:23Z</time>
<speed>1.1</speed>
</trkpt>
<trkpt lat="47.547438" lon="8.502215">
<ele>433.7</ele>
<time>2003-05-17T10:23:28Z</time>
<speed>0.8</speed>
</trkpt>
<trkpt lat="47.547378" lon="8.502262">
<ele>431.6</ele>
<time>2003-05-17T10:23:33Z</time>
<speed>0.8</speed>
</trkpt>
<trkpt lat="47.547332" lon="8.502280">
<ele>432.3</ele>
<time>2003-05-17T10:23:38Z</time>
<speed>0.6</speed>
</trkpt>
<trkpt lat="47.547272" lon="8.502312">
<ele>431.6</ele>
<time>2003-05-17T10:23:43Z</time>
<speed>0.8</speed>
</trkpt>
<trkpt lat="47.547217" lon="8.502370">
<ele>431.8</ele>
<time>2003-05-17T10:23:48Z</time>
<speed>0.8</speed>
</trkpt>
<trkpt lat="47.547156" lon="8.502412">
<ele>432.6</ele>
<time>2003-05-17T10:23:53Z</time>
<speed>1.1</speed>
</trkpt>
<trkpt lat="47.547096" lon="8.502444">
<ele>431.9</ele>
<time>2003-05-17T10:23:58Z</time>
<speed>1.1</speed>
</trkpt>
<trkpt lat="47.547003" lon="8.502513">
<ele>429.2</ele>
<time>2003-05-17T10:24:03Z</time>
<speed>1.4</speed>
</trkpt>
<trkpt lat="47.546931" lon="8.502542">
<ele>428.4</ele>
<time>2003-05-17T10:24:08Z</time>
<speed>1.7</speed>
</trkpt>
<trkpt lat="47.546865" lon="8.502572">
<ele>428.3</ele>
<time>2003-05-17T10:24:13Z</time>
<speed>1.7</speed>
</trkpt>
<trkpt lat="47.546803" lon="8.502630">
<ele>427.8</ele>
<time>2003-05-17T10:24:18Z</time>
<speed>1.7</speed>
</trkpt>
<trkpt lat="47.546749" lon="8.502675">
<ele>427.9</ele>
<time>2003-05-17T10:24:23Z</time>
<speed>1.1</speed>
</trkpt>
<trkpt lat="47.546693" lon="8.502732">
<ele>428.1</ele>
<time>2003-05-17T10:24:28Z</time>
<speed>1.4</speed>
</trkpt>
<trkpt lat="47.546645" lon="8.502779">
<ele>427.6</ele>
<time>2003-05-17T10:24:33Z</time>
<speed>1.1</speed>
</trkpt>
<trkpt lat="47.546592" lon="8.502811">
<ele>427.6</ele>
<time>2003-05-17T10:24:38Z</time>
<speed>1.4</speed>
</trkpt>
<trkpt lat="47.546537" lon="8.502855">
<ele>427.7</ele>
<time>2003-05-17T10:24:43Z</time>
<speed>1.4</speed>
</trkpt>
<trkpt lat="47.546482" lon="8.502915">
<ele>426.5</ele>
<time>2003-05-17T10:24:48Z</time>
<speed>1.1</speed>
</trkpt>
<trkpt lat="47.546440" lon="8.502975">
<ele>426.8</ele>
<time>2003-05-17T10:24:53Z</time>
<speed>1.1</speed>
</trkpt>
<trkpt lat="47.546391" lon="8.503035">
<ele>426.4</ele>
<time>2003-05-17T10:24:58Z</time>
<speed>1.1</speed>
</trkpt>
<trkpt lat="47.546344" lon="8.503068">
<ele>425.7</ele>
<time>2003-05-17T10:25:03Z</time>
<speed>1.1</speed>
</trkpt>
<trkpt lat="47.546290" lon="8.503115">
<ele>424.4</ele>
<time>2003-05-17T10:25:08Z</time>
<speed>1.1</speed>
</trkpt>
<trkpt lat="47.546241" lon="8.503175">
<ele>424.0</ele>
<time>2003-05-17T10:25:13Z</time>
<speed>1.1</speed>
</trkpt>
<trkpt lat="47.546188" lon="8.503208">
<ele>422.6</ele>
<time>2003-05-17T10:25:18Z</time>
<speed>1.1</speed>
</trkpt>
<trkpt lat="47.546133" lon="8.503266">
<ele>422.8</ele>
<time>2003-05-17T10:25:23Z</time>
<speed>1.4</speed>
</trkpt>
<trkpt lat="47.546066" lon="8.503296">
<ele>422.8</ele>
<time>2003-05-17T10:25:28Z</time>
<speed>1.4</speed>
</trkpt>
<trkpt lat="47.546007" lon="8.503327">
<ele>422.1</ele>
<time>2003-05-17T10:25:33Z</time>
<speed>1.1</speed>
</trkpt>
<trkpt lat="47.545946" lon="8.503372">
<ele>421.4</ele>
<time>2003-05-17T10:25:38Z</time>
<speed>1.4</speed>
</trkpt>
<trkpt lat="47.545891" lon="8.503430">
<ele>421.7</ele>
<time>2003-05-17T10:25:43Z</time>
<speed>1.1</speed>
</trkpt>
<trkpt lat="47.545831" lon="8.503459">
<ele>422.3</ele>
<time>2003-05-17T10:25:48Z</time>
<speed>1.4</speed>
</trkpt>
<trkpt lat="47.545765" lon="8.503489">
<ele>422.3</ele>
<time>2003-05-17T10:25:53Z</time>
<speed>1.4</speed>
</trkpt>
<trkpt lat="47.545693" lon="8.503518">
<ele>421.5</ele>
<time>2003-05-17T10:25:58Z</time>
<speed>1.4</speed>
</trkpt>
<trkpt lat="47.545627" lon="8.503535">
<ele>421.3</ele>
<time>2003-05-17T10:26:03Z</time>
<speed>1.4</speed>
</trkpt>
<trkpt lat="47.545568" lon="8.503566">
<ele>420.6</ele>
<time>2003-05-17T10:26:08Z</time>
<speed>1.1</speed>
</trkpt>
<trkpt lat="47.545502" lon="8.503596">
<ele>420.6</ele>
<time>2003-05-17T10:26:13Z</time>
<speed>1.4</speed>
</trkpt>
<trkpt lat="47.545465" lon="8.503656">
<ele>421.6</ele>
<time>2003-05-17T10:26:18Z</time>
<speed>0.6</speed>
</trkpt>
<trkpt lat="47.545469" lon="8.503682">
<ele>422.5</ele>
<time>2003-05-17T10:26:23Z</time>
<speed>0.0</speed>
</trkpt>
<trkpt lat="47.545474" lon="8.503695">
<ele>423.4</ele>
<time>2003-05-17T10:26:28Z</time>
<speed>0.0</speed>
</trkpt>
<trkpt lat="47.545474" lon="8.503695">
<ele>423.4</ele>
<time>2003-05-17T10:26:33Z</time>
<speed>0.0</speed>
</trkpt>
<trkpt lat="47.545474" lon="8.503695">
<ele>423.4</ele>
<time>2003-05-17T10:26:38Z</time>
<speed>0.0</speed>
</trkpt>
<trkpt lat="47.545474" lon="8.503695">
<ele>423.4</ele>
<time>2003-05-17T10:26:43Z</time>
<speed>0.0</speed>
</trkpt>
<trkpt lat="47.545474" lon="8.503695">
<ele>423.4</ele>
<time>2003-05-17T10:26:48Z</time>
<speed>0.0</speed>
</trkpt>
<trkpt lat="47.545460" lon="8.503704">
<ele>424.8</ele>
<time>2003-05-17T10:26:53Z</time>
<speed>0.8</speed>
</trkpt>
<trkpt lat="47.545413" lon="8.503738">
<ele>424.2</ele>
<time>2003-05-17T10:26:58Z</time>
<speed>1.4</speed>
</trkpt>
<trkpt lat="47.545355" lon="8.503756">
<ele>423.3</ele>
<time>2003-05-17T10:27:03Z</time>
<speed>1.4</speed>
</trkpt>
<trkpt lat="47.545289" lon="8.503786">
<ele>423.3</ele>
<time>2003-05-17T10:27:08Z</time>
<speed>1.4</speed>
</trkpt>
<trkpt lat="47.545228" lon="8.503816">
<ele>424.0</ele>
<time>2003-05-17T10:27:13Z</time>
<speed>1.4</speed>
</trkpt>
<trkpt lat="47.545169" lon="8.503847">
<ele>423.3</ele>
<time>2003-05-17T10:27:18Z</time>
<speed>1.4</speed>
</trkpt>
<trkpt lat="47.545102" lon="8.503890">
<ele>423.3</ele>
<time>2003-05-17T10:27:23Z</time>
<speed>1.4</speed>
</trkpt>
<trkpt lat="47.545048" lon="8.503937">
<ele>422.0</ele>
<time>2003-05-17T10:27:28Z</time>
<speed>1.4</speed>
</trkpt>
<trkpt lat="47.544982" lon="8.503966">
<ele>422.0</ele>
<time>2003-05-17T10:27:33Z</time>
<speed>1.4</speed>
</trkpt>
<trkpt lat="47.544927" lon="8.504011">
<ele>422.1</ele>
<time>2003-05-17T10:27:38Z</time>
<speed>1.4</speed>
</trkpt>
<trkpt lat="47.544862" lon="8.504027">
<ele>421.9</ele>
<time>2003-05-17T10:27:43Z</time>
<speed>1.4</speed>
</trkpt>
<trkpt lat="47.544798" lon="8.504031">
<ele>421.7</ele>
<time>2003-05-17T10:27:48Z</time>
<speed>1.4</speed>
</trkpt>
<trkpt lat="47.544734" lon="8.504034">
<ele>421.4</ele>
<time>2003-05-17T10:27:53Z</time>
<speed>1.4</speed>
</trkpt>
<trkpt lat="47.544671" lon="8.504024">
<ele>421.1</ele>
<time>2003-05-17T10:27:58Z</time>
<speed>1.4</speed>
</trkpt>
<trkpt lat="47.544600" lon="8.504027">
<ele>420.1</ele>
<time>2003-05-17T10:28:03Z</time>
<speed>1.7</speed>
</trkpt>
<trkpt lat="47.544531" lon="8.504016">
<ele>420.4</ele>
<time>2003-05-17T10:28:08Z</time>
<speed>1.4</speed>
</trkpt>
<trkpt lat="47.544473" lon="8.504019">
<ele>420.9</ele>
<time>2003-05-17T10:28:13Z</time>
<speed>1.4</speed>
</trkpt>
<trkpt lat="47.544415" lon="8.504022">
<ele>421.4</ele>
<time>2003-05-17T10:28:18Z</time>
<speed>1.4</speed>
</trkpt>
<trkpt lat="47.544351" lon="8.504012">
<ele>421.0</ele>
<time>2003-05-17T10:28:23Z</time>
<speed>1.1</speed>
</trkpt>
<trkpt lat="47.544287" lon="8.504014">
<ele>422.2</ele>
<time>2003-05-17T10:28:28Z</time>
<speed>1.4</speed>
</trkpt>
<trkpt lat="47.544229" lon="8.504017">
<ele>422.7</ele>
<time>2003-05-17T10:28:33Z</time>
<speed>1.4</speed>
</trkpt>
<trkpt lat="47.544166" lon="8.504007">
<ele>422.3</ele>
<time>2003-05-17T10:28:38Z</time>
<speed>1.4</speed>
</trkpt>
<trkpt lat="47.544103" lon="8.503984">
<ele>421.9</ele>
<time>2003-05-17T10:28:43Z</time>
<speed>1.4</speed>
</trkpt>
<trkpt lat="47.544035" lon="8.503959">
<ele>422.1</ele>
<time>2003-05-17T10:28:48Z</time>
<speed>1.4</speed>
</trkpt>
<trkpt lat="47.543980" lon="8.503910">
<ele>422.2</ele>
<time>2003-05-17T10:28:53Z</time>
<speed>1.4</speed>
</trkpt>
<trkpt lat="47.543932" lon="8.503861">
<ele>423.0</ele>
<time>2003-05-17T10:28:58Z</time>
<speed>1.4</speed>
</trkpt>
<trkpt lat="47.543892" lon="8.503800">
<ele>423.1</ele>
<time>2003-05-17T10:29:03Z</time>
<speed>1.4</speed>
</trkpt>
<trkpt lat="47.543852" lon="8.503727">
<ele>423.0</ele>
<time>2003-05-17T10:29:08Z</time>
<speed>1.1</speed>
</trkpt>
<trkpt lat="47.543825" lon="8.503655">
<ele>423.0</ele>
<time>2003-05-17T10:29:13Z</time>
<speed>1.1</speed>
</trkpt>
<trkpt lat="47.543805" lon="8.503571">
<ele>423.7</ele>
<time>2003-05-17T10:29:18Z</time>
<speed>1.1</speed>
</trkpt>
<trkpt lat="47.543779" lon="8.503499">
<ele>423.7</ele>
<time>2003-05-17T10:29:23Z</time>
<speed>1.1</speed>
</trkpt>
<trkpt lat="47.543753" lon="8.503414">
<ele>423.7</ele>
<time>2003-05-17T10:29:28Z</time>
<speed>1.4</speed>
</trkpt>
<trkpt lat="47.543740" lon="8.503318">
<ele>423.6</ele>
<time>2003-05-17T10:29:33Z</time>
<speed>1.1</speed>
</trkpt>
<trkpt lat="47.543720" lon="8.503234">
<ele>424.2</ele>
<time>2003-05-17T10:29:38Z</time>
<speed>1.4</speed>
</trkpt>
<trkpt lat="47.543701" lon="8.503149">
<ele>424.9</ele>
<time>2003-05-17T10:29:43Z</time>
<speed>1.1</speed>
</trkpt>
<trkpt lat="47.543674" lon="8.503062">
<ele>426.2</ele>
<time>2003-05-17T10:29:48Z</time>
<speed>1.1</speed>
</trkpt>
<trkpt lat="47.543647" lon="8.502991">
<ele>426.3</ele>
<time>2003-05-17T10:29:53Z</time>
<speed>1.4</speed>
</trkpt>
<trkpt lat="47.543627" lon="8.502906">
<ele>426.9</ele>
<time>2003-05-17T10:29:58Z</time>
<speed>1.4</speed>
</trkpt>
<trkpt lat="47.543615" lon="8.502808">
<ele>428.2</ele>
<time>2003-05-17T10:30:03Z</time>
<speed>1.1</speed>
</trkpt>
<trkpt lat="47.543587" lon="8.502735">
<ele>429.7</ele>
<time>2003-05-17T10:30:08Z</time>
<speed>1.1</speed>
</trkpt>
<trkpt lat="47.543567" lon="8.502650">
<ele>430.3</ele>
<time>2003-05-17T10:30:13Z</time>
<speed>1.4</speed>
</trkpt>
<trkpt lat="47.543548" lon="8.502552">
<ele>430.9</ele>
<time>2003-05-17T10:30:18Z</time>
<speed>1.4</speed>
</trkpt>
<trkpt lat="47.543535" lon="8.502469">
<ele>430.9</ele>
<time>2003-05-17T10:30:23Z</time>
<speed>1.4</speed>
</trkpt>
<trkpt lat="47.543509" lon="8.502385">
<ele>430.8</ele>
<time>2003-05-17T10:30:28Z</time>
<speed>1.4</speed>
</trkpt>
<trkpt lat="47.543483" lon="8.502300">
<ele>430.8</ele>
<time>2003-05-17T10:30:33Z</time>
<speed>1.4</speed>
</trkpt>
<trkpt lat="47.543465" lon="8.502204">
<ele>429.9</ele>
<time>2003-05-17T10:30:38Z</time>
<speed>1.1</speed>
</trkpt>
<trkpt lat="47.543439" lon="8.502119">
<ele>429.8</ele>
<time>2003-05-17T10:30:43Z</time>
<speed>1.1</speed>
</trkpt>
<trkpt lat="47.543419" lon="8.502035">
<ele>430.5</ele>
<time>2003-05-17T10:30:48Z</time>
<speed>1.4</speed>
</trkpt>
<trkpt lat="47.543394" lon="8.501937">
<ele>430.3</ele>
<time>2003-05-17T10:30:53Z</time>
<speed>1.1</speed>
</trkpt>
<trkpt lat="47.543374" lon="8.501852">
<ele>431.0</ele>
<time>2003-05-17T10:30:58Z</time>
<speed>1.1</speed>
</trkpt>
<trkpt lat="47.543354" lon="8.501767">
<ele>431.7</ele>
<time>2003-05-17T10:31:03Z</time>
<speed>1.1</speed>
</trkpt>
<trkpt lat="47.543334" lon="8.501683">
<ele>432.3</ele>
<time>2003-05-17T10:31:08Z</time>
<speed>1.4</speed>
</trkpt>
<trkpt lat="47.543315" lon="8.501585">
<ele>432.9</ele>
<time>2003-05-17T10:31:13Z</time>
<speed>1.1</speed>
</trkpt>
<trkpt lat="47.543302" lon="8.501502">
<ele>432.9</ele>
<time>2003-05-17T10:31:18Z</time>
<speed>0.8</speed>
</trkpt>
<trkpt lat="47.543276" lon="8.501417">
<ele>432.8</ele>
<time>2003-05-17T10:31:23Z</time>
<speed>1.1</speed>
</trkpt>
<trkpt lat="47.543256" lon="8.501333">
<ele>433.5</ele>
<time>2003-05-17T10:31:28Z</time>
<speed>1.4</speed>
</trkpt>
<trkpt lat="47.543235" lon="8.501261">
<ele>434.3</ele>
<time>2003-05-17T10:31:33Z</time>
<speed>0.8</speed>
</trkpt>
<trkpt lat="47.543216" lon="8.501178">
<ele>433.5</ele>
<time>2003-05-17T10:31:38Z</time>
<speed>0.8</speed>
</trkpt>
<trkpt lat="47.543196" lon="8.501094">
<ele>434.2</ele>
<time>2003-05-17T10:31:43Z</time>
<speed>0.8</speed>
</trkpt>
<trkpt lat="47.543183" lon="8.501011">
<ele>434.2</ele>
<time>2003-05-17T10:31:48Z</time>
<speed>0.8</speed>
</trkpt>
<trkpt lat="47.543157" lon="8.500928">
<ele>432.7</ele>
<time>2003-05-17T10:31:53Z</time>
<speed>0.8</speed>
</trkpt>
<trkpt lat="47.543126" lon="8.500828">
<ele>433.2</ele>
<time>2003-05-17T10:31:58Z</time>
<speed>1.1</speed>
</trkpt>
<trkpt lat="47.543086" lon="8.500755">
<ele>433.2</ele>
<time>2003-05-17T10:32:03Z</time>
<speed>1.1</speed>
</trkpt>
<trkpt lat="47.543055" lon="8.500655">
<ele>433.7</ele>
<time>2003-05-17T10:32:08Z</time>
<speed>1.1</speed>
</trkpt>
<trkpt lat="47.543016" lon="8.500568">
<ele>433.5</ele>
<time>2003-05-17T10:32:13Z</time>
<speed>1.1</speed>
</trkpt>
<trkpt lat="47.542990" lon="8.500484">
<ele>433.4</ele>
<time>2003-05-17T10:32:18Z</time>
<speed>1.1</speed>
</trkpt>
<trkpt lat="47.542963" lon="8.500412">
<ele>433.5</ele>
<time>2003-05-17T10:32:23Z</time>
<speed>0.8</speed>
</trkpt>
<trkpt lat="47.542948" lon="8.500356">
<ele>433.7</ele>
<time>2003-05-17T10:32:28Z</time>
<speed>1.1</speed>
</trkpt>
<trkpt lat="47.542911" lon="8.500256">
<ele>433.4</ele>
<time>2003-05-17T10:32:33Z</time>
<speed>1.1</speed>
</trkpt>
<trkpt lat="47.542895" lon="8.500199">
<ele>433.6</ele>
<time>2003-05-17T10:32:38Z</time>
<speed>1.1</speed>
</trkpt>
<trkpt lat="47.542859" lon="8.500086">
<ele>433.3</ele>
<time>2003-05-17T10:32:43Z</time>
<speed>1.4</speed>
</trkpt>
<trkpt lat="47.542821" lon="8.499985">
<ele>434.5</ele>
<time>2003-05-17T10:32:48Z</time>
<speed>1.4</speed>
</trkpt>
<trkpt lat="47.542801" lon="8.499900">
<ele>435.1</ele>
<time>2003-05-17T10:32:53Z</time>
<speed>1.4</speed>
</trkpt>
<trkpt lat="47.542762" lon="8.499813">
<ele>435.0</ele>
<time>2003-05-17T10:32:58Z</time>
<speed>1.4</speed>
</trkpt>
<trkpt lat="47.542736" lon="8.499728">
<ele>434.9</ele>
<time>2003-05-17T10:33:03Z</time>
<speed>1.1</speed>
</trkpt>
<trkpt lat="47.542710" lon="8.499644">
<ele>434.8</ele>
<time>2003-05-17T10:33:08Z</time>
<speed>1.4</speed>
</trkpt>
<trkpt lat="47.542679" lon="8.499544">
<ele>435.3</ele>
<time>2003-05-17T10:33:13Z</time>
<speed>1.4</speed>
</trkpt>
<trkpt lat="47.542653" lon="8.499459">
<ele>435.3</ele>
<time>2003-05-17T10:33:18Z</time>
<speed>1.4</speed>
</trkpt>
<trkpt lat="47.542621" lon="8.499359">
<ele>435.8</ele>
<time>2003-05-17T10:33:23Z</time>
<speed>1.4</speed>
</trkpt>
<trkpt lat="47.542589" lon="8.499275">
<ele>434.9</ele>
<time>2003-05-17T10:33:28Z</time>
<speed>1.4</speed>
</trkpt>
<trkpt lat="47.542563" lon="8.499190">
<ele>434.9</ele>
<time>2003-05-17T10:33:33Z</time>
<speed>1.4</speed>
</trkpt>
<trkpt lat="47.542531" lon="8.499105">
<ele>434.1</ele>
<time>2003-05-17T10:33:38Z</time>
<speed>1.4</speed>
</trkpt>
<trkpt lat="47.542510" lon="8.499049">
<ele>433.5</ele>
<time>2003-05-17T10:33:43Z</time>
<speed>1.4</speed>
</trkpt>
<trkpt lat="47.542479" lon="8.498951">
<ele>432.6</ele>
<time>2003-05-17T10:33:48Z</time>
<speed>1.4</speed>
</trkpt>
<trkpt lat="47.542440" lon="8.498864">
<ele>432.5</ele>
<time>2003-05-17T10:33:53Z</time>
<speed>1.4</speed>
</trkpt>
<trkpt lat="47.542409" lon="8.498766">
<ele>431.6</ele>
<time>2003-05-17T10:33:58Z</time>
<speed>1.4</speed>
</trkpt>
<trkpt lat="47.542371" lon="8.498680">
<ele>431.4</ele>
<time>2003-05-17T10:34:03Z</time>
<speed>1.4</speed>
</trkpt>
<trkpt lat="47.542333" lon="8.498595">
<ele>429.9</ele>
<time>2003-05-17T10:34:08Z</time>
<speed>1.4</speed>
</trkpt>
<trkpt lat="47.542307" lon="8.498510">
<ele>429.8</ele>
<time>2003-05-17T10:34:13Z</time>
<speed>1.4</speed>
</trkpt>
<trkpt lat="47.542269" lon="8.498413">
<ele>428.2</ele>
<time>2003-05-17T10:34:18Z</time>
<speed>1.4</speed>
</trkpt>
<trkpt lat="47.542237" lon="8.498328">
<ele>427.4</ele>
<time>2003-05-17T10:34:23Z</time>
<speed>1.4</speed>
</trkpt>
<trkpt lat="47.542205" lon="8.498243">
<ele>426.5</ele>
<time>2003-05-17T10:34:28Z</time>
<speed>1.4</speed>
</trkpt>
<trkpt lat="47.542187" lon="8.498145">
<ele>427.1</ele>
<time>2003-05-17T10:34:33Z</time>
<speed>1.4</speed>
</trkpt>
<trkpt lat="47.542148" lon="8.498059">
<ele>427.0</ele>
<time>2003-05-17T10:34:38Z</time>
<speed>1.4</speed>
</trkpt>
<trkpt lat="47.542120" lon="8.498000">
<ele>427.1</ele>
<time>2003-05-17T10:34:43Z</time>
<speed>0.0</speed>
</trkpt>
<trkpt lat="47.542105" lon="8.497944">
<ele>427.3</ele>
<time>2003-05-17T10:34:48Z</time>
<speed>1.1</speed>
</trkpt>
<trkpt lat="47.542068" lon="8.497831">
<ele>427.0</ele>
<time>2003-05-17T10:34:53Z</time>
<speed>1.4</speed>
</trkpt>
<trkpt lat="47.542036" lon="8.497744">
<ele>427.6</ele>
<time>2003-05-17T10:34:58Z</time>
<speed>1.1</speed>
</trkpt>
<trkpt lat="47.542022" lon="8.497661">
<ele>427.6</ele>
<time>2003-05-17T10:35:03Z</time>
<speed>1.1</speed>
</trkpt>
<trkpt lat="47.541991" lon="8.497564">
<ele>426.6</ele>
<time>2003-05-17T10:35:08Z</time>
<speed>1.1</speed>
</trkpt>
<trkpt lat="47.541958" lon="8.497492">
<ele>425.9</ele>
<time>2003-05-17T10:35:13Z</time>
<speed>1.1</speed>
</trkpt>
<trkpt lat="47.541939" lon="8.497394">
<ele>426.5</ele>
<time>2003-05-17T10:35:18Z</time>
<speed>1.1</speed>
</trkpt>
<trkpt lat="47.541958" lon="8.497317">
<ele>426.0</ele>
<time>2003-05-17T10:35:23Z</time>
<speed>1.1</speed>
</trkpt>
<trkpt lat="47.541995" lon="8.497242">
<ele>426.3</ele>
<time>2003-05-17T10:35:28Z</time>
<speed>1.1</speed>
</trkpt>
<trkpt lat="47.542026" lon="8.497166">
<ele>427.2</ele>
<time>2003-05-17T10:35:33Z</time>
<speed>1.1</speed>
</trkpt>
<trkpt lat="47.542044" lon="8.497087">
<ele>428.1</ele>
<time>2003-05-17T10:35:38Z</time>
<speed>0.8</speed>
</trkpt>
<trkpt lat="47.542030" lon="8.497017">
<ele>428.2</ele>
<time>2003-05-17T10:35:43Z</time>
<speed>1.1</speed>
</trkpt>
<trkpt lat="47.542003" lon="8.496930">
<ele>429.5</ele>
<time>2003-05-17T10:35:48Z</time>
<speed>1.1</speed>
</trkpt>
<trkpt lat="47.541963" lon="8.496870">
<ele>429.6</ele>
<time>2003-05-17T10:35:53Z</time>
<speed>1.1</speed>
</trkpt>
<trkpt lat="47.541914" lon="8.496821">
<ele>430.4</ele>
<time>2003-05-17T10:35:58Z</time>
<speed>1.1</speed>
</trkpt>
<trkpt lat="47.541860" lon="8.496772">
<ele>430.5</ele>
<time>2003-05-17T10:36:03Z</time>
<speed>1.1</speed>
</trkpt>
<trkpt lat="47.541812" lon="8.496722">
<ele>431.3</ele>
<time>2003-05-17T10:36:08Z</time>
<speed>1.4</speed>
</trkpt>
<trkpt lat="47.541765" lon="8.496675">
<ele>430.7</ele>
<time>2003-05-17T10:36:13Z</time>
<speed>1.1</speed>
</trkpt>
<trkpt lat="47.541717" lon="8.496626">
<ele>431.6</ele>
<time>2003-05-17T10:36:18Z</time>
<speed>1.1</speed>
</trkpt>
<trkpt lat="47.541668" lon="8.496577">
<ele>432.4</ele>
<time>2003-05-17T10:36:23Z</time>
<speed>1.4</speed>
</trkpt>
<trkpt lat="47.541614" lon="8.496527">
<ele>432.5</ele>
<time>2003-05-17T10:36:28Z</time>
<speed>1.4</speed>
</trkpt>
<trkpt lat="47.541573" lon="8.496480">
<ele>432.6</ele>
<time>2003-05-17T10:36:33Z</time>
<speed>1.1</speed>
</trkpt>
<trkpt lat="47.541526" lon="8.496418">
<ele>433.4</ele>
<time>2003-05-17T10:36:38Z</time>
<speed>1.1</speed>
</trkpt>
<trkpt lat="47.541478" lon="8.496369">
<ele>434.2</ele>
<time>2003-05-17T10:36:43Z</time>
<speed>1.1</speed>
</trkpt>
<trkpt lat="47.541437" lon="8.496308">
<ele>434.2</ele>
<time>2003-05-17T10:36:48Z</time>
<speed>1.1</speed>
</trkpt>
<trkpt lat="47.541396" lon="8.496261">
<ele>434.4</ele>
<time>2003-05-17T10:36:53Z</time>
<speed>1.1</speed>
</trkpt>
<trkpt lat="47.541354" lon="8.496212">
<ele>436.0</ele>
<time>2003-05-17T10:36:58Z</time>
<speed>1.1</speed>
</trkpt>
<trkpt lat="47.541319" lon="8.496151">
<ele>436.8</ele>
<time>2003-05-17T10:37:03Z</time>
<speed>0.8</speed>
</trkpt>
<trkpt lat="47.541285" lon="8.496091">
<ele>437.5</ele>
<time>2003-05-17T10:37:08Z</time>
<speed>1.1</speed>
</trkpt>
<trkpt lat="47.541249" lon="8.496044">
<ele>438.4</ele>
<time>2003-05-17T10:37:13Z</time>
<speed>1.1</speed>
</trkpt>
<trkpt lat="47.541215" lon="8.495983">
<ele>439.2</ele>
<time>2003-05-17T10:37:18Z</time>
<speed>1.1</speed>
</trkpt>
<trkpt lat="47.541180" lon="8.495923">
<ele>440.0</ele>
<time>2003-05-17T10:37:23Z</time>
<speed>1.1</speed>
</trkpt>
<trkpt lat="47.541145" lon="8.495876">
<ele>440.9</ele>
<time>2003-05-17T10:37:28Z</time>
<speed>1.1</speed>
</trkpt>
<trkpt lat="47.541117" lon="8.495817">
<ele>441.1</ele>
<time>2003-05-17T10:37:33Z</time>
<speed>1.1</speed>
</trkpt>
<trkpt lat="47.541077" lon="8.495742">
<ele>442.4</ele>
<time>2003-05-17T10:37:38Z</time>
<speed>1.1</speed>
</trkpt>
<trkpt lat="47.541050" lon="8.495670">
<ele>442.5</ele>
<time>2003-05-17T10:37:43Z</time>
<speed>1.4</speed>
</trkpt>
<trkpt lat="47.541029" lon="8.495599">
<ele>443.2</ele>
<time>2003-05-17T10:37:48Z</time>
<speed>1.1</speed>
</trkpt>
<trkpt lat="47.540996" lon="8.495512">
<ele>443.8</ele>
<time>2003-05-17T10:37:53Z</time>
<speed>1.1</speed>
</trkpt>
<trkpt lat="47.540970" lon="8.495440">
<ele>443.8</ele>
<time>2003-05-17T10:37:58Z</time>
<speed>1.1</speed>
</trkpt>
<trkpt lat="47.540943" lon="8.495369">
<ele>443.9</ele>
<time>2003-05-17T10:38:03Z</time>
<speed>1.4</speed>
</trkpt>
<trkpt lat="47.540910" lon="8.495282">
<ele>444.5</ele>
<time>2003-05-17T10:38:08Z</time>
<speed>1.4</speed>
</trkpt>
<trkpt lat="47.540884" lon="8.495197">
<ele>444.4</ele>
<time>2003-05-17T10:38:13Z</time>
<speed>1.1</speed>
</trkpt>
<trkpt lat="47.540864" lon="8.495113">
<ele>445.1</ele>
<time>2003-05-17T10:38:18Z</time>
<speed>1.1</speed>
</trkpt>
<trkpt lat="47.540838" lon="8.495028">
<ele>445.0</ele>
<time>2003-05-17T10:38:23Z</time>
<speed>1.4</speed>
</trkpt>
<trkpt lat="47.540812" lon="8.494941">
<ele>446.3</ele>
<time>2003-05-17T10:38:28Z</time>
<speed>1.1</speed>
</trkpt>
<trkpt lat="47.540792" lon="8.494857">
<ele>447.0</ele>
<time>2003-05-17T10:38:33Z</time>
<speed>1.4</speed>
</trkpt>
<trkpt lat="47.540766" lon="8.494770">
<ele>448.3</ele>
<time>2003-05-17T10:38:38Z</time>
<speed>1.4</speed>
</trkpt>
<trkpt lat="47.540747" lon="8.494672">
<ele>448.9</ele>
<time>2003-05-17T10:38:43Z</time>
<speed>1.4</speed>
</trkpt>
<trkpt lat="47.540727" lon="8.494587">
<ele>449.6</ele>
<time>2003-05-17T10:38:48Z</time>
<speed>1.4</speed>
</trkpt>
<trkpt lat="47.540701" lon="8.494503">
<ele>449.5</ele>
<time>2003-05-17T10:38:53Z</time>
<speed>1.4</speed>
</trkpt>
<trkpt lat="47.540675" lon="8.494418">
<ele>449.4</ele>
<time>2003-05-17T10:38:58Z</time>
<speed>1.4</speed>
</trkpt>
<trkpt lat="47.540655" lon="8.494333">
<ele>450.1</ele>
<time>2003-05-17T10:39:03Z</time>
<speed>1.4</speed>
</trkpt>
<trkpt lat="47.540630" lon="8.494235">
<ele>449.9</ele>
<time>2003-05-17T10:39:08Z</time>
<speed>1.7</speed>
</trkpt>
<trkpt lat="47.540605" lon="8.494138">
<ele>449.8</ele>
<time>2003-05-17T10:39:13Z</time>
<speed>1.4</speed>
</trkpt>
<trkpt lat="47.540573" lon="8.494053">
<ele>448.9</ele>
<time>2003-05-17T10:39:18Z</time>
<speed>1.4</speed>
</trkpt>
<trkpt lat="47.540553" lon="8.493968">
<ele>449.6</ele>
<time>2003-05-17T10:39:23Z</time>
<speed>1.4</speed>
</trkpt>
<trkpt lat="47.540528" lon="8.493870">
<ele>449.4</ele>
<time>2003-05-17T10:39:28Z</time>
<speed>1.4</speed>
</trkpt>
<trkpt lat="47.540508" lon="8.493786">
<ele>450.1</ele>
<time>2003-05-17T10:39:33Z</time>
<speed>1.4</speed>
</trkpt>
<trkpt lat="47.540476" lon="8.493701">
<ele>449.3</ele>
<time>2003-05-17T10:39:38Z</time>
<speed>1.4</speed>
</trkpt>
<trkpt lat="47.540457" lon="8.493603">
<ele>449.9</ele>
<time>2003-05-17T10:39:43Z</time>
<speed>1.1</speed>
</trkpt>
<trkpt lat="47.540444" lon="8.493520">
<ele>449.9</ele>
<time>2003-05-17T10:39:48Z</time>
<speed>1.1</speed>
</trkpt>
<trkpt lat="47.540412" lon="8.493434">
<ele>450.5</ele>
<time>2003-05-17T10:39:53Z</time>
<speed>1.4</speed>
</trkpt>
<trkpt lat="47.540392" lon="8.493349">
<ele>451.1</ele>
<time>2003-05-17T10:39:58Z</time>
<speed>1.4</speed>
</trkpt>
<trkpt lat="47.540372" lon="8.493264">
<ele>451.8</ele>
<time>2003-05-17T10:40:03Z</time>
<speed>1.4</speed>
</trkpt>
<trkpt lat="47.540334" lon="8.493165">
<ele>451.6</ele>
<time>2003-05-17T10:40:08Z</time>
<speed>1.4</speed>
</trkpt>
<trkpt lat="47.540308" lon="8.493080">
<ele>451.5</ele>
<time>2003-05-17T10:40:13Z</time>
<speed>1.4</speed>
</trkpt>
<trkpt lat="47.540276" lon="8.492993">
<ele>452.1</ele>
<time>2003-05-17T10:40:18Z</time>
<speed>1.4</speed>
</trkpt>
<trkpt lat="47.540256" lon="8.492910">
<ele>451.3</ele>
<time>2003-05-17T10:40:23Z</time>
<speed>1.4</speed>
</trkpt>
<trkpt lat="47.540231" lon="8.492813">
<ele>451.2</ele>
<time>2003-05-17T10:40:28Z</time>
<speed>1.4</speed>
</trkpt>
<trkpt lat="47.540213" lon="8.492715">
<ele>451.7</ele>
<time>2003-05-17T10:40:33Z</time>
<speed>1.4</speed>
</trkpt>
<trkpt lat="47.540193" lon="8.492632">
<ele>451.0</ele>
<time>2003-05-17T10:40:38Z</time>
<speed>1.1</speed>
</trkpt>
<trkpt lat="47.540168" lon="8.492534">
<ele>450.8</ele>
<time>2003-05-17T10:40:43Z</time>
<speed>1.4</speed>
</trkpt>
<trkpt lat="47.540155" lon="8.492451">
<ele>450.8</ele>
<time>2003-05-17T10:40:48Z</time>
<speed>1.4</speed>
</trkpt>
<trkpt lat="47.540130" lon="8.492354">
<ele>450.7</ele>
<time>2003-05-17T10:40:53Z</time>
<speed>1.4</speed>
</trkpt>
<trkpt lat="47.540118" lon="8.492258">
<ele>450.6</ele>
<time>2003-05-17T10:40:58Z</time>
<speed>1.4</speed>
</trkpt>
<trkpt lat="47.540099" lon="8.492160">
<ele>451.1</ele>
<time>2003-05-17T10:41:03Z</time>
<speed>1.4</speed>
</trkpt>
<trkpt lat="47.540080" lon="8.492064">
<ele>450.3</ele>
<time>2003-05-17T10:41:08Z</time>
<speed>1.4</speed>
</trkpt>
<trkpt lat="47.540068" lon="8.491968">
<ele>450.2</ele>
<time>2003-05-17T10:41:13Z</time>
<speed>1.7</speed>
</trkpt>
<trkpt lat="47.540050" lon="8.491859">
<ele>449.3</ele>
<time>2003-05-17T10:41:18Z</time>
<speed>1.4</speed>
</trkpt>
<trkpt lat="47.540037" lon="8.491776">
<ele>449.3</ele>
<time>2003-05-17T10:41:23Z</time>
<speed>1.4</speed>
</trkpt>
<trkpt lat="47.540019" lon="8.491681">
<ele>448.4</ele>
<time>2003-05-17T10:41:28Z</time>
<speed>1.4</speed>
</trkpt>
<trkpt lat="47.540000" lon="8.491583">
<ele>449.0</ele>
<time>2003-05-17T10:41:33Z</time>
<speed>1.4</speed>
</trkpt>
<trkpt lat="47.539981" lon="8.491487">
<ele>448.1</ele>
<time>2003-05-17T10:41:38Z</time>
<speed>1.4</speed>
</trkpt>
<trkpt lat="47.539969" lon="8.491391">
<ele>448.0</ele>
<time>2003-05-17T10:41:43Z</time>
<speed>1.4</speed>
</trkpt>
<trkpt lat="47.539951" lon="8.491295">
<ele>447.2</ele>
<time>2003-05-17T10:41:48Z</time>
<speed>1.4</speed>
</trkpt>
<trkpt lat="47.539932" lon="8.491197">
<ele>447.8</ele>
<time>2003-05-17T10:41:53Z</time>
<speed>1.1</speed>
</trkpt>
<trkpt lat="47.539912" lon="8.491114">
<ele>447.0</ele>
<time>2003-05-17T10:41:58Z</time>
<speed>1.1</speed>
</trkpt>
<trkpt lat="47.539913" lon="8.491021">
<ele>447.0</ele>
<time>2003-05-17T10:42:03Z</time>
<speed>1.4</speed>
</trkpt>
<trkpt lat="47.539920" lon="8.490929">
<ele>446.3</ele>
<time>2003-05-17T10:42:08Z</time>
<speed>1.4</speed>
</trkpt>
<trkpt lat="47.539945" lon="8.490839">
<ele>446.4</ele>
<time>2003-05-17T10:42:13Z</time>
<speed>1.1</speed>
</trkpt>
<trkpt lat="47.539983" lon="8.490766">
<ele>445.3</ele>
<time>2003-05-17T10:42:18Z</time>
<speed>1.1</speed>
</trkpt>
<trkpt lat="47.540026" lon="8.490706">
<ele>445.0</ele>
<time>2003-05-17T10:42:23Z</time>
<speed>0.8</speed>
</trkpt>
<trkpt lat="47.540074" lon="8.490659">
<ele>445.6</ele>
<time>2003-05-17T10:42:28Z</time>
<speed>1.1</speed>
</trkpt>
<trkpt lat="47.540122" lon="8.490599">
<ele>446.0</ele>
<time>2003-05-17T10:42:33Z</time>
<speed>1.1</speed>
</trkpt>
<trkpt lat="47.540179" lon="8.490528">
<ele>445.7</ele>
<time>2003-05-17T10:42:38Z</time>
<speed>1.1</speed>
</trkpt>
<trkpt lat="47.540240" lon="8.490471">
<ele>446.2</ele>
<time>2003-05-17T10:42:43Z</time>
<speed>1.1</speed>
</trkpt>
<trkpt lat="47.540289" lon="8.490411">
<ele>446.7</ele>
<time>2003-05-17T10:42:48Z</time>
<speed>1.1</speed>
</trkpt>
<trkpt lat="47.540338" lon="8.490351">
<ele>447.1</ele>
<time>2003-05-17T10:42:53Z</time>
<speed>1.4</speed>
</trkpt>
<trkpt lat="47.540387" lon="8.490291">
<ele>447.6</ele>
<time>2003-05-17T10:42:58Z</time>
<speed>1.1</speed>
</trkpt>
<trkpt lat="47.540442" lon="8.490233">
<ele>447.3</ele>
<time>2003-05-17T10:43:03Z</time>
<speed>1.1</speed>
</trkpt>
<trkpt lat="47.540491" lon="8.490174">
<ele>447.8</ele>
<time>2003-05-17T10:43:08Z</time>
<speed>1.1</speed>
</trkpt>
<trkpt lat="47.540534" lon="8.490114">
<ele>447.5</ele>
<time>2003-05-17T10:43:13Z</time>
<speed>1.4</speed>
</trkpt>
<trkpt lat="47.540596" lon="8.490056">
<ele>448.0</ele>
<time>2003-05-17T10:43:18Z</time>
<speed>1.4</speed>
</trkpt>
<trkpt lat="47.540638" lon="8.489996">
<ele>447.7</ele>
<time>2003-05-17T10:43:23Z</time>
<speed>1.1</speed>
</trkpt>
<trkpt lat="47.540700" lon="8.489938">
<ele>448.2</ele>
<time>2003-05-17T10:43:28Z</time>
<speed>1.1</speed>
</trkpt>
<trkpt lat="47.540749" lon="8.489879">
<ele>448.7</ele>
<time>2003-05-17T10:43:33Z</time>
<speed>1.1</speed>
</trkpt>
<trkpt lat="47.540804" lon="8.489821">
<ele>448.5</ele>
<time>2003-05-17T10:43:38Z</time>
<speed>1.1</speed>
</trkpt>
<trkpt lat="47.540854" lon="8.489748">
<ele>448.8</ele>
<time>2003-05-17T10:43:43Z</time>
<speed>1.1</speed>
</trkpt>
<trkpt lat="47.540909" lon="8.489690">
<ele>448.6</ele>
<time>2003-05-17T10:43:48Z</time>
<speed>1.1</speed>
</trkpt>
<trkpt lat="47.540965" lon="8.489632">
<ele>448.4</ele>
<time>2003-05-17T10:43:53Z</time>
<speed>1.1</speed>
</trkpt>
<trkpt lat="47.541014" lon="8.489572">
<ele>448.8</ele>
<time>2003-05-17T10:43:58Z</time>
<speed>1.4</speed>
</trkpt>
<trkpt lat="47.541076" lon="8.489501">
<ele>449.3</ele>
<time>2003-05-17T10:44:03Z</time>
<speed>1.4</speed>
</trkpt>
<trkpt lat="47.541124" lon="8.489455">
<ele>449.8</ele>
<time>2003-05-17T10:44:08Z</time>
<speed>1.4</speed>
</trkpt>
<trkpt lat="47.541186" lon="8.489397">
<ele>450.3</ele>
<time>2003-05-17T10:44:13Z</time>
<speed>1.4</speed>
</trkpt>
<trkpt lat="47.541235" lon="8.489324">
<ele>450.7</ele>
<time>2003-05-17T10:44:18Z</time>
<speed>1.4</speed>
</trkpt>
<trkpt lat="47.541291" lon="8.489266">
<ele>450.5</ele>
<time>2003-05-17T10:44:23Z</time>
<speed>1.4</speed>
</trkpt>
<trkpt lat="47.541352" lon="8.489208">
<ele>451.0</ele>
<time>2003-05-17T10:44:28Z</time>
<speed>1.4</speed>
</trkpt>
<trkpt lat="47.541395" lon="8.489148">
<ele>450.7</ele>
<time>2003-05-17T10:44:33Z</time>
<speed>1.4</speed>
</trkpt>
<trkpt lat="47.541451" lon="8.489091">
<ele>450.5</ele>
<time>2003-05-17T10:44:38Z</time>
<speed>1.4</speed>
</trkpt>
<trkpt lat="47.541506" lon="8.489033">
<ele>450.3</ele>
<time>2003-05-17T10:44:43Z</time>
<speed>1.4</speed>
</trkpt>
<trkpt lat="47.541562" lon="8.488960">
<ele>451.3</ele>
<time>2003-05-17T10:44:48Z</time>
<speed>1.4</speed>
</trkpt>
<trkpt lat="47.541611" lon="8.488902">
<ele>450.4</ele>
<time>2003-05-17T10:44:53Z</time>
<speed>1.4</speed>
</trkpt>
<trkpt lat="47.541673" lon="8.488844">
<ele>450.9</ele>
<time>2003-05-17T10:44:58Z</time>
<speed>1.4</speed>
</trkpt>
<trkpt lat="47.541722" lon="8.488784">
<ele>451.4</ele>
<time>2003-05-17T10:45:03Z</time>
<speed>1.4</speed>
</trkpt>
<trkpt lat="47.541778" lon="8.488713">
<ele>451.0</ele>
<time>2003-05-17T10:45:08Z</time>
<speed>1.4</speed>
</trkpt>
<trkpt lat="47.541834" lon="8.488655">
<ele>450.8</ele>
<time>2003-05-17T10:45:13Z</time>
<speed>1.4</speed>
</trkpt>
<trkpt lat="47.541883" lon="8.488598">
<ele>449.9</ele>
<time>2003-05-17T10:45:18Z</time>
<speed>1.4</speed>
</trkpt>
<trkpt lat="47.541932" lon="8.488540">
<ele>448.9</ele>
<time>2003-05-17T10:45:23Z</time>
<speed>1.4</speed>
</trkpt>
<trkpt lat="47.541981" lon="8.488480">
<ele>449.4</ele>
<time>2003-05-17T10:45:28Z</time>
<speed>1.4</speed>
</trkpt>
<trkpt lat="47.542037" lon="8.488422">
<ele>449.1</ele>
<time>2003-05-17T10:45:33Z</time>
<speed>1.4</speed>
</trkpt>
<trkpt lat="47.542092" lon="8.488364">
<ele>448.9</ele>
<time>2003-05-17T10:45:38Z</time>
<speed>1.4</speed>
</trkpt>
<trkpt lat="47.542148" lon="8.488293">
<ele>448.6</ele>
<time>2003-05-17T10:45:43Z</time>
<speed>1.4</speed>
</trkpt>
<trkpt lat="47.542198" lon="8.488235">
<ele>447.7</ele>
<time>2003-05-17T10:45:48Z</time>
<speed>1.4</speed>
</trkpt>
<trkpt lat="47.542253" lon="8.488178">
<ele>447.4</ele>
<time>2003-05-17T10:45:53Z</time>
<speed>1.4</speed>
</trkpt>
<trkpt lat="47.542302" lon="8.488118">
<ele>447.9</ele>
<time>2003-05-17T10:45:58Z</time>
<speed>1.4</speed>
</trkpt>
<trkpt lat="47.542352" lon="8.488047">
<ele>446.8</ele>
<time>2003-05-17T10:46:03Z</time>
<speed>1.4</speed>
</trkpt>
<trkpt lat="47.542408" lon="8.487989">
<ele>446.6</ele>
<time>2003-05-17T10:46:08Z</time>
<speed>1.4</speed>
</trkpt>
<trkpt lat="47.542463" lon="8.487931">
<ele>446.4</ele>
<time>2003-05-17T10:46:13Z</time>
<speed>1.4</speed>
</trkpt>
<trkpt lat="47.542519" lon="8.487873">
<ele>446.2</ele>
<time>2003-05-17T10:46:18Z</time>
<speed>1.4</speed>
</trkpt>
<trkpt lat="47.542568" lon="8.487815">
<ele>445.2</ele>
<time>2003-05-17T10:46:23Z</time>
<speed>1.7</speed>
</trkpt>
<trkpt lat="47.542617" lon="8.487756">
<ele>445.7</ele>
<time>2003-05-17T10:46:28Z</time>
<speed>1.4</speed>
</trkpt>
<trkpt lat="47.542666" lon="8.487698">
<ele>444.7</ele>
<time>2003-05-17T10:46:33Z</time>
<speed>1.4</speed>
</trkpt>
<trkpt lat="47.542709" lon="8.487638">
<ele>444.4</ele>
<time>2003-05-17T10:46:38Z</time>
<speed>1.4</speed>
</trkpt>
<trkpt lat="47.542765" lon="8.487580">
<ele>444.2</ele>
<time>2003-05-17T10:46:43Z</time>
<speed>1.4</speed>
</trkpt>
<trkpt lat="47.542820" lon="8.487522">
<ele>444.0</ele>
<time>2003-05-17T10:46:48Z</time>
<speed>1.4</speed>
</trkpt>
<trkpt lat="47.542883" lon="8.487453">
<ele>443.0</ele>
<time>2003-05-17T10:46:54Z</time>
<speed>1.4</speed>
</trkpt>
<trkpt lat="47.542938" lon="8.487395">
<ele>442.8</ele>
<time>2003-05-17T10:46:59Z</time>
<speed>1.4</speed>
</trkpt>
<trkpt lat="47.542987" lon="8.487336">
<ele>443.2</ele>
<time>2003-05-17T10:47:04Z</time>
<speed>1.4</speed>
</trkpt>
<trkpt lat="47.543031" lon="8.487263">
<ele>442.9</ele>
<time>2003-05-17T10:47:09Z</time>
<speed>1.1</speed>
</trkpt>
<trkpt lat="47.543068" lon="8.487203">
<ele>441.8</ele>
<time>2003-05-17T10:47:14Z</time>
<speed>1.1</speed>
</trkpt>
<trkpt lat="47.543056" lon="8.487109">
<ele>440.3</ele>
<time>2003-05-17T10:47:19Z</time>
<speed>1.1</speed>
</trkpt>
<trkpt lat="47.543018" lon="8.487024">
<ele>438.8</ele>
<time>2003-05-17T10:47:24Z</time>
<speed>1.1</speed>
</trkpt>
<trkpt lat="47.542993" lon="8.486928">
<ele>437.2</ele>
<time>2003-05-17T10:47:29Z</time>
<speed>1.1</speed>
</trkpt>
<trkpt lat="47.542954" lon="8.486855">
<ele>437.2</ele>
<time>2003-05-17T10:47:34Z</time>
<speed>1.4</speed>
</trkpt>
<trkpt lat="47.542909" lon="8.486768">
<ele>436.3</ele>
<time>2003-05-17T10:47:39Z</time>
<speed>1.4</speed>
</trkpt>
<trkpt lat="47.542863" lon="8.486695">
<ele>435.5</ele>
<time>2003-05-17T10:47:44Z</time>
<speed>1.1</speed>
</trkpt>
<trkpt lat="47.542824" lon="8.486621">
<ele>435.5</ele>
<time>2003-05-17T10:47:49Z</time>
<speed>1.1</speed>
</trkpt>
<trkpt lat="47.542779" lon="8.486535">
<ele>434.6</ele>
<time>2003-05-17T10:47:54Z</time>
<speed>1.4</speed>
</trkpt>
<trkpt lat="47.542740" lon="8.486461">
<ele>434.5</ele>
<time>2003-05-17T10:47:59Z</time>
<speed>1.4</speed>
</trkpt>
<trkpt lat="47.542695" lon="8.486374">
<ele>433.7</ele>
<time>2003-05-17T10:48:04Z</time>
<speed>1.4</speed>
</trkpt>
<trkpt lat="47.542662" lon="8.486303">
<ele>433.0</ele>
<time>2003-05-17T10:48:09Z</time>
<speed>1.1</speed>
</trkpt>
<trkpt lat="47.542622" lon="8.486229">
<ele>432.9</ele>
<time>2003-05-17T10:48:14Z</time>
<speed>1.4</speed>
</trkpt>
<trkpt lat="47.542589" lon="8.486156">
<ele>433.6</ele>
<time>2003-05-17T10:48:19Z</time>
<speed>1.1</speed>
</trkpt>
<trkpt lat="47.542543" lon="8.486082">
<ele>432.8</ele>
<time>2003-05-17T10:48:24Z</time>
<speed>1.4</speed>
</trkpt>
<trkpt lat="47.542510" lon="8.486011">
<ele>432.1</ele>
<time>2003-05-17T10:48:29Z</time>
<speed>1.1</speed>
</trkpt>
<trkpt lat="47.542493" lon="8.485980">
<ele>432.5</ele>
<time>2003-05-17T10:48:34Z</time>
<speed>0.3</speed>
</trkpt>
<trkpt lat="47.542467" lon="8.485896">
<ele>432.5</ele>
<time>2003-05-17T10:48:39Z</time>
<speed>1.4</speed>
</trkpt>
<trkpt lat="47.542416" lon="8.485807">
<ele>432.2</ele>
<time>2003-05-17T10:48:44Z</time>
<speed>1.1</speed>
</trkpt>
<trkpt lat="47.542376" lon="8.485734">
<ele>432.2</ele>
<time>2003-05-17T10:48:49Z</time>
<speed>1.4</speed>
</trkpt>
<trkpt lat="47.542332" lon="8.485647">
<ele>431.3</ele>
<time>2003-05-17T10:48:54Z</time>
<speed>1.1</speed>
</trkpt>
<trkpt lat="47.542292" lon="8.485573">
<ele>431.3</ele>
<time>2003-05-17T10:48:59Z</time>
<speed>1.4</speed>
</trkpt>
<trkpt lat="47.542247" lon="8.485487">
<ele>430.4</ele>
<time>2003-05-17T10:49:04Z</time>
<speed>1.1</speed>
</trkpt>
<trkpt lat="47.542184" lon="8.485396">
<ele>430.1</ele>
<time>2003-05-17T10:49:09Z</time>
<speed>1.4</speed>
</trkpt>
<trkpt lat="47.542125" lon="8.485319">
<ele>430.7</ele>
<time>2003-05-17T10:49:14Z</time>
<speed>1.4</speed>
</trkpt>
<trkpt lat="47.542095" lon="8.485287">
<ele>431.0</ele>
<time>2003-05-17T10:49:19Z</time>
<speed>1.4</speed>
</trkpt>
<trkpt lat="47.542034" lon="8.485235">
<ele>431.8</ele>
<time>2003-05-17T10:49:24Z</time>
<speed>1.1</speed>
</trkpt>
<trkpt lat="47.541979" lon="8.485199">
<ele>432.0</ele>
<time>2003-05-17T10:49:29Z</time>
<speed>1.1</speed>
</trkpt>
<trkpt lat="47.541923" lon="8.485178">
<ele>430.8</ele>
<time>2003-05-17T10:49:34Z</time>
<speed>1.1</speed>
</trkpt>
<trkpt lat="47.541863" lon="8.485129">
<ele>430.2</ele>
<time>2003-05-17T10:49:39Z</time>
<speed>1.1</speed>
</trkpt>
<trkpt lat="47.541809" lon="8.485080">
<ele>430.3</ele>
<time>2003-05-17T10:49:44Z</time>
<speed>1.1</speed>
</trkpt>
<trkpt lat="47.541736" lon="8.485029">
<ele>429.6</ele>
<time>2003-05-17T10:49:49Z</time>
<speed>0.8</speed>
</trkpt>
<trkpt lat="47.541687" lon="8.485008">
<ele>429.2</ele>
<time>2003-05-17T10:49:54Z</time>
<speed>0.8</speed>
</trkpt>
<trkpt lat="47.541626" lon="8.484974">
<ele>427.2</ele>
<time>2003-05-17T10:49:59Z</time>
<speed>1.1</speed>
</trkpt>
<trkpt lat="47.541564" lon="8.484936">
<ele>428.1</ele>
<time>2003-05-17T10:50:04Z</time>
<speed>1.4</speed>
</trkpt>
<trkpt lat="47.541484" lon="8.484896">
<ele>428.1</ele>
<time>2003-05-17T10:50:09Z</time>
<speed>1.1</speed>
</trkpt>
<trkpt lat="47.541423" lon="8.484860">
<ele>427.6</ele>
<time>2003-05-17T10:50:14Z</time>
<speed>1.4</speed>
</trkpt>
<trkpt lat="47.541355" lon="8.484822">
<ele>427.7</ele>
<time>2003-05-17T10:50:19Z</time>
<speed>1.4</speed>
</trkpt>
<trkpt lat="47.541294" lon="8.484785">
<ele>427.1</ele>
<time>2003-05-17T10:50:24Z</time>
<speed>1.4</speed>
</trkpt>
<trkpt lat="47.541220" lon="8.484747">
<ele>426.5</ele>
<time>2003-05-17T10:50:29Z</time>
<speed>1.4</speed>
</trkpt>
<trkpt lat="47.541145" lon="8.484723">
<ele>426.0</ele>
<time>2003-05-17T10:50:34Z</time>
<speed>1.7</speed>
</trkpt>
<trkpt lat="47.541084" lon="8.484686">
<ele>425.5</ele>
<time>2003-05-17T10:50:39Z</time>
<speed>1.4</speed>
</trkpt>
<trkpt lat="47.541015" lon="8.484662">
<ele>425.7</ele>
<time>2003-05-17T10:50:44Z</time>
<speed>1.4</speed>
</trkpt>
<trkpt lat="47.540948" lon="8.484626">
<ele>424.4</ele>
<time>2003-05-17T10:50:49Z</time>
<speed>1.1</speed>
</trkpt>
<trkpt lat="47.540897" lon="8.484618">
<ele>424.1</ele>
<time>2003-05-17T10:50:54Z</time>
<speed>1.1</speed>
</trkpt>
<trkpt lat="47.540829" lon="8.484595">
<ele>422.9</ele>
<time>2003-05-17T10:50:59Z</time>
<speed>1.4</speed>
</trkpt>
<trkpt lat="47.540754" lon="8.484570">
<ele>422.4</ele>
<time>2003-05-17T10:51:04Z</time>
<speed>1.4</speed>
</trkpt>
<trkpt lat="47.540691" lon="8.484560">
<ele>422.1</ele>
<time>2003-05-17T10:51:09Z</time>
<speed>1.1</speed>
</trkpt>
<trkpt lat="47.540634" lon="8.484550">
<ele>422.4</ele>
<time>2003-05-17T10:51:14Z</time>
<speed>1.4</speed>
</trkpt>
<trkpt lat="47.540565" lon="8.484525">
<ele>422.7</ele>
<time>2003-05-17T10:51:19Z</time>
<speed>1.4</speed>
</trkpt>
<trkpt lat="47.540504" lon="8.484489">
<ele>422.1</ele>
<time>2003-05-17T10:51:24Z</time>
<speed>1.1</speed>
</trkpt>
<trkpt lat="47.540450" lon="8.484440">
<ele>422.2</ele>
<time>2003-05-17T10:51:29Z</time>
<speed>1.4</speed>
</trkpt>
<trkpt lat="47.540388" lon="8.484404">
<ele>421.6</ele>
<time>2003-05-17T10:51:34Z</time>
<speed>1.4</speed>
</trkpt>
<trkpt lat="47.540340" lon="8.484370">
<ele>421.2</ele>
<time>2003-05-17T10:51:39Z</time>
<speed>1.4</speed>
</trkpt>
<trkpt lat="47.540274" lon="8.484306">
<ele>421.1</ele>
<time>2003-05-17T10:51:44Z</time>
<speed>1.1</speed>
</trkpt>
<trkpt lat="47.540240" lon="8.484247">
<ele>420.5</ele>
<time>2003-05-17T10:51:49Z</time>
<speed>1.4</speed>
</trkpt>
<trkpt lat="47.540229" lon="8.484219">
<ele>420.2</ele>
<time>2003-05-17T10:51:54Z</time>
<speed>0.0</speed>
</trkpt>
<trkpt lat="47.540206" lon="8.484189">
<ele>419.9</ele>
<time>2003-05-17T10:51:59Z</time>
<speed>0.6</speed>
</trkpt>
<trkpt lat="47.540134" lon="8.484124">
<ele>419.0</ele>
<time>2003-05-17T10:52:04Z</time>
<speed>1.1</speed>
</trkpt>
<trkpt lat="47.540077" lon="8.484036">
<ele>418.1</ele>
<time>2003-05-17T10:52:09Z</time>
<speed>1.7</speed>
</trkpt>
<trkpt lat="47.540032" lon="8.483949">
<ele>417.2</ele>
<time>2003-05-17T10:52:14Z</time>
<speed>1.4</speed>
</trkpt>
<trkpt lat="47.539988" lon="8.483863">
<ele>416.3</ele>
<time>2003-05-17T10:52:19Z</time>
<speed>1.7</speed>
</trkpt>
<trkpt lat="47.539955" lon="8.483793">
<ele>414.2</ele>
<time>2003-05-17T10:52:24Z</time>
<speed>1.1</speed>
</trkpt>
<trkpt lat="47.539923" lon="8.483708">
<ele>413.4</ele>
<time>2003-05-17T10:52:29Z</time>
<speed>1.4</speed>
</trkpt>
<trkpt lat="47.539896" lon="8.483637">
<ele>413.5</ele>
<time>2003-05-17T10:52:34Z</time>
<speed>1.1</speed>
</trkpt>
<trkpt lat="47.539889" lon="8.483556">
<ele>412.8</ele>
<time>2003-05-17T10:52:39Z</time>
<speed>1.1</speed>
</trkpt>
<trkpt lat="47.539871" lon="8.483460">
<ele>411.9</ele>
<time>2003-05-17T10:52:44Z</time>
<speed>1.4</speed>
</trkpt>
<trkpt lat="47.539846" lon="8.483362">
<ele>411.8</ele>
<time>2003-05-17T10:52:49Z</time>
<speed>1.4</speed>
</trkpt>
<trkpt lat="47.539828" lon="8.483266">
<ele>410.9</ele>
<time>2003-05-17T10:52:54Z</time>
<speed>1.1</speed>
</trkpt>
<trkpt lat="47.539809" lon="8.483170">
<ele>410.1</ele>
<time>2003-05-17T10:52:59Z</time>
<speed>1.4</speed>
</trkpt>
<trkpt lat="47.539803" lon="8.483077">
<ele>409.3</ele>
<time>2003-05-17T10:53:04Z</time>
<speed>1.4</speed>
</trkpt>
<trkpt lat="47.539785" lon="8.482981">
<ele>408.5</ele>
<time>2003-05-17T10:53:09Z</time>
<speed>1.4</speed>
</trkpt>
<trkpt lat="47.539773" lon="8.482885">
<ele>408.4</ele>
<time>2003-05-17T10:53:14Z</time>
<speed>1.1</speed>
</trkpt>
<trkpt lat="47.539766" lon="8.482804">
<ele>407.7</ele>
<time>2003-05-17T10:53:19Z</time>
<speed>1.4</speed>
</trkpt>
<trkpt lat="47.539747" lon="8.482708">
<ele>406.9</ele>
<time>2003-05-17T10:53:24Z</time>
<speed>1.4</speed>
</trkpt>
<trkpt lat="47.539735" lon="8.482612">
<ele>406.8</ele>
<time>2003-05-17T10:53:29Z</time>
<speed>1.4</speed>
</trkpt>
<trkpt lat="47.539735" lon="8.482518">
<ele>406.8</ele>
<time>2003-05-17T10:53:34Z</time>
<speed>1.1</speed>
</trkpt>
<trkpt lat="47.539723" lon="8.482422">
<ele>406.7</ele>
<time>2003-05-17T10:53:39Z</time>
<speed>1.4</speed>
</trkpt>
<trkpt lat="47.539705" lon="8.482327">
<ele>405.8</ele>
<time>2003-05-17T10:53:44Z</time>
<speed>1.4</speed>
</trkpt>
<trkpt lat="47.539699" lon="8.482233">
<ele>405.1</ele>
<time>2003-05-17T10:53:49Z</time>
<speed>1.7</speed>
</trkpt>
<trkpt lat="47.539687" lon="8.482124">
<ele>404.9</ele>
<time>2003-05-17T10:53:54Z</time>
<speed>1.4</speed>
</trkpt>
<trkpt lat="47.539681" lon="8.482043">
<ele>404.2</ele>
<time>2003-05-17T10:53:59Z</time>
<speed>1.4</speed>
</trkpt>
<trkpt lat="47.539662" lon="8.481947">
<ele>403.4</ele>
<time>2003-05-17T10:54:04Z</time>
<speed>1.4</speed>
</trkpt>
<trkpt lat="47.539650" lon="8.481851">
<ele>403.3</ele>
<time>2003-05-17T10:54:09Z</time>
<speed>1.4</speed>
</trkpt>
<trkpt lat="47.539644" lon="8.481755">
<ele>403.9</ele>
<time>2003-05-17T10:54:14Z</time>
<speed>1.4</speed>
</trkpt>
<trkpt lat="47.539625" lon="8.481659">
<ele>403.1</ele>
<time>2003-05-17T10:54:19Z</time>
<speed>1.4</speed>
</trkpt>
<trkpt lat="47.539613" lon="8.481564">
<ele>403.0</ele>
<time>2003-05-17T10:54:24Z</time>
<speed>1.1</speed>
</trkpt>
<trkpt lat="47.539600" lon="8.481468">
<ele>402.9</ele>
<time>2003-05-17T10:54:29Z</time>
<speed>1.4</speed>
</trkpt>
<trkpt lat="47.539595" lon="8.481374">
<ele>402.1</ele>
<time>2003-05-17T10:54:34Z</time>
<speed>1.4</speed>
</trkpt>
<trkpt lat="47.539583" lon="8.481265">
<ele>401.9</ele>
<time>2003-05-17T10:54:39Z</time>
<speed>1.4</speed>
</trkpt>
<trkpt lat="47.539571" lon="8.481169">
<ele>401.8</ele>
<time>2003-05-17T10:54:44Z</time>
<speed>1.4</speed>
</trkpt>
<trkpt lat="47.539559" lon="8.481073">
<ele>401.7</ele>
<time>2003-05-17T10:54:49Z</time>
<speed>1.4</speed>
</trkpt>
<trkpt lat="47.539552" lon="8.480977">
<ele>402.3</ele>
<time>2003-05-17T10:54:54Z</time>
<speed>1.4</speed>
</trkpt>
<trkpt lat="47.539534" lon="8.480881">
<ele>401.5</ele>
<time>2003-05-17T10:54:59Z</time>
<speed>1.4</speed>
</trkpt>
<trkpt lat="47.539522" lon="8.480785">
<ele>401.4</ele>
<time>2003-05-17T10:55:04Z</time>
<speed>1.4</speed>
</trkpt>
<trkpt lat="47.539509" lon="8.480689">
<ele>401.3</ele>
<time>2003-05-17T10:55:09Z</time>
<speed>1.4</speed>
</trkpt>
<trkpt lat="47.539503" lon="8.480596">
<ele>400.5</ele>
<time>2003-05-17T10:55:14Z</time>
<speed>1.4</speed>
</trkpt>
<trkpt lat="47.539492" lon="8.480487">
<ele>400.3</ele>
<time>2003-05-17T10:55:19Z</time>
<speed>1.4</speed>
</trkpt>
<trkpt lat="47.539480" lon="8.480391">
<ele>400.2</ele>
<time>2003-05-17T10:55:24Z</time>
<speed>1.4</speed>
</trkpt>
<trkpt lat="47.539467" lon="8.480295">
<ele>400.1</ele>
<time>2003-05-17T10:55:29Z</time>
<speed>1.1</speed>
</trkpt>
<trkpt lat="47.539455" lon="8.480199">
<ele>400.0</ele>
<time>2003-05-17T10:55:34Z</time>
<speed>1.4</speed>
</trkpt>
<trkpt lat="47.539442" lon="8.480101">
<ele>401.3</ele>
<time>2003-05-17T10:55:39Z</time>
<speed>1.4</speed>
</trkpt>
<trkpt lat="47.539430" lon="8.480005">
<ele>401.2</ele>
<time>2003-05-17T10:55:44Z</time>
<speed>1.4</speed>
</trkpt>
<trkpt lat="47.539418" lon="8.479909">
<ele>401.1</ele>
<time>2003-05-17T10:55:49Z</time>
<speed>1.4</speed>
</trkpt>
<trkpt lat="47.539405" lon="8.479812">
<ele>402.5</ele>
<time>2003-05-17T10:55:54Z</time>
<speed>1.4</speed>
</trkpt>
<trkpt lat="47.539386" lon="8.479716">
<ele>401.6</ele>
<time>2003-05-17T10:55:59Z</time>
<speed>1.4</speed>
</trkpt>
<trkpt lat="47.539380" lon="8.479620">
<ele>402.3</ele>
<time>2003-05-17T10:56:04Z</time>
<speed>1.4</speed>
</trkpt>
<trkpt lat="47.539368" lon="8.479524">
<ele>402.2</ele>
<time>2003-05-17T10:56:09Z</time>
<speed>1.4</speed>
</trkpt>
<trkpt lat="47.539349" lon="8.479428">
<ele>401.3</ele>
<time>2003-05-17T10:56:14Z</time>
<speed>1.4</speed>
</trkpt>
<trkpt lat="47.539335" lon="8.479343">
<ele>402.7</ele>
<time>2003-05-17T10:56:19Z</time>
<speed>1.4</speed>
</trkpt>
<trkpt lat="47.539323" lon="8.479247">
<ele>402.6</ele>
<time>2003-05-17T10:56:24Z</time>
<speed>1.4</speed>
</trkpt>
<trkpt lat="47.539323" lon="8.479154">
<ele>402.6</ele>
<time>2003-05-17T10:56:29Z</time>
<speed>1.4</speed>
</trkpt>
<trkpt lat="47.539311" lon="8.479058">
<ele>402.5</ele>
<time>2003-05-17T10:56:34Z</time>
<speed>1.4</speed>
</trkpt>
<trkpt lat="47.539299" lon="8.478962">
<ele>402.4</ele>
<time>2003-05-17T10:56:39Z</time>
<speed>1.4</speed>
</trkpt>
<trkpt lat="47.539292" lon="8.478866">
<ele>403.0</ele>
<time>2003-05-17T10:56:44Z</time>
<speed>1.4</speed>
</trkpt>
<trkpt lat="47.539285" lon="8.478783">
<ele>403.8</ele>
<time>2003-05-17T10:56:49Z</time>
<speed>1.4</speed>
</trkpt>
<trkpt lat="47.539285" lon="8.478689">
<ele>403.7</ele>
<time>2003-05-17T10:56:54Z</time>
<speed>1.4</speed>
</trkpt>
<trkpt lat="47.539273" lon="8.478593">
<ele>403.6</ele>
<time>2003-05-17T10:56:59Z</time>
<speed>1.4</speed>
</trkpt>
<trkpt lat="47.539260" lon="8.478511">
<ele>403.6</ele>
<time>2003-05-17T10:57:04Z</time>
<speed>1.4</speed>
</trkpt>
<trkpt lat="47.539247" lon="8.478415">
<ele>403.5</ele>
<time>2003-05-17T10:57:09Z</time>
<speed>1.4</speed>
</trkpt>
<trkpt lat="47.539241" lon="8.478319">
<ele>404.2</ele>
<time>2003-05-17T10:57:14Z</time>
<speed>1.4</speed>
</trkpt>
<trkpt lat="47.539216" lon="8.478221">
<ele>404.0</ele>
<time>2003-05-17T10:57:19Z</time>
<speed>1.4</speed>
</trkpt>
<trkpt lat="47.539210" lon="8.478125">
<ele>404.7</ele>
<time>2003-05-17T10:57:24Z</time>
<speed>1.4</speed>
</trkpt>
<trkpt lat="47.539197" lon="8.478029">
<ele>404.6</ele>
<time>2003-05-17T10:57:29Z</time>
<speed>1.4</speed>
</trkpt>
<trkpt lat="47.539185" lon="8.477934">
<ele>404.5</ele>
<time>2003-05-17T10:57:34Z</time>
<speed>1.4</speed>
</trkpt>
<trkpt lat="47.539173" lon="8.477838">
<ele>404.4</ele>
<time>2003-05-17T10:57:39Z</time>
<speed>1.4</speed>
</trkpt>
<trkpt lat="47.539167" lon="8.477742">
<ele>405.0</ele>
<time>2003-05-17T10:57:44Z</time>
<speed>1.4</speed>
</trkpt>
<trkpt lat="47.539154" lon="8.477646">
<ele>404.9</ele>
<time>2003-05-17T10:57:49Z</time>
<speed>1.4</speed>
</trkpt>
<trkpt lat="47.539142" lon="8.477550">
<ele>404.8</ele>
<time>2003-05-17T10:57:54Z</time>
<speed>1.4</speed>
</trkpt>
<trkpt lat="47.539129" lon="8.477454">
<ele>404.7</ele>
<time>2003-05-17T10:57:59Z</time>
<speed>1.4</speed>
</trkpt>
<trkpt lat="47.539123" lon="8.477358">
<ele>405.3</ele>
<time>2003-05-17T10:58:04Z</time>
<speed>1.4</speed>
</trkpt>
<trkpt lat="47.539116" lon="8.477276">
<ele>406.1</ele>
<time>2003-05-17T10:58:09Z</time>
<speed>1.4</speed>
</trkpt>
<trkpt lat="47.539097" lon="8.477178">
<ele>406.6</ele>
<time>2003-05-17T10:58:14Z</time>
<speed>1.4</speed>
</trkpt>
<trkpt lat="47.539091" lon="8.477082">
<ele>407.3</ele>
<time>2003-05-17T10:58:19Z</time>
<speed>1.4</speed>
</trkpt>
<trkpt lat="47.539078" lon="8.476986">
<ele>407.2</ele>
<time>2003-05-17T10:58:24Z</time>
<speed>1.4</speed>
</trkpt>
<trkpt lat="47.539066" lon="8.476888">
<ele>408.5</ele>
<time>2003-05-17T10:58:29Z</time>
<speed>1.4</speed>
</trkpt>
<trkpt lat="47.539053" lon="8.476792">
<ele>408.4</ele>
<time>2003-05-17T10:58:34Z</time>
<speed>1.4</speed>
</trkpt>
<trkpt lat="47.539041" lon="8.476696">
<ele>408.3</ele>
<time>2003-05-17T10:58:39Z</time>
<speed>1.4</speed>
</trkpt>
<trkpt lat="47.539035" lon="8.476601">
<ele>408.9</ele>
<time>2003-05-17T10:58:44Z</time>
<speed>1.4</speed>
</trkpt>
<trkpt lat="47.539028" lon="8.476520">
<ele>408.3</ele>
<time>2003-05-17T10:58:49Z</time>
<speed>1.1</speed>
</trkpt>
<trkpt lat="47.539022" lon="8.476424">
<ele>408.9</ele>
<time>2003-05-17T10:58:54Z</time>
<speed>1.4</speed>
</trkpt>
<trkpt lat="47.539016" lon="8.476330">
<ele>408.1</ele>
<time>2003-05-17T10:58:59Z</time>
<speed>1.4</speed>
</trkpt>
<trkpt lat="47.539023" lon="8.476223">
<ele>408.7</ele>
<time>2003-05-17T10:59:04Z</time>
<speed>1.4</speed>
</trkpt>
<trkpt lat="47.539022" lon="8.476142">
<ele>408.8</ele>
<time>2003-05-17T10:59:09Z</time>
<speed>1.4</speed>
</trkpt>
<trkpt lat="47.539016" lon="8.476046">
<ele>409.5</ele>
<time>2003-05-17T10:59:14Z</time>
<speed>1.1</speed>
</trkpt>
<trkpt lat="47.538968" lon="8.475997">
<ele>410.3</ele>
<time>2003-05-17T10:59:19Z</time>
<speed>1.4</speed>
</trkpt>
<trkpt lat="47.538913" lon="8.475961">
<ele>410.5</ele>
<time>2003-05-17T10:59:24Z</time>
<speed>1.4</speed>
</trkpt>
<trkpt lat="47.538837" lon="8.475949">
<ele>410.1</ele>
<time>2003-05-17T10:59:29Z</time>
<speed>1.4</speed>
</trkpt>
<trkpt lat="47.538781" lon="8.475926">
<ele>410.3</ele>
<time>2003-05-17T10:59:34Z</time>
<speed>1.4</speed>
</trkpt>
<trkpt lat="47.538713" lon="8.475888">
<ele>410.5</ele>
<time>2003-05-17T10:59:39Z</time>
<speed>1.4</speed>
</trkpt>
<trkpt lat="47.538644" lon="8.475863">
<ele>410.7</ele>
<time>2003-05-17T10:59:44Z</time>
<speed>1.4</speed>
</trkpt>
<trkpt lat="47.538576" lon="8.475841">
<ele>409.5</ele>
<time>2003-05-17T10:59:49Z</time>
<speed>1.4</speed>
</trkpt>
<trkpt lat="47.538507" lon="8.475816">
<ele>409.7</ele>
<time>2003-05-17T10:59:54Z</time>
<speed>1.7</speed>
</trkpt>
<trkpt lat="47.538444" lon="8.475806">
<ele>409.4</ele>
<time>2003-05-17T10:59:59Z</time>
<speed>1.4</speed>
</trkpt>
<trkpt lat="47.538382" lon="8.475783">
<ele>408.9</ele>
<time>2003-05-17T11:00:04Z</time>
<speed>1.4</speed>
</trkpt>
<trkpt lat="47.538319" lon="8.475773">
<ele>408.6</ele>
<time>2003-05-17T11:00:09Z</time>
<speed>1.4</speed>
</trkpt>
<trkpt lat="47.538257" lon="8.475750">
<ele>408.1</ele>
<time>2003-05-17T11:00:14Z</time>
<speed>1.4</speed>
</trkpt>
<trkpt lat="47.538188" lon="8.475727">
<ele>406.9</ele>
<time>2003-05-17T11:00:19Z</time>
<speed>1.4</speed>
</trkpt>
<trkpt lat="47.538126" lon="8.475704">
<ele>406.5</ele>
<time>2003-05-17T11:00:24Z</time>
<speed>1.7</speed>
</trkpt>
<trkpt lat="47.538064" lon="8.475679">
<ele>407.4</ele>
<time>2003-05-17T11:00:29Z</time>
<speed>1.4</speed>
</trkpt>
<trkpt lat="47.537989" lon="8.475655">
<ele>406.9</ele>
<time>2003-05-17T11:00:34Z</time>
<speed>1.7</speed>
</trkpt>
<trkpt lat="47.537933" lon="8.475632">
<ele>407.2</ele>
<time>2003-05-17T11:00:39Z</time>
<speed>1.1</speed>
</trkpt>
<trkpt lat="47.537869" lon="8.475620">
<ele>408.3</ele>
<time>2003-05-17T11:00:44Z</time>
<speed>1.4</speed>
</trkpt>
<trkpt lat="47.537808" lon="8.475584">
<ele>407.7</ele>
<time>2003-05-17T11:00:49Z</time>
<speed>1.4</speed>
</trkpt>
<trkpt lat="47.537739" lon="8.475559">
<ele>407.9</ele>
<time>2003-05-17T11:00:54Z</time>
<speed>1.4</speed>
</trkpt>
<trkpt lat="47.537682" lon="8.475549">
<ele>408.3</ele>
<time>2003-05-17T11:00:59Z</time>
<speed>1.4</speed>
</trkpt>
<trkpt lat="47.537613" lon="8.475524">
<ele>408.5</ele>
<time>2003-05-17T11:01:04Z</time>
<speed>1.4</speed>
</trkpt>
<trkpt lat="47.537550" lon="8.475499">
<ele>409.5</ele>
<time>2003-05-17T11:01:09Z</time>
<speed>1.4</speed>
</trkpt>
<trkpt lat="47.537488" lon="8.475477">
<ele>409.0</ele>
<time>2003-05-17T11:01:14Z</time>
<speed>1.4</speed>
</trkpt>
<trkpt lat="47.537426" lon="8.475452">
<ele>410.0</ele>
<time>2003-05-17T11:01:19Z</time>
<speed>1.4</speed>
</trkpt>
<trkpt lat="47.537363" lon="8.475429">
<ele>409.5</ele>
<time>2003-05-17T11:01:24Z</time>
<speed>1.4</speed>
</trkpt>
<trkpt lat="47.537295" lon="8.475404">
<ele>409.8</ele>
<time>2003-05-17T11:01:29Z</time>
<speed>1.4</speed>
</trkpt>
<trkpt lat="47.537237" lon="8.475394">
<ele>410.1</ele>
<time>2003-05-17T11:01:34Z</time>
<speed>1.4</speed>
</trkpt>
<trkpt lat="47.537169" lon="8.475369">
<ele>410.4</ele>
<time>2003-05-17T11:01:39Z</time>
<speed>1.4</speed>
</trkpt>
<trkpt lat="47.537107" lon="8.475346">
<ele>409.9</ele>
<time>2003-05-17T11:01:44Z</time>
<speed>1.4</speed>
</trkpt>
<trkpt lat="47.537038" lon="8.475321">
<ele>410.1</ele>
<time>2003-05-17T11:01:49Z</time>
<speed>1.4</speed>
</trkpt>
<trkpt lat="47.536976" lon="8.475298">
<ele>409.7</ele>
<time>2003-05-17T11:01:54Z</time>
<speed>1.7</speed>
</trkpt>
<trkpt lat="47.536907" lon="8.475274">
<ele>409.9</ele>
<time>2003-05-17T11:01:59Z</time>
<speed>1.4</speed>
</trkpt>
<trkpt lat="47.536839" lon="8.475251">
<ele>408.7</ele>
<time>2003-05-17T11:02:04Z</time>
<speed>1.4</speed>
</trkpt>
<trkpt lat="47.536770" lon="8.475226">
<ele>408.9</ele>
<time>2003-05-17T11:02:09Z</time>
<speed>1.4</speed>
</trkpt>
<trkpt lat="47.536708" lon="8.475203">
<ele>408.5</ele>
<time>2003-05-17T11:02:14Z</time>
<speed>1.4</speed>
</trkpt>
<trkpt lat="47.536646" lon="8.475167">
<ele>407.9</ele>
<time>2003-05-17T11:02:19Z</time>
<speed>1.4</speed>
</trkpt>
<trkpt lat="47.536584" lon="8.475142">
<ele>408.9</ele>
<time>2003-05-17T11:02:24Z</time>
<speed>1.4</speed>
</trkpt>
<trkpt lat="47.536522" lon="8.475119">
<ele>408.4</ele>
<time>2003-05-17T11:02:29Z</time>
<speed>1.4</speed>
</trkpt>
<trkpt lat="47.536459" lon="8.475094">
<ele>409.4</ele>
<time>2003-05-17T11:02:34Z</time>
<speed>1.4</speed>
</trkpt>
<trkpt lat="47.536397" lon="8.475071">
<ele>409.0</ele>
<time>2003-05-17T11:02:39Z</time>
<speed>1.1</speed>
</trkpt>
<trkpt lat="47.536334" lon="8.475046">
<ele>409.9</ele>
<time>2003-05-17T11:02:44Z</time>
<speed>1.4</speed>
</trkpt>
<trkpt lat="47.536272" lon="8.475023">
<ele>409.5</ele>
<time>2003-05-17T11:02:49Z</time>
<speed>1.4</speed>
</trkpt>
<trkpt lat="47.536208" lon="8.475012">
<ele>410.5</ele>
<time>2003-05-17T11:02:54Z</time>
<speed>1.4</speed>
</trkpt>
<trkpt lat="47.536146" lon="8.474989">
<ele>410.1</ele>
<time>2003-05-17T11:02:59Z</time>
<speed>1.4</speed>
</trkpt>
<trkpt lat="47.536084" lon="8.474951">
<ele>410.9</ele>
<time>2003-05-17T11:03:04Z</time>
<speed>1.1</speed>
</trkpt>
<trkpt lat="47.536022" lon="8.474928">
<ele>410.5</ele>
<time>2003-05-17T11:03:09Z</time>
<speed>1.4</speed>
</trkpt>
<trkpt lat="47.535947" lon="8.474901">
<ele>411.4</ele>
<time>2003-05-17T11:03:15Z</time>
<speed>1.4</speed>
</trkpt>
<trkpt lat="47.535878" lon="8.474876">
<ele>411.6</ele>
<time>2003-05-17T11:03:20Z</time>
<speed>1.4</speed>
</trkpt>
<trkpt lat="47.535816" lon="8.474853">
<ele>411.1</ele>
<time>2003-05-17T11:03:25Z</time>
<speed>1.4</speed>
</trkpt>
<trkpt lat="47.535759" lon="8.474843">
<ele>411.5</ele>
<time>2003-05-17T11:03:30Z</time>
<speed>1.1</speed>
</trkpt>
<trkpt lat="47.535697" lon="8.474807">
<ele>411.0</ele>
<time>2003-05-17T11:03:35Z</time>
<speed>1.4</speed>
</trkpt>
<trkpt lat="47.535629" lon="8.474782">
<ele>411.2</ele>
<time>2003-05-17T11:03:40Z</time>
<speed>1.1</speed>
</trkpt>
<trkpt lat="47.535567" lon="8.474744">
<ele>412.0</ele>
<time>2003-05-17T11:03:45Z</time>
<speed>1.1</speed>
</trkpt>
<trkpt lat="47.535504" lon="8.474735">
<ele>411.7</ele>
<time>2003-05-17T11:03:50Z</time>
<speed>1.4</speed>
</trkpt>
<trkpt lat="47.535434" lon="8.474723">
<ele>412.0</ele>
<time>2003-05-17T11:03:55Z</time>
<speed>1.4</speed>
</trkpt>
<trkpt lat="47.535365" lon="8.474698">
<ele>412.2</ele>
<time>2003-05-17T11:04:00Z</time>
<speed>1.4</speed>
</trkpt>
<trkpt lat="47.535309" lon="8.474675">
<ele>412.5</ele>
<time>2003-05-17T11:04:05Z</time>
<speed>1.1</speed>
</trkpt>
<trkpt lat="47.535241" lon="8.474637">
<ele>412.6</ele>
<time>2003-05-17T11:04:10Z</time>
<speed>1.4</speed>
</trkpt>
<trkpt lat="47.535184" lon="8.474627">
<ele>413.0</ele>
<time>2003-05-17T11:04:15Z</time>
<speed>1.1</speed>
</trkpt>
<trkpt lat="47.535116" lon="8.474602">
<ele>413.2</ele>
<time>2003-05-17T11:04:20Z</time>
<speed>1.1</speed>
</trkpt>
<trkpt lat="47.535065" lon="8.474595">
<ele>413.0</ele>
<time>2003-05-17T11:04:25Z</time>
<speed>1.1</speed>
</trkpt>
<trkpt lat="47.534996" lon="8.474570">
<ele>413.2</ele>
<time>2003-05-17T11:04:30Z</time>
<speed>1.4</speed>
</trkpt>
<trkpt lat="47.534928" lon="8.474545">
<ele>413.4</ele>
<time>2003-05-17T11:04:35Z</time>
<speed>1.4</speed>
</trkpt>
<trkpt lat="47.534871" lon="8.474522">
<ele>413.7</ele>
<time>2003-05-17T11:04:40Z</time>
<speed>1.4</speed>
</trkpt>
<trkpt lat="47.534803" lon="8.474497">
<ele>413.9</ele>
<time>2003-05-17T11:04:45Z</time>
<speed>1.4</speed>
</trkpt>
<trkpt lat="47.534740" lon="8.474474">
<ele>413.5</ele>
<time>2003-05-17T11:04:50Z</time>
<speed>1.4</speed>
</trkpt>
<trkpt lat="47.534678" lon="8.474449">
<ele>414.4</ele>
<time>2003-05-17T11:04:55Z</time>
<speed>1.4</speed>
</trkpt>
<trkpt lat="47.534616" lon="8.474426">
<ele>414.0</ele>
<time>2003-05-17T11:05:00Z</time>
<speed>1.4</speed>
</trkpt>
<trkpt lat="47.534552" lon="8.474415">
<ele>415.0</ele>
<time>2003-05-17T11:05:05Z</time>
<speed>1.7</speed>
</trkpt>
<trkpt lat="47.534490" lon="8.474392">
<ele>414.6</ele>
<time>2003-05-17T11:05:10Z</time>
<speed>1.4</speed>
</trkpt>
<trkpt lat="47.534433" lon="8.474382">
<ele>415.0</ele>
<time>2003-05-17T11:05:15Z</time>
<speed>1.1</speed>
</trkpt>
<trkpt lat="47.534376" lon="8.474359">
<ele>415.3</ele>
<time>2003-05-17T11:05:20Z</time>
<speed>1.4</speed>
</trkpt>
<trkpt lat="47.534308" lon="8.474334">
<ele>415.5</ele>
<time>2003-05-17T11:05:25Z</time>
<speed>1.4</speed>
</trkpt>
<trkpt lat="47.534252" lon="8.474311">
<ele>415.8</ele>
<time>2003-05-17T11:05:30Z</time>
<speed>1.4</speed>
</trkpt>
<trkpt lat="47.534188" lon="8.474301">
<ele>415.4</ele>
<time>2003-05-17T11:05:35Z</time>
<speed>1.4</speed>
</trkpt>
<trkpt lat="47.534126" lon="8.474278">
<ele>415.0</ele>
<time>2003-05-17T11:05:40Z</time>
<speed>1.1</speed>
</trkpt>
<trkpt lat="47.534065" lon="8.474240">
<ele>415.8</ele>
<time>2003-05-17T11:05:45Z</time>
<speed>1.1</speed>
</trkpt>
<trkpt lat="47.534008" lon="8.474217">
<ele>416.1</ele>
<time>2003-05-17T11:05:50Z</time>
<speed>1.4</speed>
</trkpt>
<trkpt lat="47.533939" lon="8.474206">
<ele>416.4</ele>
<time>2003-05-17T11:05:55Z</time>
<speed>1.4</speed>
</trkpt>
<trkpt lat="47.533883" lon="8.474183">
<ele>416.7</ele>
<time>2003-05-17T11:06:00Z</time>
<speed>1.1</speed>
</trkpt>
<trkpt lat="47.533820" lon="8.474160">
<ele>416.3</ele>
<time>2003-05-17T11:06:05Z</time>
<speed>1.1</speed>
</trkpt>
<trkpt lat="47.533763" lon="8.474150">
<ele>416.7</ele>
<time>2003-05-17T11:06:10Z</time>
<speed>1.4</speed>
</trkpt>
<trkpt lat="47.533707" lon="8.474127">
<ele>416.9</ele>
<time>2003-05-17T11:06:15Z</time>
<speed>1.1</speed>
</trkpt>
<trkpt lat="47.533639" lon="8.474089">
<ele>417.1</ele>
<time>2003-05-17T11:06:20Z</time>
<speed>1.1</speed>
</trkpt>
<trkpt lat="47.533583" lon="8.474066">
<ele>417.3</ele>
<time>2003-05-17T11:06:25Z</time>
<speed>1.1</speed>
</trkpt>
<trkpt lat="47.533515" lon="8.474041">
<ele>417.6</ele>
<time>2003-05-17T11:06:30Z</time>
<speed>1.1</speed>
</trkpt>
<trkpt lat="47.533458" lon="8.474018">
<ele>417.9</ele>
<time>2003-05-17T11:06:35Z</time>
<speed>1.1</speed>
</trkpt>
<trkpt lat="47.533396" lon="8.473996">
<ele>417.4</ele>
<time>2003-05-17T11:06:40Z</time>
<speed>1.1</speed>
</trkpt>
<trkpt lat="47.533340" lon="8.473971">
<ele>419.1</ele>
<time>2003-05-17T11:06:45Z</time>
<speed>1.1</speed>
</trkpt>
<trkpt lat="47.533291" lon="8.474030">
<ele>418.7</ele>
<time>2003-05-17T11:06:50Z</time>
<speed>1.4</speed>
</trkpt>
<trkpt lat="47.533277" lon="8.474136">
<ele>418.7</ele>
<time>2003-05-17T11:06:55Z</time>
<speed>1.1</speed>
</trkpt>
<trkpt lat="47.533290" lon="8.474233">
<ele>417.4</ele>
<time>2003-05-17T11:07:00Z</time>
<speed>1.4</speed>
</trkpt>
<trkpt lat="47.533295" lon="8.474327">
<ele>418.2</ele>
<time>2003-05-17T11:07:05Z</time>
<speed>1.1</speed>
</trkpt>
<trkpt lat="47.533308" lon="8.474423">
<ele>418.3</ele>
<time>2003-05-17T11:07:10Z</time>
<speed>1.4</speed>
</trkpt>
<trkpt lat="47.533314" lon="8.474517">
<ele>419.0</ele>
<time>2003-05-17T11:07:15Z</time>
<speed>1.4</speed>
</trkpt>
<trkpt lat="47.533326" lon="8.474613">
<ele>419.1</ele>
<time>2003-05-17T11:07:20Z</time>
<speed>1.4</speed>
</trkpt>
<trkpt lat="47.533339" lon="8.474711">
<ele>417.8</ele>
<time>2003-05-17T11:07:25Z</time>
<speed>1.4</speed>
</trkpt>
<trkpt lat="47.533352" lon="8.474793">
<ele>417.8</ele>
<time>2003-05-17T11:07:30Z</time>
<speed>1.4</speed>
</trkpt>
<trkpt lat="47.533364" lon="8.474889">
<ele>417.9</ele>
<time>2003-05-17T11:07:35Z</time>
<speed>1.4</speed>
</trkpt>
<trkpt lat="47.533370" lon="8.474983">
<ele>418.7</ele>
<time>2003-05-17T11:07:40Z</time>
<speed>1.4</speed>
</trkpt>
<trkpt lat="47.533328" lon="8.475045">
<ele>417.6</ele>
<time>2003-05-17T11:07:45Z</time>
<speed>1.1</speed>
</trkpt>
<trkpt lat="47.533262" lon="8.475075">
<ele>417.5</ele>
<time>2003-05-17T11:07:50Z</time>
<speed>1.4</speed>
</trkpt>
<trkpt lat="47.533190" lon="8.475104">
<ele>416.7</ele>
<time>2003-05-17T11:07:55Z</time>
<speed>1.4</speed>
</trkpt>
<trkpt lat="47.533124" lon="8.475134">
<ele>416.7</ele>
<time>2003-05-17T11:08:00Z</time>
<speed>1.4</speed>
</trkpt>
<trkpt lat="47.533058" lon="8.475150">
<ele>416.5</ele>
<time>2003-05-17T11:08:05Z</time>
<speed>1.1</speed>
</trkpt>
<trkpt lat="47.532993" lon="8.475167">
<ele>416.4</ele>
<time>2003-05-17T11:08:10Z</time>
<speed>1.1</speed>
</trkpt>
<trkpt lat="47.532928" lon="8.475183">
<ele>416.2</ele>
<time>2003-05-17T11:08:15Z</time>
<speed>1.4</speed>
</trkpt>
<trkpt lat="47.532862" lon="8.475213">
<ele>416.2</ele>
<time>2003-05-17T11:08:20Z</time>
<speed>1.1</speed>
</trkpt>
<trkpt lat="47.532797" lon="8.475229">
<ele>416.0</ele>
<time>2003-05-17T11:08:25Z</time>
<speed>1.4</speed>
</trkpt>
<trkpt lat="47.532732" lon="8.475246">
<ele>415.9</ele>
<time>2003-05-17T11:08:30Z</time>
<speed>1.4</speed>
</trkpt>
<trkpt lat="47.532666" lon="8.475275">
<ele>415.8</ele>
<time>2003-05-17T11:08:35Z</time>
<speed>1.1</speed>
</trkpt>
<trkpt lat="47.532607" lon="8.475294">
<ele>415.0</ele>
<time>2003-05-17T11:08:40Z</time>
<speed>1.1</speed>
</trkpt>
<trkpt lat="47.532528" lon="8.475322">
<ele>414.9</ele>
<time>2003-05-17T11:08:46Z</time>
<speed>1.4</speed>
</trkpt>
<trkpt lat="47.532462" lon="8.475349">
<ele>416.2</ele>
<time>2003-05-17T11:08:51Z</time>
<speed>1.4</speed>
</trkpt>
<trkpt lat="47.532391" lon="8.475366">
<ele>415.4</ele>
<time>2003-05-17T11:08:56Z</time>
<speed>1.1</speed>
</trkpt>
<trkpt lat="47.532331" lon="8.475397">
<ele>414.6</ele>
<time>2003-05-17T11:09:01Z</time>
<speed>1.4</speed>
</trkpt>
<trkpt lat="47.532272" lon="8.475414">
<ele>415.2</ele>
<time>2003-05-17T11:09:06Z</time>
<speed>1.1</speed>
</trkpt>
<trkpt lat="47.532206" lon="8.475443">
<ele>415.2</ele>
<time>2003-05-17T11:09:11Z</time>
<speed>1.4</speed>
</trkpt>
<trkpt lat="47.532141" lon="8.475460">
<ele>415.0</ele>
<time>2003-05-17T11:09:16Z</time>
<speed>1.4</speed>
</trkpt>
<trkpt lat="47.532081" lon="8.475489">
<ele>415.7</ele>
<time>2003-05-17T11:09:21Z</time>
<speed>1.1</speed>
</trkpt>
<trkpt lat="47.532016" lon="8.475506">
<ele>415.6</ele>
<time>2003-05-17T11:09:26Z</time>
<speed>1.4</speed>
</trkpt>
<trkpt lat="47.531950" lon="8.475536">
<ele>415.5</ele>
<time>2003-05-17T11:09:31Z</time>
<speed>1.1</speed>
</trkpt>
<trkpt lat="47.531884" lon="8.475552">
<ele>415.4</ele>
<time>2003-05-17T11:09:36Z</time>
<speed>1.4</speed>
</trkpt>
<trkpt lat="47.531818" lon="8.475582">
<ele>415.3</ele>
<time>2003-05-17T11:09:41Z</time>
<speed>1.1</speed>
</trkpt>
<trkpt lat="47.531759" lon="8.475598">
<ele>415.9</ele>
<time>2003-05-17T11:09:46Z</time>
<speed>1.4</speed>
</trkpt>
<trkpt lat="47.531693" lon="8.475628">
<ele>415.8</ele>
<time>2003-05-17T11:09:51Z</time>
<speed>1.1</speed>
</trkpt>
<trkpt lat="47.531628" lon="8.475644">
<ele>415.7</ele>
<time>2003-05-17T11:09:56Z</time>
<speed>1.4</speed>
</trkpt>
<trkpt lat="47.531568" lon="8.475674">
<ele>416.4</ele>
<time>2003-05-17T11:10:01Z</time>
<speed>1.4</speed>
</trkpt>
<trkpt lat="47.531497" lon="8.475690">
<ele>415.5</ele>
<time>2003-05-17T11:10:06Z</time>
<speed>1.4</speed>
</trkpt>
<trkpt lat="47.531437" lon="8.475722">
<ele>414.8</ele>
<time>2003-05-17T11:10:11Z</time>
<speed>1.7</speed>
</trkpt>
<trkpt lat="47.531372" lon="8.475738">
<ele>414.6</ele>
<time>2003-05-17T11:10:16Z</time>
<speed>1.4</speed>
</trkpt>
<trkpt lat="47.531307" lon="8.475755">
<ele>414.5</ele>
<time>2003-05-17T11:10:21Z</time>
<speed>1.1</speed>
</trkpt>
<trkpt lat="47.531242" lon="8.475771">
<ele>414.3</ele>
<time>2003-05-17T11:10:26Z</time>
<speed>1.4</speed>
</trkpt>
<trkpt lat="47.531177" lon="8.475788">
<ele>414.2</ele>
<time>2003-05-17T11:10:31Z</time>
<speed>1.4</speed>
</trkpt>
<trkpt lat="47.531106" lon="8.475804">
<ele>413.3</ele>
<time>2003-05-17T11:10:36Z</time>
<speed>1.4</speed>
</trkpt>
<trkpt lat="47.531040" lon="8.475821">
<ele>413.1</ele>
<time>2003-05-17T11:10:41Z</time>
<speed>1.4</speed>
</trkpt>
<trkpt lat="47.530976" lon="8.475824">
<ele>412.9</ele>
<time>2003-05-17T11:10:46Z</time>
<speed>1.1</speed>
</trkpt>
<trkpt lat="47.530911" lon="8.475841">
<ele>412.7</ele>
<time>2003-05-17T11:10:51Z</time>
<speed>1.4</speed>
</trkpt>
<trkpt lat="47.530840" lon="8.475842">
<ele>413.2</ele>
<time>2003-05-17T11:10:56Z</time>
<speed>1.4</speed>
</trkpt>
<trkpt lat="47.530770" lon="8.475843">
<ele>413.6</ele>
<time>2003-05-17T11:11:01Z</time>
<speed>1.4</speed>
</trkpt>
<trkpt lat="47.530699" lon="8.475845">
<ele>414.0</ele>
<time>2003-05-17T11:11:06Z</time>
<speed>1.4</speed>
</trkpt>
<trkpt lat="47.530635" lon="8.475848">
<ele>413.7</ele>
<time>2003-05-17T11:11:11Z</time>
<speed>1.4</speed>
</trkpt>
<trkpt lat="47.530569" lon="8.475863">
<ele>415.0</ele>
<time>2003-05-17T11:11:16Z</time>
<speed>1.1</speed>
</trkpt>
<trkpt lat="47.530505" lon="8.475866">
<ele>414.8</ele>
<time>2003-05-17T11:11:21Z</time>
<speed>1.4</speed>
</trkpt>
<trkpt lat="47.530428" lon="8.475867">
<ele>414.4</ele>
<time>2003-05-17T11:11:26Z</time>
<speed>1.4</speed>
</trkpt>
<trkpt lat="47.530364" lon="8.475871">
<ele>414.2</ele>
<time>2003-05-17T11:11:31Z</time>
<speed>1.4</speed>
</trkpt>
<trkpt lat="47.530293" lon="8.475872">
<ele>414.6</ele>
<time>2003-05-17T11:11:36Z</time>
<speed>1.4</speed>
</trkpt>
<trkpt lat="47.530224" lon="8.475862">
<ele>413.5</ele>
<time>2003-05-17T11:11:41Z</time>
<speed>1.4</speed>
</trkpt>
<trkpt lat="47.530167" lon="8.475868">
<ele>412.6</ele>
<time>2003-05-17T11:11:46Z</time>
<speed>1.4</speed>
</trkpt>
<trkpt lat="47.530097" lon="8.475856">
<ele>412.9</ele>
<time>2003-05-17T11:11:51Z</time>
<speed>1.4</speed>
</trkpt>
<trkpt lat="47.530027" lon="8.475844">
<ele>413.2</ele>
<time>2003-05-17T11:11:56Z</time>
<speed>1.4</speed>
</trkpt>
<trkpt lat="47.529964" lon="8.475834">
<ele>412.9</ele>
<time>2003-05-17T11:12:01Z</time>
<speed>1.4</speed>
</trkpt>
<trkpt lat="47.529894" lon="8.475838">
<ele>411.9</ele>
<time>2003-05-17T11:12:06Z</time>
<speed>1.4</speed>
</trkpt>
<trkpt lat="47.529831" lon="8.475828">
<ele>411.5</ele>
<time>2003-05-17T11:12:11Z</time>
<speed>1.4</speed>
</trkpt>
<trkpt lat="47.529762" lon="8.475805">
<ele>410.4</ele>
<time>2003-05-17T11:12:16Z</time>
<speed>1.4</speed>
</trkpt>
<trkpt lat="47.529706" lon="8.475797">
<ele>409.3</ele>
<time>2003-05-17T11:12:21Z</time>
<speed>1.4</speed>
</trkpt>
<trkpt lat="47.529635" lon="8.475799">
<ele>409.8</ele>
<time>2003-05-17T11:12:26Z</time>
<speed>1.4</speed>
</trkpt>
<trkpt lat="47.529567" lon="8.475776">
<ele>408.6</ele>
<time>2003-05-17T11:12:31Z</time>
<speed>1.4</speed>
</trkpt>
<trkpt lat="47.529505" lon="8.475753">
<ele>408.1</ele>
<time>2003-05-17T11:12:36Z</time>
<speed>1.4</speed>
</trkpt>
<trkpt lat="47.529441" lon="8.475743">
<ele>407.8</ele>
<time>2003-05-17T11:12:41Z</time>
<speed>1.4</speed>
</trkpt>
<trkpt lat="47.529373" lon="8.475718">
<ele>408.0</ele>
<time>2003-05-17T11:12:46Z</time>
<speed>1.4</speed>
</trkpt>
<trkpt lat="47.529309" lon="8.475708">
<ele>407.7</ele>
<time>2003-05-17T11:12:51Z</time>
<speed>1.4</speed>
</trkpt>
<trkpt lat="47.529241" lon="8.475683">
<ele>407.9</ele>
<time>2003-05-17T11:12:56Z</time>
<speed>1.1</speed>
</trkpt>
<trkpt lat="47.529178" lon="8.475674">
<ele>407.5</ele>
<time>2003-05-17T11:13:01Z</time>
<speed>1.4</speed>
</trkpt>
<trkpt lat="47.529128" lon="8.475653">
<ele>407.1</ele>
<time>2003-05-17T11:13:06Z</time>
<speed>1.1</speed>
</trkpt>
<trkpt lat="47.529058" lon="8.475641">
<ele>407.5</ele>
<time>2003-05-17T11:13:11Z</time>
<speed>1.1</speed>
</trkpt>
<trkpt lat="47.528996" lon="8.475618">
<ele>407.0</ele>
<time>2003-05-17T11:13:16Z</time>
<speed>1.4</speed>
</trkpt>
<trkpt lat="47.528926" lon="8.475606">
<ele>407.3</ele>
<time>2003-05-17T11:13:21Z</time>
<speed>1.4</speed>
</trkpt>
<trkpt lat="47.528858" lon="8.475583">
<ele>406.1</ele>
<time>2003-05-17T11:13:26Z</time>
<speed>1.4</speed>
</trkpt>
<trkpt lat="47.528795" lon="8.475574">
<ele>405.8</ele>
<time>2003-05-17T11:13:31Z</time>
<speed>1.4</speed>
</trkpt>
<trkpt lat="47.528726" lon="8.475549">
<ele>406.0</ele>
<time>2003-05-17T11:13:36Z</time>
<speed>1.4</speed>
</trkpt>
<trkpt lat="47.528662" lon="8.475537">
<ele>407.1</ele>
<time>2003-05-17T11:13:41Z</time>
<speed>1.4</speed>
</trkpt>
<trkpt lat="47.528600" lon="8.475514">
<ele>406.6</ele>
<time>2003-05-17T11:13:46Z</time>
<speed>1.4</speed>
</trkpt>
<trkpt lat="47.528526" lon="8.475476">
<ele>406.0</ele>
<time>2003-05-17T11:13:51Z</time>
<speed>1.4</speed>
</trkpt>
<trkpt lat="47.528464" lon="8.475468">
<ele>404.3</ele>
<time>2003-05-17T11:13:56Z</time>
<speed>1.4</speed>
</trkpt>
<trkpt lat="47.528401" lon="8.475443">
<ele>405.2</ele>
<time>2003-05-17T11:14:01Z</time>
<speed>1.1</speed>
</trkpt>
<trkpt lat="47.528332" lon="8.475418">
<ele>405.4</ele>
<time>2003-05-17T11:14:06Z</time>
<speed>1.4</speed>
</trkpt>
<trkpt lat="47.528263" lon="8.475407">
<ele>405.7</ele>
<time>2003-05-17T11:14:11Z</time>
<speed>1.4</speed>
</trkpt>
<trkpt lat="47.528194" lon="8.475382">
<ele>406.0</ele>
<time>2003-05-17T11:14:16Z</time>
<speed>1.4</speed>
</trkpt>
<trkpt lat="47.528138" lon="8.475359">
<ele>406.3</ele>
<time>2003-05-17T11:14:21Z</time>
<speed>1.4</speed>
</trkpt>
<trkpt lat="47.528062" lon="8.475347">
<ele>405.8</ele>
<time>2003-05-17T11:14:26Z</time>
<speed>1.4</speed>
</trkpt>
<trkpt lat="47.528005" lon="8.475337">
<ele>406.2</ele>
<time>2003-05-17T11:14:31Z</time>
<speed>1.1</speed>
</trkpt>
<trkpt lat="47.527936" lon="8.475313">
<ele>406.4</ele>
<time>2003-05-17T11:14:36Z</time>
<speed>1.4</speed>
</trkpt>
<trkpt lat="47.527879" lon="8.475303">
<ele>406.8</ele>
<time>2003-05-17T11:14:41Z</time>
<speed>1.1</speed>
</trkpt>
<trkpt lat="47.527810" lon="8.475278">
<ele>407.1</ele>
<time>2003-05-17T11:14:46Z</time>
<speed>1.1</speed>
</trkpt>
<trkpt lat="47.527748" lon="8.475255">
<ele>406.6</ele>
<time>2003-05-17T11:14:51Z</time>
<speed>1.4</speed>
</trkpt>
<trkpt lat="47.527678" lon="8.475243">
<ele>406.9</ele>
<time>2003-05-17T11:14:56Z</time>
<speed>1.4</speed>
</trkpt>
<trkpt lat="47.527616" lon="8.475220">
<ele>406.5</ele>
<time>2003-05-17T11:15:01Z</time>
<speed>1.4</speed>
</trkpt>
<trkpt lat="47.527554" lon="8.475197">
<ele>406.0</ele>
<time>2003-05-17T11:15:06Z</time>
<speed>1.1</speed>
</trkpt>
<trkpt lat="47.527490" lon="8.475201">
<ele>405.8</ele>
<time>2003-05-17T11:15:11Z</time>
<speed>1.4</speed>
</trkpt>
<trkpt lat="47.527428" lon="8.475178">
<ele>405.3</ele>
<time>2003-05-17T11:15:16Z</time>
<speed>1.1</speed>
</trkpt>
<trkpt lat="47.527365" lon="8.475155">
<ele>404.9</ele>
<time>2003-05-17T11:15:21Z</time>
<speed>1.1</speed>
</trkpt>
<trkpt lat="47.527303" lon="8.475132">
<ele>404.4</ele>
<time>2003-05-17T11:15:26Z</time>
<speed>1.4</speed>
</trkpt>
<trkpt lat="47.527240" lon="8.475107">
<ele>405.4</ele>
<time>2003-05-17T11:15:31Z</time>
<speed>1.4</speed>
</trkpt>
<trkpt lat="47.527171" lon="8.475095">
<ele>405.7</ele>
<time>2003-05-17T11:15:36Z</time>
<speed>1.4</speed>
</trkpt>
<trkpt lat="47.527102" lon="8.475070">
<ele>405.9</ele>
<time>2003-05-17T11:15:41Z</time>
<speed>1.1</speed>
</trkpt>
<trkpt lat="47.527039" lon="8.475046">
<ele>406.9</ele>
<time>2003-05-17T11:15:46Z</time>
<speed>1.4</speed>
</trkpt>
<trkpt lat="47.526970" lon="8.475034">
<ele>407.2</ele>
<time>2003-05-17T11:15:51Z</time>
<speed>1.4</speed>
</trkpt>
<trkpt lat="47.526913" lon="8.475026">
<ele>406.2</ele>
<time>2003-05-17T11:15:56Z</time>
<speed>1.4</speed>
</trkpt>
<trkpt lat="47.526844" lon="8.475001">
<ele>406.4</ele>
<time>2003-05-17T11:16:01Z</time>
<speed>1.1</speed>
</trkpt>
<trkpt lat="47.526780" lon="8.475003">
<ele>407.6</ele>
<time>2003-05-17T11:16:06Z</time>
<speed>1.4</speed>
</trkpt>
<trkpt lat="47.526711" lon="8.474978">
<ele>407.8</ele>
<time>2003-05-17T11:16:11Z</time>
<speed>1.4</speed>
</trkpt>
<trkpt lat="47.526647" lon="8.474966">
<ele>408.8</ele>
<time>2003-05-17T11:16:16Z</time>
<speed>1.4</speed>
</trkpt>
<trkpt lat="47.526578" lon="8.474941">
<ele>409.1</ele>
<time>2003-05-17T11:16:21Z</time>
<speed>1.4</speed>
</trkpt>
<trkpt lat="47.526509" lon="8.474929">
<ele>409.4</ele>
<time>2003-05-17T11:16:26Z</time>
<speed>1.1</speed>
</trkpt>
<trkpt lat="47.526445" lon="8.474920">
<ele>409.0</ele>
<time>2003-05-17T11:16:31Z</time>
<speed>1.4</speed>
</trkpt>
<trkpt lat="47.526383" lon="8.474895">
<ele>410.0</ele>
<time>2003-05-17T11:16:36Z</time>
<speed>1.4</speed>
</trkpt>
<trkpt lat="47.526314" lon="8.474885">
<ele>408.9</ele>
<time>2003-05-17T11:16:41Z</time>
<speed>1.4</speed>
</trkpt>
<trkpt lat="47.526250" lon="8.474875">
<ele>408.6</ele>
<time>2003-05-17T11:16:46Z</time>
<speed>1.4</speed>
</trkpt>
<trkpt lat="47.526176" lon="8.474850">
<ele>408.0</ele>
<time>2003-05-17T11:16:51Z</time>
<speed>1.4</speed>
</trkpt>
<trkpt lat="47.526112" lon="8.474840">
<ele>407.7</ele>
<time>2003-05-17T11:16:56Z</time>
<speed>1.4</speed>
</trkpt>
<trkpt lat="47.526043" lon="8.474829">
<ele>408.0</ele>
<time>2003-05-17T11:17:01Z</time>
<speed>1.4</speed>
</trkpt>
<trkpt lat="47.525979" lon="8.474819">
<ele>407.7</ele>
<time>2003-05-17T11:17:06Z</time>
<speed>1.4</speed>
</trkpt>
<trkpt lat="47.525916" lon="8.474809">
<ele>407.3</ele>
<time>2003-05-17T11:17:11Z</time>
<speed>1.1</speed>
</trkpt>
<trkpt lat="47.525847" lon="8.474797">
<ele>407.6</ele>
<time>2003-05-17T11:17:16Z</time>
<speed>1.4</speed>
</trkpt>
<trkpt lat="47.525777" lon="8.474788">
<ele>406.5</ele>
<time>2003-05-17T11:17:21Z</time>
<speed>1.4</speed>
</trkpt>
<trkpt lat="47.525714" lon="8.474778">
<ele>406.2</ele>
<time>2003-05-17T11:17:26Z</time>
<speed>1.4</speed>
</trkpt>
<trkpt lat="47.525645" lon="8.474753">
<ele>406.4</ele>
<time>2003-05-17T11:17:31Z</time>
<speed>1.4</speed>
</trkpt>
<trkpt lat="47.525583" lon="8.474745">
<ele>404.7</ele>
<time>2003-05-17T11:17:36Z</time>
<speed>1.4</speed>
</trkpt>
<trkpt lat="47.525513" lon="8.474733">
<ele>405.0</ele>
<time>2003-05-17T11:17:41Z</time>
<speed>1.4</speed>
</trkpt>
<trkpt lat="47.525443" lon="8.474722">
<ele>405.3</ele>
<time>2003-05-17T11:17:46Z</time>
<speed>1.4</speed>
</trkpt>
<trkpt lat="47.525381" lon="8.474699">
<ele>404.9</ele>
<time>2003-05-17T11:17:51Z</time>
<speed>1.4</speed>
</trkpt>
<trkpt lat="47.525324" lon="8.474689">
<ele>405.2</ele>
<time>2003-05-17T11:17:56Z</time>
<speed>1.4</speed>
</trkpt>
<trkpt lat="47.525254" lon="8.474677">
<ele>405.6</ele>
<time>2003-05-17T11:18:01Z</time>
<speed>1.4</speed>
</trkpt>
<trkpt lat="47.525204" lon="8.474669">
<ele>405.3</ele>
<time>2003-05-17T11:18:06Z</time>
<speed>1.4</speed>
</trkpt>
<trkpt lat="47.525148" lon="8.474646">
<ele>405.6</ele>
<time>2003-05-17T11:18:11Z</time>
<speed>1.1</speed>
</trkpt>
<trkpt lat="47.525100" lon="8.474678">
<ele>406.3</ele>
<time>2003-05-17T11:18:16Z</time>
<speed>1.4</speed>
</trkpt>
<trkpt lat="47.525087" lon="8.474768">
<ele>407.7</ele>
<time>2003-05-17T11:18:21Z</time>
<speed>1.4</speed>
</trkpt>
<trkpt lat="47.525073" lon="8.474873">
<ele>407.8</ele>
<time>2003-05-17T11:18:26Z</time>
<speed>1.4</speed>
</trkpt>
<trkpt lat="47.525073" lon="8.474967">
<ele>407.8</ele>
<time>2003-05-17T11:18:31Z</time>
<speed>1.4</speed>
</trkpt>
<trkpt lat="47.525060" lon="8.475059">
<ele>407.7</ele>
<time>2003-05-17T11:18:36Z</time>
<speed>1.4</speed>
</trkpt>
<trkpt lat="47.525047" lon="8.475151">
<ele>407.7</ele>
<time>2003-05-17T11:18:41Z</time>
<speed>1.4</speed>
</trkpt>
<trkpt lat="47.525033" lon="8.475256">
<ele>407.8</ele>
<time>2003-05-17T11:18:46Z</time>
<speed>1.4</speed>
</trkpt>
<trkpt lat="47.525020" lon="8.475348">
<ele>407.7</ele>
<time>2003-05-17T11:18:51Z</time>
<speed>1.4</speed>
</trkpt>
<trkpt lat="47.525001" lon="8.475440">
<ele>406.9</ele>
<time>2003-05-17T11:18:56Z</time>
<speed>1.4</speed>
</trkpt>
<trkpt lat="47.524964" lon="8.475515">
<ele>406.7</ele>
<time>2003-05-17T11:19:01Z</time>
<speed>1.4</speed>
</trkpt>
<trkpt lat="47.524944" lon="8.475605">
<ele>407.3</ele>
<time>2003-05-17T11:19:06Z</time>
<speed>1.4</speed>
</trkpt>
<trkpt lat="47.524931" lon="8.475697">
<ele>407.2</ele>
<time>2003-05-17T11:19:11Z</time>
<speed>1.1</speed>
</trkpt>
<trkpt lat="47.524871" lon="8.475724">
<ele>409.3</ele>
<time>2003-05-17T11:19:16Z</time>
<speed>1.4</speed>
</trkpt>
<trkpt lat="47.524806" lon="8.475741">
<ele>409.2</ele>
<time>2003-05-17T11:19:21Z</time>
<speed>1.4</speed>
</trkpt>
<trkpt lat="47.524736" lon="8.475729">
<ele>409.5</ele>
<time>2003-05-17T11:19:26Z</time>
<speed>1.4</speed>
</trkpt>
<trkpt lat="47.524666" lon="8.475732">
<ele>408.5</ele>
<time>2003-05-17T11:19:31Z</time>
<speed>1.4</speed>
</trkpt>
<trkpt lat="47.524602" lon="8.475721">
<ele>409.6</ele>
<time>2003-05-17T11:19:36Z</time>
<speed>1.1</speed>
</trkpt>
<trkpt lat="47.524533" lon="8.475696">
<ele>409.8</ele>
<time>2003-05-17T11:19:41Z</time>
<speed>1.4</speed>
</trkpt>
<trkpt lat="47.524476" lon="8.475686">
<ele>410.2</ele>
<time>2003-05-17T11:19:46Z</time>
<speed>1.1</speed>
</trkpt>
<trkpt lat="47.524414" lon="8.475661">
<ele>411.1</ele>
<time>2003-05-17T11:19:51Z</time>
<speed>1.1</speed>
</trkpt>
<trkpt lat="47.524350" lon="8.475634">
<ele>413.5</ele>
<time>2003-05-17T11:19:56Z</time>
<speed>1.1</speed>
</trkpt>
<trkpt lat="47.524287" lon="8.475622">
<ele>414.6</ele>
<time>2003-05-17T11:20:01Z</time>
<speed>1.1</speed>
</trkpt>
<trkpt lat="47.524224" lon="8.475596">
<ele>416.9</ele>
<time>2003-05-17T11:20:06Z</time>
<speed>1.1</speed>
</trkpt>
<trkpt lat="47.524154" lon="8.475584">
<ele>417.3</ele>
<time>2003-05-17T11:20:11Z</time>
<speed>1.4</speed>
</trkpt>
<trkpt lat="47.524090" lon="8.475587">
<ele>417.0</ele>
<time>2003-05-17T11:20:16Z</time>
<speed>1.4</speed>
</trkpt>
<trkpt lat="47.524026" lon="8.475591">
<ele>416.8</ele>
<time>2003-05-17T11:20:21Z</time>
<speed>1.1</speed>
</trkpt>
<trkpt lat="47.523961" lon="8.475594">
<ele>416.5</ele>
<time>2003-05-17T11:20:26Z</time>
<speed>1.4</speed>
</trkpt>
<trkpt lat="47.523891" lon="8.475597">
<ele>415.5</ele>
<time>2003-05-17T11:20:31Z</time>
<speed>1.4</speed>
</trkpt>
<trkpt lat="47.523820" lon="8.475599">
<ele>415.9</ele>
<time>2003-05-17T11:20:36Z</time>
<speed>1.4</speed>
</trkpt>
<trkpt lat="47.523756" lon="8.475602">
<ele>415.7</ele>
<time>2003-05-17T11:20:41Z</time>
<speed>1.4</speed>
</trkpt>
<trkpt lat="47.523685" lon="8.475618">
<ele>414.8</ele>
<time>2003-05-17T11:20:46Z</time>
<speed>1.4</speed>
</trkpt>
<trkpt lat="47.523621" lon="8.475622">
<ele>414.6</ele>
<time>2003-05-17T11:20:51Z</time>
<speed>1.4</speed>
</trkpt>
<trkpt lat="47.523557" lon="8.475625">
<ele>414.3</ele>
<time>2003-05-17T11:20:56Z</time>
<speed>1.4</speed>
</trkpt>
<trkpt lat="47.523487" lon="8.475613">
<ele>414.6</ele>
<time>2003-05-17T11:21:01Z</time>
<speed>1.4</speed>
</trkpt>
<trkpt lat="47.523417" lon="8.475617">
<ele>413.6</ele>
<time>2003-05-17T11:21:06Z</time>
<speed>1.4</speed>
</trkpt>
<trkpt lat="47.523354" lon="8.475607">
<ele>413.3</ele>
<time>2003-05-17T11:21:11Z</time>
<speed>1.4</speed>
</trkpt>
<trkpt lat="47.523290" lon="8.475612">
<ele>411.6</ele>
<time>2003-05-17T11:21:16Z</time>
<speed>1.4</speed>
</trkpt>
<trkpt lat="47.523220" lon="8.475616">
<ele>410.7</ele>
<time>2003-05-17T11:21:21Z</time>
<speed>1.4</speed>
</trkpt>
<trkpt lat="47.523156" lon="8.475619">
<ele>410.4</ele>
<time>2003-05-17T11:21:26Z</time>
<speed>1.4</speed>
</trkpt>
<trkpt lat="47.523080" lon="8.475607">
<ele>410.0</ele>
<time>2003-05-17T11:21:31Z</time>
<speed>1.4</speed>
</trkpt>
<trkpt lat="47.523023" lon="8.475597">
<ele>410.4</ele>
<time>2003-05-17T11:21:36Z</time>
<speed>1.1</speed>
</trkpt>
<trkpt lat="47.522960" lon="8.475588">
<ele>410.0</ele>
<time>2003-05-17T11:21:41Z</time>
<speed>1.4</speed>
</trkpt>
<trkpt lat="47.522883" lon="8.475589">
<ele>409.7</ele>
<time>2003-05-17T11:21:46Z</time>
<speed>1.4</speed>
</trkpt>
<trkpt lat="47.522820" lon="8.475579">
<ele>409.4</ele>
<time>2003-05-17T11:21:51Z</time>
<speed>1.1</speed>
</trkpt>
<trkpt lat="47.522755" lon="8.475583">
<ele>409.1</ele>
<time>2003-05-17T11:21:56Z</time>
<speed>1.4</speed>
</trkpt>
<trkpt lat="47.522695" lon="8.475612">
<ele>409.8</ele>
<time>2003-05-17T11:22:01Z</time>
<speed>1.4</speed>
</trkpt>
<trkpt lat="47.522671" lon="8.475689">
<ele>409.6</ele>
<time>2003-05-17T11:22:06Z</time>
<speed>1.4</speed>
</trkpt>
<trkpt lat="47.522689" lon="8.475800">
<ele>409.1</ele>
<time>2003-05-17T11:22:11Z</time>
<speed>1.4</speed>
</trkpt>
<trkpt lat="47.522709" lon="8.475885">
<ele>408.5</ele>
<time>2003-05-17T11:22:16Z</time>
<speed>1.1</speed>
</trkpt>
<trkpt lat="47.522728" lon="8.475967">
<ele>409.2</ele>
<time>2003-05-17T11:22:21Z</time>
<speed>1.1</speed>
</trkpt>
<trkpt lat="47.522747" lon="8.476065">
<ele>408.6</ele>
<time>2003-05-17T11:22:26Z</time>
<speed>1.4</speed>
</trkpt>
<trkpt lat="47.522773" lon="8.476150">
<ele>408.7</ele>
<time>2003-05-17T11:22:31Z</time>
<speed>1.4</speed>
</trkpt>
<trkpt lat="47.522793" lon="8.476234">
<ele>408.0</ele>
<time>2003-05-17T11:22:36Z</time>
<speed>1.1</speed>
</trkpt>
<trkpt lat="47.522811" lon="8.476330">
<ele>408.9</ele>
<time>2003-05-17T11:22:41Z</time>
<speed>1.1</speed>
</trkpt>
<trkpt lat="47.522825" lon="8.476413">
<ele>408.9</ele>
<time>2003-05-17T11:22:46Z</time>
<speed>1.1</speed>
</trkpt>
<trkpt lat="47.522851" lon="8.476498">
<ele>408.9</ele>
<time>2003-05-17T11:22:51Z</time>
<speed>1.1</speed>
</trkpt>
<trkpt lat="47.522825" lon="8.476588">
<ele>408.8</ele>
<time>2003-05-17T11:22:56Z</time>
<speed>1.4</speed>
</trkpt>
<trkpt lat="47.522775" lon="8.476659">
<ele>409.9</ele>
<time>2003-05-17T11:23:01Z</time>
<speed>1.1</speed>
</trkpt>
<trkpt lat="47.522721" lon="8.476688">
<ele>411.3</ele>
<time>2003-05-17T11:23:06Z</time>
<speed>1.1</speed>
</trkpt>
<trkpt lat="47.522661" lon="8.476718">
<ele>412.0</ele>
<time>2003-05-17T11:23:11Z</time>
<speed>1.1</speed>
</trkpt>
<trkpt lat="47.522601" lon="8.476747">
<ele>412.7</ele>
<time>2003-05-17T11:23:16Z</time>
<speed>1.1</speed>
</trkpt>
<trkpt lat="47.522548" lon="8.476764">
<ele>414.0</ele>
<time>2003-05-17T11:23:21Z</time>
<speed>1.1</speed>
</trkpt>
<trkpt lat="47.522487" lon="8.476807">
<ele>414.8</ele>
<time>2003-05-17T11:23:26Z</time>
<speed>1.1</speed>
</trkpt>
<trkpt lat="47.522427" lon="8.476836">
<ele>415.5</ele>
<time>2003-05-17T11:23:31Z</time>
<speed>1.1</speed>
</trkpt>
<trkpt lat="47.522367" lon="8.476866">
<ele>416.2</ele>
<time>2003-05-17T11:23:36Z</time>
<speed>1.4</speed>
</trkpt>
<trkpt lat="47.522294" lon="8.476896">
<ele>415.4</ele>
<time>2003-05-17T11:23:41Z</time>
<speed>1.1</speed>
</trkpt>
<trkpt lat="47.522234" lon="8.476925">
<ele>416.1</ele>
<time>2003-05-17T11:23:46Z</time>
<speed>1.1</speed>
</trkpt>
<trkpt lat="47.522162" lon="8.476953">
<ele>416.7</ele>
<time>2003-05-17T11:23:51Z</time>
<speed>1.4</speed>
</trkpt>
<trkpt lat="47.522103" lon="8.476969">
<ele>417.3</ele>
<time>2003-05-17T11:23:56Z</time>
<speed>1.4</speed>
</trkpt>
<trkpt lat="47.522036" lon="8.477012">
<ele>417.3</ele>
<time>2003-05-17T11:24:01Z</time>
<speed>1.4</speed>
</trkpt>
<trkpt lat="47.521976" lon="8.477044">
<ele>416.6</ele>
<time>2003-05-17T11:24:06Z</time>
<speed>1.1</speed>
</trkpt>
<trkpt lat="47.521910" lon="8.477073">
<ele>416.5</ele>
<time>2003-05-17T11:24:11Z</time>
<speed>1.1</speed>
</trkpt>
<trkpt lat="47.521837" lon="8.477101">
<ele>417.2</ele>
<time>2003-05-17T11:24:16Z</time>
<speed>1.4</speed>
</trkpt>
<trkpt lat="47.521777" lon="8.477146">
<ele>416.6</ele>
<time>2003-05-17T11:24:21Z</time>
<speed>1.4</speed>
</trkpt>
<trkpt lat="47.521704" lon="8.477188">
<ele>415.9</ele>
<time>2003-05-17T11:24:26Z</time>
<speed>1.4</speed>
</trkpt>
<trkpt lat="47.521637" lon="8.477231">
<ele>415.9</ele>
<time>2003-05-17T11:24:31Z</time>
<speed>1.4</speed>
</trkpt>
<trkpt lat="47.521576" lon="8.477261">
<ele>416.6</ele>
<time>2003-05-17T11:24:36Z</time>
<speed>1.4</speed>
</trkpt>
<trkpt lat="47.521516" lon="8.477305">
<ele>416.0</ele>
<time>2003-05-17T11:24:41Z</time>
<speed>1.4</speed>
</trkpt>
<trkpt lat="47.521463" lon="8.477324">
<ele>415.9</ele>
<time>2003-05-17T11:24:46Z</time>
<speed>1.1</speed>
</trkpt>
<trkpt lat="47.521397" lon="8.477353">
<ele>415.9</ele>
<time>2003-05-17T11:24:51Z</time>
<speed>1.1</speed>
</trkpt>
<trkpt lat="47.521343" lon="8.477398">
<ele>416.0</ele>
<time>2003-05-17T11:24:56Z</time>
<speed>1.1</speed>
</trkpt>
<trkpt lat="47.521289" lon="8.477430">
<ele>416.0</ele>
<time>2003-05-17T11:25:01Z</time>
<speed>1.1</speed>
</trkpt>
<trkpt lat="47.521230" lon="8.477446">
<ele>416.6</ele>
<time>2003-05-17T11:25:06Z</time>
<speed>1.1</speed>
</trkpt>
<trkpt lat="47.521164" lon="8.477476">
<ele>416.5</ele>
<time>2003-05-17T11:25:11Z</time>
<speed>1.1</speed>
</trkpt>
<trkpt lat="47.521098" lon="8.477505">
<ele>416.5</ele>
<time>2003-05-17T11:25:16Z</time>
<speed>1.1</speed>
</trkpt>
<trkpt lat="47.521039" lon="8.477522">
<ele>417.1</ele>
<time>2003-05-17T11:25:21Z</time>
<speed>1.1</speed>
</trkpt>
<trkpt lat="47.520986" lon="8.477553">
<ele>417.1</ele>
<time>2003-05-17T11:25:26Z</time>
<speed>1.4</speed>
</trkpt>
<trkpt lat="47.520925" lon="8.477598">
<ele>416.5</ele>
<time>2003-05-17T11:25:31Z</time>
<speed>1.1</speed>
</trkpt>
<trkpt lat="47.520866" lon="8.477630">
<ele>415.8</ele>
<time>2003-05-17T11:25:36Z</time>
<speed>1.1</speed>
</trkpt>
<trkpt lat="47.520806" lon="8.477659">
<ele>416.4</ele>
<time>2003-05-17T11:25:41Z</time>
<speed>1.1</speed>
</trkpt>
<trkpt lat="47.520746" lon="8.477691">
<ele>415.7</ele>
<time>2003-05-17T11:25:46Z</time>
<speed>1.1</speed>
</trkpt>
<trkpt lat="47.520693" lon="8.477722">
<ele>415.8</ele>
<time>2003-05-17T11:25:51Z</time>
<speed>1.1</speed>
</trkpt>
<trkpt lat="47.520633" lon="8.477752">
<ele>416.4</ele>
<time>2003-05-17T11:25:56Z</time>
<speed>1.1</speed>
</trkpt>
<trkpt lat="47.520561" lon="8.477767">
<ele>417.0</ele>
<time>2003-05-17T11:26:01Z</time>
<speed>1.1</speed>
</trkpt>
<trkpt lat="47.520501" lon="8.477796">
<ele>417.6</ele>
<time>2003-05-17T11:26:06Z</time>
<speed>1.1</speed>
</trkpt>
<trkpt lat="47.520440" lon="8.477841">
<ele>417.0</ele>
<time>2003-05-17T11:26:11Z</time>
<speed>1.4</speed>
</trkpt>
<trkpt lat="47.520368" lon="8.477868">
<ele>417.6</ele>
<time>2003-05-17T11:26:16Z</time>
<speed>1.4</speed>
</trkpt>
<trkpt lat="47.520314" lon="8.477900">
<ele>417.7</ele>
<time>2003-05-17T11:26:21Z</time>
<speed>1.1</speed>
</trkpt>
<trkpt lat="47.520248" lon="8.477930">
<ele>417.6</ele>
<time>2003-05-17T11:26:26Z</time>
<speed>1.4</speed>
</trkpt>
<trkpt lat="47.520188" lon="8.477959">
<ele>418.3</ele>
<time>2003-05-17T11:26:31Z</time>
<speed>1.1</speed>
</trkpt>
<trkpt lat="47.520128" lon="8.477991">
<ele>417.6</ele>
<time>2003-05-17T11:26:36Z</time>
<speed>1.1</speed>
</trkpt>
<trkpt lat="47.520068" lon="8.478020">
<ele>418.3</ele>
<time>2003-05-17T11:26:41Z</time>
<speed>1.4</speed>
</trkpt>
<trkpt lat="47.520002" lon="8.478050">
<ele>418.2</ele>
<time>2003-05-17T11:26:46Z</time>
<speed>1.1</speed>
</trkpt>
<trkpt lat="47.519948" lon="8.478095">
<ele>418.4</ele>
<time>2003-05-17T11:26:51Z</time>
<speed>1.4</speed>
</trkpt>
<trkpt lat="47.519881" lon="8.478137">
<ele>418.4</ele>
<time>2003-05-17T11:26:56Z</time>
<speed>1.1</speed>
</trkpt>
<trkpt lat="47.519815" lon="8.478167">
<ele>418.4</ele>
<time>2003-05-17T11:27:01Z</time>
<speed>1.4</speed>
</trkpt>
<trkpt lat="47.519749" lon="8.478197">
<ele>418.3</ele>
<time>2003-05-17T11:27:06Z</time>
<speed>1.4</speed>
</trkpt>
<trkpt lat="47.519682" lon="8.478226">
<ele>418.3</ele>
<time>2003-05-17T11:27:11Z</time>
<speed>1.4</speed>
</trkpt>
<trkpt lat="47.519610" lon="8.478256">
<ele>417.5</ele>
<time>2003-05-17T11:27:16Z</time>
<speed>1.4</speed>
</trkpt>
<trkpt lat="47.519550" lon="8.478301">
<ele>416.8</ele>
<time>2003-05-17T11:27:21Z</time>
<speed>1.1</speed>
</trkpt>
<trkpt lat="47.519491" lon="8.478319">
<ele>416.0</ele>
<time>2003-05-17T11:27:26Z</time>
<speed>1.4</speed>
</trkpt>
<trkpt lat="47.519431" lon="8.478349">
<ele>416.7</ele>
<time>2003-05-17T11:27:31Z</time>
<speed>1.1</speed>
</trkpt>
<trkpt lat="47.519365" lon="8.478378">
<ele>416.7</ele>
<time>2003-05-17T11:27:36Z</time>
<speed>1.4</speed>
</trkpt>
<trkpt lat="47.519305" lon="8.478423">
<ele>416.1</ele>
<time>2003-05-17T11:27:41Z</time>
<speed>1.1</speed>
</trkpt>
<trkpt lat="47.519238" lon="8.478453">
<ele>416.0</ele>
<time>2003-05-17T11:27:46Z</time>
<speed>1.1</speed>
</trkpt>
<trkpt lat="47.519173" lon="8.478469">
<ele>415.9</ele>
<time>2003-05-17T11:27:51Z</time>
<speed>1.1</speed>
</trkpt>
<trkpt lat="47.519107" lon="8.478499">
<ele>415.8</ele>
<time>2003-05-17T11:27:56Z</time>
<speed>1.4</speed>
</trkpt>
<trkpt lat="47.519048" lon="8.478530">
<ele>415.1</ele>
<time>2003-05-17T11:28:01Z</time>
<speed>1.1</speed>
</trkpt>
<trkpt lat="47.518988" lon="8.478560">
<ele>415.8</ele>
<time>2003-05-17T11:28:06Z</time>
<speed>1.1</speed>
</trkpt>
<trkpt lat="47.518928" lon="8.478591">
<ele>415.1</ele>
<time>2003-05-17T11:28:11Z</time>
<speed>1.1</speed>
</trkpt>
<trkpt lat="47.518855" lon="8.478619">
<ele>415.7</ele>
<time>2003-05-17T11:28:16Z</time>
<speed>1.4</speed>
</trkpt>
<trkpt lat="47.518796" lon="8.478651">
<ele>415.0</ele>
<time>2003-05-17T11:28:21Z</time>
<speed>1.4</speed>
</trkpt>
<trkpt lat="47.518729" lon="8.478693">
<ele>415.0</ele>
<time>2003-05-17T11:28:26Z</time>
<speed>1.1</speed>
</trkpt>
<trkpt lat="47.518669" lon="8.478725">
<ele>414.3</ele>
<time>2003-05-17T11:28:31Z</time>
<speed>1.1</speed>
</trkpt>
<trkpt lat="47.518603" lon="8.478754">
<ele>414.3</ele>
<time>2003-05-17T11:28:36Z</time>
<speed>1.1</speed>
</trkpt>
<trkpt lat="47.518543" lon="8.478784">
<ele>414.9</ele>
<time>2003-05-17T11:28:41Z</time>
<speed>1.1</speed>
</trkpt>
<trkpt lat="47.518483" lon="8.478829">
<ele>414.3</ele>
<time>2003-05-17T11:28:46Z</time>
<speed>1.4</speed>
</trkpt>
<trkpt lat="47.518416" lon="8.478858">
<ele>414.3</ele>
<time>2003-05-17T11:28:51Z</time>
<speed>1.1</speed>
</trkpt>
<trkpt lat="47.518357" lon="8.478890">
<ele>413.6</ele>
<time>2003-05-17T11:28:56Z</time>
<speed>1.4</speed>
</trkpt>
<trkpt lat="47.518296" lon="8.478935">
<ele>412.9</ele>
<time>2003-05-17T11:29:01Z</time>
<speed>1.4</speed>
</trkpt>
<trkpt lat="47.518230" lon="8.478964">
<ele>412.9</ele>
<time>2003-05-17T11:29:06Z</time>
<speed>1.1</speed>
</trkpt>
<trkpt lat="47.518171" lon="8.478996">
<ele>412.2</ele>
<time>2003-05-17T11:29:11Z</time>
<speed>1.4</speed>
</trkpt>
<trkpt lat="47.518117" lon="8.479027">
<ele>412.2</ele>
<time>2003-05-17T11:29:16Z</time>
<speed>1.1</speed>
</trkpt>
<trkpt lat="47.518051" lon="8.479057">
<ele>412.1</ele>
<time>2003-05-17T11:29:21Z</time>
<speed>1.1</speed>
</trkpt>
<trkpt lat="47.518004" lon="8.479089">
<ele>412.9</ele>
<time>2003-05-17T11:29:26Z</time>
<speed>1.1</speed>
</trkpt>
<trkpt lat="47.517944" lon="8.479118">
<ele>413.6</ele>
<time>2003-05-17T11:29:31Z</time>
<speed>1.1</speed>
</trkpt>
<trkpt lat="47.517884" lon="8.479150">
<ele>412.9</ele>
<time>2003-05-17T11:29:36Z</time>
<speed>1.4</speed>
</trkpt>
<trkpt lat="47.517817" lon="8.479192">
<ele>412.9</ele>
<time>2003-05-17T11:29:41Z</time>
<speed>1.1</speed>
</trkpt>
<trkpt lat="47.517758" lon="8.479224">
<ele>412.2</ele>
<time>2003-05-17T11:29:46Z</time>
<speed>1.4</speed>
</trkpt>
<trkpt lat="47.517698" lon="8.479254">
<ele>412.9</ele>
<time>2003-05-17T11:29:51Z</time>
<speed>1.1</speed>
</trkpt>
<trkpt lat="47.517631" lon="8.479283">
<ele>412.8</ele>
<time>2003-05-17T11:29:56Z</time>
<speed>1.1</speed>
</trkpt>
<trkpt lat="47.517571" lon="8.479328">
<ele>412.2</ele>
<time>2003-05-17T11:30:01Z</time>
<speed>1.4</speed>
</trkpt>
<trkpt lat="47.517505" lon="8.479358">
<ele>412.2</ele>
<time>2003-05-17T11:30:06Z</time>
<speed>1.4</speed>
</trkpt>
<trkpt lat="47.517438" lon="8.479402">
<ele>410.8</ele>
<time>2003-05-17T11:30:11Z</time>
<speed>1.1</speed>
</trkpt>
<trkpt lat="47.517378" lon="8.479432">
<ele>411.5</ele>
<time>2003-05-17T11:30:16Z</time>
<speed>1.4</speed>
</trkpt>
<trkpt lat="47.517312" lon="8.479459">
<ele>412.9</ele>
<time>2003-05-17T11:30:21Z</time>
<speed>1.4</speed>
</trkpt>
<trkpt lat="47.517246" lon="8.479476">
<ele>412.7</ele>
<time>2003-05-17T11:30:26Z</time>
<speed>1.4</speed>
</trkpt>
<trkpt lat="47.517180" lon="8.479506">
<ele>412.7</ele>
<time>2003-05-17T11:30:31Z</time>
<speed>1.1</speed>
</trkpt>
<trkpt lat="47.517119" lon="8.479548">
<ele>413.5</ele>
<time>2003-05-17T11:30:36Z</time>
<speed>1.1</speed>
</trkpt>
<trkpt lat="47.517047" lon="8.479578">
<ele>412.7</ele>
<time>2003-05-17T11:30:41Z</time>
<speed>1.4</speed>
</trkpt>
<trkpt lat="47.516980" lon="8.479621">
<ele>412.7</ele>
<time>2003-05-17T11:30:46Z</time>
<speed>1.4</speed>
</trkpt>
<trkpt lat="47.516913" lon="8.479663">
<ele>412.8</ele>
<time>2003-05-17T11:30:51Z</time>
<speed>1.4</speed>
</trkpt>
<trkpt lat="47.516841" lon="8.479693">
<ele>412.0</ele>
<time>2003-05-17T11:30:56Z</time>
<speed>1.4</speed>
</trkpt>
<trkpt lat="47.516781" lon="8.479725">
<ele>411.3</ele>
<time>2003-05-17T11:31:01Z</time>
<speed>1.4</speed>
</trkpt>
<trkpt lat="47.516714" lon="8.479767">
<ele>411.3</ele>
<time>2003-05-17T11:31:06Z</time>
<speed>1.4</speed>
</trkpt>
<trkpt lat="47.516642" lon="8.479797">
<ele>410.5</ele>
<time>2003-05-17T11:31:11Z</time>
<speed>1.4</speed>
</trkpt>
<trkpt lat="47.516576" lon="8.479826">
<ele>410.5</ele>
<time>2003-05-17T11:31:16Z</time>
<speed>1.4</speed>
</trkpt>
<trkpt lat="47.516516" lon="8.479858">
<ele>409.8</ele>
<time>2003-05-17T11:31:21Z</time>
<speed>1.4</speed>
</trkpt>
<trkpt lat="47.516456" lon="8.479888">
<ele>410.5</ele>
<time>2003-05-17T11:31:26Z</time>
<speed>1.4</speed>
</trkpt>
<trkpt lat="47.516396" lon="8.479932">
<ele>409.8</ele>
<time>2003-05-17T11:31:31Z</time>
<speed>1.4</speed>
</trkpt>
<trkpt lat="47.516330" lon="8.479962">
<ele>409.8</ele>
<time>2003-05-17T11:31:36Z</time>
<speed>1.4</speed>
</trkpt>
<trkpt lat="47.516277" lon="8.479980">
<ele>409.7</ele>
<time>2003-05-17T11:31:41Z</time>
<speed>1.1</speed>
</trkpt>
<trkpt lat="47.516212" lon="8.480012">
<ele>408.3</ele>
<time>2003-05-17T11:31:46Z</time>
<speed>1.4</speed>
</trkpt>
<trkpt lat="47.516144" lon="8.480055">
<ele>408.3</ele>
<time>2003-05-17T11:31:51Z</time>
<speed>1.4</speed>
</trkpt>
<trkpt lat="47.516078" lon="8.480084">
<ele>408.3</ele>
<time>2003-05-17T11:31:56Z</time>
<speed>1.4</speed>
</trkpt>
<trkpt lat="47.516012" lon="8.480114">
<ele>408.2</ele>
<time>2003-05-17T11:32:01Z</time>
<speed>1.4</speed>
</trkpt>
<trkpt lat="47.515939" lon="8.480157">
<ele>407.5</ele>
<time>2003-05-17T11:32:06Z</time>
<speed>1.4</speed>
</trkpt>
<trkpt lat="47.515880" lon="8.480188">
<ele>406.8</ele>
<time>2003-05-17T11:32:11Z</time>
<speed>1.1</speed>
</trkpt>
<trkpt lat="47.515813" lon="8.480218">
<ele>406.8</ele>
<time>2003-05-17T11:32:16Z</time>
<speed>1.4</speed>
</trkpt>
<trkpt lat="47.515746" lon="8.480260">
<ele>406.8</ele>
<time>2003-05-17T11:32:21Z</time>
<speed>1.4</speed>
</trkpt>
<trkpt lat="47.515722" lon="8.480337">
<ele>406.6</ele>
<time>2003-05-17T11:32:26Z</time>
<speed>1.1</speed>
</trkpt>
<trkpt lat="47.515768" lon="8.480413">
<ele>406.0</ele>
<time>2003-05-17T11:32:31Z</time>
<speed>1.4</speed>
</trkpt>
<trkpt lat="47.515815" lon="8.480473">
<ele>406.7</ele>
<time>2003-05-17T11:32:36Z</time>
<speed>1.4</speed>
</trkpt>
<trkpt lat="47.515868" lon="8.480535">
<ele>406.7</ele>
<time>2003-05-17T11:32:41Z</time>
<speed>1.4</speed>
</trkpt>
<trkpt lat="47.515921" lon="8.480598">
<ele>406.7</ele>
<time>2003-05-17T11:32:46Z</time>
<speed>1.4</speed>
</trkpt>
<trkpt lat="47.515968" lon="8.480660">
<ele>405.9</ele>
<time>2003-05-17T11:32:51Z</time>
<speed>1.4</speed>
</trkpt>
<trkpt lat="47.516029" lon="8.480711">
<ele>405.2</ele>
<time>2003-05-17T11:32:56Z</time>
<speed>1.4</speed>
</trkpt>
<trkpt lat="47.516068" lon="8.480785">
<ele>405.2</ele>
<time>2003-05-17T11:33:01Z</time>
<speed>1.4</speed>
</trkpt>
<trkpt lat="47.516115" lon="8.480847">
<ele>404.5</ele>
<time>2003-05-17T11:33:06Z</time>
<speed>1.4</speed>
</trkpt>
<trkpt lat="47.516169" lon="8.480909">
<ele>404.5</ele>
<time>2003-05-17T11:33:11Z</time>
<speed>1.4</speed>
</trkpt>
<trkpt lat="47.516216" lon="8.480972">
<ele>403.8</ele>
<time>2003-05-17T11:33:16Z</time>
<speed>1.1</speed>
</trkpt>
<trkpt lat="47.516256" lon="8.481032">
<ele>403.7</ele>
<time>2003-05-17T11:33:21Z</time>
<speed>0.8</speed>
</trkpt>
<trkpt lat="47.516242" lon="8.481137">
<ele>403.8</ele>
<time>2003-05-17T11:33:26Z</time>
<speed>1.4</speed>
</trkpt>
<trkpt lat="47.516236" lon="8.481229">
<ele>404.5</ele>
<time>2003-05-17T11:33:31Z</time>
<speed>1.1</speed>
</trkpt>
<trkpt lat="47.516186" lon="8.481302">
<ele>404.1</ele>
<time>2003-05-17T11:33:36Z</time>
<speed>1.4</speed>
</trkpt>
<trkpt lat="47.516129" lon="8.481373">
<ele>404.4</ele>
<time>2003-05-17T11:33:41Z</time>
<speed>1.4</speed>
</trkpt>
<trkpt lat="47.516087" lon="8.481433">
<ele>404.7</ele>
<time>2003-05-17T11:33:46Z</time>
<speed>1.1</speed>
</trkpt>
<trkpt lat="47.516031" lon="8.481490">
<ele>405.0</ele>
<time>2003-05-17T11:33:51Z</time>
<speed>1.1</speed>
</trkpt>
<trkpt lat="47.515971" lon="8.481535">
<ele>404.3</ele>
<time>2003-05-17T11:33:56Z</time>
<speed>1.4</speed>
</trkpt>
<trkpt lat="47.515928" lon="8.481595">
<ele>404.6</ele>
<time>2003-05-17T11:34:01Z</time>
<speed>1.4</speed>
</trkpt>
<trkpt lat="47.515872" lon="8.481653">
<ele>404.8</ele>
<time>2003-05-17T11:34:06Z</time>
<speed>1.4</speed>
</trkpt>
<trkpt lat="47.515823" lon="8.481712">
<ele>404.4</ele>
<time>2003-05-17T11:34:11Z</time>
<speed>1.1</speed>
</trkpt>
<trkpt lat="47.515761" lon="8.481783">
<ele>404.0</ele>
<time>2003-05-17T11:34:16Z</time>
<speed>1.4</speed>
</trkpt>
<trkpt lat="47.515712" lon="8.481843">
<ele>403.5</ele>
<time>2003-05-17T11:34:21Z</time>
<speed>1.4</speed>
</trkpt>
<trkpt lat="47.515663" lon="8.481903">
<ele>403.1</ele>
<time>2003-05-17T11:34:26Z</time>
<speed>1.4</speed>
</trkpt>
<trkpt lat="47.515613" lon="8.481976">
<ele>402.7</ele>
<time>2003-05-17T11:34:31Z</time>
<speed>1.4</speed>
</trkpt>
<trkpt lat="47.515558" lon="8.482034">
<ele>403.0</ele>
<time>2003-05-17T11:34:36Z</time>
<speed>1.4</speed>
</trkpt>
<trkpt lat="47.515509" lon="8.482093">
<ele>402.5</ele>
<time>2003-05-17T11:34:41Z</time>
<speed>1.1</speed>
</trkpt>
<trkpt lat="47.515465" lon="8.482086">
<ele>403.0</ele>
<time>2003-05-17T11:34:46Z</time>
<speed>1.1</speed>
</trkpt>
<trkpt lat="47.515425" lon="8.482012">
<ele>402.9</ele>
<time>2003-05-17T11:34:51Z</time>
<speed>1.1</speed>
</trkpt>
<trkpt lat="47.515380" lon="8.481924">
<ele>403.5</ele>
<time>2003-05-17T11:34:56Z</time>
<speed>1.4</speed>
</trkpt>
<trkpt lat="47.515333" lon="8.481863">
<ele>402.8</ele>
<time>2003-05-17T11:35:01Z</time>
<speed>1.1</speed>
</trkpt>
<trkpt lat="47.515300" lon="8.481792">
<ele>402.1</ele>
<time>2003-05-17T11:35:06Z</time>
<speed>1.1</speed>
</trkpt>
<trkpt lat="47.515247" lon="8.481729">
<ele>402.1</ele>
<time>2003-05-17T11:35:11Z</time>
<speed>1.4</speed>
</trkpt>
<trkpt lat="47.515194" lon="8.481667">
<ele>402.1</ele>
<time>2003-05-17T11:35:16Z</time>
<speed>1.4</speed>
</trkpt>
<trkpt lat="47.515141" lon="8.481605">
<ele>402.1</ele>
<time>2003-05-17T11:35:21Z</time>
<speed>1.7</speed>
</trkpt>
<trkpt lat="47.515087" lon="8.481540">
<ele>403.4</ele>
<time>2003-05-17T11:35:26Z</time>
<speed>1.4</speed>
</trkpt>
<trkpt lat="47.515041" lon="8.481467">
<ele>402.7</ele>
<time>2003-05-17T11:35:31Z</time>
<speed>1.4</speed>
</trkpt>
<trkpt lat="47.514988" lon="8.481405">
<ele>402.7</ele>
<time>2003-05-17T11:35:36Z</time>
<speed>1.4</speed>
</trkpt>
<trkpt lat="47.514941" lon="8.481342">
<ele>403.4</ele>
<time>2003-05-17T11:35:41Z</time>
<speed>1.4</speed>
</trkpt>
<trkpt lat="47.514895" lon="8.481267">
<ele>404.0</ele>
<time>2003-05-17T11:35:46Z</time>
<speed>1.1</speed>
</trkpt>
<trkpt lat="47.514842" lon="8.481205">
<ele>404.0</ele>
<time>2003-05-17T11:35:51Z</time>
<speed>1.4</speed>
</trkpt>
<trkpt lat="47.514796" lon="8.481129">
<ele>404.6</ele>
<time>2003-05-17T11:35:56Z</time>
<speed>1.1</speed>
</trkpt>
<trkpt lat="47.514749" lon="8.481069">
<ele>404.0</ele>
<time>2003-05-17T11:36:01Z</time>
<speed>1.4</speed>
</trkpt>
<trkpt lat="47.514696" lon="8.481007">
<ele>404.0</ele>
<time>2003-05-17T11:36:06Z</time>
<speed>1.1</speed>
</trkpt>
<trkpt lat="47.514642" lon="8.480957">
<ele>404.1</ele>
<time>2003-05-17T11:36:11Z</time>
<speed>1.4</speed>
</trkpt>
<trkpt lat="47.514600" lon="8.480910">
<ele>404.2</ele>
<time>2003-05-17T11:36:16Z</time>
<speed>1.1</speed>
</trkpt>
<trkpt lat="47.514546" lon="8.480863">
<ele>402.9</ele>
<time>2003-05-17T11:36:21Z</time>
<speed>0.8</speed>
</trkpt>
<trkpt lat="47.514494" lon="8.480881">
<ele>402.8</ele>
<time>2003-05-17T11:36:26Z</time>
<speed>1.4</speed>
</trkpt>
<trkpt lat="47.514475" lon="8.480971">
<ele>403.4</ele>
<time>2003-05-17T11:36:31Z</time>
<speed>1.4</speed>
</trkpt>
<trkpt lat="47.514468" lon="8.481065">
<ele>402.7</ele>
<time>2003-05-17T11:36:36Z</time>
<speed>1.4</speed>
</trkpt>
<trkpt lat="47.514460" lon="8.481170">
<ele>403.5</ele>
<time>2003-05-17T11:36:41Z</time>
<speed>1.4</speed>
</trkpt>
<trkpt lat="47.514447" lon="8.481262">
<ele>403.5</ele>
<time>2003-05-17T11:36:46Z</time>
<speed>1.4</speed>
</trkpt>
<trkpt lat="47.514446" lon="8.481367">
<ele>405.0</ele>
<time>2003-05-17T11:36:51Z</time>
<speed>1.4</speed>
</trkpt>
<trkpt lat="47.514452" lon="8.481463">
<ele>404.4</ele>
<time>2003-05-17T11:36:56Z</time>
<speed>1.4</speed>
</trkpt>
<trkpt lat="47.514451" lon="8.481570">
<ele>404.5</ele>
<time>2003-05-17T11:37:01Z</time>
<speed>1.4</speed>
</trkpt>
<trkpt lat="47.514451" lon="8.481570">
<ele>404.5</ele>
<time>2003-05-17T11:37:06Z</time>
<speed>0.0</speed>
</trkpt>
<trkpt lat="47.514463" lon="8.481666">
<ele>404.6</ele>
<time>2003-05-17T11:37:11Z</time>
<speed>1.4</speed>
</trkpt>
<trkpt lat="47.514480" lon="8.481790">
<ele>404.3</ele>
<time>2003-05-17T11:37:16Z</time>
<speed>1.4</speed>
</trkpt>
<trkpt lat="47.514485" lon="8.481899">
<ele>403.7</ele>
<time>2003-05-17T11:37:21Z</time>
<speed>1.4</speed>
</trkpt>
<trkpt lat="47.514496" lon="8.482021">
<ele>404.0</ele>
<time>2003-05-17T11:37:26Z</time>
<speed>1.4</speed>
</trkpt>
<trkpt lat="47.514495" lon="8.482115">
<ele>404.0</ele>
<time>2003-05-17T11:37:31Z</time>
<speed>1.4</speed>
</trkpt>
<trkpt lat="47.514500" lon="8.482222">
<ele>404.9</ele>
<time>2003-05-17T11:37:36Z</time>
<speed>1.4</speed>
</trkpt>
<trkpt lat="47.514505" lon="8.482331">
<ele>404.4</ele>
<time>2003-05-17T11:37:41Z</time>
<speed>1.4</speed>
</trkpt>
<trkpt lat="47.514498" lon="8.482436">
<ele>405.2</ele>
<time>2003-05-17T11:37:46Z</time>
<speed>1.4</speed>
</trkpt>
<trkpt lat="47.514497" lon="8.482530">
<ele>405.2</ele>
<time>2003-05-17T11:37:51Z</time>
<speed>1.4</speed>
</trkpt>
<trkpt lat="47.514496" lon="8.482637">
<ele>405.3</ele>
<time>2003-05-17T11:37:56Z</time>
<speed>1.4</speed>
</trkpt>
<trkpt lat="47.514496" lon="8.482730">
<ele>405.4</ele>
<time>2003-05-17T11:38:01Z</time>
<speed>1.4</speed>
</trkpt>
<trkpt lat="47.514495" lon="8.482837">
<ele>405.5</ele>
<time>2003-05-17T11:38:06Z</time>
<speed>1.4</speed>
</trkpt>
<trkpt lat="47.514494" lon="8.482931">
<ele>405.5</ele>
<time>2003-05-17T11:38:11Z</time>
<speed>1.1</speed>
</trkpt>
<trkpt lat="47.514487" lon="8.483038">
<ele>404.9</ele>
<time>2003-05-17T11:38:16Z</time>
<speed>1.4</speed>
</trkpt>
<trkpt lat="47.514487" lon="8.483132">
<ele>404.9</ele>
<time>2003-05-17T11:38:21Z</time>
<speed>1.1</speed>
</trkpt>
<trkpt lat="47.514499" lon="8.483228">
<ele>405.0</ele>
<time>2003-05-17T11:38:26Z</time>
<speed>1.1</speed>
</trkpt>
<trkpt lat="47.514498" lon="8.483320">
<ele>406.5</ele>
<time>2003-05-17T11:38:31Z</time>
<speed>1.1</speed>
</trkpt>
<trkpt lat="47.514511" lon="8.483416">
<ele>406.6</ele>
<time>2003-05-17T11:38:36Z</time>
<speed>1.4</speed>
</trkpt>
<trkpt lat="47.514504" lon="8.483508">
<ele>407.3</ele>
<time>2003-05-17T11:38:41Z</time>
<speed>1.1</speed>
</trkpt>
<trkpt lat="47.514510" lon="8.483604">
<ele>406.6</ele>
<time>2003-05-17T11:38:46Z</time>
<speed>0.8</speed>
</trkpt>
<trkpt lat="47.514516" lon="8.483697">
<ele>407.4</ele>
<time>2003-05-17T11:38:51Z</time>
<speed>1.4</speed>
</trkpt>
<trkpt lat="47.514490" lon="8.483787">
<ele>407.3</ele>
<time>2003-05-17T11:38:56Z</time>
<speed>1.1</speed>
</trkpt>
<trkpt lat="47.514430" lon="8.483832">
<ele>406.7</ele>
<time>2003-05-17T11:39:01Z</time>
<speed>1.1</speed>
</trkpt>
<trkpt lat="47.514372" lon="8.483837">
<ele>405.7</ele>
<time>2003-05-17T11:39:06Z</time>
<speed>1.4</speed>
</trkpt>
<trkpt lat="47.514302" lon="8.483841">
<ele>404.8</ele>
<time>2003-05-17T11:39:11Z</time>
<speed>1.4</speed>
</trkpt>
<trkpt lat="47.514226" lon="8.483829">
<ele>404.3</ele>
<time>2003-05-17T11:39:16Z</time>
<speed>1.4</speed>
</trkpt>
<trkpt lat="47.514161" lon="8.483845">
<ele>404.2</ele>
<time>2003-05-17T11:39:21Z</time>
<speed>1.4</speed>
</trkpt>
<trkpt lat="47.514097" lon="8.483849">
<ele>404.0</ele>
<time>2003-05-17T11:39:26Z</time>
<speed>1.4</speed>
</trkpt>
<trkpt lat="47.514027" lon="8.483852">
<ele>403.0</ele>
<time>2003-05-17T11:39:31Z</time>
<speed>1.1</speed>
</trkpt>
<trkpt lat="47.513962" lon="8.483855">
<ele>402.7</ele>
<time>2003-05-17T11:39:36Z</time>
<speed>1.4</speed>
</trkpt>
<trkpt lat="47.513897" lon="8.483872">
<ele>402.6</ele>
<time>2003-05-17T11:39:41Z</time>
<speed>1.4</speed>
</trkpt>
<trkpt lat="47.513834" lon="8.483860">
<ele>403.6</ele>
<time>2003-05-17T11:39:46Z</time>
<speed>1.4</speed>
</trkpt>
<trkpt lat="47.513769" lon="8.483863">
<ele>403.4</ele>
<time>2003-05-17T11:39:51Z</time>
<speed>1.4</speed>
</trkpt>
<trkpt lat="47.513699" lon="8.483865">
<ele>403.8</ele>
<time>2003-05-17T11:39:56Z</time>
<speed>1.1</speed>
</trkpt>
<trkpt lat="47.513628" lon="8.483868">
<ele>402.8</ele>
<time>2003-05-17T11:40:01Z</time>
<speed>1.4</speed>
</trkpt>
<trkpt lat="47.513569" lon="8.483885">
<ele>403.4</ele>
<time>2003-05-17T11:40:06Z</time>
<speed>1.1</speed>
</trkpt>
<trkpt lat="47.513499" lon="8.483888">
<ele>402.4</ele>
<time>2003-05-17T11:40:11Z</time>
<speed>1.4</speed>
</trkpt>
<trkpt lat="47.513428" lon="8.483889">
<ele>402.8</ele>
<time>2003-05-17T11:40:16Z</time>
<speed>1.4</speed>
</trkpt>
<trkpt lat="47.513358" lon="8.483891">
<ele>403.3</ele>
<time>2003-05-17T11:40:21Z</time>
<speed>1.4</speed>
</trkpt>
<trkpt lat="47.513294" lon="8.483894">
<ele>403.0</ele>
<time>2003-05-17T11:40:26Z</time>
<speed>1.4</speed>
</trkpt>
<trkpt lat="47.513223" lon="8.483895">
<ele>403.4</ele>
<time>2003-05-17T11:40:31Z</time>
<speed>1.1</speed>
</trkpt>
<trkpt lat="47.513165" lon="8.483901">
<ele>402.5</ele>
<time>2003-05-17T11:40:36Z</time>
<speed>1.4</speed>
</trkpt>
<trkpt lat="47.513101" lon="8.483904">
<ele>402.3</ele>
<time>2003-05-17T11:40:41Z</time>
<speed>1.1</speed>
</trkpt>
<trkpt lat="47.513024" lon="8.483905">
<ele>402.0</ele>
<time>2003-05-17T11:40:46Z</time>
<speed>1.4</speed>
</trkpt>
<trkpt lat="47.512966" lon="8.483909">
<ele>402.4</ele>
<time>2003-05-17T11:40:51Z</time>
<speed>1.1</speed>
</trkpt>
<trkpt lat="47.512902" lon="8.483912">
<ele>402.2</ele>
<time>2003-05-17T11:40:56Z</time>
<speed>1.4</speed>
</trkpt>
<trkpt lat="47.512838" lon="8.483915">
<ele>402.0</ele>
<time>2003-05-17T11:41:01Z</time>
<speed>1.1</speed>
</trkpt>
<trkpt lat="47.512766" lon="8.483930">
<ele>402.5</ele>
<time>2003-05-17T11:41:06Z</time>
<speed>1.4</speed>
</trkpt>
<trkpt lat="47.512709" lon="8.483920">
<ele>402.9</ele>
<time>2003-05-17T11:41:11Z</time>
<speed>1.1</speed>
</trkpt>
<trkpt lat="47.512639" lon="8.483922">
<ele>403.3</ele>
<time>2003-05-17T11:41:16Z</time>
<speed>1.4</speed>
</trkpt>
<trkpt lat="47.512567" lon="8.483938">
<ele>402.4</ele>
<time>2003-05-17T11:41:21Z</time>
<speed>1.7</speed>
</trkpt>
<trkpt lat="47.512502" lon="8.483955">
<ele>402.3</ele>
<time>2003-05-17T11:41:26Z</time>
<speed>1.1</speed>
</trkpt>
<trkpt lat="47.512437" lon="8.483971">
<ele>402.1</ele>
<time>2003-05-17T11:41:31Z</time>
<speed>1.4</speed>
</trkpt>
<trkpt lat="47.512371" lon="8.484001">
<ele>402.1</ele>
<time>2003-05-17T11:41:36Z</time>
<speed>1.4</speed>
</trkpt>
<trkpt lat="47.512318" lon="8.484019">
<ele>402.0</ele>
<time>2003-05-17T11:41:41Z</time>
<speed>1.4</speed>
</trkpt>
<trkpt lat="47.512257" lon="8.484062">
<ele>402.8</ele>
<time>2003-05-17T11:41:46Z</time>
<speed>1.4</speed>
</trkpt>
<trkpt lat="47.512198" lon="8.484093">
<ele>402.1</ele>
<time>2003-05-17T11:41:51Z</time>
<speed>1.1</speed>
</trkpt>
<trkpt lat="47.512138" lon="8.484123">
<ele>402.7</ele>
<time>2003-05-17T11:41:56Z</time>
<speed>1.1</speed>
</trkpt>
<trkpt lat="47.512083" lon="8.484168">
<ele>402.9</ele>
<time>2003-05-17T11:42:01Z</time>
<speed>1.4</speed>
</trkpt>
<trkpt lat="47.512023" lon="8.484212">
<ele>402.2</ele>
<time>2003-05-17T11:42:06Z</time>
<speed>1.1</speed>
</trkpt>
<trkpt lat="47.511963" lon="8.484242">
<ele>402.9</ele>
<time>2003-05-17T11:42:11Z</time>
<speed>1.4</speed>
</trkpt>
<trkpt lat="47.511908" lon="8.484287">
<ele>403.1</ele>
<time>2003-05-17T11:42:16Z</time>
<speed>1.1</speed>
</trkpt>
<trkpt lat="47.511842" lon="8.484316">
<ele>403.0</ele>
<time>2003-05-17T11:42:21Z</time>
<speed>1.1</speed>
</trkpt>
<trkpt lat="47.511774" lon="8.484372">
<ele>403.2</ele>
<time>2003-05-17T11:42:26Z</time>
<speed>1.4</speed>
</trkpt>
<trkpt lat="47.511715" lon="8.484404">
<ele>402.4</ele>
<time>2003-05-17T11:42:31Z</time>
<speed>1.4</speed>
</trkpt>
<trkpt lat="47.511653" lon="8.484461">
<ele>401.9</ele>
<time>2003-05-17T11:42:36Z</time>
<speed>1.4</speed>
</trkpt>
<trkpt lat="47.511600" lon="8.484493">
<ele>401.9</ele>
<time>2003-05-17T11:42:41Z</time>
<speed>1.4</speed>
</trkpt>
<trkpt lat="47.511533" lon="8.484536">
<ele>402.0</ele>
<time>2003-05-17T11:42:46Z</time>
<speed>1.4</speed>
</trkpt>
<trkpt lat="47.511478" lon="8.484580">
<ele>402.1</ele>
<time>2003-05-17T11:42:51Z</time>
<speed>1.4</speed>
</trkpt>
<trkpt lat="47.511411" lon="8.484623">
<ele>402.2</ele>
<time>2003-05-17T11:42:56Z</time>
<speed>1.4</speed>
</trkpt>
<trkpt lat="47.511351" lon="8.484668">
<ele>401.6</ele>
<time>2003-05-17T11:43:01Z</time>
<speed>1.4</speed>
</trkpt>
<trkpt lat="47.511283" lon="8.484710">
<ele>401.6</ele>
<time>2003-05-17T11:43:06Z</time>
<speed>1.4</speed>
</trkpt>
<trkpt lat="47.511230" lon="8.484742">
<ele>401.6</ele>
<time>2003-05-17T11:43:11Z</time>
<speed>1.4</speed>
</trkpt>
<trkpt lat="47.511177" lon="8.484774">
<ele>401.7</ele>
<time>2003-05-17T11:43:16Z</time>
<speed>1.1</speed>
</trkpt>
<trkpt lat="47.511117" lon="8.484803">
<ele>402.3</ele>
<time>2003-05-17T11:43:21Z</time>
<speed>1.1</speed>
</trkpt>
<trkpt lat="47.511056" lon="8.484848">
<ele>401.7</ele>
<time>2003-05-17T11:43:26Z</time>
<speed>1.1</speed>
</trkpt>
<trkpt lat="47.510996" lon="8.484877">
<ele>402.4</ele>
<time>2003-05-17T11:43:31Z</time>
<speed>1.1</speed>
</trkpt>
<trkpt lat="47.510936" lon="8.484907">
<ele>403.1</ele>
<time>2003-05-17T11:43:36Z</time>
<speed>1.1</speed>
</trkpt>
<trkpt lat="47.510870" lon="8.484937">
<ele>403.1</ele>
<time>2003-05-17T11:43:41Z</time>
<speed>1.4</speed>
</trkpt>
<trkpt lat="47.510815" lon="8.484981">
<ele>403.2</ele>
<time>2003-05-17T11:43:46Z</time>
<speed>1.4</speed>
</trkpt>
<trkpt lat="47.510748" lon="8.485024">
<ele>403.2</ele>
<time>2003-05-17T11:43:51Z</time>
<speed>1.4</speed>
</trkpt>
<trkpt lat="47.510681" lon="8.485067">
<ele>403.3</ele>
<time>2003-05-17T11:43:56Z</time>
<speed>1.4</speed>
</trkpt>
<trkpt lat="47.510621" lon="8.485111">
<ele>402.7</ele>
<time>2003-05-17T11:44:01Z</time>
<speed>1.4</speed>
</trkpt>
<trkpt lat="47.510560" lon="8.485156">
<ele>402.0</ele>
<time>2003-05-17T11:44:06Z</time>
<speed>1.4</speed>
</trkpt>
<trkpt lat="47.510480" lon="8.485197">
<ele>402.0</ele>
<time>2003-05-17T11:44:12Z</time>
<speed>1.4</speed>
</trkpt>
<trkpt lat="47.510421" lon="8.485228">
<ele>401.3</ele>
<time>2003-05-17T11:44:17Z</time>
<speed>1.4</speed>
</trkpt>
<trkpt lat="47.510360" lon="8.485273">
<ele>400.7</ele>
<time>2003-05-17T11:44:22Z</time>
<speed>1.4</speed>
</trkpt>
<trkpt lat="47.510295" lon="8.485288">
<ele>402.0</ele>
<time>2003-05-17T11:44:27Z</time>
<speed>1.4</speed>
</trkpt>
<trkpt lat="47.510235" lon="8.485319">
<ele>401.2</ele>
<time>2003-05-17T11:44:32Z</time>
<speed>1.4</speed>
</trkpt>
<trkpt lat="47.510164" lon="8.485336">
<ele>400.4</ele>
<time>2003-05-17T11:44:37Z</time>
<speed>1.7</speed>
</trkpt>
<trkpt lat="47.510099" lon="8.485337">
<ele>401.5</ele>
<time>2003-05-17T11:44:42Z</time>
<speed>1.1</speed>
</trkpt>
<trkpt lat="47.510042" lon="8.485342">
<ele>400.6</ele>
<time>2003-05-17T11:44:47Z</time>
<speed>1.1</speed>
</trkpt>
<trkpt lat="47.509971" lon="8.485344">
<ele>401.0</ele>
<time>2003-05-17T11:44:52Z</time>
<speed>1.4</speed>
</trkpt>
<trkpt lat="47.509908" lon="8.485334">
<ele>400.7</ele>
<time>2003-05-17T11:44:57Z</time>
<speed>1.4</speed>
</trkpt>
<trkpt lat="47.509837" lon="8.485335">
<ele>401.1</ele>
<time>2003-05-17T11:45:02Z</time>
<speed>1.1</speed>
</trkpt>
<trkpt lat="47.509773" lon="8.485339">
<ele>400.8</ele>
<time>2003-05-17T11:45:07Z</time>
<speed>1.4</speed>
</trkpt>
<trkpt lat="47.509722" lon="8.485329">
<ele>402.0</ele>
<time>2003-05-17T11:45:12Z</time>
<speed>1.1</speed>
</trkpt>
<trkpt lat="47.509671" lon="8.485321">
<ele>401.7</ele>
<time>2003-05-17T11:45:17Z</time>
<speed>0.8</speed>
</trkpt>
<trkpt lat="47.509608" lon="8.485311">
<ele>401.4</ele>
<time>2003-05-17T11:45:22Z</time>
<speed>1.4</speed>
</trkpt>
<trkpt lat="47.509545" lon="8.485299">
<ele>402.4</ele>
<time>2003-05-17T11:45:27Z</time>
<speed>1.1</speed>
</trkpt>
<trkpt lat="47.509480" lon="8.485303">
<ele>402.2</ele>
<time>2003-05-17T11:45:32Z</time>
<speed>1.4</speed>
</trkpt>
<trkpt lat="47.509417" lon="8.485293">
<ele>401.8</ele>
<time>2003-05-17T11:45:37Z</time>
<speed>1.4</speed>
</trkpt>
<trkpt lat="47.509347" lon="8.485296">
<ele>400.8</ele>
<time>2003-05-17T11:45:42Z</time>
<speed>1.4</speed>
</trkpt>
<trkpt lat="47.509283" lon="8.485300">
<ele>400.6</ele>
<time>2003-05-17T11:45:47Z</time>
<speed>1.4</speed>
</trkpt>
<trkpt lat="47.509219" lon="8.485303">
<ele>400.3</ele>
<time>2003-05-17T11:45:52Z</time>
<speed>1.1</speed>
</trkpt>
<trkpt lat="47.509155" lon="8.485291">
<ele>401.4</ele>
<time>2003-05-17T11:45:57Z</time>
<speed>1.4</speed>
</trkpt>
<trkpt lat="47.509091" lon="8.485295">
<ele>401.2</ele>
<time>2003-05-17T11:46:02Z</time>
<speed>1.4</speed>
</trkpt>
<trkpt lat="47.509027" lon="8.485298">
<ele>400.9</ele>
<time>2003-05-17T11:46:07Z</time>
<speed>1.4</speed>
</trkpt>
<trkpt lat="47.508964" lon="8.485288">
<ele>400.6</ele>
<time>2003-05-17T11:46:12Z</time>
<speed>1.1</speed>
</trkpt>
<trkpt lat="47.508894" lon="8.485276">
<ele>400.9</ele>
<time>2003-05-17T11:46:17Z</time>
<speed>1.4</speed>
</trkpt>
<trkpt lat="47.508830" lon="8.485280">
<ele>400.6</ele>
<time>2003-05-17T11:46:22Z</time>
<speed>1.1</speed>
</trkpt>
<trkpt lat="47.508766" lon="8.485283">
<ele>400.4</ele>
<time>2003-05-17T11:46:27Z</time>
<speed>1.1</speed>
</trkpt>
<trkpt lat="47.508696" lon="8.485271">
<ele>400.7</ele>
<time>2003-05-17T11:46:32Z</time>
<speed>1.1</speed>
</trkpt>
<trkpt lat="47.508626" lon="8.485275">
<ele>399.7</ele>
<time>2003-05-17T11:46:37Z</time>
<speed>1.1</speed>
</trkpt>
<trkpt lat="47.508555" lon="8.485276">
<ele>400.1</ele>
<time>2003-05-17T11:46:42Z</time>
<speed>1.4</speed>
</trkpt>
<trkpt lat="47.508479" lon="8.485264">
<ele>399.7</ele>
<time>2003-05-17T11:46:47Z</time>
<speed>1.4</speed>
</trkpt>
<trkpt lat="47.508408" lon="8.485266">
<ele>400.2</ele>
<time>2003-05-17T11:46:52Z</time>
<speed>1.4</speed>
</trkpt>
<trkpt lat="47.508383" lon="8.485356">
<ele>400.0</ele>
<time>2003-05-17T11:46:57Z</time>
<speed>1.1</speed>
</trkpt>
<trkpt lat="47.508363" lon="8.485445">
<ele>400.7</ele>
<time>2003-05-17T11:47:02Z</time>
<speed>1.4</speed>
</trkpt>
<trkpt lat="47.508362" lon="8.485552">
<ele>400.8</ele>
<time>2003-05-17T11:47:07Z</time>
<speed>1.4</speed>
</trkpt>
<trkpt lat="47.508381" lon="8.485650">
<ele>400.2</ele>
<time>2003-05-17T11:47:12Z</time>
<speed>1.4</speed>
</trkpt>
<trkpt lat="47.508406" lon="8.485748">
<ele>400.4</ele>
<time>2003-05-17T11:47:17Z</time>
<speed>1.4</speed>
</trkpt>
<trkpt lat="47.508432" lon="8.485833">
<ele>400.5</ele>
<time>2003-05-17T11:47:22Z</time>
<speed>1.4</speed>
</trkpt>
<trkpt lat="47.508464" lon="8.485919">
<ele>399.9</ele>
<time>2003-05-17T11:47:27Z</time>
<speed>1.1</speed>
</trkpt>
<trkpt lat="47.508505" lon="8.485995">
<ele>398.5</ele>
<time>2003-05-17T11:47:32Z</time>
<speed>1.4</speed>
</trkpt>
<trkpt lat="47.508543" lon="8.486081">
<ele>398.6</ele>
<time>2003-05-17T11:47:37Z</time>
<speed>1.4</speed>
</trkpt>
<trkpt lat="47.508576" lon="8.486168">
<ele>398.0</ele>
<time>2003-05-17T11:47:42Z</time>
<speed>1.4</speed>
</trkpt>
<trkpt lat="47.508614" lon="8.486255">
<ele>398.2</ele>
<time>2003-05-17T11:47:47Z</time>
<speed>1.4</speed>
</trkpt>
<trkpt lat="47.508646" lon="8.486339">
<ele>399.0</ele>
<time>2003-05-17T11:47:52Z</time>
<speed>1.4</speed>
</trkpt>
<trkpt lat="47.508679" lon="8.486426">
<ele>398.4</ele>
<time>2003-05-17T11:47:57Z</time>
<speed>1.4</speed>
</trkpt>
<trkpt lat="47.508711" lon="8.486510">
<ele>399.2</ele>
<time>2003-05-17T11:48:02Z</time>
<speed>1.1</speed>
</trkpt>
<trkpt lat="47.508750" lon="8.486584">
<ele>399.2</ele>
<time>2003-05-17T11:48:07Z</time>
<speed>1.4</speed>
</trkpt>
<trkpt lat="47.508784" lon="8.486657">
<ele>398.5</ele>
<time>2003-05-17T11:48:12Z</time>
<speed>1.1</speed>
</trkpt>
<trkpt lat="47.508822" lon="8.486744">
<ele>398.7</ele>
<time>2003-05-17T11:48:17Z</time>
<speed>1.4</speed>
</trkpt>
<trkpt lat="47.508848" lon="8.486829">
<ele>398.7</ele>
<time>2003-05-17T11:48:22Z</time>
<speed>1.4</speed>
</trkpt>
<trkpt lat="47.508881" lon="8.486915">
<ele>398.1</ele>
<time>2003-05-17T11:48:27Z</time>
<speed>1.4</speed>
</trkpt>
<trkpt lat="47.508920" lon="8.486989">
<ele>398.2</ele>
<time>2003-05-17T11:48:32Z</time>
<speed>1.1</speed>
</trkpt>
<trkpt lat="47.508959" lon="8.487075">
<ele>398.3</ele>
<time>2003-05-17T11:48:37Z</time>
<speed>1.4</speed>
</trkpt>
<trkpt lat="47.508998" lon="8.487162">
<ele>398.5</ele>
<time>2003-05-17T11:48:42Z</time>
<speed>1.1</speed>
</trkpt>
<trkpt lat="47.509030" lon="8.487247">
<ele>399.3</ele>
<time>2003-05-17T11:48:47Z</time>
<speed>1.1</speed>
</trkpt>
<trkpt lat="47.509056" lon="8.487331">
<ele>399.3</ele>
<time>2003-05-17T11:48:52Z</time>
<speed>1.1</speed>
</trkpt>
<trkpt lat="47.509101" lon="8.487405">
<ele>400.1</ele>
<time>2003-05-17T11:48:57Z</time>
<speed>0.8</speed>
</trkpt>
<trkpt lat="47.509114" lon="8.487501">
<ele>400.2</ele>
<time>2003-05-17T11:49:02Z</time>
<speed>1.4</speed>
</trkpt>
<trkpt lat="47.509139" lon="8.487598">
<ele>400.4</ele>
<time>2003-05-17T11:49:07Z</time>
<speed>1.1</speed>
</trkpt>
<trkpt lat="47.509177" lon="8.487685">
<ele>400.5</ele>
<time>2003-05-17T11:49:12Z</time>
<speed>1.1</speed>
</trkpt>
<trkpt lat="47.509203" lon="8.487770">
<ele>400.6</ele>
<time>2003-05-17T11:49:17Z</time>
<speed>1.1</speed>
</trkpt>
<trkpt lat="47.509236" lon="8.487856">
<ele>400.0</ele>
<time>2003-05-17T11:49:22Z</time>
<speed>1.1</speed>
</trkpt>
<trkpt lat="47.509255" lon="8.487939">
<ele>400.7</ele>
<time>2003-05-17T11:49:27Z</time>
<speed>1.4</speed>
</trkpt>
<trkpt lat="47.509280" lon="8.488037">
<ele>400.9</ele>
<time>2003-05-17T11:49:32Z</time>
<speed>1.4</speed>
</trkpt>
<trkpt lat="47.509306" lon="8.488121">
<ele>401.0</ele>
<time>2003-05-17T11:49:37Z</time>
<speed>1.4</speed>
</trkpt>
<trkpt lat="47.509331" lon="8.488204">
<ele>402.4</ele>
<time>2003-05-17T11:49:42Z</time>
<speed>1.1</speed>
</trkpt>
<trkpt lat="47.509365" lon="8.488277">
<ele>401.7</ele>
<time>2003-05-17T11:49:47Z</time>
<speed>1.1</speed>
</trkpt>
<trkpt lat="47.509391" lon="8.488362">
<ele>401.8</ele>
<time>2003-05-17T11:49:52Z</time>
<speed>1.1</speed>
</trkpt>
<trkpt lat="47.509424" lon="8.488434">
<ele>402.5</ele>
<time>2003-05-17T11:49:57Z</time>
<speed>1.1</speed>
</trkpt>
<trkpt lat="47.509451" lon="8.488505">
<ele>402.5</ele>
<time>2003-05-17T11:50:02Z</time>
<speed>1.1</speed>
</trkpt>
<trkpt lat="47.509477" lon="8.488590">
<ele>402.5</ele>
<time>2003-05-17T11:50:07Z</time>
<speed>1.1</speed>
</trkpt>
<trkpt lat="47.509504" lon="8.488661">
<ele>402.5</ele>
<time>2003-05-17T11:50:12Z</time>
<speed>1.1</speed>
</trkpt>
<trkpt lat="47.509537" lon="8.488733">
<ele>403.2</ele>
<time>2003-05-17T11:50:17Z</time>
<speed>0.8</speed>
</trkpt>
<trkpt lat="47.509557" lon="8.488802">
<ele>403.9</ele>
<time>2003-05-17T11:50:22Z</time>
<speed>0.8</speed>
</trkpt>
<trkpt lat="47.509577" lon="8.488885">
<ele>404.6</ele>
<time>2003-05-17T11:50:27Z</time>
<speed>0.8</speed>
</trkpt>
<trkpt lat="47.509580" lon="8.488988">
<ele>408.3</ele>
<time>2003-05-17T11:50:32Z</time>
<speed>0.8</speed>
</trkpt>
<trkpt lat="47.509555" lon="8.489063">
<ele>409.5</ele>
<time>2003-05-17T11:50:37Z</time>
<speed>0.8</speed>
</trkpt>
<trkpt lat="47.509522" lon="8.489085">
<ele>408.8</ele>
<time>2003-05-17T11:50:42Z</time>
<speed>1.1</speed>
</trkpt>
<trkpt lat="47.509458" lon="8.489089">
<ele>408.5</ele>
<time>2003-05-17T11:50:47Z</time>
<speed>1.1</speed>
</trkpt>
<trkpt lat="47.509393" lon="8.489090">
<ele>409.7</ele>
<time>2003-05-17T11:50:52Z</time>
<speed>1.1</speed>
</trkpt>
<trkpt lat="47.509333" lon="8.489120">
<ele>410.4</ele>
<time>2003-05-17T11:50:57Z</time>
<speed>1.1</speed>
</trkpt>
<trkpt lat="47.509269" lon="8.489123">
<ele>410.1</ele>
<time>2003-05-17T11:51:02Z</time>
<speed>1.1</speed>
</trkpt>
<trkpt lat="47.509204" lon="8.489139">
<ele>410.0</ele>
<time>2003-05-17T11:51:07Z</time>
<speed>1.1</speed>
</trkpt>
<trkpt lat="47.509139" lon="8.489156">
<ele>409.8</ele>
<time>2003-05-17T11:51:12Z</time>
<speed>1.4</speed>
</trkpt>
<trkpt lat="47.509068" lon="8.489157">
<ele>410.3</ele>
<time>2003-05-17T11:51:17Z</time>
<speed>1.4</speed>
</trkpt>
<trkpt lat="47.509003" lon="8.489174">
<ele>410.1</ele>
<time>2003-05-17T11:51:22Z</time>
<speed>1.1</speed>
</trkpt>
<trkpt lat="47.508938" lon="8.489190">
<ele>410.0</ele>
<time>2003-05-17T11:51:27Z</time>
<speed>1.4</speed>
</trkpt>
<trkpt lat="47.508879" lon="8.489207">
<ele>410.6</ele>
<time>2003-05-17T11:51:32Z</time>
<speed>1.1</speed>
</trkpt>
<trkpt lat="47.508813" lon="8.489236">
<ele>410.5</ele>
<time>2003-05-17T11:51:37Z</time>
<speed>1.1</speed>
</trkpt>
<trkpt lat="47.508747" lon="8.489253">
<ele>410.4</ele>
<time>2003-05-17T11:51:42Z</time>
<speed>1.4</speed>
</trkpt>
<trkpt lat="47.508681" lon="8.489282">
<ele>410.3</ele>
<time>2003-05-17T11:51:47Z</time>
<speed>1.1</speed>
</trkpt>
<trkpt lat="47.508621" lon="8.489312">
<ele>411.0</ele>
<time>2003-05-17T11:51:52Z</time>
<speed>1.4</speed>
</trkpt>
<trkpt lat="47.508562" lon="8.489343">
<ele>410.3</ele>
<time>2003-05-17T11:51:57Z</time>
<speed>1.1</speed>
</trkpt>
<trkpt lat="47.508496" lon="8.489358">
<ele>411.6</ele>
<time>2003-05-17T11:52:02Z</time>
<speed>1.1</speed>
</trkpt>
<trkpt lat="47.508437" lon="8.489389">
<ele>410.8</ele>
<time>2003-05-17T11:52:07Z</time>
<speed>1.1</speed>
</trkpt>
<trkpt lat="47.508372" lon="8.489406">
<ele>410.7</ele>
<time>2003-05-17T11:52:12Z</time>
<speed>1.1</speed>
</trkpt>
<trkpt lat="47.508312" lon="8.489422">
<ele>411.3</ele>
<time>2003-05-17T11:52:17Z</time>
<speed>1.4</speed>
</trkpt>
<trkpt lat="47.508245" lon="8.489465">
<ele>411.3</ele>
<time>2003-05-17T11:52:22Z</time>
<speed>1.4</speed>
</trkpt>
<trkpt lat="47.508180" lon="8.489482">
<ele>411.2</ele>
<time>2003-05-17T11:52:27Z</time>
<speed>1.4</speed>
</trkpt>
<trkpt lat="47.508120" lon="8.489511">
<ele>411.9</ele>
<time>2003-05-17T11:52:32Z</time>
<speed>1.4</speed>
</trkpt>
<trkpt lat="47.508060" lon="8.489556">
<ele>411.3</ele>
<time>2003-05-17T11:52:37Z</time>
<speed>1.4</speed>
</trkpt>
<trkpt lat="47.507998" lon="8.489614">
<ele>410.7</ele>
<time>2003-05-17T11:52:42Z</time>
<speed>1.4</speed>
</trkpt>
<trkpt lat="47.507944" lon="8.489658">
<ele>410.9</ele>
<time>2003-05-17T11:52:47Z</time>
<speed>1.1</speed>
</trkpt>
<trkpt lat="47.507883" lon="8.489703">
<ele>410.3</ele>
<time>2003-05-17T11:52:52Z</time>
<speed>1.1</speed>
</trkpt>
<trkpt lat="47.507822" lon="8.489746">
<ele>411.0</ele>
<time>2003-05-17T11:52:57Z</time>
<speed>1.1</speed>
</trkpt>
<trkpt lat="47.507756" lon="8.489775">
<ele>411.0</ele>
<time>2003-05-17T11:53:02Z</time>
<speed>1.4</speed>
</trkpt>
<trkpt lat="47.507696" lon="8.489820">
<ele>410.4</ele>
<time>2003-05-17T11:53:07Z</time>
<speed>1.4</speed>
</trkpt>
<trkpt lat="47.507641" lon="8.489865">
<ele>410.5</ele>
<time>2003-05-17T11:53:12Z</time>
<speed>1.1</speed>
</trkpt>
<trkpt lat="47.507576" lon="8.489881">
<ele>410.4</ele>
<time>2003-05-17T11:53:17Z</time>
<speed>1.4</speed>
</trkpt>
<trkpt lat="47.507504" lon="8.489896">
<ele>410.9</ele>
<time>2003-05-17T11:53:22Z</time>
<speed>1.4</speed>
</trkpt>
<trkpt lat="47.507440" lon="8.489899">
<ele>410.6</ele>
<time>2003-05-17T11:53:27Z</time>
<speed>1.1</speed>
</trkpt>
<trkpt lat="47.507374" lon="8.489928">
<ele>410.6</ele>
<time>2003-05-17T11:53:32Z</time>
<speed>1.4</speed>
</trkpt>
<trkpt lat="47.507309" lon="8.489945">
<ele>410.4</ele>
<time>2003-05-17T11:53:37Z</time>
<speed>1.4</speed>
</trkpt>
<trkpt lat="47.507244" lon="8.489961">
<ele>410.3</ele>
<time>2003-05-17T11:53:42Z</time>
<speed>1.1</speed>
</trkpt>
<trkpt lat="47.507185" lon="8.489978">
<ele>410.9</ele>
<time>2003-05-17T11:53:47Z</time>
<speed>1.1</speed>
</trkpt>
<trkpt lat="47.507121" lon="8.489981">
<ele>410.6</ele>
<time>2003-05-17T11:53:52Z</time>
<speed>1.1</speed>
</trkpt>
<trkpt lat="47.507061" lon="8.490011">
<ele>411.3</ele>
<time>2003-05-17T11:53:57Z</time>
<speed>1.4</speed>
</trkpt>
<trkpt lat="47.506994" lon="8.490040">
<ele>411.3</ele>
<time>2003-05-17T11:54:02Z</time>
<speed>1.4</speed>
</trkpt>
<trkpt lat="47.506928" lon="8.490070">
<ele>411.2</ele>
<time>2003-05-17T11:54:07Z</time>
<speed>1.4</speed>
</trkpt>
<trkpt lat="47.506869" lon="8.490101">
<ele>410.5</ele>
<time>2003-05-17T11:54:12Z</time>
<speed>1.4</speed>
</trkpt>
<trkpt lat="47.506810" lon="8.490118">
<ele>411.1</ele>
<time>2003-05-17T11:54:17Z</time>
<speed>1.1</speed>
</trkpt>
<trkpt lat="47.506749" lon="8.490163">
<ele>410.5</ele>
<time>2003-05-17T11:54:22Z</time>
<speed>1.4</speed>
</trkpt>
<trkpt lat="47.506711" lon="8.490236">
<ele>411.6</ele>
<time>2003-05-17T11:54:27Z</time>
<speed>1.4</speed>
</trkpt>
<trkpt lat="47.506699" lon="8.490327">
<ele>411.6</ele>
<time>2003-05-17T11:54:32Z</time>
<speed>1.1</speed>
</trkpt>
<trkpt lat="47.506685" lon="8.490417">
<ele>412.9</ele>
<time>2003-05-17T11:54:37Z</time>
<speed>1.1</speed>
</trkpt>
<trkpt lat="47.506678" lon="8.490524">
<ele>412.3</ele>
<time>2003-05-17T11:54:42Z</time>
<speed>1.1</speed>
</trkpt>
<trkpt lat="47.506676" lon="8.490551">
<ele>412.5</ele>
<time>2003-05-17T11:54:47Z</time>
<speed>0.6</speed>
</trkpt>
<trkpt lat="47.506656" lon="8.490641">
<ele>413.2</ele>
<time>2003-05-17T11:54:52Z</time>
<speed>1.1</speed>
</trkpt>
<trkpt lat="47.506637" lon="8.490730">
<ele>413.8</ele>
<time>2003-05-17T11:54:57Z</time>
<speed>1.1</speed>
</trkpt>
<trkpt lat="47.506616" lon="8.490834">
<ele>414.5</ele>
<time>2003-05-17T11:55:02Z</time>
<speed>1.1</speed>
</trkpt>
<trkpt lat="47.506616" lon="8.490927">
<ele>414.6</ele>
<time>2003-05-17T11:55:07Z</time>
<speed>1.4</speed>
</trkpt>
<trkpt lat="47.506615" lon="8.491034">
<ele>414.7</ele>
<time>2003-05-17T11:55:12Z</time>
<speed>1.1</speed>
</trkpt>
<trkpt lat="47.506595" lon="8.491124">
<ele>415.3</ele>
<time>2003-05-17T11:55:17Z</time>
<speed>1.1</speed>
</trkpt>
<trkpt lat="47.506589" lon="8.491203">
<ele>415.9</ele>
<time>2003-05-17T11:55:22Z</time>
<speed>1.1</speed>
</trkpt>
<trkpt lat="47.506584" lon="8.491282">
<ele>416.5</ele>
<time>2003-05-17T11:55:27Z</time>
<speed>1.1</speed>
</trkpt>
<trkpt lat="47.506571" lon="8.491359">
<ele>417.8</ele>
<time>2003-05-17T11:55:32Z</time>
<speed>1.1</speed>
</trkpt>
<trkpt lat="47.506571" lon="8.491452">
<ele>417.8</ele>
<time>2003-05-17T11:55:37Z</time>
<speed>1.1</speed>
</trkpt>
<trkpt lat="47.506558" lon="8.491529">
<ele>419.1</ele>
<time>2003-05-17T11:55:42Z</time>
<speed>1.1</speed>
</trkpt>
<trkpt lat="47.506552" lon="8.491621">
<ele>419.8</ele>
<time>2003-05-17T11:55:47Z</time>
<speed>1.1</speed>
</trkpt>
<trkpt lat="47.506565" lon="8.491704">
<ele>419.8</ele>
<time>2003-05-17T11:55:52Z</time>
<speed>1.1</speed>
</trkpt>
<trkpt lat="47.506573" lon="8.491771">
<ele>420.3</ele>
<time>2003-05-17T11:55:57Z</time>
<speed>0.8</speed>
</trkpt>
<trkpt lat="47.506566" lon="8.491848">
<ele>422.3</ele>
<time>2003-05-17T11:56:02Z</time>
<speed>1.1</speed>
</trkpt>
<trkpt lat="47.506573" lon="8.491929">
<ele>423.0</ele>
<time>2003-05-17T11:56:07Z</time>
<speed>1.1</speed>
</trkpt>
<trkpt lat="47.506580" lon="8.492010">
<ele>423.7</ele>
<time>2003-05-17T11:56:12Z</time>
<speed>1.1</speed>
</trkpt>
<trkpt lat="47.506592" lon="8.492106">
<ele>423.8</ele>
<time>2003-05-17T11:56:17Z</time>
<speed>1.1</speed>
</trkpt>
<trkpt lat="47.506592" lon="8.492184">
<ele>425.1</ele>
<time>2003-05-17T11:56:22Z</time>
<speed>0.8</speed>
</trkpt>
<trkpt lat="47.506598" lon="8.492278">
<ele>425.9</ele>
<time>2003-05-17T11:56:27Z</time>
<speed>1.1</speed>
</trkpt>
<trkpt lat="47.506585" lon="8.492368">
<ele>427.2</ele>
<time>2003-05-17T11:56:32Z</time>
<speed>1.4</speed>
</trkpt>
<trkpt lat="47.506591" lon="8.492449">
<ele>427.9</ele>
<time>2003-05-17T11:56:37Z</time>
<speed>1.4</speed>
</trkpt>
<trkpt lat="47.506577" lon="8.492554">
<ele>428.0</ele>
<time>2003-05-17T11:56:42Z</time>
<speed>1.1</speed>
</trkpt>
<trkpt lat="47.506572" lon="8.492633">
<ele>428.6</ele>
<time>2003-05-17T11:56:47Z</time>
<speed>1.4</speed>
</trkpt>
<trkpt lat="47.506565" lon="8.492725">
<ele>429.3</ele>
<time>2003-05-17T11:56:52Z</time>
<speed>1.4</speed>
</trkpt>
<trkpt lat="47.506559" lon="8.492803">
<ele>429.9</ele>
<time>2003-05-17T11:56:57Z</time>
<speed>1.1</speed>
</trkpt>
<trkpt lat="47.506552" lon="8.492895">
<ele>430.6</ele>
<time>2003-05-17T11:57:02Z</time>
<speed>1.1</speed>
</trkpt>
<trkpt lat="47.506538" lon="8.493000">
<ele>430.6</ele>
<time>2003-05-17T11:57:07Z</time>
<speed>1.7</speed>
</trkpt>
<trkpt lat="47.506525" lon="8.493090">
<ele>432.0</ele>
<time>2003-05-17T11:57:12Z</time>
<speed>1.1</speed>
</trkpt>
<trkpt lat="47.506512" lon="8.493182">
<ele>432.0</ele>
<time>2003-05-17T11:57:17Z</time>
<speed>1.4</speed>
</trkpt>
<trkpt lat="47.506493" lon="8.493259">
<ele>432.5</ele>
<time>2003-05-17T11:57:22Z</time>
<speed>1.4</speed>
</trkpt>
<trkpt lat="47.506475" lon="8.493338">
<ele>431.6</ele>
<time>2003-05-17T11:57:27Z</time>
<speed>1.1</speed>
</trkpt>
<trkpt lat="47.506468" lon="8.493445">
<ele>431.0</ele>
<time>2003-05-17T11:57:32Z</time>
<speed>1.4</speed>
</trkpt>
<trkpt lat="47.506468" lon="8.493538">
<ele>431.0</ele>
<time>2003-05-17T11:57:37Z</time>
<speed>1.4</speed>
</trkpt>
<trkpt lat="47.506455" lon="8.493630">
<ele>431.0</ele>
<time>2003-05-17T11:57:42Z</time>
<speed>1.1</speed>
</trkpt>
<trkpt lat="47.506448" lon="8.493724">
<ele>430.3</ele>
<time>2003-05-17T11:57:47Z</time>
<speed>1.4</speed>
</trkpt>
<trkpt lat="47.506441" lon="8.493816">
<ele>431.0</ele>
<time>2003-05-17T11:57:52Z</time>
<speed>1.4</speed>
</trkpt>
<trkpt lat="47.506455" lon="8.493899">
<ele>431.0</ele>
<time>2003-05-17T11:57:57Z</time>
<speed>1.1</speed>
</trkpt>
<trkpt lat="47.506503" lon="8.493948">
<ele>430.2</ele>
<time>2003-05-17T11:58:02Z</time>
<speed>1.1</speed>
</trkpt>
<trkpt lat="47.506558" lon="8.493984">
<ele>430.0</ele>
<time>2003-05-17T11:58:07Z</time>
<speed>1.1</speed>
</trkpt>
<trkpt lat="47.506626" lon="8.494007">
<ele>431.1</ele>
<time>2003-05-17T11:58:12Z</time>
<speed>1.4</speed>
</trkpt>
<trkpt lat="47.506688" lon="8.494030">
<ele>431.6</ele>
<time>2003-05-17T11:58:17Z</time>
<speed>1.4</speed>
</trkpt>
<trkpt lat="47.506757" lon="8.494055">
<ele>431.4</ele>
<time>2003-05-17T11:58:22Z</time>
<speed>1.4</speed>
</trkpt>
<trkpt lat="47.506827" lon="8.494067">
<ele>431.1</ele>
<time>2003-05-17T11:58:27Z</time>
<speed>1.4</speed>
</trkpt>
<trkpt lat="47.506892" lon="8.494065">
<ele>429.9</ele>
<time>2003-05-17T11:58:32Z</time>
<speed>1.4</speed>
</trkpt>
<trkpt lat="47.506955" lon="8.494075">
<ele>430.2</ele>
<time>2003-05-17T11:58:37Z</time>
<speed>1.4</speed>
</trkpt>
<trkpt lat="47.507030" lon="8.494100">
<ele>430.8</ele>
<time>2003-05-17T11:58:42Z</time>
<speed>1.4</speed>
</trkpt>
<trkpt lat="47.507086" lon="8.494123">
<ele>430.5</ele>
<time>2003-05-17T11:58:47Z</time>
<speed>1.4</speed>
</trkpt>
<trkpt lat="47.507160" lon="8.494148">
<ele>431.0</ele>
<time>2003-05-17T11:58:52Z</time>
<speed>1.4</speed>
</trkpt>
<trkpt lat="47.507217" lon="8.494171">
<ele>430.7</ele>
<time>2003-05-17T11:58:57Z</time>
<speed>1.4</speed>
</trkpt>
<trkpt lat="47.507292" lon="8.494182">
<ele>431.1</ele>
<time>2003-05-17T11:59:02Z</time>
<speed>1.4</speed>
</trkpt>
<trkpt lat="47.507356" lon="8.494192">
<ele>431.4</ele>
<time>2003-05-17T11:59:07Z</time>
<speed>1.4</speed>
</trkpt>
<trkpt lat="47.507425" lon="8.494204">
<ele>431.1</ele>
<time>2003-05-17T11:59:12Z</time>
<speed>1.4</speed>
</trkpt>
<trkpt lat="47.507495" lon="8.494216">
<ele>430.8</ele>
<time>2003-05-17T11:59:17Z</time>
<speed>1.4</speed>
</trkpt>
<trkpt lat="47.507552" lon="8.494226">
<ele>430.4</ele>
<time>2003-05-17T11:59:22Z</time>
<speed>1.1</speed>
</trkpt>
<trkpt lat="47.507614" lon="8.494248">
<ele>430.9</ele>
<time>2003-05-17T11:59:27Z</time>
<speed>1.1</speed>
</trkpt>
<trkpt lat="47.507684" lon="8.494260">
<ele>430.5</ele>
<time>2003-05-17T11:59:32Z</time>
<speed>1.4</speed>
</trkpt>
<trkpt lat="47.507746" lon="8.494283">
<ele>431.0</ele>
<time>2003-05-17T11:59:37Z</time>
<speed>1.1</speed>
</trkpt>
<trkpt lat="47.507802" lon="8.494306">
<ele>430.7</ele>
<time>2003-05-17T11:59:42Z</time>
<speed>1.4</speed>
</trkpt>
<trkpt lat="47.507871" lon="8.494331">
<ele>430.5</ele>
<time>2003-05-17T11:59:47Z</time>
<speed>1.1</speed>
</trkpt>
<trkpt lat="47.507933" lon="8.494354">
<ele>430.9</ele>
<time>2003-05-17T11:59:52Z</time>
<speed>1.1</speed>
</trkpt>
<trkpt lat="47.507989" lon="8.494377">
<ele>430.6</ele>
<time>2003-05-17T11:59:57Z</time>
<speed>1.1</speed>
</trkpt>
<trkpt lat="47.508059" lon="8.494387">
<ele>431.7</ele>
<time>2003-05-17T12:00:02Z</time>
<speed>1.1</speed>
</trkpt>
<trkpt lat="47.508121" lon="8.494410">
<ele>432.2</ele>
<time>2003-05-17T12:00:07Z</time>
<speed>1.4</speed>
</trkpt>
<trkpt lat="47.508191" lon="8.494421">
<ele>431.8</ele>
<time>2003-05-17T12:00:12Z</time>
<speed>1.1</speed>
</trkpt>
<trkpt lat="47.508259" lon="8.494444">
<ele>433.0</ele>
<time>2003-05-17T12:00:17Z</time>
<speed>1.1</speed>
</trkpt>
<trkpt lat="47.508321" lon="8.494467">
<ele>433.5</ele>
<time>2003-05-17T12:00:22Z</time>
<speed>1.4</speed>
</trkpt>
<trkpt lat="47.508383" lon="8.494490">
<ele>433.9</ele>
<time>2003-05-17T12:00:27Z</time>
<speed>1.4</speed>
</trkpt>
<trkpt lat="47.508446" lon="8.494500">
<ele>434.3</ele>
<time>2003-05-17T12:00:32Z</time>
<speed>1.4</speed>
</trkpt>
<trkpt lat="47.508503" lon="8.494510">
<ele>433.9</ele>
<time>2003-05-17T12:00:37Z</time>
<speed>1.1</speed>
</trkpt>
<trkpt lat="47.508567" lon="8.494520">
<ele>434.2</ele>
<time>2003-05-17T12:00:42Z</time>
<speed>1.4</speed>
</trkpt>
<trkpt lat="47.508630" lon="8.494531">
<ele>433.2</ele>
<time>2003-05-17T12:00:47Z</time>
<speed>1.4</speed>
</trkpt>
<trkpt lat="47.508693" lon="8.494541">
<ele>433.5</ele>
<time>2003-05-17T12:00:52Z</time>
<speed>1.4</speed>
</trkpt>
<trkpt lat="47.508756" lon="8.494564">
<ele>433.9</ele>
<time>2003-05-17T12:00:57Z</time>
<speed>1.4</speed>
</trkpt>
<trkpt lat="47.508819" lon="8.494574">
<ele>434.3</ele>
<time>2003-05-17T12:01:02Z</time>
<speed>1.4</speed>
</trkpt>
<trkpt lat="47.508887" lon="8.494597">
<ele>435.5</ele>
<time>2003-05-17T12:01:07Z</time>
<speed>1.1</speed>
</trkpt>
<trkpt lat="47.508944" lon="8.494607">
<ele>435.1</ele>
<time>2003-05-17T12:01:12Z</time>
<speed>1.4</speed>
</trkpt>
<trkpt lat="47.509006" lon="8.494629">
<ele>435.5</ele>
<time>2003-05-17T12:01:17Z</time>
<speed>1.1</speed>
</trkpt>
<trkpt lat="47.509069" lon="8.494652">
<ele>436.0</ele>
<time>2003-05-17T12:01:22Z</time>
<speed>1.4</speed>
</trkpt>
<trkpt lat="47.509132" lon="8.494662">
<ele>436.3</ele>
<time>2003-05-17T12:01:27Z</time>
<speed>1.1</speed>
</trkpt>
<trkpt lat="47.509201" lon="8.494687">
<ele>436.1</ele>
<time>2003-05-17T12:01:32Z</time>
<speed>1.1</speed>
</trkpt>
<trkpt lat="47.509251" lon="8.494695">
<ele>436.4</ele>
<time>2003-05-17T12:01:37Z</time>
<speed>1.1</speed>
</trkpt>
<trkpt lat="47.509314" lon="8.494705">
<ele>436.7</ele>
<time>2003-05-17T12:01:42Z</time>
<speed>1.4</speed>
</trkpt>
<trkpt lat="47.509376" lon="8.494728">
<ele>437.2</ele>
<time>2003-05-17T12:01:47Z</time>
<speed>1.4</speed>
</trkpt>
<trkpt lat="47.509440" lon="8.494738">
<ele>437.5</ele>
<time>2003-05-17T12:01:52Z</time>
<speed>1.1</speed>
</trkpt>
<trkpt lat="47.509501" lon="8.494774">
<ele>438.1</ele>
<time>2003-05-17T12:01:57Z</time>
<speed>1.4</speed>
</trkpt>
<trkpt lat="47.509571" lon="8.494785">
<ele>437.7</ele>
<time>2003-05-17T12:02:02Z</time>
<speed>1.4</speed>
</trkpt>
<trkpt lat="47.509640" lon="8.494795">
<ele>438.8</ele>
<time>2003-05-17T12:02:07Z</time>
<speed>1.4</speed>
</trkpt>
<trkpt lat="47.509703" lon="8.494805">
<ele>439.2</ele>
<time>2003-05-17T12:02:12Z</time>
<speed>1.4</speed>
</trkpt>
<trkpt lat="47.509765" lon="8.494828">
<ele>439.6</ele>
<time>2003-05-17T12:02:17Z</time>
<speed>1.1</speed>
</trkpt>
<trkpt lat="47.509835" lon="8.494840">
<ele>439.3</ele>
<time>2003-05-17T12:02:22Z</time>
<speed>1.4</speed>
</trkpt>
<trkpt lat="47.509897" lon="8.494863">
<ele>439.7</ele>
<time>2003-05-17T12:02:27Z</time>
<speed>1.4</speed>
</trkpt>
<trkpt lat="47.509967" lon="8.494874">
<ele>439.4</ele>
<time>2003-05-17T12:02:32Z</time>
<speed>1.4</speed>
</trkpt>
<trkpt lat="47.510022" lon="8.494910">
<ele>439.2</ele>
<time>2003-05-17T12:02:37Z</time>
<speed>1.1</speed>
</trkpt>
<trkpt lat="47.510075" lon="8.494973">
<ele>439.2</ele>
<time>2003-05-17T12:02:42Z</time>
<speed>1.1</speed>
</trkpt>
<trkpt lat="47.510088" lon="8.495055">
<ele>439.2</ele>
<time>2003-05-17T12:02:47Z</time>
<speed>1.1</speed>
</trkpt>
<trkpt lat="47.510074" lon="8.495160">
<ele>439.3</ele>
<time>2003-05-17T12:02:52Z</time>
<speed>1.1</speed>
</trkpt>
<trkpt lat="47.510062" lon="8.495252">
<ele>439.3</ele>
<time>2003-05-17T12:02:57Z</time>
<speed>1.1</speed>
</trkpt>
<trkpt lat="47.510055" lon="8.495346">
<ele>438.6</ele>
<time>2003-05-17T12:03:02Z</time>
<speed>1.4</speed>
</trkpt>
<trkpt lat="47.510049" lon="8.495440">
<ele>437.9</ele>
<time>2003-05-17T12:03:07Z</time>
<speed>1.1</speed>
</trkpt>
<trkpt lat="47.510049" lon="8.495536">
<ele>436.5</ele>
<time>2003-05-17T12:03:12Z</time>
<speed>1.4</speed>
</trkpt>
<trkpt lat="47.510042" lon="8.495628">
<ele>437.2</ele>
<time>2003-05-17T12:03:17Z</time>
<speed>1.4</speed>
</trkpt>
<trkpt lat="47.510035" lon="8.495735">
<ele>436.6</ele>
<time>2003-05-17T12:03:22Z</time>
<speed>1.4</speed>
</trkpt>
<trkpt lat="47.510028" lon="8.495829">
<ele>435.9</ele>
<time>2003-05-17T12:03:27Z</time>
<speed>1.1</speed>
</trkpt>
<trkpt lat="47.510035" lon="8.495924">
<ele>435.2</ele>
<time>2003-05-17T12:03:32Z</time>
<speed>1.4</speed>
</trkpt>
<trkpt lat="47.510035" lon="8.496020">
<ele>433.8</ele>
<time>2003-05-17T12:03:37Z</time>
<speed>1.1</speed>
</trkpt>
<trkpt lat="47.510022" lon="8.496114">
<ele>432.4</ele>
<time>2003-05-17T12:03:42Z</time>
<speed>1.4</speed>
</trkpt>
<trkpt lat="47.510023" lon="8.496210">
<ele>431.0</ele>
<time>2003-05-17T12:03:47Z</time>
<speed>1.4</speed>
</trkpt>
<trkpt lat="47.510029" lon="8.496306">
<ele>430.4</ele>
<time>2003-05-17T12:03:52Z</time>
<speed>1.4</speed>
</trkpt>
<trkpt lat="47.510028" lon="8.496415">
<ele>429.1</ele>
<time>2003-05-17T12:03:57Z</time>
<speed>1.4</speed>
</trkpt>
<trkpt lat="47.510028" lon="8.496509">
<ele>429.1</ele>
<time>2003-05-17T12:04:02Z</time>
<speed>1.4</speed>
</trkpt>
<trkpt lat="47.510020" lon="8.496616">
<ele>428.5</ele>
<time>2003-05-17T12:04:07Z</time>
<speed>1.4</speed>
</trkpt>
<trkpt lat="47.510020" lon="8.496725">
<ele>427.3</ele>
<time>2003-05-17T12:04:12Z</time>
<speed>1.1</speed>
</trkpt>
<trkpt lat="47.510021" lon="8.496807">
<ele>425.8</ele>
<time>2003-05-17T12:04:17Z</time>
<speed>1.4</speed>
</trkpt>
<trkpt lat="47.510020" lon="8.496901">
<ele>425.8</ele>
<time>2003-05-17T12:04:22Z</time>
<speed>1.4</speed>
</trkpt>
<trkpt lat="47.510021" lon="8.496997">
<ele>424.4</ele>
<time>2003-05-17T12:04:27Z</time>
<speed>1.1</speed>
</trkpt>
<trkpt lat="47.510027" lon="8.497093">
<ele>423.8</ele>
<time>2003-05-17T12:04:32Z</time>
<speed>1.4</speed>
</trkpt>
<trkpt lat="47.510027" lon="8.497187">
<ele>423.8</ele>
<time>2003-05-17T12:04:37Z</time>
<speed>1.4</speed>
</trkpt>
<trkpt lat="47.510026" lon="8.497280">
<ele>423.9</ele>
<time>2003-05-17T12:04:42Z</time>
<speed>1.4</speed>
</trkpt>
<trkpt lat="47.510045" lon="8.497378">
<ele>423.3</ele>
<time>2003-05-17T12:04:47Z</time>
<speed>1.4</speed>
</trkpt>
<trkpt lat="47.510052" lon="8.497461">
<ele>422.6</ele>
<time>2003-05-17T12:04:52Z</time>
<speed>1.4</speed>
</trkpt>
<trkpt lat="47.510106" lon="8.497525">
<ele>421.2</ele>
<time>2003-05-17T12:04:57Z</time>
<speed>1.1</speed>
</trkpt>
<trkpt lat="47.510176" lon="8.497537">
<ele>420.8</ele>
<time>2003-05-17T12:05:02Z</time>
<speed>1.4</speed>
</trkpt>
<trkpt lat="47.510239" lon="8.497549">
<ele>419.8</ele>
<time>2003-05-17T12:05:07Z</time>
<speed>1.1</speed>
</trkpt>
<trkpt lat="47.510303" lon="8.497559">
<ele>420.1</ele>
<time>2003-05-17T12:05:12Z</time>
<speed>1.4</speed>
</trkpt>
<trkpt lat="47.510374" lon="8.497544">
<ele>419.6</ele>
<time>2003-05-17T12:05:17Z</time>
<speed>1.4</speed>
</trkpt>
<trkpt lat="47.510438" lon="8.497554">
<ele>420.0</ele>
<time>2003-05-17T12:05:22Z</time>
<speed>1.4</speed>
</trkpt>
<trkpt lat="47.510502" lon="8.497551">
<ele>420.2</ele>
<time>2003-05-17T12:05:27Z</time>
<speed>1.4</speed>
</trkpt>
<trkpt lat="47.510585" lon="8.497549">
<ele>421.3</ele>
<time>2003-05-17T12:05:33Z</time>
<speed>1.4</speed>
</trkpt>
<trkpt lat="47.510648" lon="8.497559">
<ele>421.6</ele>
<time>2003-05-17T12:05:38Z</time>
<speed>1.4</speed>
</trkpt>
<trkpt lat="47.510718" lon="8.497558">
<ele>421.2</ele>
<time>2003-05-17T12:05:43Z</time>
<speed>1.7</speed>
</trkpt>
<trkpt lat="47.510783" lon="8.497554">
<ele>421.4</ele>
<time>2003-05-17T12:05:48Z</time>
<speed>1.4</speed>
</trkpt>
<trkpt lat="47.510838" lon="8.497575">
<ele>422.6</ele>
<time>2003-05-17T12:05:53Z</time>
<speed>1.1</speed>
</trkpt>
<trkpt lat="47.510889" lon="8.497583">
<ele>422.8</ele>
<time>2003-05-17T12:05:58Z</time>
<speed>1.1</speed>
</trkpt>
<trkpt lat="47.510953" lon="8.497580">
<ele>423.1</ele>
<time>2003-05-17T12:06:03Z</time>
<speed>1.1</speed>
</trkpt>
<trkpt lat="47.511030" lon="8.497578">
<ele>423.4</ele>
<time>2003-05-17T12:06:08Z</time>
<speed>1.4</speed>
</trkpt>
<trkpt lat="47.511095" lon="8.497562">
<ele>423.5</ele>
<time>2003-05-17T12:06:13Z</time>
<speed>1.4</speed>
</trkpt>
<trkpt lat="47.511152" lon="8.497572">
<ele>423.1</ele>
<time>2003-05-17T12:06:18Z</time>
<speed>1.1</speed>
</trkpt>
<trkpt lat="47.511222" lon="8.497568">
<ele>424.1</ele>
<time>2003-05-17T12:06:23Z</time>
<speed>1.4</speed>
</trkpt>
<trkpt lat="47.511292" lon="8.497580">
<ele>423.8</ele>
<time>2003-05-17T12:06:28Z</time>
<speed>1.1</speed>
</trkpt>
<trkpt lat="47.511357" lon="8.497564">
<ele>424.0</ele>
<time>2003-05-17T12:06:33Z</time>
<speed>1.1</speed>
</trkpt>
<trkpt lat="47.511428" lon="8.497562">
<ele>423.5</ele>
<time>2003-05-17T12:06:38Z</time>
<speed>1.4</speed>
</trkpt>
<trkpt lat="47.511485" lon="8.497572">
<ele>423.1</ele>
<time>2003-05-17T12:06:43Z</time>
<speed>1.1</speed>
</trkpt>
<trkpt lat="47.511549" lon="8.497569">
<ele>423.4</ele>
<time>2003-05-17T12:06:48Z</time>
<speed>1.4</speed>
</trkpt>
<trkpt lat="47.511606" lon="8.497579">
<ele>423.0</ele>
<time>2003-05-17T12:06:53Z</time>
<speed>1.1</speed>
</trkpt>
<trkpt lat="47.511664" lon="8.497575">
<ele>422.5</ele>
<time>2003-05-17T12:06:58Z</time>
<speed>1.4</speed>
</trkpt>
<trkpt lat="47.511728" lon="8.497572">
<ele>422.8</ele>
<time>2003-05-17T12:07:03Z</time>
<speed>1.4</speed>
</trkpt>
<trkpt lat="47.511786" lon="8.497567">
<ele>423.7</ele>
<time>2003-05-17T12:07:08Z</time>
<speed>1.4</speed>
</trkpt>
<trkpt lat="47.511849" lon="8.497577">
<ele>424.0</ele>
<time>2003-05-17T12:07:13Z</time>
<speed>1.1</speed>
</trkpt>
<trkpt lat="47.511900" lon="8.497584">
<ele>424.3</ele>
<time>2003-05-17T12:07:18Z</time>
<speed>1.1</speed>
</trkpt>
<trkpt lat="47.511964" lon="8.497581">
<ele>424.5</ele>
<time>2003-05-17T12:07:23Z</time>
<speed>1.1</speed>
</trkpt>
<trkpt lat="47.512028" lon="8.497578">
<ele>424.8</ele>
<time>2003-05-17T12:07:28Z</time>
<speed>1.4</speed>
</trkpt>
<trkpt lat="47.512092" lon="8.497575">
<ele>425.0</ele>
<time>2003-05-17T12:07:33Z</time>
<speed>1.4</speed>
</trkpt>
<trkpt lat="47.512161" lon="8.497584">
<ele>426.1</ele>
<time>2003-05-17T12:07:38Z</time>
<speed>1.1</speed>
</trkpt>
<trkpt lat="47.512224" lon="8.497594">
<ele>426.5</ele>
<time>2003-05-17T12:07:43Z</time>
<speed>1.4</speed>
</trkpt>
<trkpt lat="47.512289" lon="8.497591">
<ele>426.7</ele>
<time>2003-05-17T12:07:48Z</time>
<speed>1.1</speed>
</trkpt>
<trkpt lat="47.512346" lon="8.497586">
<ele>427.6</ele>
<time>2003-05-17T12:07:53Z</time>
<speed>1.1</speed>
</trkpt>
<trkpt lat="47.512410" lon="8.497582">
<ele>427.9</ele>
<time>2003-05-17T12:07:58Z</time>
<speed>1.4</speed>
</trkpt>
<trkpt lat="47.512461" lon="8.497590">
<ele>428.2</ele>
<time>2003-05-17T12:08:03Z</time>
<speed>1.1</speed>
</trkpt>
<trkpt lat="47.512494" lon="8.497664">
<ele>427.5</ele>
<time>2003-05-17T12:08:08Z</time>
<speed>1.1</speed>
</trkpt>
<trkpt lat="47.512501" lon="8.497744">
<ele>428.1</ele>
<time>2003-05-17T12:08:13Z</time>
<speed>1.4</speed>
</trkpt>
<trkpt lat="47.512489" lon="8.497823">
<ele>428.0</ele>
<time>2003-05-17T12:08:18Z</time>
<speed>0.8</speed>
</trkpt>
<trkpt lat="47.512483" lon="8.497902">
<ele>428.6</ele>
<time>2003-05-17T12:08:23Z</time>
<speed>1.1</speed>
</trkpt>
<trkpt lat="47.512478" lon="8.497983">
<ele>427.8</ele>
<time>2003-05-17T12:08:28Z</time>
<speed>1.1</speed>
</trkpt>
<trkpt lat="47.512452" lon="8.498073">
<ele>427.7</ele>
<time>2003-05-17T12:08:33Z</time>
<speed>1.1</speed>
</trkpt>
<trkpt lat="47.512432" lon="8.498176">
<ele>428.4</ele>
<time>2003-05-17T12:08:38Z</time>
<speed>1.4</speed>
</trkpt>
<trkpt lat="47.512419" lon="8.498267">
<ele>428.4</ele>
<time>2003-05-17T12:08:43Z</time>
<speed>1.1</speed>
</trkpt>
<trkpt lat="47.512400" lon="8.498359">
<ele>427.6</ele>
<time>2003-05-17T12:08:48Z</time>
<speed>1.1</speed>
</trkpt>
<trkpt lat="47.512388" lon="8.498438">
<ele>427.5</ele>
<time>2003-05-17T12:08:53Z</time>
<speed>1.1</speed>
</trkpt>
<trkpt lat="47.512374" lon="8.498543">
<ele>427.5</ele>
<time>2003-05-17T12:08:58Z</time>
<speed>1.1</speed>
</trkpt>
<trkpt lat="47.512355" lon="8.498635">
<ele>426.7</ele>
<time>2003-05-17T12:09:03Z</time>
<speed>1.1</speed>
</trkpt>
<trkpt lat="47.512336" lon="8.498727">
<ele>426.0</ele>
<time>2003-05-17T12:09:08Z</time>
<speed>1.4</speed>
</trkpt>
<trkpt lat="47.512329" lon="8.498834">
<ele>425.4</ele>
<time>2003-05-17T12:09:13Z</time>
<speed>1.1</speed>
</trkpt>
<trkpt lat="47.512316" lon="8.498926">
<ele>425.3</ele>
<time>2003-05-17T12:09:18Z</time>
<speed>1.1</speed>
</trkpt>
<trkpt lat="47.512297" lon="8.499018">
<ele>424.5</ele>
<time>2003-05-17T12:09:23Z</time>
<speed>1.4</speed>
</trkpt>
<trkpt lat="47.512284" lon="8.499110">
<ele>424.5</ele>
<time>2003-05-17T12:09:28Z</time>
<speed>1.1</speed>
</trkpt>
<trkpt lat="47.512277" lon="8.499204">
<ele>423.8</ele>
<time>2003-05-17T12:09:33Z</time>
<speed>1.1</speed>
</trkpt>
<trkpt lat="47.512271" lon="8.499297">
<ele>423.1</ele>
<time>2003-05-17T12:09:38Z</time>
<speed>1.1</speed>
</trkpt>
<trkpt lat="47.512265" lon="8.499391">
<ele>422.4</ele>
<time>2003-05-17T12:09:43Z</time>
<speed>1.4</speed>
</trkpt>
<trkpt lat="47.512257" lon="8.499498">
<ele>421.8</ele>
<time>2003-05-17T12:09:48Z</time>
<speed>1.4</speed>
</trkpt>
<trkpt lat="47.512251" lon="8.499592">
<ele>421.1</ele>
<time>2003-05-17T12:09:53Z</time>
<speed>1.1</speed>
</trkpt>
<trkpt lat="47.512251" lon="8.499688">
<ele>419.7</ele>
<time>2003-05-17T12:09:58Z</time>
<speed>1.1</speed>
</trkpt>
<trkpt lat="47.512251" lon="8.499782">
<ele>419.7</ele>
<time>2003-05-17T12:10:03Z</time>
<speed>1.4</speed>
</trkpt>
<trkpt lat="47.512251" lon="8.499878">
<ele>418.3</ele>
<time>2003-05-17T12:10:08Z</time>
<speed>1.4</speed>
</trkpt>
<trkpt lat="47.512265" lon="8.499962">
<ele>416.9</ele>
<time>2003-05-17T12:10:13Z</time>
<speed>1.4</speed>
</trkpt>
<trkpt lat="47.512263" lon="8.500069">
<ele>417.1</ele>
<time>2003-05-17T12:10:18Z</time>
<speed>1.4</speed>
</trkpt>
<trkpt lat="47.512270" lon="8.500165">
<ele>416.4</ele>
<time>2003-05-17T12:10:23Z</time>
<speed>1.1</speed>
</trkpt>
<trkpt lat="47.512277" lon="8.500248">
<ele>415.7</ele>
<time>2003-05-17T12:10:28Z</time>
<speed>1.1</speed>
</trkpt>
<trkpt lat="47.512282" lon="8.500357">
<ele>415.2</ele>
<time>2003-05-17T12:10:33Z</time>
<speed>1.4</speed>
</trkpt>
<trkpt lat="47.512282" lon="8.500453">
<ele>413.8</ele>
<time>2003-05-17T12:10:38Z</time>
<speed>1.1</speed>
</trkpt>
<trkpt lat="47.512289" lon="8.500548">
<ele>413.2</ele>
<time>2003-05-17T12:10:43Z</time>
<speed>1.1</speed>
</trkpt>
<trkpt lat="47.512295" lon="8.500644">
<ele>412.5</ele>
<time>2003-05-17T12:10:48Z</time>
<speed>1.4</speed>
</trkpt>
<trkpt lat="47.512300" lon="8.500753">
<ele>412.0</ele>
<time>2003-05-17T12:10:53Z</time>
<speed>1.4</speed>
</trkpt>
<trkpt lat="47.512305" lon="8.500862">
<ele>411.4</ele>
<time>2003-05-17T12:10:58Z</time>
<speed>1.4</speed>
</trkpt>
<trkpt lat="47.512318" lon="8.500960">
<ele>410.1</ele>
<time>2003-05-17T12:11:03Z</time>
<speed>1.4</speed>
</trkpt>
<trkpt lat="47.512331" lon="8.501058">
<ele>408.8</ele>
<time>2003-05-17T12:11:08Z</time>
<speed>1.1</speed>
</trkpt>
<trkpt lat="47.512337" lon="8.501154">
<ele>408.2</ele>
<time>2003-05-17T12:11:13Z</time>
<speed>1.4</speed>
</trkpt>
<trkpt lat="47.512356" lon="8.501251">
<ele>407.6</ele>
<time>2003-05-17T12:11:18Z</time>
<speed>1.4</speed>
</trkpt>
<trkpt lat="47.512361" lon="8.501360">
<ele>407.1</ele>
<time>2003-05-17T12:11:23Z</time>
<speed>1.7</speed>
</trkpt>
<trkpt lat="47.512365" lon="8.501480">
<ele>408.1</ele>
<time>2003-05-17T12:11:28Z</time>
<speed>1.4</speed>
</trkpt>
<trkpt lat="47.512371" lon="8.501589">
<ele>407.5</ele>
<time>2003-05-17T12:11:33Z</time>
<speed>1.7</speed>
</trkpt>
<trkpt lat="47.512377" lon="8.501685">
<ele>406.9</ele>
<time>2003-05-17T12:11:38Z</time>
<speed>1.4</speed>
</trkpt>
<trkpt lat="47.512381" lon="8.501805">
<ele>407.8</ele>
<time>2003-05-17T12:11:43Z</time>
<speed>1.4</speed>
</trkpt>
<trkpt lat="47.512387" lon="8.501901">
<ele>407.2</ele>
<time>2003-05-17T12:11:48Z</time>
<speed>1.7</speed>
</trkpt>
<trkpt lat="47.512388" lon="8.501984">
<ele>405.7</ele>
<time>2003-05-17T12:11:53Z</time>
<speed>1.1</speed>
</trkpt>
<trkpt lat="47.512362" lon="8.502010">
<ele>403.0</ele>
<time>2003-05-17T12:11:58Z</time>
<speed>1.1</speed>
</trkpt>
<trkpt lat="47.512310" lon="8.502031">
<ele>401.5</ele>
<time>2003-05-17T12:12:03Z</time>
<speed>1.1</speed>
</trkpt>
<trkpt lat="47.512252" lon="8.502036">
<ele>400.6</ele>
<time>2003-05-17T12:12:08Z</time>
<speed>1.4</speed>
</trkpt>
<trkpt lat="47.512174" lon="8.502050">
<ele>400.4</ele>
<time>2003-05-17T12:12:13Z</time>
<speed>1.4</speed>
</trkpt>
<trkpt lat="47.512110" lon="8.502054">
<ele>400.1</ele>
<time>2003-05-17T12:12:18Z</time>
<speed>1.4</speed>
</trkpt>
<trkpt lat="47.512039" lon="8.502070">
<ele>399.2</ele>
<time>2003-05-17T12:12:23Z</time>
<speed>1.1</speed>
</trkpt>
<trkpt lat="47.511975" lon="8.502073">
<ele>399.0</ele>
<time>2003-05-17T12:12:28Z</time>
<speed>1.4</speed>
</trkpt>
<trkpt lat="47.511911" lon="8.502077">
<ele>398.7</ele>
<time>2003-05-17T12:12:33Z</time>
<speed>1.1</speed>
</trkpt>
<trkpt lat="47.511833" lon="8.502091">
<ele>398.5</ele>
<time>2003-05-17T12:12:38Z</time>
<speed>1.1</speed>
</trkpt>
<trkpt lat="47.511769" lon="8.502079">
<ele>399.6</ele>
<time>2003-05-17T12:12:43Z</time>
<speed>1.1</speed>
</trkpt>
<trkpt lat="47.511705" lon="8.502083">
<ele>399.3</ele>
<time>2003-05-17T12:12:48Z</time>
<speed>1.4</speed>
</trkpt>
<trkpt lat="47.511647" lon="8.502086">
<ele>399.8</ele>
<time>2003-05-17T12:12:53Z</time>
<speed>1.1</speed>
</trkpt>
<trkpt lat="47.511586" lon="8.502144">
<ele>399.3</ele>
<time>2003-05-17T12:12:59Z</time>
<speed>1.1</speed>
</trkpt>
<trkpt lat="47.511584" lon="8.502251">
<ele>399.4</ele>
<time>2003-05-17T12:13:04Z</time>
<speed>1.7</speed>
</trkpt>
<trkpt lat="47.511610" lon="8.502335">
<ele>399.5</ele>
<time>2003-05-17T12:13:09Z</time>
<speed>1.4</speed>
</trkpt>
<trkpt lat="47.511643" lon="8.502422">
<ele>398.9</ele>
<time>2003-05-17T12:13:14Z</time>
<speed>1.4</speed>
</trkpt>
<trkpt lat="47.511681" lon="8.502509">
<ele>399.1</ele>
<time>2003-05-17T12:13:19Z</time>
<speed>1.4</speed>
</trkpt>
<trkpt lat="47.511707" lon="8.502593">
<ele>399.1</ele>
<time>2003-05-17T12:13:24Z</time>
<speed>1.4</speed>
</trkpt>
<trkpt lat="47.511746" lon="8.502680">
<ele>399.3</ele>
<time>2003-05-17T12:13:29Z</time>
<speed>1.4</speed>
</trkpt>
<trkpt lat="47.511772" lon="8.502765">
<ele>399.3</ele>
<time>2003-05-17T12:13:34Z</time>
<speed>1.4</speed>
</trkpt>
<trkpt lat="47.511803" lon="8.502864">
<ele>398.8</ele>
<time>2003-05-17T12:13:39Z</time>
<speed>1.4</speed>
</trkpt>
<trkpt lat="47.511842" lon="8.502951">
<ele>399.0</ele>
<time>2003-05-17T12:13:44Z</time>
<speed>1.4</speed>
</trkpt>
<trkpt lat="47.511868" lon="8.503036">
<ele>399.0</ele>
<time>2003-05-17T12:13:49Z</time>
<speed>1.4</speed>
</trkpt>
<trkpt lat="47.511900" lon="8.503122">
<ele>398.5</ele>
<time>2003-05-17T12:13:54Z</time>
<speed>1.4</speed>
</trkpt>
<trkpt lat="47.511940" lon="8.503196">
<ele>398.5</ele>
<time>2003-05-17T12:13:59Z</time>
<speed>1.7</speed>
</trkpt>
<trkpt lat="47.511971" lon="8.503296">
<ele>398.0</ele>
<time>2003-05-17T12:14:04Z</time>
<speed>1.4</speed>
</trkpt>
<trkpt lat="47.511997" lon="8.503380">
<ele>398.1</ele>
<time>2003-05-17T12:14:09Z</time>
<speed>1.4</speed>
</trkpt>
<trkpt lat="47.512029" lon="8.503465">
<ele>398.9</ele>
<time>2003-05-17T12:14:14Z</time>
<speed>1.4</speed>
</trkpt>
<trkpt lat="47.512060" lon="8.503563">
<ele>399.8</ele>
<time>2003-05-17T12:14:19Z</time>
<speed>1.4</speed>
</trkpt>
<trkpt lat="47.512094" lon="8.503636">
<ele>399.1</ele>
<time>2003-05-17T12:14:24Z</time>
<speed>1.4</speed>
</trkpt>
<trkpt lat="47.512133" lon="8.503723">
<ele>399.2</ele>
<time>2003-05-17T12:14:29Z</time>
<speed>1.1</speed>
</trkpt>
<trkpt lat="47.512159" lon="8.503794">
<ele>399.2</ele>
<time>2003-05-17T12:14:34Z</time>
<speed>1.4</speed>
</trkpt>
<trkpt lat="47.512198" lon="8.503881">
<ele>399.3</ele>
<time>2003-05-17T12:14:39Z</time>
<speed>1.1</speed>
</trkpt>
<trkpt lat="47.512224" lon="8.503966">
<ele>399.4</ele>
<time>2003-05-17T12:14:44Z</time>
<speed>1.4</speed>
</trkpt>
<trkpt lat="47.512255" lon="8.504065">
<ele>398.9</ele>
<time>2003-05-17T12:14:49Z</time>
<speed>1.4</speed>
</trkpt>
<trkpt lat="47.512294" lon="8.504152">
<ele>399.0</ele>
<time>2003-05-17T12:14:54Z</time>
<speed>1.7</speed>
</trkpt>
<trkpt lat="47.512319" lon="8.504250">
<ele>399.2</ele>
<time>2003-05-17T12:14:59Z</time>
<speed>1.4</speed>
</trkpt>
<trkpt lat="47.512352" lon="8.504323">
<ele>398.5</ele>
<time>2003-05-17T12:15:04Z</time>
<speed>1.4</speed>
</trkpt>
<trkpt lat="47.512390" lon="8.504423">
<ele>398.8</ele>
<time>2003-05-17T12:15:09Z</time>
<speed>1.4</speed>
</trkpt>
<trkpt lat="47.512422" lon="8.504508">
<ele>399.6</ele>
<time>2003-05-17T12:15:14Z</time>
<speed>1.4</speed>
</trkpt>
<trkpt lat="47.512454" lon="8.504607">
<ele>399.1</ele>
<time>2003-05-17T12:15:19Z</time>
<speed>1.4</speed>
</trkpt>
<trkpt lat="47.512480" lon="8.504692">
<ele>399.1</ele>
<time>2003-05-17T12:15:24Z</time>
<speed>1.4</speed>
</trkpt>
<trkpt lat="47.512517" lon="8.504792">
<ele>399.4</ele>
<time>2003-05-17T12:15:29Z</time>
<speed>1.4</speed>
</trkpt>
<trkpt lat="47.512543" lon="8.504877">
<ele>399.4</ele>
<time>2003-05-17T12:15:34Z</time>
<speed>1.4</speed>
</trkpt>
<trkpt lat="47.512569" lon="8.504961">
<ele>399.5</ele>
<time>2003-05-17T12:15:39Z</time>
<speed>1.4</speed>
</trkpt>
<trkpt lat="47.512603" lon="8.505020">
<ele>400.1</ele>
<time>2003-05-17T12:15:44Z</time>
<speed>1.4</speed>
</trkpt>
<trkpt lat="47.512672" lon="8.505045">
<ele>399.9</ele>
<time>2003-05-17T12:15:49Z</time>
<speed>1.4</speed>
</trkpt>
<trkpt lat="47.512730" lon="8.505041">
<ele>399.4</ele>
<time>2003-05-17T12:15:54Z</time>
<speed>1.1</speed>
</trkpt>
<trkpt lat="47.512786" lon="8.505064">
<ele>399.1</ele>
<time>2003-05-17T12:15:59Z</time>
<speed>1.4</speed>
</trkpt>
<trkpt lat="47.512832" lon="8.505140">
<ele>398.5</ele>
<time>2003-05-17T12:16:04Z</time>
<speed>1.1</speed>
</trkpt>
<trkpt lat="47.512859" lon="8.505211">
<ele>398.5</ele>
<time>2003-05-17T12:16:09Z</time>
<speed>1.4</speed>
</trkpt>
<trkpt lat="47.512884" lon="8.505309">
<ele>398.6</ele>
<time>2003-05-17T12:16:14Z</time>
<speed>1.4</speed>
</trkpt>
<trkpt lat="47.512910" lon="8.505394">
<ele>398.7</ele>
<time>2003-05-17T12:16:19Z</time>
<speed>1.4</speed>
</trkpt>
<trkpt lat="47.512942" lon="8.505480">
<ele>398.1</ele>
<time>2003-05-17T12:16:24Z</time>
<speed>1.1</speed>
</trkpt>
<trkpt lat="47.512967" lon="8.505578">
<ele>398.3</ele>
<time>2003-05-17T12:16:29Z</time>
<speed>1.4</speed>
</trkpt>
<trkpt lat="47.513005" lon="8.505678">
<ele>398.5</ele>
<time>2003-05-17T12:16:34Z</time>
<speed>1.4</speed>
</trkpt>
<trkpt lat="47.513038" lon="8.505751">
<ele>397.8</ele>
<time>2003-05-17T12:16:39Z</time>
<speed>1.1</speed>
</trkpt>
<trkpt lat="47.513063" lon="8.505849">
<ele>398.0</ele>
<time>2003-05-17T12:16:44Z</time>
<speed>1.4</speed>
</trkpt>
<trkpt lat="47.513102" lon="8.505936">
<ele>398.1</ele>
<time>2003-05-17T12:16:49Z</time>
<speed>1.1</speed>
</trkpt>
<trkpt lat="47.513128" lon="8.506020">
<ele>398.2</ele>
<time>2003-05-17T12:16:54Z</time>
<speed>1.4</speed>
</trkpt>
<trkpt lat="47.513160" lon="8.506107">
<ele>397.6</ele>
<time>2003-05-17T12:16:59Z</time>
<speed>1.4</speed>
</trkpt>
<trkpt lat="47.513199" lon="8.506194">
<ele>397.7</ele>
<time>2003-05-17T12:17:04Z</time>
<speed>1.4</speed>
</trkpt>
<trkpt lat="47.513225" lon="8.506278">
<ele>397.8</ele>
<time>2003-05-17T12:17:09Z</time>
<speed>1.4</speed>
</trkpt>
<trkpt lat="47.513263" lon="8.506378">
<ele>398.0</ele>
<time>2003-05-17T12:17:14Z</time>
<speed>1.4</speed>
</trkpt>
<trkpt lat="47.513296" lon="8.506452">
<ele>397.3</ele>
<time>2003-05-17T12:17:19Z</time>
<speed>1.1</speed>
</trkpt>
<trkpt lat="47.513329" lon="8.506523">
<ele>398.1</ele>
<time>2003-05-17T12:17:24Z</time>
<speed>1.1</speed>
</trkpt>
<trkpt lat="47.513362" lon="8.506597">
<ele>397.4</ele>
<time>2003-05-17T12:17:29Z</time>
<speed>1.4</speed>
</trkpt>
<trkpt lat="47.513394" lon="8.506696">
<ele>396.9</ele>
<time>2003-05-17T12:17:34Z</time>
<speed>1.4</speed>
</trkpt>
<trkpt lat="47.513420" lon="8.506781">
<ele>396.9</ele>
<time>2003-05-17T12:17:39Z</time>
<speed>1.4</speed>
</trkpt>
<trkpt lat="47.513460" lon="8.506855">
<ele>397.0</ele>
<time>2003-05-17T12:17:44Z</time>
<speed>1.4</speed>
</trkpt>
<trkpt lat="47.513522" lon="8.506879">
<ele>396.0</ele>
<time>2003-05-17T12:17:49Z</time>
<speed>1.4</speed>
</trkpt>
<trkpt lat="47.513585" lon="8.506889">
<ele>396.4</ele>
<time>2003-05-17T12:17:54Z</time>
<speed>1.1</speed>
</trkpt>
<trkpt lat="47.513641" lon="8.506831">
<ele>396.1</ele>
<time>2003-05-17T12:17:59Z</time>
<speed>1.4</speed>
</trkpt>
<trkpt lat="47.513695" lon="8.506787">
<ele>396.0</ele>
<time>2003-05-17T12:18:04Z</time>
<speed>1.1</speed>
</trkpt>
<trkpt lat="47.513751" lon="8.506729">
<ele>395.8</ele>
<time>2003-05-17T12:18:09Z</time>
<speed>1.4</speed>
</trkpt>
<trkpt lat="47.513812" lon="8.506686">
<ele>395.0</ele>
<time>2003-05-17T12:18:14Z</time>
<speed>1.1</speed>
</trkpt>
<trkpt lat="47.513867" lon="8.506629">
<ele>394.8</ele>
<time>2003-05-17T12:18:19Z</time>
<speed>1.1</speed>
</trkpt>
<trkpt lat="47.513929" lon="8.506571">
<ele>395.3</ele>
<time>2003-05-17T12:18:24Z</time>
<speed>1.4</speed>
</trkpt>
<trkpt lat="47.513991" lon="8.506515">
<ele>394.4</ele>
<time>2003-05-17T12:18:29Z</time>
<speed>1.1</speed>
</trkpt>
<trkpt lat="47.514046" lon="8.506457">
<ele>394.2</ele>
<time>2003-05-17T12:18:34Z</time>
<speed>1.4</speed>
</trkpt>
<trkpt lat="47.514108" lon="8.506399">
<ele>394.7</ele>
<time>2003-05-17T12:18:39Z</time>
<speed>1.4</speed>
</trkpt>
<trkpt lat="47.514163" lon="8.506342">
<ele>394.5</ele>
<time>2003-05-17T12:18:44Z</time>
<speed>1.1</speed>
</trkpt>
<trkpt lat="47.514210" lon="8.506308">
<ele>395.1</ele>
<time>2003-05-17T12:18:49Z</time>
<speed>1.1</speed>
</trkpt>
<trkpt lat="47.514272" lon="8.506252">
<ele>394.2</ele>
<time>2003-05-17T12:18:54Z</time>
<speed>1.4</speed>
</trkpt>
<trkpt lat="47.514327" lon="8.506194">
<ele>394.0</ele>
<time>2003-05-17T12:18:59Z</time>
<speed>1.4</speed>
</trkpt>
<trkpt lat="47.514388" lon="8.506152">
<ele>393.2</ele>
<time>2003-05-17T12:19:04Z</time>
<speed>1.4</speed>
</trkpt>
<trkpt lat="47.514450" lon="8.506094">
<ele>393.7</ele>
<time>2003-05-17T12:19:09Z</time>
<speed>1.1</speed>
</trkpt>
<trkpt lat="47.514505" lon="8.506036">
<ele>393.5</ele>
<time>2003-05-17T12:19:14Z</time>
<speed>1.4</speed>
</trkpt>
<trkpt lat="47.514559" lon="8.506005">
<ele>393.5</ele>
<time>2003-05-17T12:19:19Z</time>
<speed>1.1</speed>
</trkpt>
<trkpt lat="47.514613" lon="8.505960">
<ele>393.4</ele>
<time>2003-05-17T12:19:24Z</time>
<speed>1.4</speed>
</trkpt>
<trkpt lat="47.514668" lon="8.505915">
<ele>393.3</ele>
<time>2003-05-17T12:19:29Z</time>
<speed>1.1</speed>
</trkpt>
<trkpt lat="47.514729" lon="8.505857">
<ele>393.8</ele>
<time>2003-05-17T12:19:34Z</time>
<speed>1.7</speed>
</trkpt>
<trkpt lat="47.514791" lon="8.505800">
<ele>394.3</ele>
<time>2003-05-17T12:19:39Z</time>
<speed>1.7</speed>
</trkpt>
<trkpt lat="47.514846" lon="8.505742">
<ele>394.1</ele>
<time>2003-05-17T12:19:44Z</time>
<speed>1.4</speed>
</trkpt>
<trkpt lat="47.514907" lon="8.505699">
<ele>393.3</ele>
<time>2003-05-17T12:19:49Z</time>
<speed>1.4</speed>
</trkpt>
<trkpt lat="47.514962" lon="8.505655">
<ele>393.2</ele>
<time>2003-05-17T12:19:54Z</time>
<speed>1.4</speed>
</trkpt>
<trkpt lat="47.515016" lon="8.505610">
<ele>393.0</ele>
<time>2003-05-17T12:19:59Z</time>
<speed>1.4</speed>
</trkpt>
<trkpt lat="47.515064" lon="8.505563">
<ele>393.6</ele>
<time>2003-05-17T12:20:04Z</time>
<speed>1.1</speed>
</trkpt>
<trkpt lat="47.515112" lon="8.505519">
<ele>392.7</ele>
<time>2003-05-17T12:20:09Z</time>
<speed>1.1</speed>
</trkpt>
<trkpt lat="47.515173" lon="8.505474">
<ele>393.3</ele>
<time>2003-05-17T12:20:14Z</time>
<speed>1.4</speed>
</trkpt>
<trkpt lat="47.515214" lon="8.505440">
<ele>393.2</ele>
<time>2003-05-17T12:20:19Z</time>
<speed>0.8</speed>
</trkpt>
<trkpt lat="47.515267" lon="8.505409">
<ele>393.2</ele>
<time>2003-05-17T12:20:24Z</time>
<speed>1.4</speed>
</trkpt>
<trkpt lat="47.515349" lon="8.505419">
<ele>395.8</ele>
<time>2003-05-17T12:20:29Z</time>
<speed>1.1</speed>
</trkpt>
<trkpt lat="47.515385" lon="8.505530">
<ele>397.5</ele>
<time>2003-05-17T12:20:34Z</time>
<speed>1.4</speed>
</trkpt>
<trkpt lat="47.515410" lon="8.505612">
<ele>399.0</ele>
<time>2003-05-17T12:20:39Z</time>
<speed>1.1</speed>
</trkpt>
<trkpt lat="47.515441" lon="8.505710">
<ele>399.9</ele>
<time>2003-05-17T12:20:44Z</time>
<speed>1.4</speed>
</trkpt>
<trkpt lat="47.515467" lon="8.505795">
<ele>400.0</ele>
<time>2003-05-17T12:20:49Z</time>
<speed>1.4</speed>
</trkpt>
<trkpt lat="47.515498" lon="8.505893">
<ele>400.9</ele>
<time>2003-05-17T12:20:54Z</time>
<speed>1.1</speed>
</trkpt>
<trkpt lat="47.515538" lon="8.505966">
<ele>400.9</ele>
<time>2003-05-17T12:20:59Z</time>
<speed>1.4</speed>
</trkpt>
<trkpt lat="47.515595" lon="8.505976">
<ele>400.5</ele>
<time>2003-05-17T12:21:04Z</time>
<speed>1.1</speed>
</trkpt>
<trkpt lat="47.515660" lon="8.505959">
<ele>400.7</ele>
<time>2003-05-17T12:21:09Z</time>
<speed>1.1</speed>
</trkpt>
<trkpt lat="47.515712" lon="8.505956">
<ele>399.5</ele>
<time>2003-05-17T12:21:14Z</time>
<speed>1.1</speed>
</trkpt>
<trkpt lat="47.515771" lon="8.505940">
<ele>398.9</ele>
<time>2003-05-17T12:21:19Z</time>
<speed>1.1</speed>
</trkpt>
<trkpt lat="47.515836" lon="8.505923">
<ele>399.0</ele>
<time>2003-05-17T12:21:24Z</time>
<speed>1.1</speed>
</trkpt>
<trkpt lat="47.515896" lon="8.505894">
<ele>398.3</ele>
<time>2003-05-17T12:21:29Z</time>
<speed>1.1</speed>
</trkpt>
<trkpt lat="47.515961" lon="8.505877">
<ele>398.5</ele>
<time>2003-05-17T12:21:34Z</time>
<speed>1.4</speed>
</trkpt>
<trkpt lat="47.516021" lon="8.505846">
<ele>399.2</ele>
<time>2003-05-17T12:21:39Z</time>
<speed>1.1</speed>
</trkpt>
<trkpt lat="47.516081" lon="8.505816">
<ele>398.5</ele>
<time>2003-05-17T12:21:44Z</time>
<speed>1.1</speed>
</trkpt>
<trkpt lat="47.516140" lon="8.505800">
<ele>397.9</ele>
<time>2003-05-17T12:21:49Z</time>
<speed>1.1</speed>
</trkpt>
<trkpt lat="47.516214" lon="8.505759">
<ele>397.2</ele>
<time>2003-05-17T12:21:54Z</time>
<speed>1.4</speed>
</trkpt>
<trkpt lat="47.516281" lon="8.505716">
<ele>397.1</ele>
<time>2003-05-17T12:21:59Z</time>
<speed>1.4</speed>
</trkpt>
<trkpt lat="47.516341" lon="8.505687">
<ele>396.5</ele>
<time>2003-05-17T12:22:04Z</time>
<speed>1.4</speed>
</trkpt>
<trkpt lat="47.516414" lon="8.505644">
<ele>397.1</ele>
<time>2003-05-17T12:22:09Z</time>
<speed>1.4</speed>
</trkpt>
<trkpt lat="47.516473" lon="8.505628">
<ele>396.5</ele>
<time>2003-05-17T12:22:14Z</time>
<speed>1.1</speed>
</trkpt>
<trkpt lat="47.516526" lon="8.505609">
<ele>396.6</ele>
<time>2003-05-17T12:22:19Z</time>
<speed>1.1</speed>
</trkpt>
<trkpt lat="47.516589" lon="8.505619">
<ele>397.0</ele>
<time>2003-05-17T12:22:25Z</time>
<speed>1.1</speed>
</trkpt>
<trkpt lat="47.516646" lon="8.505614">
<ele>397.9</ele>
<time>2003-05-17T12:22:30Z</time>
<speed>1.4</speed>
</trkpt>
<trkpt lat="47.516699" lon="8.505595">
<ele>398.0</ele>
<time>2003-05-17T12:22:35Z</time>
<speed>1.1</speed>
</trkpt>
<trkpt lat="47.516764" lon="8.505579">
<ele>398.1</ele>
<time>2003-05-17T12:22:40Z</time>
<speed>1.1</speed>
</trkpt>
<trkpt lat="47.516829" lon="8.505562">
<ele>398.3</ele>
<time>2003-05-17T12:22:45Z</time>
<speed>1.4</speed>
</trkpt>
<trkpt lat="47.516895" lon="8.505531">
<ele>399.7</ele>
<time>2003-05-17T12:22:50Z</time>
<speed>1.4</speed>
</trkpt>
<trkpt lat="47.516967" lon="8.505501">
<ele>400.5</ele>
<time>2003-05-17T12:22:55Z</time>
<speed>1.4</speed>
</trkpt>
<trkpt lat="47.517031" lon="8.505496">
<ele>402.2</ele>
<time>2003-05-17T12:23:00Z</time>
<speed>0.8</speed>
</trkpt>
<trkpt lat="47.517089" lon="8.505478">
<ele>403.0</ele>
<time>2003-05-17T12:23:05Z</time>
<speed>0.8</speed>
</trkpt>
<trkpt lat="47.517155" lon="8.505448">
<ele>403.0</ele>
<time>2003-05-17T12:23:10Z</time>
<speed>0.8</speed>
</trkpt>
<trkpt lat="47.517235" lon="8.505407">
<ele>403.0</ele>
<time>2003-05-17T12:23:15Z</time>
<speed>1.1</speed>
</trkpt>
<trkpt lat="47.517306" lon="8.505391">
<ele>403.9</ele>
<time>2003-05-17T12:23:20Z</time>
<speed>1.1</speed>
</trkpt>
<trkpt lat="47.517379" lon="8.505363">
<ele>403.3</ele>
<time>2003-05-17T12:23:25Z</time>
<speed>1.4</speed>
</trkpt>
<trkpt lat="47.517447" lon="8.505323">
<ele>401.8</ele>
<time>2003-05-17T12:23:30Z</time>
<speed>1.4</speed>
</trkpt>
<trkpt lat="47.517500" lon="8.505291">
<ele>401.8</ele>
<time>2003-05-17T12:23:35Z</time>
<speed>1.1</speed>
</trkpt>
<trkpt lat="47.517565" lon="8.505275">
<ele>402.0</ele>
<time>2003-05-17T12:23:40Z</time>
<speed>1.1</speed>
</trkpt>
<trkpt lat="47.517629" lon="8.505271">
<ele>402.2</ele>
<time>2003-05-17T12:23:45Z</time>
<speed>1.4</speed>
</trkpt>
<trkpt lat="47.517695" lon="8.505242">
<ele>402.3</ele>
<time>2003-05-17T12:23:50Z</time>
<speed>1.1</speed>
</trkpt>
<trkpt lat="47.517762" lon="8.505212">
<ele>402.3</ele>
<time>2003-05-17T12:23:55Z</time>
<speed>1.4</speed>
</trkpt>
<trkpt lat="47.517828" lon="8.505182">
<ele>402.4</ele>
<time>2003-05-17T12:24:00Z</time>
<speed>1.4</speed>
</trkpt>
<trkpt lat="47.517875" lon="8.505151">
<ele>401.6</ele>
<time>2003-05-17T12:24:05Z</time>
<speed>1.1</speed>
</trkpt>
<trkpt lat="47.517925" lon="8.505174">
<ele>400.6</ele>
<time>2003-05-17T12:24:10Z</time>
<speed>1.1</speed>
</trkpt>
<trkpt lat="47.517972" lon="8.505234">
<ele>401.3</ele>
<time>2003-05-17T12:24:15Z</time>
<speed>1.1</speed>
</trkpt>
<trkpt lat="47.518004" lon="8.505319">
<ele>402.1</ele>
<time>2003-05-17T12:24:20Z</time>
<speed>1.1</speed>
</trkpt>
<trkpt lat="47.518029" lon="8.505402">
<ele>403.5</ele>
<time>2003-05-17T12:24:25Z</time>
<speed>1.1</speed>
</trkpt>
<trkpt lat="47.518062" lon="8.505488">
<ele>402.9</ele>
<time>2003-05-17T12:24:30Z</time>
<speed>1.1</speed>
</trkpt>
<trkpt lat="47.518094" lon="8.505573">
<ele>403.8</ele>
<time>2003-05-17T12:24:35Z</time>
<speed>1.4</speed>
</trkpt>
<trkpt lat="47.518127" lon="8.505645">
<ele>404.5</ele>
<time>2003-05-17T12:24:40Z</time>
<speed>1.4</speed>
</trkpt>
<trkpt lat="47.518158" lon="8.505744">
<ele>404.0</ele>
<time>2003-05-17T12:24:45Z</time>
<speed>1.4</speed>
</trkpt>
<trkpt lat="47.518184" lon="8.505829">
<ele>404.0</ele>
<time>2003-05-17T12:24:50Z</time>
<speed>1.4</speed>
</trkpt>
<trkpt lat="47.518216" lon="8.505914">
<ele>404.8</ele>
<time>2003-05-17T12:24:55Z</time>
<speed>1.1</speed>
</trkpt>
<trkpt lat="47.518242" lon="8.505998">
<ele>404.9</ele>
<time>2003-05-17T12:25:00Z</time>
<speed>1.4</speed>
</trkpt>
<trkpt lat="47.518274" lon="8.506083">
<ele>405.7</ele>
<time>2003-05-17T12:25:05Z</time>
<speed>1.4</speed>
</trkpt>
<trkpt lat="47.518308" lon="8.506156">
<ele>405.0</ele>
<time>2003-05-17T12:25:10Z</time>
<speed>1.4</speed>
</trkpt>
<trkpt lat="47.518348" lon="8.506217">
<ele>405.0</ele>
<time>2003-05-17T12:25:15Z</time>
<speed>1.1</speed>
</trkpt>
<trkpt lat="47.518366" lon="8.506326">
<ele>405.9</ele>
<time>2003-05-17T12:25:20Z</time>
<speed>1.4</speed>
</trkpt>
<trkpt lat="47.518379" lon="8.506409">
<ele>405.9</ele>
<time>2003-05-17T12:25:25Z</time>
<speed>1.4</speed>
</trkpt>
<trkpt lat="47.518417" lon="8.506495">
<ele>406.0</ele>
<time>2003-05-17T12:25:30Z</time>
<speed>1.4</speed>
</trkpt>
<trkpt lat="47.518430" lon="8.506591">
<ele>406.1</ele>
<time>2003-05-17T12:25:35Z</time>
<speed>1.1</speed>
</trkpt>
<trkpt lat="47.518463" lon="8.506663">
<ele>406.9</ele>
<time>2003-05-17T12:25:40Z</time>
<speed>1.4</speed>
</trkpt>
<trkpt lat="47.518489" lon="8.506747">
<ele>406.9</ele>
<time>2003-05-17T12:25:45Z</time>
<speed>1.1</speed>
</trkpt>
<trkpt lat="47.518515" lon="8.506832">
<ele>407.0</ele>
<time>2003-05-17T12:25:50Z</time>
<speed>1.1</speed>
</trkpt>
<trkpt lat="47.518547" lon="8.506917">
<ele>407.8</ele>
<time>2003-05-17T12:25:55Z</time>
<speed>1.4</speed>
</trkpt>
<trkpt lat="47.518566" lon="8.506999">
<ele>408.5</ele>
<time>2003-05-17T12:26:00Z</time>
<speed>1.4</speed>
</trkpt>
<trkpt lat="47.518592" lon="8.507084">
<ele>408.6</ele>
<time>2003-05-17T12:26:05Z</time>
<speed>1.1</speed>
</trkpt>
<trkpt lat="47.518617" lon="8.507182">
<ele>408.8</ele>
<time>2003-05-17T12:26:10Z</time>
<speed>1.4</speed>
</trkpt>
<trkpt lat="47.518643" lon="8.507266">
<ele>408.9</ele>
<time>2003-05-17T12:26:15Z</time>
<speed>1.4</speed>
</trkpt>
<trkpt lat="47.518675" lon="8.507351">
<ele>409.7</ele>
<time>2003-05-17T12:26:20Z</time>
<speed>1.4</speed>
</trkpt>
<trkpt lat="47.518701" lon="8.507436">
<ele>409.7</ele>
<time>2003-05-17T12:26:25Z</time>
<speed>1.1</speed>
</trkpt>
<trkpt lat="47.518720" lon="8.507518">
<ele>410.5</ele>
<time>2003-05-17T12:26:30Z</time>
<speed>1.1</speed>
</trkpt>
<trkpt lat="47.518746" lon="8.507603">
<ele>410.5</ele>
<time>2003-05-17T12:26:35Z</time>
<speed>1.4</speed>
</trkpt>
<trkpt lat="47.518772" lon="8.507688">
<ele>410.6</ele>
<time>2003-05-17T12:26:40Z</time>
<speed>1.1</speed>
</trkpt>
<trkpt lat="47.518797" lon="8.507786">
<ele>410.8</ele>
<time>2003-05-17T12:26:45Z</time>
<speed>1.4</speed>
</trkpt>
<trkpt lat="47.518823" lon="8.507870">
<ele>410.9</ele>
<time>2003-05-17T12:26:50Z</time>
<speed>1.4</speed>
</trkpt>
<trkpt lat="47.518848" lon="8.507968">
<ele>411.0</ele>
<time>2003-05-17T12:26:55Z</time>
<speed>1.4</speed>
</trkpt>
<trkpt lat="47.518874" lon="8.508053">
<ele>411.1</ele>
<time>2003-05-17T12:27:00Z</time>
<speed>1.4</speed>
</trkpt>
<trkpt lat="47.518905" lon="8.508153">
<ele>410.6</ele>
<time>2003-05-17T12:27:05Z</time>
<speed>1.4</speed>
</trkpt>
<trkpt lat="47.518931" lon="8.508237">
<ele>410.7</ele>
<time>2003-05-17T12:27:10Z</time>
<speed>1.4</speed>
</trkpt>
<trkpt lat="47.518963" lon="8.508322">
<ele>411.5</ele>
<time>2003-05-17T12:27:15Z</time>
<speed>1.1</speed>
</trkpt>
<trkpt lat="47.518989" lon="8.508407">
<ele>411.5</ele>
<time>2003-05-17T12:27:20Z</time>
<speed>1.4</speed>
</trkpt>
<trkpt lat="47.519029" lon="8.508480">
<ele>411.6</ele>
<time>2003-05-17T12:27:25Z</time>
<speed>1.4</speed>
</trkpt>
<trkpt lat="47.519055" lon="8.508565">
<ele>411.7</ele>
<time>2003-05-17T12:27:30Z</time>
<speed>1.4</speed>
</trkpt>
<trkpt lat="47.519080" lon="8.508663">
<ele>411.8</ele>
<time>2003-05-17T12:27:35Z</time>
<speed>1.7</speed>
</trkpt>
<trkpt lat="47.519104" lon="8.508774">
<ele>412.1</ele>
<time>2003-05-17T12:27:40Z</time>
<speed>1.4</speed>
</trkpt>
<trkpt lat="47.519116" lon="8.508869">
<ele>412.2</ele>
<time>2003-05-17T12:27:45Z</time>
<speed>1.4</speed>
</trkpt>
<trkpt lat="47.519135" lon="8.508952">
<ele>412.9</ele>
<time>2003-05-17T12:27:50Z</time>
<speed>1.4</speed>
</trkpt>
<trkpt lat="47.519160" lon="8.509050">
<ele>413.1</ele>
<time>2003-05-17T12:27:55Z</time>
<speed>1.4</speed>
</trkpt>
<trkpt lat="47.519200" lon="8.509123">
<ele>413.1</ele>
<time>2003-05-17T12:28:00Z</time>
<speed>1.4</speed>
</trkpt>
<trkpt lat="47.519219" lon="8.509206">
<ele>413.9</ele>
<time>2003-05-17T12:28:05Z</time>
<speed>1.4</speed>
</trkpt>
<trkpt lat="47.519245" lon="8.509291">
<ele>414.0</ele>
<time>2003-05-17T12:28:10Z</time>
<speed>1.4</speed>
</trkpt>
<trkpt lat="47.519263" lon="8.509400">
<ele>414.9</ele>
<time>2003-05-17T12:28:15Z</time>
<speed>1.4</speed>
</trkpt>
<trkpt lat="47.519288" lon="8.509498">
<ele>415.1</ele>
<time>2003-05-17T12:28:20Z</time>
<speed>1.4</speed>
</trkpt>
<trkpt lat="47.519320" lon="8.509584">
<ele>414.5</ele>
<time>2003-05-17T12:28:25Z</time>
<speed>1.4</speed>
</trkpt>
<trkpt lat="47.519339" lon="8.509667">
<ele>415.2</ele>
<time>2003-05-17T12:28:30Z</time>
<speed>1.4</speed>
</trkpt>
<trkpt lat="47.519371" lon="8.509752">
<ele>416.0</ele>
<time>2003-05-17T12:28:35Z</time>
<speed>1.1</speed>
</trkpt>
<trkpt lat="47.519398" lon="8.509823">
<ele>416.0</ele>
<time>2003-05-17T12:28:40Z</time>
<speed>1.4</speed>
</trkpt>
<trkpt lat="47.519419" lon="8.509893">
<ele>416.6</ele>
<time>2003-05-17T12:28:45Z</time>
<speed>1.1</speed>
</trkpt>
<trkpt lat="47.519439" lon="8.509962">
<ele>417.3</ele>
<time>2003-05-17T12:28:50Z</time>
<speed>1.1</speed>
</trkpt>
<trkpt lat="47.519459" lon="8.510045">
<ele>418.0</ele>
<time>2003-05-17T12:28:55Z</time>
<speed>1.4</speed>
</trkpt>
<trkpt lat="47.519484" lon="8.510130">
<ele>418.1</ele>
<time>2003-05-17T12:29:00Z</time>
<speed>1.4</speed>
</trkpt>
<trkpt lat="47.519497" lon="8.510226">
<ele>418.2</ele>
<time>2003-05-17T12:29:05Z</time>
<speed>1.4</speed>
</trkpt>
<trkpt lat="47.519509" lon="8.510321">
<ele>418.3</ele>
<time>2003-05-17T12:29:10Z</time>
<speed>1.4</speed>
</trkpt>
<trkpt lat="47.519514" lon="8.510428">
<ele>419.1</ele>
<time>2003-05-17T12:29:15Z</time>
<speed>1.7</speed>
</trkpt>
<trkpt lat="47.519519" lon="8.510537">
<ele>418.6</ele>
<time>2003-05-17T12:29:20Z</time>
<speed>1.4</speed>
</trkpt>
<trkpt lat="47.519533" lon="8.510607">
<ele>418.5</ele>
<time>2003-05-17T12:29:25Z</time>
<speed>1.4</speed>
</trkpt>
<trkpt lat="47.519554" lon="8.510677">
<ele>419.2</ele>
<time>2003-05-17T12:29:30Z</time>
<speed>1.4</speed>
</trkpt>
<trkpt lat="47.519561" lon="8.510759">
<ele>418.4</ele>
<time>2003-05-17T12:29:35Z</time>
<speed>1.4</speed>
</trkpt>
<trkpt lat="47.519574" lon="8.510842">
<ele>418.4</ele>
<time>2003-05-17T12:29:40Z</time>
<speed>1.4</speed>
</trkpt>
<trkpt lat="47.519587" lon="8.510938">
<ele>418.5</ele>
<time>2003-05-17T12:29:45Z</time>
<speed>1.1</speed>
</trkpt>
<trkpt lat="47.519600" lon="8.511020">
<ele>418.5</ele>
<time>2003-05-17T12:29:50Z</time>
<speed>1.1</speed>
</trkpt>
<trkpt lat="47.519601" lon="8.511101">
<ele>418.5</ele>
<time>2003-05-17T12:29:55Z</time>
<speed>1.4</speed>
</trkpt>
<trkpt lat="47.519612" lon="8.511195">
<ele>420.0</ele>
<time>2003-05-17T12:30:00Z</time>
<speed>1.1</speed>
</trkpt>
<trkpt lat="47.519625" lon="8.511291">
<ele>420.1</ele>
<time>2003-05-17T12:30:05Z</time>
<speed>1.1</speed>
</trkpt>
<trkpt lat="47.519631" lon="8.511387">
<ele>419.4</ele>
<time>2003-05-17T12:30:10Z</time>
<speed>1.4</speed>
</trkpt>
<trkpt lat="47.519644" lon="8.511470">
<ele>419.4</ele>
<time>2003-05-17T12:30:15Z</time>
<speed>1.1</speed>
</trkpt>
<trkpt lat="47.519650" lon="8.511563">
<ele>420.2</ele>
<time>2003-05-17T12:30:20Z</time>
<speed>1.4</speed>
</trkpt>
<trkpt lat="47.519657" lon="8.511644">
<ele>420.9</ele>
<time>2003-05-17T12:30:25Z</time>
<speed>1.4</speed>
</trkpt>
<trkpt lat="47.519669" lon="8.511740">
<ele>421.0</ele>
<time>2003-05-17T12:30:30Z</time>
<speed>1.4</speed>
</trkpt>
<trkpt lat="47.519674" lon="8.511849">
<ele>420.4</ele>
<time>2003-05-17T12:30:35Z</time>
<speed>1.4</speed>
</trkpt>
<trkpt lat="47.519688" lon="8.511932">
<ele>420.4</ele>
<time>2003-05-17T12:30:40Z</time>
<speed>1.4</speed>
</trkpt>
<trkpt lat="47.519700" lon="8.512028">
<ele>420.5</ele>
<time>2003-05-17T12:30:45Z</time>
<speed>1.4</speed>
</trkpt>
<trkpt lat="47.519700" lon="8.512121">
<ele>420.6</ele>
<time>2003-05-17T12:30:50Z</time>
<speed>1.4</speed>
</trkpt>
<trkpt lat="47.519705" lon="8.512228">
<ele>421.4</ele>
<time>2003-05-17T12:30:55Z</time>
<speed>1.7</speed>
</trkpt>
<trkpt lat="47.519717" lon="8.512324">
<ele>421.5</ele>
<time>2003-05-17T12:31:00Z</time>
<speed>1.4</speed>
</trkpt>
<trkpt lat="47.519717" lon="8.512418">
<ele>421.6</ele>
<time>2003-05-17T12:31:05Z</time>
<speed>1.7</speed>
</trkpt>
<trkpt lat="47.519716" lon="8.512512">
<ele>421.6</ele>
<time>2003-05-17T12:31:10Z</time>
<speed>1.4</speed>
</trkpt>
<trkpt lat="47.519729" lon="8.512595">
<ele>421.6</ele>
<time>2003-05-17T12:31:15Z</time>
<speed>1.4</speed>
</trkpt>
<trkpt lat="47.519749" lon="8.512679">
<ele>420.9</ele>
<time>2003-05-17T12:31:20Z</time>
<speed>1.4</speed>
</trkpt>
<trkpt lat="47.519769" lon="8.512762">
<ele>421.7</ele>
<time>2003-05-17T12:31:25Z</time>
<speed>1.4</speed>
</trkpt>
<trkpt lat="47.519788" lon="8.512845">
<ele>422.4</ele>
<time>2003-05-17T12:31:30Z</time>
<speed>1.4</speed>
</trkpt>
<trkpt lat="47.519813" lon="8.512943">
<ele>422.6</ele>
<time>2003-05-17T12:31:35Z</time>
<speed>1.4</speed>
</trkpt>
<trkpt lat="47.519847" lon="8.513016">
<ele>421.9</ele>
<time>2003-05-17T12:31:40Z</time>
<speed>1.4</speed>
</trkpt>
<trkpt lat="47.519879" lon="8.513101">
<ele>422.7</ele>
<time>2003-05-17T12:31:45Z</time>
<speed>1.4</speed>
</trkpt>
<trkpt lat="47.519905" lon="8.513170">
<ele>424.1</ele>
<time>2003-05-17T12:31:50Z</time>
<speed>1.4</speed>
</trkpt>
<trkpt lat="47.519938" lon="8.513242">
<ele>424.8</ele>
<time>2003-05-17T12:31:55Z</time>
<speed>1.1</speed>
</trkpt>
<trkpt lat="47.519984" lon="8.513315">
<ele>425.6</ele>
<time>2003-05-17T12:32:00Z</time>
<speed>1.1</speed>
</trkpt>
<trkpt lat="47.520017" lon="8.513387">
<ele>426.3</ele>
<time>2003-05-17T12:32:05Z</time>
<speed>1.1</speed>
</trkpt>
<trkpt lat="47.520065" lon="8.513421">
<ele>426.7</ele>
<time>2003-05-17T12:32:10Z</time>
<speed>1.1</speed>
</trkpt>
<trkpt lat="47.520104" lon="8.513508">
<ele>426.9</ele>
<time>2003-05-17T12:32:15Z</time>
<speed>1.1</speed>
</trkpt>
<trkpt lat="47.520138" lon="8.513568">
<ele>426.1</ele>
<time>2003-05-17T12:32:20Z</time>
<speed>1.1</speed>
</trkpt>
<trkpt lat="47.520165" lon="8.513640">
<ele>426.1</ele>
<time>2003-05-17T12:32:25Z</time>
<speed>1.4</speed>
</trkpt>
<trkpt lat="47.520219" lon="8.513689">
<ele>426.0</ele>
<time>2003-05-17T12:32:30Z</time>
<speed>1.1</speed>
</trkpt>
<trkpt lat="47.520277" lon="8.513686">
<ele>425.5</ele>
<time>2003-05-17T12:32:35Z</time>
<speed>1.4</speed>
</trkpt>
<trkpt lat="47.520332" lon="8.513641">
<ele>425.4</ele>
<time>2003-05-17T12:32:40Z</time>
<speed>1.1</speed>
</trkpt>
<trkpt lat="47.520373" lon="8.513607">
<ele>425.3</ele>
<time>2003-05-17T12:32:45Z</time>
<speed>1.4</speed>
</trkpt>
<trkpt lat="47.520427" lon="8.513563">
<ele>425.1</ele>
<time>2003-05-17T12:32:50Z</time>
<speed>1.1</speed>
</trkpt>
<trkpt lat="47.520508" lon="8.513511">
<ele>423.7</ele>
<time>2003-05-17T12:32:55Z</time>
<speed>1.4</speed>
</trkpt>
<trkpt lat="47.520564" lon="8.513455">
<ele>422.0</ele>
<time>2003-05-17T12:33:00Z</time>
<speed>1.4</speed>
</trkpt>
<trkpt lat="47.520619" lon="8.513410">
<ele>421.9</ele>
<time>2003-05-17T12:33:05Z</time>
<speed>1.4</speed>
</trkpt>
<trkpt lat="47.520675" lon="8.513355">
<ele>420.3</ele>
<time>2003-05-17T12:33:10Z</time>
<speed>1.4</speed>
</trkpt>
<trkpt lat="47.520736" lon="8.513297">
<ele>420.8</ele>
<time>2003-05-17T12:33:15Z</time>
<speed>1.4</speed>
</trkpt>
<trkpt lat="47.520791" lon="8.513254">
<ele>419.3</ele>
<time>2003-05-17T12:33:20Z</time>
<speed>1.4</speed>
</trkpt>
<trkpt lat="47.520853" lon="8.513196">
<ele>419.8</ele>
<time>2003-05-17T12:33:25Z</time>
<speed>1.4</speed>
</trkpt>
<trkpt lat="47.520907" lon="8.513152">
<ele>419.7</ele>
<time>2003-05-17T12:33:30Z</time>
<speed>1.1</speed>
</trkpt>
<trkpt lat="47.520970" lon="8.513083">
<ele>418.7</ele>
<time>2003-05-17T12:33:35Z</time>
<speed>1.7</speed>
</trkpt>
<trkpt lat="47.521026" lon="8.513025">
<ele>418.5</ele>
<time>2003-05-17T12:33:40Z</time>
<speed>1.4</speed>
</trkpt>
<trkpt lat="47.521094" lon="8.512969">
<ele>418.3</ele>
<time>2003-05-17T12:33:45Z</time>
<speed>1.7</speed>
</trkpt>
<trkpt lat="47.521148" lon="8.512924">
<ele>418.2</ele>
<time>2003-05-17T12:33:50Z</time>
<speed>1.4</speed>
</trkpt>
<trkpt lat="47.521197" lon="8.512865">
<ele>418.6</ele>
<time>2003-05-17T12:33:55Z</time>
<speed>1.4</speed>
</trkpt>
<trkpt lat="47.521258" lon="8.512807">
<ele>419.2</ele>
<time>2003-05-17T12:34:00Z</time>
<speed>1.1</speed>
</trkpt>
<trkpt lat="47.521300" lon="8.512760">
<ele>419.0</ele>
<time>2003-05-17T12:34:05Z</time>
<speed>1.1</speed>
</trkpt>
<trkpt lat="47.521356" lon="8.512702">
<ele>418.7</ele>
<time>2003-05-17T12:34:10Z</time>
<speed>1.7</speed>
</trkpt>
<trkpt lat="47.521411" lon="8.512645">
<ele>418.5</ele>
<time>2003-05-17T12:34:15Z</time>
<speed>1.1</speed>
</trkpt>
<trkpt lat="47.521466" lon="8.512600">
<ele>418.4</ele>
<time>2003-05-17T12:34:20Z</time>
<speed>1.4</speed>
</trkpt>
<trkpt lat="47.521521" lon="8.512542">
<ele>418.2</ele>
<time>2003-05-17T12:34:25Z</time>
<speed>1.4</speed>
</trkpt>
<trkpt lat="47.521577" lon="8.512484">
<ele>418.0</ele>
<time>2003-05-17T12:34:30Z</time>
<speed>1.1</speed>
</trkpt>
<trkpt lat="47.521625" lon="8.512425">
<ele>418.4</ele>
<time>2003-05-17T12:34:35Z</time>
<speed>1.4</speed>
</trkpt>
<trkpt lat="47.521675" lon="8.512367">
<ele>417.4</ele>
<time>2003-05-17T12:34:40Z</time>
<speed>1.1</speed>
</trkpt>
<trkpt lat="47.521731" lon="8.512296">
<ele>417.1</ele>
<time>2003-05-17T12:34:45Z</time>
<speed>1.1</speed>
</trkpt>
<trkpt lat="47.521767" lon="8.512249">
<ele>416.2</ele>
<time>2003-05-17T12:34:50Z</time>
<speed>0.8</speed>
</trkpt>
<trkpt lat="47.521816" lon="8.512192">
<ele>415.2</ele>
<time>2003-05-17T12:34:55Z</time>
<speed>1.1</speed>
</trkpt>
<trkpt lat="47.521858" lon="8.512145">
<ele>415.0</ele>
<time>2003-05-17T12:35:00Z</time>
<speed>0.8</speed>
</trkpt>
<trkpt lat="47.521913" lon="8.512085">
<ele>416.2</ele>
<time>2003-05-17T12:35:05Z</time>
<speed>1.1</speed>
</trkpt>
<trkpt lat="47.521974" lon="8.512040">
<ele>416.8</ele>
<time>2003-05-17T12:35:10Z</time>
<speed>1.4</speed>
</trkpt>
<trkpt lat="47.522042" lon="8.512065">
<ele>416.6</ele>
<time>2003-05-17T12:35:15Z</time>
<speed>1.1</speed>
</trkpt>
<trkpt lat="47.522090" lon="8.512115">
<ele>415.8</ele>
<time>2003-05-17T12:35:20Z</time>
<speed>1.1</speed>
</trkpt>
<trkpt lat="47.522144" lon="8.512177">
<ele>415.8</ele>
<time>2003-05-17T12:35:25Z</time>
<speed>1.1</speed>
</trkpt>
<trkpt lat="47.522177" lon="8.512250">
<ele>415.1</ele>
<time>2003-05-17T12:35:30Z</time>
<speed>0.8</speed>
</trkpt>
<trkpt lat="47.522230" lon="8.512313">
<ele>415.1</ele>
<time>2003-05-17T12:35:35Z</time>
<speed>1.4</speed>
</trkpt>
<trkpt lat="47.522276" lon="8.512388">
<ele>414.5</ele>
<time>2003-05-17T12:35:40Z</time>
<speed>1.1</speed>
</trkpt>
<trkpt lat="47.522335" lon="8.512466">
<ele>413.9</ele>
<time>2003-05-17T12:35:45Z</time>
<speed>1.4</speed>
</trkpt>
<trkpt lat="47.522394" lon="8.512528">
<ele>414.7</ele>
<time>2003-05-17T12:35:50Z</time>
<speed>1.4</speed>
</trkpt>
<trkpt lat="47.522447" lon="8.512604">
<ele>414.8</ele>
<time>2003-05-17T12:35:55Z</time>
<speed>1.1</speed>
</trkpt>
<trkpt lat="47.522508" lon="8.512640">
<ele>415.3</ele>
<time>2003-05-17T12:36:00Z</time>
<speed>1.4</speed>
</trkpt>
<trkpt lat="47.522562" lon="8.512689">
<ele>415.3</ele>
<time>2003-05-17T12:36:05Z</time>
<speed>1.1</speed>
</trkpt>
<trkpt lat="47.522631" lon="8.512716">
<ele>413.6</ele>
<time>2003-05-17T12:36:10Z</time>
<speed>1.4</speed>
</trkpt>
<trkpt lat="47.522702" lon="8.512714">
<ele>413.2</ele>
<time>2003-05-17T12:36:15Z</time>
<speed>1.4</speed>
</trkpt>
<trkpt lat="47.522760" lon="8.512711">
<ele>412.7</ele>
<time>2003-05-17T12:36:20Z</time>
<speed>1.1</speed>
</trkpt>
<trkpt lat="47.522824" lon="8.512723">
<ele>411.7</ele>
<time>2003-05-17T12:36:25Z</time>
<speed>1.4</speed>
</trkpt>
<trkpt lat="47.522881" lon="8.512718">
<ele>412.6</ele>
<time>2003-05-17T12:36:30Z</time>
<speed>0.8</speed>
</trkpt>
<trkpt lat="47.522939" lon="8.512714">
<ele>412.1</ele>
<time>2003-05-17T12:36:35Z</time>
<speed>1.1</speed>
</trkpt>
<trkpt lat="47.522979" lon="8.512694">
<ele>412.1</ele>
<time>2003-05-17T12:36:40Z</time>
<speed>0.8</speed>
</trkpt>
<trkpt lat="47.523033" lon="8.512662">
<ele>412.1</ele>
<time>2003-05-17T12:36:45Z</time>
<speed>1.4</speed>
</trkpt>
<trkpt lat="47.523100" lon="8.512701">
<ele>412.0</ele>
<time>2003-05-17T12:36:50Z</time>
<speed>1.1</speed>
</trkpt>
<trkpt lat="47.523149" lon="8.512737">
<ele>411.0</ele>
<time>2003-05-17T12:36:55Z</time>
<speed>1.1</speed>
</trkpt>
<trkpt lat="47.523205" lon="8.512773">
<ele>410.8</ele>
<time>2003-05-17T12:37:00Z</time>
<speed>1.1</speed>
</trkpt>
<trkpt lat="47.523273" lon="8.512798">
<ele>410.6</ele>
<time>2003-05-17T12:37:05Z</time>
<speed>1.7</speed>
</trkpt>
<trkpt lat="47.523336" lon="8.512823">
<ele>409.7</ele>
<time>2003-05-17T12:37:10Z</time>
<speed>1.4</speed>
</trkpt>
<trkpt lat="47.523397" lon="8.512859">
<ele>410.2</ele>
<time>2003-05-17T12:37:15Z</time>
<speed>1.4</speed>
</trkpt>
<trkpt lat="47.523450" lon="8.512921">
<ele>410.2</ele>
<time>2003-05-17T12:37:20Z</time>
<speed>1.1</speed>
</trkpt>
<trkpt lat="47.523498" lon="8.512970">
<ele>409.4</ele>
<time>2003-05-17T12:37:25Z</time>
<speed>1.1</speed>
</trkpt>
<trkpt lat="47.523557" lon="8.512967">
<ele>408.9</ele>
<time>2003-05-17T12:37:30Z</time>
<speed>1.1</speed>
</trkpt>
<trkpt lat="47.523614" lon="8.512979">
<ele>407.1</ele>
<time>2003-05-17T12:37:35Z</time>
<speed>1.1</speed>
</trkpt>
<trkpt lat="47.523683" lon="8.513004">
<ele>406.9</ele>
<time>2003-05-17T12:37:40Z</time>
<speed>1.4</speed>
</trkpt>
<trkpt lat="47.523729" lon="8.513079">
<ele>406.3</ele>
<time>2003-05-17T12:37:45Z</time>
<speed>1.4</speed>
</trkpt>
<trkpt lat="47.523738" lon="8.513134">
<ele>406.7</ele>
<time>2003-05-17T12:37:50Z</time>
<speed>0.6</speed>
</trkpt>
<trkpt lat="47.523725" lon="8.513210">
<ele>408.0</ele>
<time>2003-05-17T12:37:55Z</time>
<speed>1.1</speed>
</trkpt>
<trkpt lat="47.523709" lon="8.513340">
<ele>409.7</ele>
<time>2003-05-17T12:38:00Z</time>
<speed>1.1</speed>
</trkpt>
<trkpt lat="47.523768" lon="8.513402">
<ele>410.4</ele>
<time>2003-05-17T12:38:06Z</time>
<speed>1.1</speed>
</trkpt>
<trkpt lat="47.523807" lon="8.513489">
<ele>410.6</ele>
<time>2003-05-17T12:38:11Z</time>
<speed>1.1</speed>
</trkpt>
<trkpt lat="47.523855" lon="8.513538">
<ele>409.7</ele>
<time>2003-05-17T12:38:16Z</time>
<speed>0.8</speed>
</trkpt>
<trkpt lat="47.523894" lon="8.513612">
<ele>409.8</ele>
<time>2003-05-17T12:38:21Z</time>
<speed>1.4</speed>
</trkpt>
<trkpt lat="47.523928" lon="8.513670">
<ele>410.4</ele>
<time>2003-05-17T12:38:26Z</time>
<speed>0.8</speed>
</trkpt>
<trkpt lat="47.524010" lon="8.513697">
<ele>410.2</ele>
<time>2003-05-17T12:38:31Z</time>
<speed>0.8</speed>
</trkpt>
<trkpt lat="47.524071" lon="8.513733">
<ele>410.8</ele>
<time>2003-05-17T12:38:36Z</time>
<speed>1.4</speed>
</trkpt>
<trkpt lat="47.524141" lon="8.513745">
<ele>410.5</ele>
<time>2003-05-17T12:38:41Z</time>
<speed>1.1</speed>
</trkpt>
<trkpt lat="47.524209" lon="8.513768">
<ele>411.7</ele>
<time>2003-05-17T12:38:46Z</time>
<speed>1.1</speed>
</trkpt>
<trkpt lat="47.524272" lon="8.513779">
<ele>410.6</ele>
<time>2003-05-17T12:38:51Z</time>
<speed>1.1</speed>
</trkpt>
<trkpt lat="47.524314" lon="8.513812">
<ele>411.7</ele>
<time>2003-05-17T12:38:56Z</time>
<speed>0.8</speed>
</trkpt>
<trkpt lat="47.524317" lon="8.513866">
<ele>411.5</ele>
<time>2003-05-17T12:39:01Z</time>
<speed>0.8</speed>
</trkpt>
<trkpt lat="47.524290" lon="8.513923">
<ele>406.1</ele>
<time>2003-05-17T12:39:06Z</time>
<speed>1.1</speed>
</trkpt>
<trkpt lat="47.524290" lon="8.514016">
<ele>406.1</ele>
<time>2003-05-17T12:39:11Z</time>
<speed>1.4</speed>
</trkpt>
<trkpt lat="47.524291" lon="8.514084">
<ele>406.0</ele>
<time>2003-05-17T12:39:16Z</time>
<speed>1.1</speed>
</trkpt>
<trkpt lat="47.524279" lon="8.514163">
<ele>405.8</ele>
<time>2003-05-17T12:39:21Z</time>
<speed>0.8</speed>
</trkpt>
<trkpt lat="47.524261" lon="8.514240">
<ele>406.4</ele>
<time>2003-05-17T12:39:26Z</time>
<speed>0.8</speed>
</trkpt>
<trkpt lat="47.524273" lon="8.514336">
<ele>406.5</ele>
<time>2003-05-17T12:39:31Z</time>
<speed>1.1</speed>
</trkpt>
<trkpt lat="47.524274" lon="8.514416">
<ele>406.4</ele>
<time>2003-05-17T12:39:36Z</time>
<speed>0.8</speed>
</trkpt>
<trkpt lat="47.524275" lon="8.514499">
<ele>404.9</ele>
<time>2003-05-17T12:39:41Z</time>
<speed>0.8</speed>
</trkpt>
<trkpt lat="47.524251" lon="8.514561">
<ele>406.0</ele>
<time>2003-05-17T12:39:46Z</time>
<speed>0.8</speed>
</trkpt>
<trkpt lat="47.524214" lon="8.514621">
<ele>407.1</ele>
<time>2003-05-17T12:39:51Z</time>
<speed>0.8</speed>
</trkpt>
<trkpt lat="47.524164" lon="8.514691">
<ele>408.1</ele>
<time>2003-05-17T12:39:56Z</time>
<speed>1.1</speed>
</trkpt>
<trkpt lat="47.524133" lon="8.514753">
<ele>408.5</ele>
<time>2003-05-17T12:40:01Z</time>
<speed>1.1</speed>
</trkpt>
<trkpt lat="47.524083" lon="8.514824">
<ele>409.5</ele>
<time>2003-05-17T12:40:06Z</time>
<speed>1.4</speed>
</trkpt>
<trkpt lat="47.524035" lon="8.514871">
<ele>409.0</ele>
<time>2003-05-17T12:40:11Z</time>
<speed>0.8</speed>
</trkpt>
<trkpt lat="47.524013" lon="8.514906">
<ele>409.9</ele>
<time>2003-05-17T12:40:16Z</time>
<speed>0.6</speed>
</trkpt>
<trkpt lat="47.523993" lon="8.514917">
<ele>409.2</ele>
<time>2003-05-17T12:40:21Z</time>
<speed>0.3</speed>
</trkpt>
<trkpt lat="47.523993" lon="8.514917">
<ele>409.2</ele>
<time>2003-05-17T12:40:26Z</time>
<speed>0.0</speed>
</trkpt>
<trkpt lat="47.523993" lon="8.514917">
<ele>409.2</ele>
<time>2003-05-17T12:40:31Z</time>
<speed>0.0</speed>
</trkpt>
<trkpt lat="47.523993" lon="8.514917">
<ele>409.2</ele>
<time>2003-05-17T12:40:36Z</time>
<speed>0.0</speed>
</trkpt>
</trkseg>
</trk>
</gpx>
